GFSWCAN_sfc_wetblb_000.txt.gz
Wetbulb
49.50 49.17 48.88 48.69 49.16 49.19 49.37 49.15 49.71 49.03 48.81 49.01 49.01 49.03 49.19 49.54 51.45 53.50 52.30 52.69 49.74 45.50 46.01 48.69 47.78 44.28 43.91 42.18 38.18 42.30 40.23 38.51 32.14 29.22 25.97 25.99 23.31 30.05 29.12 31.89 31.06 29.93 25.06 22.66 21.61 15.81 21.65 36.32 37.64 33.10 37.14 36.25 38.99 39.13
48.95 48.42 48.32 48.52 48.57 48.84 48.73 48.63 49.29 50.12 48.60 48.26 47.85 47.70 48.21 49.73 51.10 53.50 52.77 54.72 51.96 48.03 47.01 49.56 49.77 49.30 48.37 47.13 44.26 41.23 42.08 40.38 38.49 32.52 25.06 30.56 30.03 31.99 26.01 26.57 34.34 29.22 30.90 27.38 28.50 28.34 35.34 37.80 37.85 39.35 39.44 38.51 39.41 39.37
48.34 48.28 48.45 48.46 48.37 48.57 48.73 48.53 48.17 49.11 46.93 48.17 48.78 49.41 49.47 50.51 51.36 53.33 52.33 49.52 47.75 43.17 45.12 46.93 46.47 50.44 52.07 50.32 49.40 43.18 40.05 43.87 40.23 38.35 31.96 27.53 25.80 30.19 27.61 29.33 29.30 34.89 36.28 30.25 32.26 36.19 37.04 38.52 39.89 40.85 41.49 40.39 41.01 41.08
48.14 48.11 48.20 48.32 48.34 48.38 48.25 47.83 46.55 47.18 48.66 48.94 49.55 50.00 50.16 50.67 51.19 51.94 50.58 49.00 45.55 41.16 36.08 41.75 49.11 48.56 51.31 51.78 50.12 48.20 45.99 43.22 41.01 38.60 32.54 33.18 26.73 33.94 25.48 31.38 29.86 34.70 37.27 34.09 32.87 37.39 37.70 39.83 41.00 41.76 42.05 42.27 41.74 41.84
47.91 47.75 47.97 47.99 48.15 48.10 47.18 46.75 46.94 47.97 48.74 49.31 49.68 50.23 49.87 51.20 51.32 51.20 49.68 48.71 48.96 45.01 36.95 37.36 45.90 47.55 49.39 50.15 48.54 47.81 46.27 43.64 39.33 34.09 30.87 31.91 28.85 33.27 33.69 32.32 31.03 37.11 35.86 31.81 31.42 38.58 37.82 38.18 40.32 42.02 42.10 42.16 42.22 41.00
47.85 47.70 47.54 47.58 47.49 46.65 46.58 46.93 47.20 47.90 48.19 48.53 48.81 49.44 49.80 50.10 50.10 45.28 42.80 48.32 49.69 46.95 41.46 36.29 41.87 43.77 46.40 48.34 48.23 47.37 46.29 43.05 41.07 37.92 32.16 33.60 38.03 34.58 33.33 30.94 38.41 39.50 40.64 39.99 38.51 39.21 39.70 40.06 41.86 42.43 42.51 42.24 41.88 38.73
47.07 47.27 47.20 47.29 47.41 46.82 46.06 46.89 47.22 47.83 48.33 48.60 48.99 49.14 49.43 49.52 49.65 43.76 40.35 46.02 47.83 45.95 39.57 35.69 34.65 40.54 42.57 44.87 42.93 43.71 44.41 42.52 41.29 37.47 33.40 31.08 36.06 37.16 33.36 28.55 39.93 40.70 42.38 42.51 42.54 41.41 39.60 40.24 41.34 41.83 42.15 39.65 36.13 34.24
46.43 46.57 46.75 46.86 47.14 47.16 46.44 46.04 46.69 47.72 48.69 48.83 48.65 48.81 49.14 49.27 49.17 47.68 48.44 47.68 47.38 42.77 39.26 33.25 32.94 35.21 42.63 37.21 37.38 42.23 38.27 41.01 40.35 36.89 37.00 34.37 36.54 35.12 33.71 37.64 39.46 41.36 42.12 42.13 42.15 42.31 40.86 41.28 37.16 33.73 34.21 33.95 32.79 32.73
45.35 45.58 45.76 46.28 46.73 47.02 46.87 46.22 46.64 48.03 49.05 48.15 47.97 48.42 48.67 47.40 46.20 47.38 47.70 47.29 47.50 44.41 35.66 34.71 33.13 32.93 40.79 37.85 36.63 37.85 39.96 33.74 39.34 36.24 35.55 38.22 33.21 33.76 35.76 35.93 37.86 39.25 39.03 39.84 39.97 40.45 38.64 34.01 32.96 33.30 33.75 33.89 32.74 31.87
45.42 45.38 45.49 45.76 46.15 46.82 47.04 46.24 47.25 48.65 48.33 47.62 46.59 42.56 39.68 44.42 47.82 47.34 44.65 40.15 39.17 38.40 40.06 33.75 37.27 34.78 41.93 34.13 34.13 34.73 34.11 34.61 34.62 35.51 38.56 34.31 34.29 36.13 34.84 35.60 36.46 37.28 39.27 40.10 36.83 33.80 32.61 32.32 32.95 34.56 33.94 33.41 33.10 33.90
45.48 45.55 45.76 46.19 46.64 46.93 47.09 47.45 47.41 48.00 47.67 43.88 40.59 38.66 44.74 46.15 43.60 37.67 34.61 34.45 37.53 35.96 37.58 36.77 35.35 35.15 40.04 35.85 34.67 34.28 33.01 32.85 31.96 31.69 35.17 32.56 31.79 31.13 31.40 32.39 34.60 35.78 36.34 35.77 36.03 36.33 37.06 36.68 35.15 34.43 33.72 33.64 34.24 34.04
45.63 45.24 45.13 45.22 45.55 46.10 46.61 46.80 46.66 44.87 42.76 43.18 44.14 43.69 40.85 38.58 36.19 34.06 32.62 33.74 34.96 32.87 34.63 35.74 35.74 38.45 36.29 38.29 35.82 34.46 33.48 32.45 30.96 33.96 32.66 29.62 29.84 30.04 32.69 33.58 36.01 36.64 35.72 35.22 36.54 35.93 36.18 36.46 36.83 35.12 33.79 31.70 29.69 29.20
44.98 45.03 45.07 44.96 44.92 45.42 45.58 45.60 45.59 45.42 43.85 41.42 38.17 34.34 37.60 34.08 33.49 31.86 31.34 32.42 32.27 32.66 33.75 33.40 33.93 33.39 36.08 37.01 33.93 33.19 32.47 31.60 32.74 31.35 30.05 30.03 33.05 36.99 37.62 35.73 33.36 35.16 35.30 35.19 35.31 35.59 34.06 30.52 29.72 28.71 28.95 28.19 27.48 28.62
44.59 44.45 44.49 44.67 44.97 44.80 44.65 45.22 44.92 43.70 41.68 36.17 34.48 32.56 31.91 30.78 29.86 29.68 30.78 31.52 31.91 32.30 32.48 32.85 32.48 33.03 32.48 33.18 32.11 31.76 31.17 31.00 28.94 23.58 21.40 31.55 34.93 35.67 32.52 32.13 31.41 30.98 32.03 32.99 30.69 29.38 28.27 28.32 28.04 27.19 26.70 26.59 25.19 26.76
44.37 43.96 43.92 43.80 44.49 44.72 44.39 43.46 42.83 40.48 36.40 31.90 32.16 27.49 27.95 29.86 31.52 31.71 31.95 32.30 32.66 33.87 33.03 32.83 32.62 34.01 31.89 31.25 30.60 28.84 25.35 21.05 20.41 18.81 30.25 32.42 35.15 34.81 30.04 29.78 30.06 29.90 26.57 28.81 29.91 28.00 26.59 25.65 24.54 26.13 25.44 24.07 25.86 25.66
43.55 42.71 41.68 43.75 44.29 44.43 43.83 41.29 37.22 35.11 30.42 30.72 31.11 29.23 30.61 30.86 30.82 31.95 31.97 32.15 34.97 33.21 33.03 33.15 31.50 29.79 28.52 29.09 25.66 22.79 21.08 19.49 25.84 31.00 32.29 33.84 33.17 31.30 32.44 31.82 31.78 32.73 32.09 32.16 30.31 28.81 28.00 24.92 24.74 26.57 25.99 24.18 22.36 22.00
42.34 38.67 42.42 43.52 43.68 42.53 42.49 36.95 32.88 30.47 29.59 31.58 30.04 32.14 30.90 31.79 31.76 31.97 32.33 33.78 35.45 33.18 30.42 29.11 25.47 24.66 28.77 23.95 24.50 29.32 26.27 29.41 32.27 32.74 33.30 34.00 33.76 31.64 33.03 33.18 30.54 30.68 31.70 30.91 29.30 29.99 27.46 24.78 23.50 25.05 27.20 29.52 27.11 25.37
36.78 38.32 42.51 43.16 41.91 39.65 36.42 33.12 28.34 29.19 29.66 30.42 29.61 30.46 31.70 31.92 32.15 32.14 32.30 32.65 30.47 32.19 30.05 25.59 29.95 20.16 17.81 18.22 19.84 28.63 30.55 27.95 29.14 29.64 30.05 31.10 31.77 31.62 31.58 30.59 30.71 30.56 30.32 27.37 26.36 27.69 25.57 25.52 26.50 27.13 27.33 27.84 26.42 26.36
39.13 40.51 41.92 41.86 39.63 32.90 30.65 32.06 31.23 25.30 28.63 30.07 30.21 30.01 30.78 30.78 30.86 31.52 32.11 32.47 28.97 25.80 26.33 21.45 19.23 19.27 20.69 23.03 23.06 32.18 30.64 31.46 26.77 26.88 26.91 30.03 30.06 29.84 31.20 31.60 31.12 29.84 28.89 28.79 28.32 27.01 26.66 27.72 26.98 26.65 26.16 26.70 26.43 27.94
41.48 41.30 40.50 40.27 39.24 29.98 28.72 28.37 32.25 27.72 27.95 28.98 30.02 29.02 29.02 29.16 30.27 31.33 31.99 32.45 28.97 25.23 22.77 20.88 21.37 22.45 23.11 22.64 23.29 23.56 31.45 32.02 24.81 21.66 23.57 26.12 29.64 30.46 29.34 29.01 27.58 27.69 27.13 27.74 27.54 26.57 26.10 25.11 24.98 24.99 23.75 23.71 23.61 23.92
37.07 37.90 38.21 35.05 31.28 30.92 28.82 28.06 28.41 29.16 30.29 28.37 28.52 28.70 27.21 29.27 28.99 29.17 29.99 31.10 31.05 29.00 23.34 22.79 16.23 20.91 28.92 28.45 24.96 25.13 28.54 26.90 25.54 23.88 23.70 27.03 27.27 26.60 25.83 25.03 24.42 24.56 23.81 22.51 21.99 22.23 21.43 21.35 20.40 18.30 15.56 15.94 18.50 20.91
34.83 38.28 29.13 32.30 29.03 31.77 28.24 30.36 29.87 29.19 28.83 28.61 28.27 28.69 26.45 25.53 26.19 27.76 29.27 28.35 28.27 28.14 27.49 25.03 25.48 29.40 30.30 28.28 28.33 29.67 29.40 29.07 28.61 27.80 25.71 24.65 23.78 23.51 21.19 20.11 20.03 18.67 19.42 18.17 17.75 12.32 11.18 15.27 14.50 13.34 11.87 12.52 16.76 17.48
36.87 32.64 28.30 26.88 20.95 18.89 24.19 32.34 28.27 25.34 25.31 23.92 28.20 26.19 25.23 25.41 25.95 28.41 25.15 27.77 27.76 30.51 30.80 30.94 29.40 29.28 27.62 27.36 26.60 26.96 26.71 24.39 22.15 21.51 21.09 22.62 21.86 20.37 17.58 15.27 13.71 10.96 11.38 13.67 14.78 11.29 9.45 8.31 9.53 8.32 9.56 10.23 10.23 10.35
35.11 27.51 22.54 21.67 21.57 15.09 27.50 26.05 28.33 26.70 25.59 18.53 16.91 19.42 20.60 23.45 25.58 24.14 22.43 24.94 28.49 29.15 29.09 29.47 28.29 26.11 25.70 24.00 22.27 21.71 23.58 24.10 21.97 19.83 21.33 22.45 19.16 17.79 16.49 14.18 11.80 10.36 9.34 9.97 8.80 5.06 5.55 1.39 3.96 6.46 5.76 5.91 6.50 7.27
18.41 23.42 22.82 21.93 26.21 13.72 19.94 20.84 22.92 23.87 21.24 12.25 21.42 12.90 19.79 18.39 19.90 19.14 20.19 20.83 24.50 25.19 25.84 28.21 27.38 26.03 21.95 20.79 20.51 19.64 20.27 22.65 19.66 15.71 14.98 15.48 12.01 11.71 11.33 11.91 9.16 10.03 8.50 2.45 1.35 1.71 1.81 1.70 2.33 1.93 3.75 3.69 5.34 7.46
15.49 20.55 23.18 22.42 22.43 21.54 11.30 12.14 15.64 21.53 19.96 14.88 14.83 17.53 14.29 13.61 10.89 14.33 19.37 20.09 23.83 23.14 23.52 23.68 23.03 20.80 20.01 20.97 18.49 17.05 15.91 17.19 17.83 12.68 12.30 12.08 9.12 1.25 -1.06 -1.40 -0.22 0.83 5.10 -3.93 -3.74 -3.93 -0.59 0.51 -0.48 -1.48 1.60 3.47 5.22 2.47
15.06 15.16 21.85 27.43 26.12 23.55 17.41 16.33 18.50 20.80 18.45 19.94 18.78 19.42 20.00 14.43 15.32 18.34 22.31 21.47 21.87 21.08 23.10 23.52 23.26 20.24 17.44 15.21 14.06 12.74 12.42 13.00 12.58 11.99 11.68 10.89 9.91 7.98 -0.43 -6.10 -4.65 1.65 2.87 -0.36 -7.01 -8.28 -4.29 -0.91 -0.29 0.39 2.85 3.38 -2.69 0.38
19.67 24.87 16.91 16.18 23.20 22.94 22.08 16.88 15.22 19.89 22.96 24.03 20.96 18.35 18.18 16.50 14.25 17.68 19.65 21.71 20.04 18.81 16.97 15.50 15.97 14.38 11.74 10.30 9.49 8.62 10.64 10.21 9.90 9.16 6.98 5.12 3.71 -3.03 -4.66 -6.64 -5.41 4.95 -4.13 -9.91 -11.72 -6.64 -6.10 -0.56 1.48 3.21 2.10 -0.85 -7.19 -10.27
21.96 23.73 23.72 17.71 17.86 20.57 20.23 18.63 19.19 23.05 25.74 24.48 20.75 17.23 14.57 13.90 12.40 11.70 16.00 18.57 18.06 15.61 11.90 10.15 9.53 9.84 8.90 7.56 4.68 2.39 -0.01 -3.03 -3.92 -6.56 -9.73 -12.45 -12.26 -5.54 -7.38 -12.26 -11.72 -9.40 -11.54 -12.08 -1.39 4.40 4.63 5.11 1.33 -6.28 -9.55 -7.73 -5.01 -5.74
21.11 18.52 16.65 10.43 17.12 15.85 21.94 19.36 20.54 20.85 21.34 19.91 18.82 16.62 12.55 9.58 11.52 13.60 13.48 13.22 10.47 7.21 5.84 3.88 3.18 3.90 -1.23 -1.99 -6.28 -4.11 -8.46 -13.17 -10.86 -7.48 -11.72 -13.71 -8.66 -7.05 -14.98 -12.81 -10.27 -8.09 -9.18 -12.99 -11.36 -9.34 -4.11 -10.81 -9.01 -12.85 -13.45 -13.94 -15.18 -16.62
25.52 25.24 22.43 20.08 16.79 22.62 21.48 26.46 26.98 26.71 25.02 16.68 16.93 12.52 8.08 4.77 7.45 9.87 7.38 6.18 5.62 4.89 2.39 -5.01 -6.46 -14.62 -9.91 -11.54 -12.81 -11.72 -8.65 -10.48 -13.90 -10.09 -9.73 -11.36 -12.08 -15.17 -15.35 -12.26 -12.63 -13.90 -17.88 -20.42 -20.79 -19.52 -17.34 -18.43 -20.97 -21.15 -19.70 -18.07 -17.35 -18.97
22.92 18.99 14.18 13.60 13.86 15.08 14.64 14.27 9.48 12.39 17.00 18.98 11.46 6.76 -0.92 0.25 -3.21 2.79 3.20 -0.99 -0.66 -4.74 -5.92 -15.17 -10.81 -7.19 -10.09 -11.54 -15.17 -15.71 -8.09 -12.63 -13.17 -13.53 -13.17 -11.36 -11.00 -13.90 -13.35 -13.17 -18.07 -20.97 -20.79 -20.60 -21.15 -20.79 -20.60 -20.79 -21.51 -21.87 -22.24 -21.87 -21.87 -20.79
6.11 6.56 7.08 8.22 13.62 13.08 4.50 1.72 -1.36 4.05 11.83 12.46 1.60 -0.03 -2.69 -0.50 -1.68 0.78 3.51 -2.00 -1.71 -4.14 -8.33 -10.63 -10.81 -11.18 -10.45 -11.93 -11.22 -13.35 -10.10 -14.44 -14.98 -3.20 0.79 3.50 2.72 -0.30 -2.29 -10.63 -16.07 -21.51 -20.79 -21.51 -22.42 -24.05 -20.97 -20.60 -21.51 -22.60 -22.96 -23.69 -23.50 -22.96

GFSWCAN_sfc_wetblb_003.txt.gz
Wetbulb
49.35 49.02 48.89 48.99 49.03 49.10 49.18 49.04 48.99 48.90 48.77 48.72 48.88 49.02 49.61 50.21 51.25 54.01 52.93 53.51 51.16 46.97 47.94 50.10 48.10 44.79 44.69 44.99 41.71 44.20 43.34 42.74 37.42 35.67 35.24 33.62 33.85 35.05 34.18 35.03 33.66 33.53 31.38 29.26 25.04 26.42 28.62 38.48 41.07 37.95 43.06 42.44 42.59 42.81
48.62 48.53 48.64 48.60 48.62 48.63 48.77 48.72 48.53 48.43 48.13 47.08 47.77 48.94 49.79 50.34 51.13 52.86 53.01 54.42 53.27 49.30 48.44 50.75 51.08 51.14 51.17 48.90 45.91 43.88 45.34 42.89 42.21 37.32 33.69 33.39 33.15 32.97 30.63 33.49 36.81 33.16 35.83 34.33 33.37 34.67 40.19 40.79 42.73 44.00 43.12 42.91 43.81 43.47
48.32 48.30 48.18 48.26 48.14 48.05 48.32 49.01 47.83 47.08 48.15 49.04 49.19 49.23 50.39 51.25 51.35 53.31 53.71 51.72 50.39 46.48 48.14 49.33 48.75 51.97 52.36 51.38 51.86 45.60 42.40 45.62 42.19 41.60 36.40 34.40 33.95 34.05 32.58 33.12 34.66 37.33 37.70 35.78 36.08 39.58 38.49 40.39 43.03 43.41 44.23 44.49 44.65 44.84
47.95 47.80 47.87 48.02 47.95 47.54 46.74 46.72 48.24 48.34 48.41 49.07 49.54 49.72 50.58 51.24 51.67 52.65 51.99 50.05 48.54 44.56 37.55 44.62 50.46 49.18 51.04 52.05 51.22 49.72 46.01 43.72 42.35 41.03 35.95 34.57 34.97 36.05 32.64 36.20 35.69 38.24 38.38 36.81 36.43 39.56 40.73 42.23 43.34 45.39 45.52 44.51 44.47 45.14
47.59 47.57 47.62 47.50 47.10 46.18 46.34 47.08 48.34 48.67 49.15 49.92 50.32 50.63 50.38 51.15 51.84 52.95 51.32 50.73 49.37 48.26 39.62 40.90 47.26 47.83 49.60 49.78 48.06 47.91 46.68 44.67 41.98 38.57 34.98 36.69 34.76 35.99 35.13 35.43 35.03 38.94 38.67 37.46 37.19 42.44 42.67 42.65 43.99 44.63 44.87 45.40 46.24 44.88
47.59 47.45 47.26 46.31 46.49 46.52 46.94 47.48 48.20 48.15 48.69 48.95 49.53 49.88 50.85 50.36 49.17 49.54 47.29 50.26 49.11 47.78 43.34 38.72 43.27 44.49 46.53 48.39 47.79 47.27 46.48 44.10 43.22 41.47 36.72 37.36 39.14 38.80 34.63 35.07 40.71 41.18 42.19 43.22 42.78 43.46 43.28 44.27 44.07 45.72 45.49 46.35 45.52 44.00
47.23 47.25 46.90 45.67 45.80 46.42 46.42 47.28 48.02 48.31 48.38 48.86 49.13 49.68 49.93 49.31 50.37 44.41 43.06 47.11 47.39 46.99 41.75 37.29 37.85 42.76 43.75 45.52 44.14 44.79 45.87 43.56 43.69 39.54 36.24 36.41 38.41 38.82 33.90 34.28 41.55 41.98 43.39 43.89 44.32 44.09 43.57 44.16 44.74 44.28 42.67 37.71 36.75 36.01
46.73 46.89 46.85 46.89 45.98 45.62 46.31 46.69 47.95 48.29 48.11 48.34 48.73 48.92 49.00 48.91 48.79 48.39 48.76 48.09 47.28 43.17 40.67 35.17 34.76 37.84 43.74 39.90 38.92 42.70 40.36 42.72 41.56 39.03 37.30 36.47 38.07 37.82 35.88 38.62 38.69 40.38 41.57 42.95 43.55 44.49 44.09 39.34 36.82 35.38 35.92 36.08 34.92 35.33
45.84 46.19 46.38 46.51 46.63 45.80 46.14 47.14 48.04 48.05 47.84 47.58 47.77 48.33 48.91 47.81 46.14 47.70 47.88 46.83 47.48 44.44 36.53 33.74 34.49 34.51 42.03 38.74 37.80 40.00 41.37 36.28 39.87 37.00 37.48 40.15 34.28 33.84 33.90 33.72 35.02 36.21 37.21 39.52 38.11 36.12 35.66 34.31 33.84 34.74 35.13 34.66 33.97 34.16
45.70 45.74 45.86 46.18 46.33 45.84 46.36 47.59 47.68 47.66 47.53 47.49 47.27 43.82 39.71 45.14 47.68 47.17 44.53 40.98 40.20 39.21 41.25 34.10 37.82 35.73 41.98 35.37 35.19 36.26 36.82 34.28 34.65 36.98 39.26 35.37 35.16 33.00 31.50 33.36 34.74 35.40 36.07 40.31 39.14 33.81 33.81 33.71 33.18 33.63 34.42 35.96 35.33 35.28
45.46 45.79 46.00 46.47 46.58 46.67 46.39 46.42 46.53 47.45 47.87 45.02 41.85 40.09 45.46 46.20 44.24 37.95 35.07 35.39 37.30 34.44 38.38 37.32 36.23 36.99 40.68 37.32 35.73 35.55 33.92 34.10 32.73 34.48 35.73 34.27 31.60 30.28 33.70 34.94 35.79 35.93 36.86 36.95 37.26 37.15 37.22 36.37 35.15 34.53 34.97 35.75 35.97 36.49
45.50 45.41 45.14 45.34 45.67 45.95 46.17 46.17 46.59 45.41 43.56 44.38 44.62 44.24 42.09 39.58 35.91 34.63 33.15 34.65 32.60 32.37 34.95 35.72 36.26 39.44 36.97 40.73 36.83 35.48 34.44 33.56 32.32 35.87 33.20 30.93 28.84 31.18 34.48 34.44 35.57 36.79 37.21 37.32 38.28 37.43 37.39 36.88 37.50 37.05 36.52 35.95 33.80 32.18
44.74 44.90 45.11 45.15 44.89 45.39 45.30 45.21 45.47 45.30 44.31 42.95 39.50 35.94 38.07 34.87 31.65 26.57 31.03 33.00 32.65 33.02 33.92 33.73 34.09 34.47 37.14 37.46 34.28 34.47 33.20 33.02 34.54 32.47 30.86 29.33 30.69 35.72 34.49 34.29 34.49 36.02 36.86 36.64 36.50 36.80 35.15 32.91 31.57 30.33 31.21 31.05 30.83 31.03
43.98 43.98 44.12 44.36 44.87 44.44 44.42 44.13 44.14 43.04 40.84 34.36 33.72 31.19 30.56 32.09 30.95 31.31 32.09 32.29 32.29 32.65 33.02 33.74 33.02 33.92 33.02 33.74 32.65 33.38 31.52 31.84 30.06 28.33 26.81 29.91 34.37 33.01 34.20 34.12 35.69 35.40 32.93 32.42 31.81 31.30 30.28 29.40 29.04 29.05 29.15 28.99 28.12 29.82
43.71 43.35 43.10 43.14 44.52 44.32 43.29 42.83 42.65 41.00 36.99 32.74 32.96 26.94 28.47 30.43 31.84 31.90 32.11 32.47 32.83 34.03 33.92 33.74 33.38 34.54 32.29 31.81 31.04 30.85 28.28 25.42 25.35 25.48 31.09 32.52 32.93 31.72 30.75 31.26 31.24 31.50 27.77 30.32 32.44 30.34 27.88 27.22 26.16 28.72 28.11 28.33 28.85 28.52
42.97 41.73 40.46 42.94 43.79 43.39 43.14 41.11 39.00 37.85 34.18 32.64 31.71 29.75 30.90 31.45 31.38 32.11 32.29 32.29 35.11 33.35 33.35 33.66 31.66 31.11 28.94 30.09 28.62 26.72 25.72 22.45 27.50 31.09 32.77 33.71 33.39 33.87 33.48 32.23 32.47 33.72 33.46 33.67 31.81 30.29 29.74 28.05 27.46 28.81 28.64 28.57 26.56 26.90
41.18 36.68 41.59 42.92 43.10 42.16 41.64 37.27 34.68 32.42 32.11 31.52 30.56 32.29 31.93 32.29 31.75 32.11 32.65 33.18 35.40 33.29 31.57 31.12 29.05 26.93 30.29 26.44 26.08 29.64 26.74 29.91 32.28 32.82 35.18 35.42 34.11 33.39 33.53 33.46 31.29 31.29 32.27 31.72 30.90 30.34 28.97 27.20 26.75 28.31 27.13 28.31 28.26 29.00
36.45 38.76 41.78 42.45 41.19 39.23 36.39 33.43 30.82 31.59 29.87 30.50 29.86 30.42 32.11 32.11 32.29 32.29 32.47 32.97 33.36 33.17 31.09 28.42 31.15 25.73 21.22 20.63 24.80 29.91 30.53 31.66 32.08 33.00 34.28 33.55 33.00 32.42 32.26 31.87 31.76 31.86 30.74 29.36 28.85 29.15 28.21 27.33 26.04 25.51 25.51 25.47 26.26 26.83
39.20 39.90 41.20 41.30 39.10 33.86 31.62 31.68 31.16 27.30 29.05 30.38 30.50 30.43 31.01 30.83 31.15 31.87 32.44 32.76 31.16 28.26 28.78 24.97 22.58 23.32 24.93 26.46 28.50 28.04 31.08 31.99 30.03 30.34 29.87 30.27 30.66 30.97 31.49 31.50 30.86 29.66 28.23 27.84 27.61 26.89 26.72 25.54 24.77 23.05 21.65 21.43 20.72 22.68
40.54 40.76 40.41 40.04 38.92 31.45 29.58 29.27 32.28 29.26 28.14 29.59 30.40 29.34 29.17 29.50 30.51 31.60 32.56 32.76 31.13 27.31 25.46 23.74 23.93 25.07 25.74 26.49 26.86 28.59 32.84 33.87 30.59 28.09 28.22 28.85 29.70 28.52 27.92 28.15 27.95 27.88 26.36 25.95 24.44 21.99 21.99 21.92 20.07 18.99 17.25 16.99 16.46 17.43
36.88 37.38 37.46 34.99 31.62 31.62 31.29 29.53 28.13 29.27 30.51 29.00 29.13 29.28 28.24 29.79 29.43 29.65 29.93 31.22 31.18 29.85 26.79 25.79 25.95 28.25 29.41 29.55 29.39 31.04 31.16 29.48 28.27 29.00 28.89 26.37 25.70 24.45 23.51 23.77 23.67 22.23 20.59 19.46 17.24 14.98 14.83 15.36 15.68 15.27 14.29 14.12 14.43 15.73
35.09 37.57 29.91 32.39 26.80 27.69 28.44 30.59 30.13 28.15 30.20 28.80 27.08 29.33 27.19 26.94 27.47 28.44 29.40 29.15 28.56 28.49 29.63 28.76 29.64 30.73 29.68 28.17 27.91 28.19 28.38 28.31 27.96 27.46 26.85 26.16 24.00 21.12 17.70 17.31 17.48 16.14 15.89 15.41 15.11 12.21 11.76 13.01 12.44 11.97 11.58 11.85 12.38 13.30
35.46 31.00 25.57 23.71 21.98 21.26 25.11 28.64 27.61 26.64 17.82 19.12 22.22 20.57 21.20 25.57 26.49 28.19 25.56 28.55 28.65 30.50 31.49 29.98 28.11 28.39 26.15 26.56 26.17 25.92 25.85 25.22 23.65 22.99 22.65 21.17 18.82 16.58 15.18 13.77 12.79 11.71 11.50 11.39 12.03 11.56 9.82 6.62 9.02 8.33 9.40 9.73 10.05 10.39
33.69 25.97 17.53 14.80 15.74 18.07 27.37 25.19 27.94 26.54 26.72 22.91 20.69 13.94 17.04 17.45 22.11 21.67 19.52 22.82 28.08 28.93 29.62 28.44 26.66 24.67 24.35 23.15 21.66 22.05 24.37 22.97 20.24 18.35 21.41 19.90 16.97 15.63 14.78 12.77 10.78 9.62 8.81 8.58 7.64 5.99 6.11 5.55 3.37 6.02 5.68 5.68 7.22 8.33
18.05 24.21 18.89 18.10 18.59 13.71 19.55 20.33 22.46 23.44 21.66 21.75 18.33 11.43 18.90 22.02 16.16 12.85 13.97 20.24 23.10 24.02 25.27 27.66 26.23 24.12 20.64 19.88 19.61 19.27 20.22 21.78 17.76 14.29 14.44 15.13 13.34 12.45 11.34 10.75 9.64 8.98 8.12 5.36 3.58 3.00 3.06 3.48 3.63 3.50 3.96 4.65 5.64 6.54
11.56 24.95 22.80 22.25 21.92 21.23 15.74 14.15 18.40 21.33 21.97 13.54 15.01 15.67 16.73 18.29 13.62 13.63 17.55 18.34 21.53 21.91 22.89 23.61 21.52 19.66 18.42 20.08 17.99 16.40 15.72 18.27 16.43 12.02 11.08 11.15 8.97 6.53 5.66 4.13 4.07 5.31 6.91 3.76 1.53 0.84 1.43 1.65 2.02 1.84 3.40 5.25 3.98 3.26
12.35 22.26 24.48 27.74 26.04 24.33 14.31 13.92 17.94 18.82 13.53 12.83 17.59 17.78 15.66 16.11 14.76 16.90 21.03 20.02 20.21 18.76 19.03 20.06 21.47 18.77 16.43 15.11 14.61 13.91 14.11 14.16 13.88 12.19 11.73 10.62 9.25 7.81 4.89 2.70 1.69 4.64 5.11 3.44 0.18 -1.25 -1.07 -0.16 0.75 2.40 4.33 6.17 4.14 1.21
24.17 25.66 18.42 16.01 18.18 21.28 15.89 14.13 14.07 17.49 20.40 24.18 22.02 15.26 15.05 14.45 16.53 15.80 17.26 19.90 18.50 17.18 15.04 14.37 14.21 13.59 12.03 11.36 11.69 12.13 11.18 10.75 9.64 8.90 8.26 7.01 5.66 3.84 2.11 2.39 0.92 3.47 -0.62 -1.30 -0.96 -0.53 0.99 1.61 2.99 4.21 3.93 2.11 1.33 0.97
19.63 19.77 18.23 14.57 15.16 18.19 18.59 17.66 17.16 20.58 23.98 20.63 16.39 13.45 13.28 12.96 11.51 11.29 14.59 17.11 17.42 15.05 12.33 10.53 9.69 10.18 8.50 7.07 4.28 2.91 3.49 5.67 4.84 -0.76 -2.12 0.17 -0.66 3.06 2.18 -0.05 -0.85 -0.53 -1.10 -2.58 0.52 3.96 5.89 7.12 6.15 2.74 0.04 -0.71 -0.77 -0.92
16.39 21.41 14.60 11.06 15.68 14.70 21.17 20.33 24.00 18.32 20.03 18.68 17.77 15.29 12.09 10.16 10.60 12.46 12.85 12.31 10.87 8.53 7.62 6.71 6.54 8.86 4.48 3.63 1.09 1.79 -1.27 -2.71 0.12 1.56 0.49 -0.56 0.35 1.42 -1.26 -1.97 -2.15 -1.49 -3.42 -3.78 -3.68 -2.67 -0.74 -1.94 -0.66 -3.06 -4.72 -4.55 -5.04 -4.87
22.55 23.01 22.39 20.26 20.46 22.43 23.91 24.06 27.01 26.42 17.36 12.84 13.83 10.15 8.13 7.52 8.57 8.75 6.79 5.28 5.69 5.87 6.18 4.29 0.71 -6.14 -0.06 -2.33 -0.88 -2.18 -0.16 -0.73 -7.05 -4.15 -2.88 -2.88 -2.52 -2.33 -1.97 -3.42 -3.78 -5.24 -5.60 -5.60 -5.90 -6.22 -6.50 -5.05 -6.69 -7.52 -6.76 -7.47 -9.07 -9.78
10.68 12.53 10.16 10.55 12.22 12.44 11.41 7.63 12.35 15.72 16.64 16.51 6.58 5.79 3.93 3.03 1.22 5.85 5.19 2.79 4.22 4.40 -1.09 -3.06 1.13 0.53 -4.33 -4.69 -6.32 -4.15 -3.88 -1.27 -2.33 -4.51 -6.32 -4.51 -2.33 -2.52 -3.06 -2.70 -7.41 -7.95 -6.14 -6.32 -7.24 -8.04 -9.04 -8.32 -7.85 -8.76 -9.09 -9.69 -10.59 -11.31
8.04 6.89 9.58 7.93 15.34 15.98 7.75 3.92 -0.49 2.92 6.53 9.49 2.08 -0.09 -0.30 1.79 0.20 4.27 4.36 0.67 2.70 1.11 0.79 -0.11 -1.92 -3.97 -5.60 -6.89 -4.31 -3.41 -6.81 -4.38 -8.32 -5.42 -1.61 -0.88 -3.24 -0.88 -0.06 -2.70 -3.78 -8.50 -8.68 -7.77 -7.95 -9.78 -8.71 -9.26 -8.52 -10.11 -10.94 -12.67 -12.73 -13.36

GFSWCAN_sfc_wetblb_006.txt.gz
Wetbulb
46.61 44.92 47.26 48.80 48.53 48.57 48.61 49.04 49.07 49.27 49.11 49.14 49.24 49.49 49.73 50.58 51.46 57.68 59.04 59.47 59.34 54.84 52.34 53.38 53.37 51.30 50.43 53.03 49.93 49.72 49.16 48.59 47.87 45.82 46.26 43.81 42.81 42.34 40.93 41.31 39.66 39.42 38.53 37.29 34.77 35.34 33.58 43.68 44.66 41.20 46.60 49.02 48.48 48.67
45.80 47.92 48.34 48.45 48.68 48.74 48.89 48.83 48.56 48.48 48.40 48.60 48.89 49.29 49.71 50.41 51.42 55.33 58.48 58.85 60.08 56.72 53.95 55.97 55.16 55.10 55.36 56.90 54.15 51.86 52.14 50.61 52.08 48.23 46.01 44.44 38.88 37.10 40.63 40.10 42.15 39.01 43.01 42.53 40.96 42.40 45.30 46.83 48.69 49.91 48.66 48.50 49.28 49.25
48.34 48.17 48.12 48.13 48.15 48.36 48.22 48.03 47.75 47.55 47.57 48.10 48.35 49.28 49.62 50.52 51.60 55.36 58.78 58.52 58.41 55.70 53.84 54.65 53.08 55.47 56.64 55.94 57.78 52.43 51.90 52.23 50.47 50.90 48.42 46.57 38.41 44.28 37.58 41.70 41.96 43.31 43.34 42.56 40.83 44.59 45.56 46.69 48.48 49.07 49.38 48.96 50.35 50.68
47.69 47.49 47.62 47.58 47.37 47.42 47.39 47.01 47.31 48.07 48.57 48.12 48.28 49.34 49.40 50.53 52.17 55.20 58.20 56.79 58.20 54.83 44.03 51.11 54.77 53.25 55.21 56.04 55.56 55.56 53.99 51.42 50.22 52.03 48.84 41.81 42.52 44.68 43.56 43.73 44.17 45.29 43.76 42.95 42.73 45.58 46.81 47.62 48.49 49.18 49.59 50.90 50.54 51.25
47.20 46.77 46.25 46.57 46.97 47.75 48.04 47.84 47.89 48.28 49.04 49.12 49.06 49.79 50.29 51.29 52.17 56.16 56.16 55.66 56.06 55.38 47.74 50.85 52.25 52.68 54.22 53.91 53.41 54.07 53.47 52.56 51.69 48.61 42.94 46.26 44.89 44.37 43.01 43.71 43.24 44.93 44.91 42.90 42.56 47.07 47.12 47.63 49.14 49.88 49.41 50.09 50.54 49.92
46.23 46.19 46.36 46.57 46.81 47.60 48.04 47.75 47.84 48.23 48.82 49.56 50.16 50.75 51.33 51.63 52.61 59.21 51.33 55.56 53.80 56.32 53.57 48.03 50.82 50.20 52.38 53.87 53.14 52.01 52.32 51.87 52.21 51.28 46.76 46.08 44.05 46.89 39.81 42.62 46.49 46.22 47.57 47.90 46.03 47.97 48.01 49.08 50.04 50.15 49.58 47.34 47.70 46.40
46.03 45.78 46.19 46.25 46.84 47.20 47.62 47.81 47.89 48.64 49.27 49.65 49.82 49.54 49.23 49.94 55.33 53.98 51.63 52.17 49.37 53.46 52.51 46.93 47.86 49.44 49.11 51.41 49.58 52.14 52.56 50.85 52.80 48.98 45.38 46.76 45.80 47.17 39.32 42.72 44.00 44.26 45.30 47.14 48.53 48.48 47.63 47.33 45.27 44.44 43.32 41.68 41.27 41.68
46.68 46.41 45.31 45.77 46.43 47.19 47.37 47.33 47.52 47.56 48.77 48.93 49.05 49.09 49.29 49.49 51.19 53.27 53.65 49.85 48.63 51.54 52.78 44.79 43.55 47.60 49.27 47.53 45.26 47.30 46.52 51.19 46.15 43.81 41.96 42.09 42.60 45.05 41.66 42.32 41.54 42.31 43.36 45.95 43.82 46.31 46.17 43.17 40.71 39.32 41.19 42.46 40.26 37.77
46.29 46.20 45.74 45.22 45.96 46.88 47.22 47.08 47.31 47.54 47.43 47.95 48.60 49.08 53.91 51.70 52.93 53.15 47.94 47.84 53.76 52.91 47.43 46.30 43.31 40.58 47.55 41.88 43.52 45.42 47.99 40.75 44.31 40.92 41.73 45.09 38.30 38.47 35.97 36.38 38.92 39.67 39.91 41.16 41.36 42.18 40.66 37.61 37.01 37.02 37.47 37.25 35.89 35.60
45.87 45.97 45.79 45.80 46.49 46.49 46.45 46.67 46.95 47.59 47.62 48.33 51.82 50.81 47.58 49.60 47.26 48.28 50.59 50.47 49.46 48.21 46.15 37.51 42.33 40.09 45.18 40.77 40.04 41.68 44.07 38.89 39.45 41.39 42.49 40.50 37.14 34.69 34.80 36.32 38.39 39.87 41.59 44.45 41.47 38.44 37.26 36.46 37.07 37.17 36.43 37.03 37.17 37.13
45.54 45.75 45.82 45.91 46.10 46.17 46.33 46.47 46.58 48.30 50.03 51.33 48.64 46.12 51.10 47.37 50.46 45.97 42.20 42.59 44.01 40.98 41.80 40.15 40.88 40.70 44.44 41.27 39.07 40.91 37.32 39.33 35.51 40.15 38.93 37.48 34.42 34.25 37.19 37.08 38.39 39.80 40.44 41.13 41.15 40.35 39.72 38.03 36.85 37.34 37.41 38.57 38.89 38.85
45.53 45.36 45.15 45.30 45.49 45.55 45.66 45.97 47.25 49.64 49.09 49.25 49.29 48.34 48.44 45.61 43.84 37.36 36.09 39.50 39.68 37.90 38.63 40.08 39.76 42.19 41.21 44.04 41.48 39.04 37.14 37.13 33.76 40.27 36.52 34.33 32.72 33.60 35.00 35.67 37.21 39.14 39.92 39.77 40.51 39.14 39.54 39.71 40.09 39.55 38.58 36.64 34.23 33.51
44.52 44.75 44.93 44.80 44.56 44.76 44.74 44.95 45.26 45.56 45.77 49.22 45.88 40.40 42.96 38.83 34.60 35.87 32.23 34.56 34.71 35.69 35.46 35.65 35.66 39.29 41.58 43.72 37.51 39.48 36.42 35.33 39.87 34.86 33.62 32.90 33.11 35.10 35.35 36.31 37.40 39.05 39.54 39.57 39.23 38.71 36.93 35.49 34.98 34.13 33.85 33.44 33.88 34.65
43.46 43.85 43.85 44.27 44.55 43.97 44.02 43.82 44.10 45.14 46.53 39.42 37.13 34.06 34.79 33.88 34.24 32.96 34.60 34.42 33.34 33.70 36.24 38.05 35.51 39.68 35.69 37.14 36.05 36.60 32.79 34.01 31.59 30.79 31.17 31.30 34.30 35.73 36.69 38.68 38.95 38.15 35.74 35.14 35.74 34.80 34.58 33.07 33.23 32.79 32.25 32.25 32.43 32.43
42.99 42.81 42.82 43.14 43.97 43.79 43.29 42.91 42.90 44.73 40.86 35.66 37.65 30.78 31.33 32.23 33.34 32.43 32.79 33.88 34.41 35.80 37.14 37.67 37.13 38.89 34.42 33.70 33.15 32.61 31.16 30.93 32.22 32.06 32.49 33.85 34.15 36.97 37.35 37.12 36.31 37.41 33.77 34.88 36.98 34.87 33.70 33.75 33.15 33.19 32.79 32.76 32.54 31.69
42.47 42.89 41.21 42.61 43.41 42.98 42.59 42.58 40.93 40.92 36.84 34.80 33.65 32.04 32.43 32.61 32.07 32.43 32.61 32.61 36.05 35.33 36.95 36.60 32.97 32.61 31.07 33.52 32.07 31.69 31.45 29.74 31.61 33.26 33.17 34.39 34.42 36.28 35.79 35.45 36.48 36.88 36.22 37.06 35.13 34.31 33.53 31.80 31.34 32.44 31.38 29.62 29.71 29.63
42.05 39.60 40.99 42.59 42.70 41.88 42.10 40.81 40.84 35.92 34.81 33.83 32.07 32.25 32.43 32.25 31.89 32.07 32.43 33.15 35.84 34.24 32.07 34.24 32.61 30.41 33.61 31.95 30.62 33.68 31.67 33.49 33.15 33.62 35.35 36.91 37.26 37.56 38.23 37.19 35.54 35.19 35.40 34.84 33.66 32.59 30.78 30.39 29.68 29.13 27.69 27.79 28.01 28.82
39.08 41.06 41.40 42.04 42.87 42.61 40.43 39.37 37.69 35.01 30.89 32.24 31.99 31.70 32.97 32.79 32.97 32.79 34.06 35.17 37.27 35.91 35.21 32.38 34.07 31.17 31.03 29.67 31.29 33.45 33.32 34.20 35.10 35.69 36.54 35.83 35.54 35.87 37.06 35.80 35.66 34.42 32.73 30.54 29.89 29.11 28.83 28.39 27.74 27.03 25.70 25.47 26.01 26.39
40.21 40.95 41.02 40.98 41.95 40.94 37.21 36.22 37.63 31.03 30.98 32.87 33.32 33.46 33.67 33.34 34.97 34.59 34.72 35.57 36.02 37.54 36.40 34.77 33.38 31.80 33.29 35.45 32.60 31.70 32.61 34.51 34.40 33.37 33.09 34.21 34.94 34.24 33.96 33.04 31.76 30.57 29.38 28.55 28.41 28.24 27.75 25.22 24.56 24.57 23.73 23.81 22.97 24.12
40.06 40.47 39.90 39.95 42.24 39.12 33.98 33.92 39.15 33.25 30.34 31.27 33.44 31.47 32.19 32.34 33.32 33.85 34.79 36.41 37.49 37.31 34.68 33.03 32.56 33.29 34.07 34.11 35.04 38.32 38.37 37.77 36.61 33.75 30.98 30.69 31.38 30.92 30.72 30.23 29.10 28.67 28.13 26.86 24.42 23.88 25.12 24.48 23.35 22.14 21.06 20.64 20.53 20.26
40.48 40.07 39.35 41.06 38.93 36.95 33.02 32.85 32.80 33.10 32.70 30.38 31.71 32.75 31.83 33.87 33.43 32.97 32.96 34.54 35.96 33.44 32.32 30.18 30.61 30.91 30.82 31.38 32.66 34.29 34.23 35.78 36.96 36.92 33.32 28.02 28.27 28.92 27.87 27.32 26.64 26.29 25.26 23.92 22.56 21.09 20.24 20.26 19.97 19.65 19.59 19.81 18.99 20.61
38.86 38.39 38.09 37.22 34.16 34.06 33.20 34.07 32.93 34.24 33.15 33.03 33.45 34.07 32.29 32.19 32.19 32.48 33.93 33.66 31.35 31.27 31.67 31.66 32.32 32.48 30.61 28.90 29.37 30.70 30.76 31.10 30.41 29.02 28.20 27.58 25.66 23.60 21.90 22.93 24.20 22.05 21.02 20.42 20.54 18.81 18.71 17.66 16.61 17.23 17.88 17.30 17.98 19.12
37.48 37.05 34.38 33.28 29.83 30.12 28.15 35.18 30.18 29.45 27.72 28.53 31.52 29.00 30.17 30.95 31.62 33.76 29.91 31.77 30.98 32.66 33.62 31.26 29.07 29.56 28.31 28.35 27.96 27.86 28.72 28.16 26.22 25.12 23.41 22.55 22.02 21.72 20.50 19.22 19.43 19.04 18.61 16.87 17.40 17.05 16.02 12.33 14.83 14.34 16.19 16.29 17.00 17.10
36.32 30.45 26.22 27.29 27.47 23.71 30.06 26.50 28.50 27.13 28.77 26.56 25.19 24.87 27.51 28.68 30.65 30.16 26.45 26.97 27.10 29.44 30.26 28.93 28.87 26.94 26.64 25.47 23.29 23.65 24.95 25.11 23.90 24.23 23.94 22.46 20.08 18.67 18.64 17.03 16.00 14.76 13.91 14.56 15.02 14.43 14.06 13.80 11.48 13.94 13.43 13.79 13.83 13.87
27.03 25.47 26.91 22.70 26.93 24.15 22.81 23.08 24.64 25.74 23.04 24.43 23.60 25.32 26.23 28.11 26.50 24.01 22.84 23.49 25.55 26.11 27.37 28.50 27.50 25.82 23.11 22.27 22.08 21.41 22.87 23.82 20.93 17.81 18.49 19.82 18.52 17.60 16.40 15.47 14.44 13.35 13.61 13.25 12.02 11.74 11.85 11.51 11.86 11.57 11.40 12.34 10.82 10.56
22.25 26.46 24.50 24.25 24.57 24.29 22.49 21.25 21.44 23.10 23.60 22.40 23.50 25.51 27.53 26.52 21.55 19.12 21.03 23.09 24.02 23.60 23.72 25.93 24.34 22.28 19.95 21.04 19.92 18.83 18.62 20.88 19.78 15.63 14.74 15.85 15.53 15.14 13.75 13.51 14.03 13.51 12.75 11.77 10.04 9.13 9.55 9.57 9.40 8.76 10.28 11.28 10.19 9.06
21.95 23.54 26.95 29.46 27.99 26.16 25.50 24.71 25.01 25.49 22.30 21.92 25.77 24.94 24.83 19.34 18.58 20.49 23.14 22.16 22.69 21.31 20.86 21.41 23.05 22.02 19.58 17.97 17.00 16.82 16.95 17.34 17.22 15.38 15.16 14.03 13.60 13.38 12.35 10.52 8.64 10.19 10.96 10.11 8.95 8.49 7.61 7.52 8.16 9.13 9.81 11.29 10.92 8.73
25.61 27.02 23.11 26.48 25.48 27.35 24.17 24.31 23.83 23.32 25.27 27.36 26.76 21.83 20.45 21.09 20.13 19.20 19.92 21.68 21.48 20.44 18.97 17.75 17.53 17.69 17.32 16.62 17.22 17.02 15.37 14.71 13.86 14.11 13.76 13.19 12.87 11.99 10.31 11.12 9.93 7.27 7.57 8.01 7.53 7.96 8.38 8.64 8.71 9.58 9.36 7.94 7.54 8.19
26.97 28.85 27.43 20.86 23.49 25.70 25.14 24.62 25.24 26.76 27.41 27.88 25.75 23.01 18.43 16.57 16.58 17.55 18.89 20.04 22.01 21.33 18.55 16.41 15.40 15.83 14.37 13.21 12.44 13.06 14.08 15.26 12.51 9.42 9.10 11.14 11.31 11.93 11.13 9.96 9.56 9.19 8.73 8.00 7.18 7.37 7.84 9.20 8.71 7.30 6.39 5.89 6.16 6.42
26.39 27.95 26.14 22.15 21.87 22.84 26.28 28.30 27.63 28.83 26.01 24.37 22.50 18.74 16.46 15.03 14.79 16.79 17.77 18.61 17.62 15.68 14.79 14.69 15.34 16.96 13.91 15.05 12.75 11.27 10.99 11.08 10.27 9.92 8.91 8.04 8.50 9.60 8.99 8.44 7.95 8.04 7.02 6.87 6.32 6.35 6.27 6.55 6.65 6.94 4.93 4.64 4.89 3.38
28.35 29.06 26.83 26.09 24.39 26.99 25.84 25.84 28.99 27.51 24.72 21.19 19.50 18.61 14.43 13.95 14.75 14.14 13.30 13.21 14.52 15.43 15.74 13.66 11.54 11.49 12.33 11.11 11.69 10.95 10.42 9.89 5.92 5.84 6.47 7.65 8.10 8.28 8.36 7.09 7.39 6.72 6.04 5.29 4.41 4.23 3.08 3.76 4.54 2.86 2.76 0.88 -0.51 -0.95
24.07 20.18 21.63 21.30 23.93 23.47 22.36 22.46 21.75 23.66 23.43 20.93 15.69 15.46 13.58 14.48 10.75 12.37 11.53 13.95 14.49 12.36 6.17 10.40 12.04 10.89 9.16 9.37 8.05 9.05 1.55 8.28 8.17 6.81 5.61 6.88 8.15 8.62 8.14 7.68 6.51 5.31 4.32 3.21 3.49 2.68 1.63 0.99 1.57 0.99 0.49 -0.33 -1.69 -3.05
20.65 21.03 21.22 21.38 21.28 20.74 19.47 18.67 16.01 16.64 17.14 15.29 12.03 11.95 11.05 12.16 7.47 10.93 12.11 11.35 11.12 10.84 10.04 9.92 10.64 10.87 8.03 5.39 7.35 8.72 4.24 8.48 4.17 3.71 3.20 3.03 1.38 2.91 4.92 7.31 6.27 4.81 2.22 2.04 2.65 1.85 0.25 -0.33 0.04 -0.84 -1.45 -3.62 -3.85 -4.22

GFSWCAN_sfc_wetblb_009.txt.gz
Wetbulb
46.00 46.32 46.44 46.48 46.74 47.02 47.47 48.03 48.37 49.18 48.75 48.41 49.25 49.23 49.29 49.89 50.46 53.75 61.63 63.50 58.24 52.83 54.32 54.36 53.79 52.11 52.33 52.95 51.58 53.12 51.21 51.71 51.23 46.84 47.03 46.67 45.22 45.82 44.11 45.03 42.87 41.51 40.48 39.62 40.59 35.75 34.01 46.74 46.66 42.37 48.41 50.10 49.84 50.22
46.37 45.44 44.81 44.99 45.82 46.66 46.98 48.36 48.50 48.49 48.42 48.61 48.86 48.88 49.08 49.66 50.26 52.44 59.99 62.89 64.59 56.22 56.28 58.62 58.94 58.62 57.67 57.36 56.05 54.52 53.56 53.17 53.84 51.22 49.77 50.92 42.90 40.69 44.99 40.65 46.94 41.85 45.57 44.75 43.49 43.94 48.49 49.24 48.30 50.39 50.88 49.89 49.99 50.07
44.89 44.83 43.92 43.99 45.31 47.43 48.24 48.26 48.17 47.90 48.09 48.13 48.36 48.76 49.28 49.83 50.43 53.14 61.85 62.10 61.19 58.09 55.78 55.26 54.50 57.56 59.17 59.44 61.03 54.51 56.70 57.11 55.61 58.20 53.73 51.99 42.28 48.36 40.25 44.91 46.04 47.01 47.38 44.67 43.51 46.11 47.28 48.58 50.15 50.62 50.78 50.54 51.62 52.10
45.46 46.53 47.66 47.74 47.84 48.02 47.97 47.86 48.06 48.09 48.11 48.42 48.49 48.74 49.33 49.89 50.57 52.45 61.37 63.26 60.16 57.26 49.95 53.21 57.80 55.94 57.79 58.69 59.05 59.36 58.68 57.43 56.64 56.76 53.70 45.18 44.73 50.31 47.65 47.91 46.44 48.16 47.26 45.04 45.11 47.27 47.89 48.80 49.88 50.55 51.14 52.16 52.16 52.97
46.67 46.67 47.03 47.23 47.27 47.27 47.45 47.25 47.05 47.14 47.54 48.31 48.77 49.24 49.59 50.31 51.26 57.23 60.92 59.90 61.36 57.00 49.04 52.41 55.67 55.31 56.91 57.67 57.39 57.54 57.04 55.41 54.13 51.48 45.27 49.10 49.82 48.78 48.57 47.97 46.21 48.46 45.62 44.58 43.20 48.44 48.51 48.80 51.30 51.94 51.06 51.04 51.27 50.59
46.63 46.65 47.07 47.28 47.45 47.39 47.65 47.93 48.10 48.33 48.13 47.99 48.45 49.34 49.78 50.83 53.05 59.11 56.34 58.53 57.63 60.41 54.65 49.38 55.10 52.99 56.01 57.00 56.68 56.38 56.83 56.47 56.32 53.59 50.06 51.45 49.67 50.53 42.99 43.76 47.87 49.17 49.73 49.84 47.82 50.67 50.51 51.11 51.23 49.60 47.62 46.93 46.60 45.74
46.26 46.82 47.19 47.43 47.90 48.11 48.02 48.41 48.37 48.30 48.12 48.26 48.78 49.51 50.38 51.01 59.11 55.10 52.76 55.00 52.82 60.06 54.67 49.11 50.26 52.69 53.68 55.32 55.04 55.00 56.21 55.31 55.99 53.25 51.55 50.82 49.34 50.00 43.61 43.07 47.19 46.72 47.14 49.02 49.61 50.49 49.46 46.93 45.33 46.09 45.43 45.25 43.65 42.82
45.71 46.13 46.54 46.92 47.48 47.64 47.91 48.74 49.10 48.83 48.98 49.10 49.37 49.86 50.13 50.14 50.22 55.18 52.07 49.23 51.05 55.33 55.15 47.33 46.59 50.87 53.48 51.51 50.36 53.38 53.27 54.82 51.09 48.60 48.40 48.66 47.69 49.61 44.33 45.66 44.83 45.25 46.77 47.23 46.10 48.38 46.21 45.26 44.62 43.56 43.31 40.93 38.53 37.56
45.75 45.95 46.11 46.30 46.35 47.39 46.85 47.17 47.96 48.83 48.74 49.49 49.88 50.18 56.94 56.05 55.90 53.07 47.36 48.71 55.30 53.27 50.09 48.89 43.32 41.84 51.80 46.56 48.13 50.25 53.20 46.04 48.95 42.71 45.88 48.17 41.32 41.70 41.44 41.68 42.90 43.26 43.71 44.47 44.99 44.73 43.68 41.54 40.30 39.40 38.90 38.34 36.51 36.72
45.52 45.63 45.42 45.71 46.19 46.46 46.85 46.78 47.32 47.51 47.72 49.06 55.87 53.92 51.72 53.11 47.25 49.24 49.64 51.35 52.36 52.48 50.44 41.57 48.64 43.93 49.64 44.92 42.48 45.20 44.54 42.78 40.48 43.47 46.54 42.96 41.54 40.43 40.25 41.76 43.22 44.49 45.62 46.16 41.87 40.31 40.72 39.88 38.51 37.98 37.41 38.50 38.85 39.36
45.34 45.16 45.12 45.17 45.60 45.74 46.18 46.96 48.07 49.99 50.48 55.46 51.72 46.15 52.53 48.46 53.09 49.64 45.17 46.33 47.44 43.63 44.21 42.65 44.46 44.43 47.82 42.93 39.23 43.10 40.12 41.95 37.59 42.16 40.53 39.60 37.24 38.26 40.92 41.58 42.35 43.01 44.19 44.03 43.87 42.75 41.48 39.77 38.76 38.13 38.50 39.18 38.57 37.16
45.40 44.89 44.62 44.48 44.60 44.65 45.10 45.85 48.73 52.33 52.66 51.37 52.13 51.90 51.93 49.11 46.46 39.81 38.77 41.49 42.39 39.44 39.89 40.76 41.06 43.73 43.73 48.34 42.75 42.53 38.15 39.45 35.83 43.33 38.89 35.51 35.30 37.27 37.31 38.31 40.64 42.14 42.21 41.44 41.44 40.47 39.88 39.67 39.82 37.43 36.30 35.32 34.38 34.17
44.43 44.62 44.66 44.55 44.19 44.53 44.54 44.40 45.08 45.74 48.25 54.00 48.86 42.46 45.08 41.02 36.50 34.87 33.24 36.36 34.95 38.13 37.41 38.48 37.32 42.90 43.77 45.22 41.08 40.78 35.03 37.77 42.65 37.43 36.12 36.20 35.59 35.76 36.76 38.22 39.82 41.41 41.79 41.17 39.89 39.20 38.02 36.29 35.86 36.14 34.69 32.65 34.03 35.84
43.51 43.56 43.72 44.02 44.14 43.90 43.97 44.22 45.15 48.42 49.31 42.79 39.74 34.69 36.50 34.32 33.96 33.42 34.69 34.32 34.14 34.87 38.85 40.78 38.49 40.29 39.93 38.13 37.40 35.77 34.32 38.50 34.14 32.49 33.88 34.54 34.79 36.21 37.81 39.18 39.73 38.95 37.68 37.28 36.97 36.10 35.20 33.83 32.83 32.51 32.48 33.01 32.46 31.71
42.94 42.87 42.93 42.82 43.54 43.71 43.63 44.00 44.82 47.31 43.22 36.13 38.45 32.13 32.15 33.05 33.42 32.87 33.24 34.50 35.03 37.43 39.74 41.47 40.97 42.77 36.86 35.77 36.14 35.23 32.15 32.80 34.22 33.16 33.84 34.35 35.32 37.00 38.22 39.23 38.95 35.83 34.74 37.74 38.07 34.92 33.96 34.74 33.39 31.67 30.90 31.16 31.01 30.83
43.10 43.80 42.40 42.72 43.09 43.21 43.39 44.06 44.27 42.86 38.90 36.23 34.32 32.51 33.24 33.24 32.15 32.51 32.69 32.69 36.23 36.86 40.06 41.48 35.77 35.05 33.24 35.23 33.96 33.57 33.84 32.90 33.02 33.73 34.59 34.81 36.10 38.20 38.01 37.79 38.96 38.75 37.70 38.26 36.89 35.23 33.25 31.46 31.56 30.93 30.86 29.75 31.31 29.99
43.53 42.57 41.53 42.52 42.65 42.84 43.68 43.40 41.79 36.58 36.36 35.21 32.87 32.69 32.87 32.51 31.78 32.15 32.87 33.20 36.25 35.23 32.69 35.41 33.42 31.42 35.00 33.42 31.97 35.05 33.05 33.78 32.69 33.51 36.36 36.70 37.29 37.48 37.95 38.47 36.33 37.78 37.80 36.55 34.73 32.12 31.05 31.17 31.35 29.95 28.83 28.53 29.00 28.78
42.43 43.63 41.33 42.11 44.77 44.55 42.65 42.63 39.16 36.86 32.47 34.89 33.14 32.69 34.87 34.32 33.60 33.96 35.18 37.54 38.58 36.81 36.12 33.66 36.03 32.87 32.49 30.86 32.45 34.14 34.29 33.93 35.30 35.64 36.08 36.70 38.91 39.29 39.66 38.47 37.53 36.34 32.78 31.61 31.25 30.98 30.92 30.33 30.00 29.64 28.18 27.88 28.30 28.18
40.00 41.46 40.93 42.35 44.57 43.83 38.17 37.43 40.03 31.88 32.98 34.49 34.50 35.05 35.20 35.39 36.73 37.45 37.47 40.23 39.51 40.13 38.52 36.82 34.59 32.59 33.10 34.75 33.04 33.60 34.32 34.58 33.04 34.41 35.44 37.10 37.84 37.35 36.93 35.17 33.75 33.20 32.06 31.61 31.80 31.58 29.33 27.53 27.34 27.35 26.67 26.19 25.01 26.00
40.90 40.46 40.61 41.70 44.46 40.70 34.63 35.41 41.06 34.59 31.51 32.47 35.04 33.30 34.57 34.60 36.45 35.35 35.59 39.37 39.07 38.70 34.66 33.27 31.00 31.00 31.23 31.28 32.52 35.87 36.67 37.80 36.01 34.12 33.09 33.55 34.22 33.22 32.82 32.76 31.67 30.08 29.57 28.47 27.19 27.88 28.85 28.08 26.40 25.18 24.11 23.65 23.22 22.55
42.02 40.68 41.44 43.90 41.85 39.09 34.87 35.04 34.12 34.72 33.67 31.93 34.29 35.05 33.98 36.95 35.45 34.50 35.89 38.86 36.91 34.21 31.29 30.79 31.08 31.79 31.83 31.73 32.42 34.53 34.10 37.14 37.42 36.85 34.51 30.57 31.58 31.61 30.90 30.94 30.64 30.52 29.29 28.28 26.81 25.01 24.43 23.27 23.02 22.63 23.06 23.20 22.11 23.33
40.34 40.26 41.44 41.03 37.21 35.71 34.91 37.14 34.61 36.77 34.69 33.88 33.91 35.19 32.80 32.60 33.04 33.56 36.67 34.47 30.89 30.30 31.84 31.67 31.31 32.81 30.74 28.64 29.01 30.44 31.53 32.63 32.29 31.18 31.09 30.67 28.89 28.04 27.54 28.22 27.87 25.59 24.60 24.15 23.46 22.42 22.47 21.23 20.00 20.23 21.23 20.80 21.47 22.46
39.68 39.93 37.98 36.91 32.21 32.26 29.53 36.45 30.44 30.74 29.23 30.14 33.53 29.72 30.70 31.30 31.91 36.10 30.95 31.70 29.72 31.22 32.38 31.02 29.79 30.18 29.32 29.60 28.90 28.28 29.90 29.02 27.31 25.89 25.37 25.05 24.44 25.09 24.24 23.42 24.27 23.57 21.75 19.95 20.97 20.75 20.26 16.98 18.99 18.19 20.08 19.71 20.25 19.78
37.99 33.57 30.57 30.19 30.57 26.38 32.34 28.08 31.21 30.41 31.29 28.50 27.53 26.33 26.75 29.03 32.09 30.59 26.16 26.45 27.60 29.26 30.21 29.58 30.57 29.02 28.72 27.26 25.65 25.74 26.85 27.14 25.71 25.70 26.13 24.49 21.79 20.92 21.49 19.79 19.26 18.71 18.51 18.99 19.72 19.02 19.24 18.22 16.41 18.21 17.52 17.08 17.63 16.27
30.22 27.88 30.71 26.63 31.14 28.12 26.28 26.55 27.43 28.66 25.28 26.35 25.73 26.76 27.02 30.03 27.11 24.97 23.44 24.23 25.36 25.45 27.84 28.81 28.04 27.96 26.38 25.46 24.41 22.72 24.28 24.92 22.51 20.19 21.76 22.64 21.48 20.47 19.27 19.10 17.84 17.12 18.00 17.81 16.57 16.20 16.46 16.06 16.07 15.54 14.68 15.48 14.21 13.61
24.39 27.91 26.53 26.77 27.27 26.60 25.86 24.27 24.65 24.30 25.03 25.29 25.71 28.43 29.28 27.33 23.50 21.34 22.62 23.32 24.50 24.65 24.61 25.96 27.49 25.87 23.47 24.00 23.03 21.67 21.16 23.46 22.94 19.54 18.23 19.30 19.86 19.94 19.10 18.47 18.51 17.40 16.73 16.41 15.04 13.95 13.81 13.81 13.11 12.13 13.06 13.85 13.49 13.19
23.37 24.65 28.38 30.94 28.73 27.94 26.90 27.69 28.48 26.85 24.31 24.38 26.51 25.57 25.81 21.51 21.30 21.33 24.35 23.36 23.86 23.60 23.99 24.55 25.06 24.19 22.61 21.40 20.80 20.57 20.63 20.52 20.08 18.62 18.96 18.38 17.89 17.30 16.41 14.65 12.75 13.51 14.53 14.17 13.19 12.77 11.75 11.27 11.49 11.88 12.11 13.76 13.71 12.57
27.13 29.07 24.16 26.74 27.48 28.70 25.34 26.29 26.26 25.62 26.73 28.03 27.71 23.33 22.51 21.85 20.37 21.50 21.93 23.63 23.63 23.48 22.56 21.94 21.52 21.58 20.81 20.73 21.25 21.06 20.15 19.22 18.11 18.86 18.74 18.40 17.78 16.98 15.06 15.83 14.12 9.77 12.18 12.80 11.37 10.60 11.22 10.93 10.98 11.63 12.12 11.45 10.57 11.89
27.97 29.57 29.34 24.09 26.34 26.80 26.26 25.45 25.76 27.22 28.97 27.92 26.53 24.80 21.27 19.32 19.60 21.38 20.94 22.81 25.36 25.19 22.25 20.70 19.77 20.69 19.29 18.73 18.34 18.91 19.30 18.80 17.20 13.17 13.15 14.81 15.82 16.25 15.48 14.21 13.88 13.55 13.22 12.34 11.71 11.22 10.95 9.68 10.27 10.32 9.35 9.53 10.42 10.71
27.60 29.47 28.11 25.67 24.31 23.49 26.76 29.66 28.93 29.11 28.85 27.25 26.05 22.24 20.02 18.27 17.94 21.17 21.72 21.66 20.58 19.12 19.11 19.25 19.73 20.05 17.97 18.80 16.72 15.46 16.01 15.00 13.07 12.27 11.47 10.95 11.42 13.04 13.10 12.74 12.19 12.22 11.93 11.44 10.54 10.72 10.84 10.24 10.57 10.87 9.64 9.21 9.12 7.22
28.77 29.83 28.28 27.66 25.80 26.45 27.04 28.56 29.93 29.05 27.53 25.12 24.72 23.04 19.13 17.01 17.81 17.98 17.56 18.73 19.10 19.59 19.28 17.42 16.11 16.85 15.70 14.57 14.58 14.04 14.04 14.40 10.56 10.57 9.71 10.51 11.65 12.20 12.53 11.40 11.64 11.35 10.31 9.71 8.85 8.52 8.14 6.83 7.98 8.07 7.66 6.10 5.03 4.10
27.44 23.76 24.42 22.87 25.09 26.37 27.66 26.06 25.86 26.10 25.92 24.64 20.68 20.64 18.61 19.27 14.32 15.12 15.43 18.22 17.45 16.03 12.48 15.73 15.44 13.14 13.44 13.88 13.30 14.28 5.70 11.54 11.95 10.40 9.92 10.27 10.98 12.00 11.66 11.25 11.52 10.83 9.65 7.64 7.33 7.62 7.03 5.89 5.68 5.91 5.42 4.39 3.30 1.45
25.51 25.74 24.64 24.25 23.70 22.44 24.59 23.99 22.75 21.03 21.37 19.33 17.06 17.80 16.41 16.30 10.42 13.61 16.45 16.40 14.63 13.78 13.10 13.89 14.84 14.78 12.28 10.41 11.69 11.86 10.56 12.79 9.90 9.02 8.33 6.97 4.76 5.92 6.57 9.83 10.65 9.44 7.70 7.01 6.83 6.75 5.80 5.09 4.18 3.87 2.76 1.75 0.92 0.25

GFSWCAN_sfc_wetblb_012.txt.gz
Wetbulb
45.22 45.22 45.14 45.14 45.73 45.83 46.44 47.15 47.31 47.50 47.82 47.66 47.50 47.46 47.71 47.65 48.68 50.86 52.70 57.17 57.02 52.49 54.38 56.39 55.67 52.21 53.22 54.62 50.87 53.04 50.98 52.40 53.69 47.49 46.06 48.25 44.64 47.14 45.39 45.28 42.17 40.76 40.55 38.60 41.82 35.27 32.71 47.60 46.45 42.28 48.82 51.74 50.02 49.92
44.90 44.76 45.00 45.42 45.78 45.97 46.66 47.10 47.20 47.58 47.69 47.67 47.44 47.52 47.57 48.00 49.62 50.74 49.93 56.18 61.15 56.59 55.38 60.55 59.03 59.22 57.93 56.95 55.77 55.18 53.71 52.96 53.94 51.43 49.56 51.53 40.36 39.97 43.16 40.82 48.03 42.27 46.24 45.23 43.06 42.62 49.85 49.51 49.01 51.09 51.93 50.72 50.11 50.26
45.31 45.64 45.76 46.08 46.29 46.61 46.89 47.19 47.15 47.35 47.60 47.87 48.23 48.47 48.81 49.33 49.74 50.77 52.03 55.79 60.52 57.26 55.49 55.15 54.48 58.56 60.45 59.63 62.22 54.33 56.03 57.77 56.75 59.82 55.53 53.10 40.46 48.84 39.21 45.57 47.57 47.91 49.07 46.20 45.68 46.22 47.33 49.03 50.04 51.03 50.48 50.90 51.15 51.67
44.26 44.16 44.25 44.53 45.13 45.10 46.63 46.34 46.93 47.81 47.68 47.71 48.14 48.73 48.96 49.25 49.47 50.57 51.72 57.25 60.04 57.38 46.93 52.81 58.55 56.76 58.75 59.43 60.40 60.56 59.99 60.47 59.83 58.44 54.93 43.94 43.56 51.75 47.80 49.71 49.11 48.65 47.74 45.09 45.12 47.49 48.50 48.66 50.48 50.88 51.14 51.86 52.08 52.26
44.07 43.98 43.53 44.07 44.30 45.20 46.23 47.04 47.34 47.68 48.04 48.35 48.33 48.71 48.96 49.25 49.66 51.81 53.67 57.40 61.20 55.67 49.72 52.39 55.92 56.29 57.59 58.24 58.23 58.92 59.08 58.04 55.97 51.77 43.25 49.97 51.96 50.13 49.87 50.13 48.09 48.83 46.70 45.85 44.25 48.52 48.44 48.79 50.72 51.23 49.81 48.45 48.20 47.93
44.67 44.17 43.96 44.10 45.31 45.73 47.23 47.29 47.02 47.13 47.72 47.97 48.47 48.93 48.96 49.44 50.49 53.70 51.85 59.26 60.49 62.08 55.15 48.55 54.65 53.95 56.30 57.43 57.11 56.51 58.13 57.62 56.84 53.59 50.66 52.35 51.75 51.67 43.46 44.71 48.31 49.48 49.94 49.67 47.87 50.42 50.20 49.70 48.31 47.45 46.01 45.95 45.90 44.86
46.80 47.00 46.96 46.96 47.02 46.96 46.89 47.04 47.31 47.50 47.58 47.68 48.07 48.87 49.55 49.74 55.52 53.31 50.87 52.72 50.91 61.50 55.09 47.97 47.67 52.60 56.35 56.43 55.92 55.61 57.21 56.58 55.77 53.95 52.57 50.48 49.52 50.37 42.35 44.23 47.07 47.19 48.01 48.12 49.01 49.69 46.46 46.74 43.84 46.35 44.19 43.05 41.90 41.25
46.50 47.23 47.60 47.47 47.51 47.52 47.45 47.16 46.96 46.98 47.36 48.19 48.76 49.17 49.95 49.33 50.31 52.90 52.98 51.16 51.89 55.08 52.89 46.40 42.01 49.22 54.47 52.52 50.44 54.70 54.31 54.45 51.48 48.75 50.76 50.16 48.00 51.24 45.01 45.75 46.03 45.92 47.57 46.51 46.72 47.05 45.49 45.55 44.88 42.47 41.86 40.37 38.30 37.71
45.27 45.72 46.39 47.14 47.81 47.56 47.27 47.45 47.58 47.68 47.84 48.68 49.07 49.29 53.28 55.16 55.05 53.90 48.48 50.04 58.88 54.61 43.51 47.47 41.18 40.02 52.38 47.93 49.06 51.31 53.21 47.29 49.58 43.61 49.26 48.72 42.16 42.08 44.83 44.56 44.05 44.68 45.73 45.10 45.32 45.09 44.06 41.91 40.52 39.82 39.29 38.67 37.76 37.46
44.58 44.61 44.92 45.77 47.29 47.98 48.49 48.11 48.27 48.71 49.25 49.40 53.31 54.24 49.30 50.92 49.39 49.52 53.12 50.43 50.12 49.27 49.34 43.46 46.82 43.83 47.94 43.26 42.17 44.15 45.42 45.12 40.02 43.57 46.92 44.73 41.91 42.42 42.94 44.31 45.06 45.27 46.95 45.64 41.41 39.57 40.27 38.98 38.11 37.57 37.81 38.53 38.05 37.75
44.88 44.66 44.75 44.93 45.55 46.70 47.45 48.51 49.57 49.81 50.47 56.59 52.90 47.95 51.87 49.35 52.84 50.26 44.46 45.52 42.92 40.51 44.44 44.03 44.54 44.10 48.48 42.44 39.10 43.13 40.93 41.83 37.47 41.36 41.26 38.90 37.42 39.94 42.78 42.44 43.76 44.83 44.96 44.59 43.54 42.39 40.71 38.99 37.65 37.89 37.04 36.91 35.55 35.17
45.13 44.80 44.47 44.76 44.84 45.59 46.95 47.35 49.21 52.92 54.06 53.44 52.85 52.99 52.35 49.03 46.55 38.72 38.17 41.32 41.72 39.77 39.49 39.69 42.92 44.35 44.97 49.05 41.84 41.24 37.30 40.02 36.23 42.46 38.23 35.65 38.07 39.95 39.60 40.14 41.90 42.87 42.45 41.07 40.88 39.68 39.60 38.93 38.17 36.40 35.02 34.06 32.77 32.50
44.04 44.27 44.31 44.31 44.81 45.31 45.87 45.97 46.41 48.15 48.43 54.48 48.94 41.10 44.81 40.77 35.67 34.76 32.75 36.16 35.33 36.03 37.04 38.67 36.87 43.16 43.86 45.07 40.59 39.71 34.94 35.85 43.23 35.48 35.09 36.38 37.29 37.76 38.83 40.48 40.69 41.57 41.71 40.43 38.41 37.75 36.47 35.46 35.46 33.79 32.12 32.04 33.82 33.91
43.16 43.53 43.45 43.83 43.93 44.43 44.97 45.69 46.54 49.71 50.49 43.21 38.21 33.49 34.94 33.49 33.13 32.95 33.13 33.31 33.49 33.67 36.57 40.02 37.66 39.11 38.75 36.03 36.94 35.12 34.22 38.72 33.67 32.56 33.92 34.52 35.65 36.53 38.19 40.10 39.53 37.71 35.48 35.68 35.73 34.50 33.10 31.67 31.07 31.65 31.56 31.58 30.97 29.68
43.50 42.93 43.28 42.91 43.76 44.23 44.83 44.79 45.58 47.65 42.84 36.93 37.68 31.30 31.30 32.39 32.95 32.77 32.95 33.86 34.57 37.54 38.02 41.44 40.55 40.84 36.21 34.22 35.49 34.40 32.59 32.59 33.31 33.24 34.14 35.13 36.31 37.05 37.95 38.89 36.17 35.20 34.70 35.44 34.96 33.12 32.23 31.74 30.68 29.77 30.11 30.35 30.16 28.30
44.74 44.81 42.16 42.99 43.48 44.64 44.74 45.72 44.79 43.67 38.28 34.74 33.22 32.04 32.59 32.77 32.03 32.22 32.22 32.59 35.98 36.57 40.69 41.38 36.94 34.76 32.95 34.94 34.58 33.31 33.88 32.67 32.22 32.95 33.57 35.18 35.37 36.56 37.91 37.12 35.69 37.02 37.58 35.79 34.57 32.54 31.81 31.36 30.85 29.96 29.45 29.29 27.39 26.71
44.55 42.21 41.53 42.82 43.43 44.33 44.76 43.88 40.27 37.57 35.33 33.49 31.86 31.86 32.41 32.19 31.48 31.86 32.41 32.92 36.64 36.39 32.95 36.00 32.95 30.58 34.92 33.12 31.58 33.09 31.12 32.41 32.04 32.69 34.58 35.69 35.58 36.28 37.71 36.75 36.45 37.04 36.36 35.09 32.87 31.86 30.54 31.21 30.89 30.31 28.26 28.12 29.13 28.44
42.24 43.88 42.48 43.34 45.67 45.07 44.22 43.33 39.18 36.82 32.68 33.18 32.03 31.86 32.95 32.77 32.59 33.13 34.94 37.78 37.07 35.27 34.88 33.30 35.66 32.95 31.86 30.93 31.45 32.59 32.21 32.04 34.72 34.94 35.76 36.97 38.56 38.68 38.85 37.67 36.46 34.64 32.70 31.54 31.09 30.95 31.27 30.80 30.30 28.60 27.87 27.30 28.01 27.21
40.10 41.81 42.15 43.34 45.03 43.39 38.28 38.72 39.91 31.87 32.38 33.49 33.67 34.94 35.27 35.65 37.56 36.99 36.76 40.89 41.02 41.40 38.52 37.45 33.18 30.48 30.25 30.61 30.29 32.41 32.95 33.28 33.25 34.45 35.57 36.38 36.60 36.00 34.93 33.93 33.17 32.56 32.14 31.90 32.24 30.05 27.98 27.46 26.60 26.49 25.27 25.33 24.18 24.61
41.59 40.73 41.50 42.84 44.86 40.27 34.67 35.82 41.47 34.73 31.76 33.52 35.52 34.53 35.16 34.84 36.82 34.19 35.85 39.40 40.25 38.36 32.56 29.59 27.51 28.12 28.59 29.48 30.65 31.44 33.12 34.33 33.87 32.59 32.56 33.21 34.28 34.00 33.36 32.94 31.92 31.11 29.46 28.39 27.86 29.17 28.81 26.83 25.24 24.61 23.33 23.46 22.41 21.29
41.76 41.30 42.20 44.13 41.70 39.27 36.46 35.87 34.31 34.86 34.21 32.07 35.14 36.41 33.69 36.56 34.90 34.40 35.61 38.60 32.94 29.43 29.21 30.65 30.48 30.93 31.66 30.49 30.70 31.40 31.73 30.97 29.77 34.31 33.06 30.87 31.41 31.17 31.29 32.29 32.70 31.16 29.12 27.98 26.53 24.59 24.11 22.41 22.03 22.19 23.04 23.15 21.92 22.88
40.45 41.15 42.29 41.64 37.20 36.13 34.86 37.56 35.29 36.99 34.26 34.18 34.38 35.14 32.69 31.49 32.41 33.19 37.18 31.46 27.80 28.92 30.81 29.98 29.88 30.57 28.70 27.55 28.69 30.18 30.10 29.10 29.06 29.17 31.22 31.33 29.32 28.70 28.47 28.91 27.12 24.99 23.89 24.17 23.47 22.48 21.88 20.04 19.41 19.83 20.89 20.34 20.40 21.94
40.56 40.89 38.79 37.18 31.69 32.10 29.10 37.14 31.00 31.04 28.05 29.80 33.53 29.92 29.65 29.78 32.28 36.69 30.01 28.92 28.29 30.73 31.11 29.70 28.82 29.35 28.08 28.47 28.20 27.85 29.32 28.08 26.46 26.08 25.53 25.17 24.82 23.92 22.36 22.07 23.74 23.00 20.30 19.96 21.32 20.70 19.60 18.17 18.19 18.28 20.16 19.36 19.50 19.55
39.21 33.19 30.42 30.60 31.34 26.54 33.51 28.86 32.53 30.77 31.00 28.18 27.58 25.94 26.30 28.58 32.95 29.97 24.62 25.28 26.79 29.02 28.59 28.51 30.46 28.77 27.67 25.96 23.69 24.40 27.00 27.46 25.99 26.18 26.25 23.98 21.32 20.50 21.02 19.57 18.67 18.62 19.78 20.62 19.48 19.17 19.11 18.32 16.23 17.68 17.37 16.27 16.98 15.90
30.31 27.54 31.04 27.17 32.76 29.46 27.36 26.86 28.12 27.74 24.58 26.88 26.80 26.22 26.76 30.73 27.21 25.12 23.38 24.61 24.82 25.04 26.43 28.84 27.82 28.02 25.96 24.47 23.66 23.14 24.65 24.71 22.11 20.43 22.85 24.00 21.81 20.24 19.06 18.36 17.54 17.31 18.46 17.30 16.06 16.19 16.45 16.80 16.32 15.21 14.20 14.62 13.87 13.48
24.13 27.37 26.28 27.01 26.98 26.56 26.36 24.03 24.37 24.36 25.33 25.54 24.91 27.17 29.30 28.04 24.59 21.49 21.90 23.87 23.21 22.97 23.43 24.72 26.92 24.87 22.09 22.75 21.45 20.25 20.67 24.34 23.03 18.59 18.47 19.89 20.01 20.53 19.57 18.24 18.01 15.53 16.56 16.47 14.52 13.00 13.36 13.77 12.83 12.20 12.50 13.00 12.44 13.15
22.90 24.71 28.44 31.68 29.42 28.91 27.19 27.91 28.79 27.80 25.53 25.23 26.56 26.68 26.96 23.21 20.97 21.02 23.40 23.28 22.89 23.13 23.64 24.15 24.20 23.02 21.50 20.40 20.37 20.51 20.48 20.17 19.71 18.55 19.33 18.72 17.81 17.50 16.11 13.75 11.82 11.94 13.61 14.03 12.84 11.49 10.04 10.57 10.81 11.11 11.17 13.26 13.71 12.50
27.07 27.88 24.26 27.36 27.83 29.72 26.01 26.77 27.02 25.90 26.39 27.32 28.60 24.16 22.17 20.14 17.92 21.44 22.41 24.19 24.70 24.26 22.85 22.38 21.53 21.30 20.71 20.94 21.69 21.90 21.59 20.32 19.40 19.88 19.52 19.09 18.91 17.54 16.39 16.05 14.61 12.79 13.29 13.89 12.28 11.90 11.28 10.34 9.49 9.54 10.25 9.63 9.73 11.51
27.26 29.05 30.15 24.15 26.84 26.51 26.20 26.36 26.25 27.30 28.13 27.40 25.51 23.33 19.70 18.68 19.47 21.31 21.97 23.91 26.25 26.22 22.96 21.38 21.04 21.51 20.37 19.65 19.24 19.34 18.10 17.00 16.46 13.74 13.85 14.65 15.96 15.05 15.52 14.73 14.74 14.15 13.98 12.90 13.09 13.28 12.66 11.10 10.32 9.84 9.41 9.27 9.92 10.99
25.83 30.07 27.88 26.51 25.09 24.38 26.62 28.55 28.34 28.51 27.26 27.05 25.58 21.82 18.83 17.76 19.41 22.03 21.48 21.45 20.57 19.61 19.79 20.14 20.31 19.45 18.16 19.16 16.50 15.44 15.16 13.30 11.88 10.65 9.64 9.46 9.92 12.97 13.68 13.42 12.28 12.44 12.59 11.51 10.66 10.61 11.91 11.17 10.43 10.17 10.88 10.04 9.49 7.69
28.54 29.78 28.02 27.44 25.82 26.39 26.66 27.98 29.99 28.92 27.85 25.23 24.81 22.29 17.56 16.13 17.42 18.31 17.50 20.37 19.32 19.12 19.52 17.19 15.30 15.86 14.06 12.70 12.59 12.59 13.09 13.82 11.92 11.32 9.77 10.48 11.78 12.31 13.20 12.39 12.55 12.72 11.44 10.52 9.29 8.24 8.17 7.96 7.47 7.20 7.41 6.88 6.13 5.71
26.38 24.02 24.05 22.85 25.36 27.36 27.58 25.49 25.31 26.37 26.82 24.71 20.99 21.15 19.57 20.01 13.71 13.97 15.65 18.19 16.71 14.90 14.24 15.21 14.23 12.65 13.49 14.46 14.53 14.44 6.24 12.27 13.06 11.49 10.01 9.14 9.29 10.38 10.88 10.39 10.57 11.31 10.88 9.29 8.64 8.07 7.48 6.96 6.20 5.74 5.58 5.28 4.21 1.67
26.17 26.18 25.64 24.58 24.07 23.27 25.57 24.20 23.41 21.97 21.77 19.57 17.70 18.81 16.63 15.10 9.74 13.88 17.67 17.35 14.80 13.74 13.56 14.32 15.10 15.40 14.15 13.30 12.78 12.78 11.63 13.97 12.41 12.56 11.90 10.41 5.07 6.27 5.99 8.05 8.70 8.18 6.72 5.87 6.13 6.61 6.15 6.09 5.73 4.79 2.85 1.69 2.03 0.62

GFSWCAN_sfc_wetblb_015.txt.gz
Wetbulb
44.57 44.30 44.39 44.61 44.99 45.11 45.25 45.00 45.66 46.33 46.61 46.91 47.55 47.91 48.55 49.08 49.38 49.69 48.04 51.05 50.50 49.94 49.88 51.82 52.27 48.71 48.37 48.41 42.57 48.92 45.73 45.49 40.18 37.09 35.00 33.29 32.51 35.18 35.03 40.51 36.45 33.16 30.79 28.22 31.68 28.91 27.02 44.79 43.03 35.68 41.13 43.69 44.55 43.97
44.62 44.55 44.62 44.71 44.95 45.01 45.30 45.59 45.94 45.91 46.03 46.67 47.66 47.67 47.83 48.05 48.04 48.40 45.78 51.75 53.39 48.94 51.87 55.75 55.69 55.15 55.20 54.43 50.46 48.13 46.30 47.76 47.33 41.33 39.49 37.14 33.14 34.28 33.72 30.10 43.43 34.20 38.73 33.96 35.96 33.82 42.85 43.62 43.47 46.33 45.52 44.25 43.95 44.48
44.77 44.67 44.67 44.87 44.97 45.35 45.46 45.65 46.19 46.45 46.57 47.13 47.67 47.65 47.80 48.02 48.24 48.03 46.92 51.27 52.01 49.61 50.49 53.01 52.00 54.20 56.49 57.13 57.68 48.18 49.82 52.21 50.22 51.32 43.58 40.25 35.41 34.08 32.81 33.22 37.09 42.40 44.88 37.12 37.62 41.65 43.45 44.37 45.04 46.40 46.94 46.66 48.02 46.57
44.62 44.69 44.88 45.26 45.58 45.56 45.75 46.24 46.49 46.76 46.90 47.27 47.31 47.29 47.39 47.77 48.32 48.74 46.70 51.02 51.58 50.24 41.20 48.45 56.87 52.75 55.78 57.22 57.40 56.54 54.80 55.41 53.99 51.52 40.46 38.25 37.18 45.49 34.42 39.14 36.79 41.70 42.76 40.84 39.44 42.07 45.03 46.34 46.90 47.91 46.90 47.10 44.40 43.14
45.18 45.22 45.25 45.57 45.68 46.01 46.28 46.46 46.63 46.69 46.95 47.34 47.55 47.61 47.84 48.33 49.42 50.47 49.94 51.50 53.16 49.41 43.72 46.11 52.89 54.25 55.21 55.34 55.29 56.19 54.99 52.39 48.93 40.96 35.34 37.33 39.23 40.64 35.82 37.45 34.05 43.24 41.19 34.88 32.00 44.68 43.61 43.31 45.13 45.47 43.68 42.79 43.18 41.11
43.97 44.00 44.14 44.80 45.14 45.13 45.53 45.83 46.17 46.61 47.06 47.45 47.95 48.36 48.79 49.41 49.65 49.86 46.41 51.58 52.79 52.93 48.67 39.92 50.66 51.20 53.02 54.34 53.48 54.06 53.42 51.46 50.76 45.57 40.15 43.42 46.91 40.58 33.54 31.07 43.48 44.92 46.01 46.21 44.13 46.37 44.02 43.17 42.47 42.74 40.85 40.57 40.61 39.80
43.88 43.41 43.72 44.11 44.32 44.93 44.89 45.99 46.15 47.20 46.99 47.33 47.84 48.65 48.84 48.95 50.11 47.53 48.39 51.77 51.71 51.09 47.02 40.13 39.51 49.14 52.63 52.97 50.62 50.63 52.15 50.80 49.05 46.40 39.51 40.61 42.40 44.36 32.89 32.48 42.64 44.61 44.70 45.36 46.21 44.41 41.47 42.49 39.64 40.90 39.50 38.97 39.25 38.43
44.10 44.11 44.36 44.55 44.40 44.73 44.46 45.44 46.97 47.24 47.56 47.78 48.10 48.37 48.53 49.08 51.00 49.27 52.59 50.14 50.45 51.32 48.57 37.19 38.60 42.51 51.73 42.47 41.31 49.01 44.11 45.54 45.09 42.33 40.95 36.59 40.71 35.21 33.63 41.21 42.72 44.40 44.61 43.59 42.92 43.69 41.72 40.94 39.87 38.81 38.86 38.16 36.50 35.46
46.46 46.03 45.10 44.83 44.84 44.98 45.28 46.49 46.92 47.33 47.67 48.16 48.46 48.72 49.62 48.81 49.88 50.32 50.13 49.27 54.39 49.32 38.42 37.00 36.99 36.82 48.82 42.36 40.79 43.22 45.23 36.99 42.04 35.17 35.92 38.17 31.69 35.24 41.08 40.99 41.50 43.01 42.96 41.93 42.26 41.42 40.22 38.72 38.41 38.13 36.95 35.81 35.88 35.70
45.90 46.56 46.35 46.30 46.25 46.27 46.29 46.65 47.06 47.49 48.30 48.50 49.67 49.15 41.75 48.29 49.49 48.82 50.04 43.77 42.82 44.87 42.93 36.44 42.40 38.45 45.13 36.66 37.20 37.61 36.64 34.65 32.08 34.13 41.17 36.23 29.98 38.81 40.85 41.42 41.80 43.19 42.53 41.51 37.24 36.24 36.96 36.98 36.78 36.84 36.61 36.98 35.97 33.84
45.73 46.28 46.95 47.10 46.64 46.52 46.52 46.77 47.26 48.14 48.55 50.23 47.35 42.80 48.45 49.09 49.41 42.30 35.76 36.23 37.98 34.42 37.85 37.84 39.37 38.65 45.10 37.40 36.12 37.33 34.80 34.40 32.03 33.80 33.09 28.69 29.89 37.69 40.02 40.08 41.35 41.06 41.37 41.42 41.29 40.11 38.79 37.63 36.66 35.35 33.54 33.04 30.62 29.73
45.57 45.63 45.96 47.43 47.78 47.31 47.17 47.40 48.04 50.55 50.56 49.91 49.67 49.89 48.49 46.26 40.83 35.45 33.51 34.88 35.90 34.19 36.00 36.61 38.42 42.51 38.09 43.62 34.58 37.28 33.68 33.30 29.59 36.92 34.51 31.79 33.93 37.28 38.76 39.34 40.04 39.72 38.63 38.32 39.15 38.21 38.09 37.00 35.63 32.99 31.39 30.72 30.01 29.85
44.26 44.78 45.06 45.29 46.17 47.59 48.39 48.86 48.90 50.25 49.43 48.57 42.47 37.91 41.11 35.44 33.71 28.48 29.97 31.82 32.89 33.69 35.14 34.83 34.46 38.29 39.00 40.59 35.73 36.28 35.37 32.71 34.76 32.97 31.88 31.37 36.39 37.51 38.71 39.03 38.94 39.09 38.65 37.07 35.83 35.40 34.37 32.93 32.62 31.93 31.33 31.67 30.23 29.71
43.52 43.91 44.25 45.20 45.20 45.75 46.31 47.46 47.50 47.78 46.44 38.26 34.49 30.59 32.83 31.87 30.11 30.41 31.31 31.91 32.28 32.47 33.92 35.91 34.65 34.65 34.48 34.45 33.56 33.29 32.82 34.28 31.91 29.50 29.38 32.94 35.47 36.85 38.16 39.22 37.83 35.30 33.06 31.95 32.11 31.61 30.88 30.49 29.72 30.10 30.11 30.03 27.00 26.41
43.13 42.85 43.53 43.44 44.59 44.96 45.02 45.31 45.21 43.87 38.24 32.43 32.32 29.23 29.22 31.17 32.08 32.09 32.28 32.82 33.17 34.96 34.65 35.91 35.36 37.02 33.20 33.17 32.98 32.73 31.21 29.68 30.31 29.54 31.73 34.27 35.92 36.45 36.27 34.72 33.45 32.70 32.25 31.95 31.70 30.33 29.84 29.49 28.81 28.59 28.15 27.43 26.56 25.08
44.71 43.13 41.15 43.27 44.34 45.13 45.13 44.60 43.38 40.22 35.78 33.09 31.45 31.01 32.06 32.08 31.51 31.87 31.90 32.12 35.29 33.92 35.01 34.81 33.54 32.77 31.46 32.64 32.08 30.60 30.45 27.33 28.64 30.63 32.64 35.01 34.99 35.62 34.37 34.43 35.26 34.66 33.22 32.13 32.03 31.42 30.23 29.07 27.09 27.34 27.21 24.79 22.14 20.91
43.76 38.94 42.79 43.48 44.43 44.62 44.73 42.23 39.65 34.80 32.06 31.82 30.56 31.76 31.73 31.69 30.62 31.55 31.76 32.79 35.64 33.92 32.31 32.62 30.76 28.69 31.69 30.59 28.69 30.17 27.66 29.72 31.17 32.06 33.86 35.22 34.78 35.22 34.45 34.31 33.42 33.23 31.84 31.18 30.91 30.58 30.14 29.41 26.77 26.06 24.96 26.08 25.83 23.66
38.95 41.33 43.37 43.92 44.58 43.35 41.78 41.53 35.60 33.38 30.11 31.49 29.76 31.33 31.72 31.75 31.75 31.76 33.17 34.65 34.60 33.17 32.77 31.31 33.14 30.72 28.32 27.04 27.26 30.07 30.42 31.54 32.89 33.06 34.82 36.06 36.63 36.40 36.80 35.36 33.38 31.97 30.66 30.28 30.29 30.00 28.37 26.42 25.49 23.89 24.29 24.85 24.20 23.35
39.54 40.55 42.84 43.87 43.66 39.37 33.32 34.98 36.76 29.86 30.57 31.55 31.73 32.64 33.02 32.83 33.42 34.22 34.45 35.29 35.71 35.35 34.68 32.55 27.18 25.25 25.12 26.37 25.93 28.54 31.52 31.90 32.14 32.85 33.18 34.49 34.26 33.50 32.94 32.22 31.63 31.09 30.72 30.11 28.66 25.06 24.85 24.76 23.44 22.24 22.38 22.17 19.84 19.80
41.66 41.48 42.20 42.70 43.33 33.75 31.43 31.78 37.90 31.94 30.15 31.14 32.83 32.10 31.99 31.87 33.18 32.83 32.85 32.58 33.08 31.32 28.11 26.17 24.88 26.19 26.58 27.08 28.77 29.61 29.94 33.15 32.49 30.61 30.11 31.42 32.13 32.07 31.81 31.39 29.57 27.92 27.31 27.05 26.70 25.62 23.59 22.14 22.52 22.04 19.89 19.04 14.76 11.68
39.89 39.09 41.66 41.69 37.17 35.78 32.32 30.65 31.62 32.39 31.86 31.10 31.44 30.96 30.09 31.45 31.38 31.23 29.62 30.98 27.59 27.47 25.58 27.83 27.16 27.32 29.06 29.23 29.94 29.80 28.18 28.52 28.37 31.54 30.29 28.36 30.20 30.50 30.16 30.44 29.53 28.55 26.63 25.03 23.02 21.05 19.62 18.17 18.61 18.68 10.68 7.29 6.95 7.94
36.55 41.42 34.55 36.36 31.75 31.04 30.30 32.91 30.41 32.06 30.61 30.03 29.39 30.52 28.19 26.25 27.26 30.12 29.27 25.51 25.23 26.91 27.69 26.90 27.07 26.88 25.92 25.77 26.95 28.38 29.01 28.05 27.22 26.37 26.64 26.93 23.55 23.82 23.97 23.69 22.21 20.45 20.80 21.30 21.35 18.39 17.62 17.92 16.57 14.49 7.58 6.21 11.19 11.65
39.48 37.84 32.17 31.08 23.69 22.84 21.15 30.50 22.77 26.79 21.03 24.55 27.42 25.23 26.73 26.70 27.39 30.71 24.28 25.82 25.65 29.02 29.27 28.40 27.79 27.91 25.69 25.60 25.78 26.55 26.75 25.45 23.34 23.08 22.44 21.49 21.11 20.52 19.47 19.14 21.36 19.06 18.14 18.92 20.22 19.08 17.27 16.13 14.05 9.75 10.06 8.12 5.39 6.34
37.38 31.18 26.47 23.79 23.75 23.90 23.73 20.55 26.94 25.04 23.43 24.77 23.50 19.97 24.51 24.09 26.20 22.20 21.20 22.95 24.71 26.29 26.87 27.83 28.45 25.20 23.17 22.07 20.58 21.71 24.17 23.45 22.16 22.19 22.72 20.50 18.42 18.17 18.35 17.55 17.51 17.61 18.62 18.06 16.93 15.39 14.35 8.93 9.41 8.53 2.47 -0.39 -1.47 -1.34
22.19 21.28 23.03 17.20 23.86 19.09 17.21 24.12 21.56 22.16 22.79 23.96 19.47 21.27 23.83 25.04 19.00 20.79 20.14 21.59 19.82 19.93 21.81 25.42 22.57 23.78 20.81 19.77 20.00 20.25 22.49 21.58 18.41 16.19 19.30 20.95 18.81 17.67 16.48 16.06 14.98 14.76 15.18 10.46 7.36 3.63 3.10 1.84 -0.32 -2.16 -0.96 -4.31 -0.57 -0.82
19.95 25.34 23.56 24.41 24.52 23.93 24.27 21.25 22.22 22.69 23.88 23.23 23.90 25.76 26.96 23.04 16.26 14.70 18.95 19.11 17.10 17.02 18.89 19.93 21.92 18.21 17.86 18.90 17.13 16.59 17.37 21.33 18.61 14.78 15.54 16.41 15.51 14.58 12.47 11.53 10.69 8.34 9.09 2.11 -0.78 -2.31 -1.49 -1.69 -3.96 -2.37 -3.59 0.97 2.82 4.03
21.76 23.67 27.22 29.59 28.60 27.68 25.70 26.51 26.20 21.14 17.69 19.18 22.40 24.03 17.45 19.40 12.75 18.13 19.71 20.15 18.99 18.31 20.63 20.58 20.49 19.13 18.26 17.74 18.49 17.63 17.28 17.03 15.92 15.98 16.47 15.66 15.12 14.25 10.63 2.79 0.22 3.88 3.77 2.37 -2.40 -4.67 -5.57 -4.84 -5.21 -4.84 -5.02 1.17 1.74 -0.73
26.53 27.17 23.19 26.71 26.76 26.98 21.07 20.81 17.83 18.87 21.36 25.63 25.12 14.76 12.71 14.36 11.50 18.51 20.08 22.80 21.19 20.33 19.90 19.41 18.74 18.39 17.51 17.29 16.42 15.84 15.98 16.32 14.71 15.64 16.02 14.70 12.83 8.49 5.39 3.64 4.38 10.50 5.06 4.20 -1.44 1.56 0.41 -1.59 -5.21 -6.47 -6.29 -4.66 -6.66 -6.85
25.85 28.18 23.37 18.63 24.68 25.35 24.30 23.01 22.85 24.47 25.64 24.83 15.96 14.14 13.86 15.68 16.88 18.14 20.67 21.61 21.45 20.62 18.35 17.39 16.44 15.32 15.39 14.95 13.70 12.20 10.33 9.95 8.60 3.87 1.95 1.66 4.11 4.60 2.54 0.41 1.62 -0.30 -1.15 -1.45 5.72 8.02 5.13 2.22 3.52 -0.38 -5.03 0.33 1.34 0.12
23.86 23.97 18.91 15.05 12.43 19.47 23.01 25.52 24.97 25.24 25.67 24.95 19.15 17.56 15.25 13.93 15.38 16.59 16.60 17.01 17.04 15.08 15.35 15.04 15.00 12.01 10.35 10.70 8.20 8.14 7.08 4.72 4.86 0.44 -5.02 -6.66 -4.84 0.75 1.28 4.41 0.08 -2.71 -0.34 -3.96 -4.66 -2.08 3.67 0.02 -0.49 -4.56 -4.93 -1.09 1.03 -4.34
26.79 24.40 18.66 18.83 17.33 22.96 24.65 26.73 27.97 25.36 24.72 19.05 16.51 11.91 10.36 10.71 11.12 13.71 13.87 16.71 14.45 14.52 13.05 7.41 9.75 10.12 8.80 7.80 5.83 -0.51 -1.43 -0.11 0.36 -0.32 -2.75 -4.32 -3.22 -3.03 4.29 5.38 2.32 -3.23 -1.11 2.85 0.51 -4.84 -7.38 -7.92 -2.17 -3.94 -7.92 -6.84 -2.73 -6.33
23.82 22.10 13.63 13.81 18.81 22.07 25.73 24.28 24.00 22.19 21.33 17.55 12.42 8.83 8.89 9.81 2.74 5.80 12.40 12.23 10.24 10.13 10.51 10.06 7.58 4.33 2.54 2.53 1.32 0.12 -0.84 -0.83 2.98 -2.00 -2.40 -5.02 -5.75 -6.66 -6.47 -5.57 -5.75 2.47 2.86 0.36 -3.85 -7.74 -1.87 -1.81 -5.21 -1.30 -4.48 -7.38 -10.26 -13.06
18.34 17.15 15.99 13.25 14.07 15.25 16.44 13.51 16.23 12.64 12.32 11.18 11.10 10.37 7.85 5.27 2.16 7.51 12.30 11.51 5.89 4.02 7.53 9.24 8.73 8.36 6.43 1.71 -0.57 0.26 4.53 1.02 1.95 8.09 8.83 8.47 1.31 -0.49 -8.11 -7.74 -8.29 -8.83 -9.19 -10.46 -10.28 -9.92 -5.93 -0.53 0.37 -2.20 -6.11 -12.11 -11.73 -10.64

GFSWCAN_sfc_wetblb_018.txt.gz
Wetbulb
43.98 44.43 44.44 44.46 44.43 44.44 44.64 44.89 44.91 45.24 45.24 45.39 45.70 45.88 46.19 46.48 46.98 47.63 46.89 49.83 46.87 45.01 47.57 50.46 49.04 46.57 47.58 47.36 41.86 45.69 45.81 44.72 38.31 35.53 34.33 31.72 29.31 34.38 33.78 37.65 34.88 32.02 28.94 25.75 30.35 24.28 25.32 43.36 41.14 35.21 37.57 41.55 42.72 42.26
44.10 43.88 43.95 44.10 44.34 44.70 44.85 44.99 44.89 44.94 45.49 45.48 45.55 45.98 46.43 46.68 47.86 48.33 45.64 49.71 50.59 45.87 46.78 50.86 53.35 53.64 52.15 51.52 48.79 46.67 45.93 46.71 46.72 40.41 36.47 34.86 31.15 31.04 32.08 29.94 40.82 32.22 35.37 31.59 33.41 32.31 41.08 42.09 42.55 44.52 43.91 42.52 42.10 43.97
44.20 44.16 44.35 44.64 44.61 45.03 44.56 44.41 44.27 44.62 45.03 45.13 45.69 46.30 46.88 47.76 48.66 48.48 47.28 49.81 47.79 44.94 46.55 49.09 49.09 52.89 55.62 54.71 55.17 46.40 47.00 49.99 50.06 47.41 40.04 38.75 32.85 32.22 29.51 30.27 35.53 39.72 43.48 36.12 36.60 40.30 41.24 42.00 44.58 44.97 45.70 44.75 43.76 44.14
44.31 44.55 44.73 44.90 44.99 45.01 44.90 44.63 45.13 45.75 46.11 46.16 46.23 47.22 47.76 48.02 48.62 48.41 46.96 49.62 48.98 47.37 39.83 46.16 55.02 51.87 55.42 57.10 56.18 53.90 51.99 52.62 52.05 45.75 38.56 34.45 34.18 39.95 31.20 36.67 34.69 39.68 41.55 39.23 37.05 41.17 44.10 44.43 44.42 44.08 41.99 41.48 40.27 40.47
44.60 44.53 44.67 44.97 45.11 45.16 45.34 45.30 45.25 45.28 46.20 46.58 47.50 47.55 47.70 48.09 48.53 48.37 48.80 49.19 50.30 47.14 40.72 42.68 49.81 53.24 54.94 56.90 56.31 55.96 54.08 50.95 45.48 39.99 33.91 34.27 35.10 38.89 30.93 34.89 32.12 41.27 39.47 34.30 32.89 42.04 41.07 41.26 42.11 42.80 41.16 40.07 39.79 38.47
44.74 44.84 45.03 45.26 45.35 45.65 45.72 45.82 45.82 46.27 46.60 47.24 47.42 47.69 47.95 47.90 48.43 47.77 42.19 48.13 49.56 50.47 44.31 37.56 50.61 51.06 52.67 54.94 55.07 54.34 52.85 51.17 48.58 41.89 35.09 40.85 44.99 37.40 30.47 29.22 41.31 43.30 44.20 44.05 43.06 44.10 41.60 40.28 40.53 40.91 38.88 38.58 38.48 37.59
44.98 45.29 45.36 45.36 45.76 45.80 46.07 46.05 46.16 46.64 46.80 46.99 47.39 47.56 47.79 47.90 48.54 45.15 43.18 50.39 50.23 51.32 43.70 38.81 40.04 48.79 52.06 51.73 49.86 50.19 50.82 49.08 47.52 44.06 37.46 38.96 40.90 39.52 29.09 31.12 41.37 42.40 43.70 42.71 42.91 42.29 39.48 40.18 36.74 38.66 38.07 37.65 37.98 37.13
44.09 44.24 44.61 44.79 44.99 45.25 45.41 45.62 46.16 46.73 46.98 47.30 47.39 47.85 48.21 48.61 49.59 46.99 51.15 50.60 51.94 48.54 48.04 37.68 37.97 41.46 50.48 41.18 41.98 47.07 42.84 43.37 43.93 42.05 39.78 35.70 39.63 32.04 32.26 39.56 41.36 41.36 41.60 41.35 40.90 41.56 39.85 38.47 37.94 36.93 37.14 36.60 35.19 34.58
43.17 43.42 43.58 44.08 44.42 44.49 44.51 45.92 46.74 46.80 47.05 47.71 47.96 48.13 48.15 47.64 46.12 47.05 49.45 49.35 51.42 49.05 40.09 36.72 36.69 36.52 45.98 40.85 39.39 40.76 41.00 36.87 42.09 35.21 35.60 37.15 34.32 32.33 38.61 39.98 40.44 40.78 40.35 38.48 39.15 38.62 37.88 36.19 35.98 35.75 35.17 34.77 34.02 32.98
43.58 43.87 44.10 44.12 44.27 44.54 44.72 46.04 47.08 47.32 47.14 47.68 47.34 46.16 40.36 46.74 49.88 50.56 49.22 44.84 42.97 43.02 40.47 36.36 41.13 37.59 42.87 35.45 36.37 34.89 36.52 33.98 30.94 33.68 38.85 33.68 28.05 37.45 39.10 40.09 41.48 40.85 40.03 39.45 35.72 34.47 35.27 35.20 35.68 35.97 35.28 35.00 33.21 31.58
44.99 44.20 44.08 44.10 44.54 44.98 45.14 46.45 47.16 47.70 47.71 46.89 45.18 41.45 48.48 49.18 48.26 42.86 36.09 35.80 37.74 34.29 37.48 38.30 35.90 38.45 43.99 36.33 35.27 35.42 34.18 33.00 27.45 31.29 31.71 32.75 30.23 35.33 38.22 38.22 39.90 40.61 40.46 39.69 39.60 38.39 37.49 36.43 35.34 33.48 31.46 30.97 29.93 29.80
46.83 46.38 46.08 45.67 45.85 46.06 46.44 46.73 47.30 47.75 48.22 49.15 48.53 48.91 47.48 44.13 37.01 34.47 32.32 34.25 34.40 32.70 34.90 35.95 37.64 39.70 39.68 43.95 36.95 35.60 33.24 32.18 31.89 35.21 29.51 26.41 32.78 36.47 37.03 37.10 37.73 37.87 38.03 37.62 38.13 36.86 36.96 35.51 33.96 31.49 29.62 29.23 29.76 30.02
46.74 46.74 46.45 46.37 46.35 46.91 47.10 47.30 47.66 49.05 49.39 47.05 42.22 36.53 38.83 33.65 31.29 27.49 28.55 31.21 32.10 33.08 34.51 34.35 34.71 36.36 38.34 39.70 34.56 34.32 33.05 31.75 30.59 30.49 29.92 29.80 36.75 37.53 37.12 36.91 36.97 37.98 37.00 36.01 35.01 34.48 33.44 32.21 32.04 31.01 29.82 29.61 29.88 29.16
44.85 45.27 45.92 46.89 46.82 46.92 47.17 47.69 46.30 46.60 44.06 36.03 33.32 29.83 32.40 30.08 29.55 29.59 30.86 31.80 31.99 32.37 33.28 34.00 34.00 34.71 33.46 34.51 33.11 33.64 32.72 33.63 30.29 27.57 28.39 32.46 36.09 36.73 37.15 37.12 35.08 33.64 32.45 31.69 30.93 30.43 30.22 30.36 29.77 30.43 28.76 27.43 26.68 25.37
44.14 44.07 44.30 44.33 45.15 44.95 45.00 44.53 44.29 41.55 35.81 32.16 32.04 27.56 28.41 30.86 31.95 31.80 32.19 32.35 32.70 34.33 33.46 34.54 34.71 36.33 32.91 33.26 32.70 32.26 31.00 29.02 29.77 28.70 31.04 34.09 35.95 35.19 35.32 33.79 32.41 31.36 30.61 30.21 30.14 29.58 29.20 29.33 28.34 27.20 26.35 26.51 25.87 23.41
43.82 43.47 42.50 44.06 44.98 45.11 44.58 43.55 40.52 37.93 34.15 29.87 31.33 30.87 31.93 31.72 30.64 31.56 31.80 32.04 35.01 33.28 33.82 34.40 33.02 31.77 30.68 32.26 30.71 29.16 29.01 26.84 28.49 30.15 32.17 34.21 33.36 33.24 33.31 32.88 32.52 32.02 31.24 30.43 30.13 29.68 28.74 27.07 26.44 26.11 25.00 23.76 22.84 21.11
42.50 38.37 42.75 44.17 44.16 44.00 43.99 40.51 37.16 33.03 32.75 30.21 29.55 32.02 31.98 31.57 30.83 31.61 31.78 32.85 35.47 33.62 32.02 29.83 28.82 28.37 31.72 28.63 26.42 28.94 26.29 28.67 30.71 31.61 33.24 34.67 33.15 33.21 34.19 33.65 32.52 32.04 31.29 31.08 30.26 29.53 28.01 27.15 26.20 24.55 22.98 23.88 24.21 22.42
36.61 38.36 43.83 44.73 43.17 42.24 41.35 39.16 33.95 32.52 30.37 30.98 29.49 30.62 31.90 31.77 31.72 32.11 32.45 34.09 33.89 32.49 32.61 30.29 32.61 26.69 23.35 23.87 23.91 28.06 30.11 31.24 31.96 33.35 34.56 35.19 35.26 35.12 35.49 33.60 33.35 31.58 30.98 30.54 30.38 29.41 26.54 25.43 24.41 23.70 25.32 24.17 23.19 23.07
39.79 40.85 42.90 43.72 41.97 36.78 34.02 34.81 35.29 29.59 29.93 31.06 31.77 31.95 31.61 31.98 32.52 31.73 32.16 34.59 34.92 34.22 32.43 29.34 24.13 22.87 22.43 24.79 24.70 26.70 28.80 31.24 31.04 31.15 31.86 33.83 34.07 32.49 31.99 31.65 31.20 30.64 30.21 28.67 26.74 24.60 23.75 23.58 22.91 23.01 22.35 21.54 19.17 19.18
41.60 41.55 41.65 41.95 40.55 32.91 30.29 30.49 34.99 31.43 29.67 30.88 31.96 31.59 31.80 31.34 31.69 30.63 29.10 29.77 31.04 29.46 26.25 23.63 22.15 23.28 24.05 25.47 27.34 27.17 27.10 30.98 31.39 29.62 29.24 30.53 31.44 30.94 29.88 28.56 27.55 27.76 26.29 25.55 24.19 23.43 22.71 21.74 21.80 21.17 20.02 18.31 14.68 13.39
37.16 37.71 38.95 36.20 32.94 32.16 29.44 28.93 30.38 31.69 31.58 29.78 30.06 29.91 29.21 30.47 26.85 25.31 25.49 28.55 25.84 25.49 22.86 25.24 23.91 24.98 26.88 27.01 27.48 27.89 26.67 27.12 27.91 30.79 28.46 25.77 26.40 25.76 25.46 26.13 26.43 25.43 22.84 20.96 19.38 19.04 18.50 18.03 18.50 18.20 15.89 12.26 9.01 10.96
34.35 39.10 28.38 32.23 27.70 27.44 26.85 29.24 28.09 29.31 28.98 27.98 26.82 27.65 23.98 24.07 25.35 25.57 26.14 23.54 23.79 25.12 26.02 25.42 25.06 24.32 23.45 23.84 24.35 25.33 25.74 25.21 25.27 23.85 23.37 24.04 22.09 21.90 21.17 21.60 20.87 19.67 20.00 19.55 18.32 16.84 16.77 16.77 16.65 15.81 13.70 9.93 10.98 11.30
35.49 32.62 27.71 25.40 20.24 19.43 18.62 26.74 20.63 25.25 19.28 20.78 23.12 22.84 23.40 23.44 27.63 27.21 20.74 23.80 23.76 25.24 27.80 24.84 23.64 23.95 22.41 23.40 23.71 23.26 24.05 22.96 20.56 20.36 19.96 19.19 19.01 18.96 18.65 18.86 19.62 18.01 16.91 17.98 19.24 17.30 15.41 15.47 13.83 11.29 8.58 6.34 1.78 1.22
34.06 26.26 21.05 18.57 19.97 17.28 16.66 18.90 24.21 22.58 20.11 19.23 19.74 21.56 20.95 20.60 23.59 19.28 17.91 19.92 21.77 22.75 22.90 25.17 24.15 21.30 20.85 19.82 18.11 18.95 20.79 21.56 19.94 19.47 19.90 17.98 16.02 15.87 16.37 15.14 14.95 15.03 15.73 15.15 13.68 11.43 11.14 7.96 6.38 5.19 -1.46 -3.88 -6.76 -7.30
20.73 18.75 17.24 12.47 16.62 16.78 15.96 22.37 23.00 23.04 19.92 14.98 17.08 19.70 22.99 19.33 16.95 14.73 15.59 17.00 16.91 16.69 18.61 20.91 19.30 19.98 16.82 15.98 16.19 17.20 19.05 18.52 15.88 14.35 15.67 18.64 16.12 15.22 13.61 12.21 10.72 11.29 11.73 8.26 3.54 1.38 -0.15 -4.42 -7.66 -9.66 -6.61 -12.02 -5.13 -4.95
19.39 21.54 20.64 23.11 23.30 19.71 22.13 18.15 20.64 20.95 19.99 19.37 22.46 24.51 17.89 14.06 6.00 9.22 15.38 12.58 13.74 13.30 15.21 16.46 14.09 14.92 15.22 16.26 14.47 14.34 15.94 19.57 16.91 12.76 13.53 14.70 14.25 10.62 10.05 8.98 7.15 5.93 7.42 -0.11 -5.68 -8.21 -7.85 -8.57 -10.57 -9.48 -9.84 -4.22 1.12 -1.34
18.81 17.32 25.02 27.63 27.32 23.47 21.68 19.12 18.39 14.13 10.42 14.97 18.68 19.03 16.86 5.00 5.81 14.41 18.56 18.30 17.05 15.47 18.33 17.97 18.35 16.71 16.16 16.45 16.72 16.46 16.03 15.69 14.78 13.91 14.46 13.91 13.02 11.76 5.64 -1.52 -0.79 3.51 0.56 -2.85 -8.93 -9.30 -7.30 -8.57 -10.93 -11.29 -12.74 -13.65 -10.02 -10.38
24.37 24.26 19.28 22.70 16.88 17.43 10.21 8.24 7.92 12.66 13.86 20.32 18.65 8.43 8.82 3.10 7.09 16.03 17.98 20.72 19.06 19.03 17.83 17.49 17.01 15.76 13.29 11.85 11.22 10.63 10.96 13.04 14.47 13.58 12.24 11.25 10.47 9.16 7.08 5.02 5.12 11.04 0.46 -6.03 -7.30 -1.72 -2.59 -2.96 -2.27 -4.76 -6.76 -10.75 -7.66 -12.20
23.98 25.07 17.38 13.01 11.30 13.03 15.54 15.11 14.78 19.92 23.38 17.50 7.59 7.56 7.29 12.20 12.40 12.64 16.28 18.96 19.23 16.62 13.74 13.60 13.69 12.76 11.53 9.55 8.25 8.11 7.72 6.66 0.60 -2.88 -8.03 -7.48 -6.21 -2.05 3.23 1.81 1.22 -2.61 -6.58 -6.94 1.04 4.66 0.89 -3.20 0.50 -3.31 -8.57 -8.93 -0.54 -5.85
18.24 13.41 10.99 5.92 12.39 18.04 20.42 19.02 12.63 20.70 21.58 12.80 13.22 13.14 11.35 10.19 12.58 15.15 15.17 13.46 11.43 9.69 10.10 10.06 10.26 8.29 5.73 0.45 1.57 4.57 2.49 1.25 1.47 -4.86 -9.66 -11.65 -6.58 -2.48 -5.85 -4.40 -4.58 -3.53 -3.53 -9.12 -3.50 -1.30 -0.07 -9.32 -7.12 -7.87 -8.58 -11.11 -12.56 -10.75
21.02 11.37 11.04 11.21 16.08 21.29 22.75 24.20 19.49 18.69 9.00 8.08 7.58 4.31 3.03 7.01 7.21 11.37 11.93 11.52 11.24 8.43 7.37 4.18 2.96 0.57 -0.08 -0.59 -7.85 -10.57 -6.08 -1.62 -3.68 -5.31 -8.21 -10.38 -12.56 -13.47 -12.74 -12.74 -13.10 -12.92 -9.66 -8.03 -8.57 -8.75 -9.84 -12.56 -13.47 -8.75 -8.75 -7.48 -10.75 -13.28
8.04 5.92 6.91 9.49 14.48 17.66 15.93 18.41 15.89 18.91 10.98 5.81 1.57 -2.95 2.58 -1.61 -2.60 4.19 9.84 4.78 6.21 5.59 4.68 4.47 1.66 2.67 -3.31 -7.66 -9.12 -3.68 -1.75 -3.31 -2.62 -4.40 -3.68 -4.58 -2.59 -5.85 -5.67 -10.93 -15.64 -16.73 -16.55 -17.45 -18.36 -17.82 -17.45 -14.01 -9.48 -5.71 -3.60 -8.21 -9.84 -16.19
8.68 3.84 1.68 4.09 11.78 7.89 5.41 8.09 14.16 8.54 6.43 4.15 4.15 2.02 0.08 -0.09 -1.38 2.70 7.38 6.23 1.13 -3.68 -3.86 -2.41 -0.78 2.11 3.35 -1.64 -4.09 -6.40 -2.31 -8.21 -9.12 -0.23 -1.32 0.86 -3.86 -4.04 -10.57 -15.28 -15.28 -14.92 -12.92 -14.01 -16.91 -18.72 -13.28 -11.83 -12.02 -11.50 -9.38 -7.89 -8.60 -13.10

GFSWCAN_sfc_wetblb_021.txt.gz
Wetbulb
45.67 45.01 44.85 44.60 44.50 44.61 44.42 44.38 44.54 44.59 44.57 44.45 44.66 44.81 45.54 46.20 46.68 44.98 43.89 48.80 45.39 41.47 42.35 47.26 47.77 43.99 44.67 43.73 39.17 42.71 46.27 43.58 35.29 35.21 33.26 30.32 29.24 33.62 31.67 35.23 33.20 32.89 29.34 25.92 25.18 22.05 25.92 40.58 39.84 34.31 36.88 39.53 41.66 40.93
42.93 43.41 43.57 43.47 43.75 43.93 44.22 44.07 44.02 43.97 43.97 44.26 45.02 45.19 45.76 46.57 47.01 46.24 42.50 48.84 50.42 44.79 42.27 47.18 47.10 47.75 47.67 48.89 46.35 46.02 44.39 44.79 44.22 39.21 36.14 33.26 30.05 28.48 32.02 29.46 38.44 31.64 34.74 31.87 33.13 31.88 39.24 40.73 39.30 41.19 41.91 41.53 40.77 41.67
44.31 44.16 44.27 44.35 44.30 44.20 44.24 44.08 43.91 44.01 44.31 44.79 45.40 45.89 46.43 46.57 46.78 45.50 45.12 47.68 46.86 42.08 41.17 43.38 46.86 49.65 53.38 52.95 53.33 46.06 44.99 49.10 47.10 47.47 40.67 36.41 33.40 32.34 29.57 29.88 33.48 37.77 40.76 35.33 34.96 38.48 39.79 40.25 42.53 43.17 42.43 42.41 43.50 43.70
43.95 44.28 44.35 44.40 44.37 44.30 44.39 44.28 44.25 44.56 44.96 45.22 45.38 45.76 46.22 46.39 46.90 46.48 44.60 49.01 46.29 44.38 38.24 44.65 53.32 50.75 53.27 53.28 52.47 51.51 50.54 50.48 49.16 46.82 38.15 33.93 34.88 38.54 30.02 36.21 33.60 38.33 40.59 37.20 35.81 39.73 41.52 41.93 41.52 40.28 39.85 39.72 38.84 38.47
44.57 44.33 44.47 44.43 44.50 44.38 44.14 44.39 44.35 44.80 45.22 45.29 45.57 45.97 46.47 46.80 47.12 47.22 47.51 48.50 49.74 43.83 39.31 42.30 49.27 51.59 53.20 52.99 52.91 52.00 52.06 48.55 43.22 39.40 35.31 37.04 36.70 38.25 30.22 33.86 30.27 39.88 38.22 34.25 32.87 41.74 40.02 40.87 40.53 40.85 39.17 37.85 37.97 37.08
44.63 44.81 44.62 44.85 44.71 44.44 44.49 44.94 44.82 44.81 44.68 45.20 45.71 46.40 46.65 46.98 48.03 46.50 40.81 45.54 48.94 48.89 41.78 36.38 46.64 49.15 51.34 52.34 52.07 50.35 50.75 48.43 45.32 40.16 35.85 41.32 44.10 39.04 32.73 30.01 40.02 41.77 41.89 41.58 40.86 41.57 40.53 39.35 38.94 39.32 37.82 37.38 37.45 36.75
44.91 44.98 45.10 45.14 45.14 45.18 44.98 45.18 45.25 45.86 45.55 45.31 45.82 46.62 47.45 47.64 46.88 42.30 39.58 44.96 47.23 48.82 41.87 37.36 37.89 48.06 50.44 48.82 47.43 49.26 50.12 48.21 47.18 43.16 34.81 37.71 40.28 37.05 26.90 30.89 40.38 41.74 41.75 40.64 40.51 40.23 37.25 37.87 36.02 37.82 37.21 37.03 37.25 36.15
45.03 45.31 45.31 45.26 45.30 45.36 45.32 45.55 45.82 46.31 46.52 46.70 46.79 47.18 47.39 47.44 47.01 44.30 50.12 48.96 49.04 45.81 45.19 36.05 36.08 41.08 48.66 39.68 43.43 46.93 43.87 44.04 43.37 41.59 37.85 34.84 39.13 31.18 31.90 38.53 39.65 40.49 40.63 39.39 38.54 39.91 38.71 37.25 36.51 35.58 35.85 35.20 33.87 33.02
44.86 44.86 45.05 45.44 45.57 45.69 45.88 45.96 46.11 46.63 46.68 46.87 46.87 46.87 46.43 45.46 42.46 45.03 48.59 50.11 51.54 47.65 38.72 34.78 34.00 35.31 46.57 41.91 40.73 40.70 42.34 36.76 42.31 36.60 36.78 40.75 35.26 33.94 36.65 38.77 39.08 40.02 39.57 36.57 37.26 37.01 36.48 34.90 34.53 34.56 34.09 33.68 32.04 31.11
44.22 44.43 44.52 44.32 44.46 45.02 45.43 46.04 46.39 46.70 46.94 46.93 46.08 43.72 39.43 42.38 48.65 48.60 46.57 43.34 43.63 44.34 40.81 35.15 40.74 37.30 43.89 36.04 36.60 36.40 35.84 33.86 33.75 34.90 39.15 34.37 33.06 36.85 37.20 40.25 39.72 39.42 38.63 37.99 34.63 33.18 33.71 33.10 33.24 33.52 33.52 34.29 32.61 30.78
43.86 43.97 44.05 44.13 44.22 44.61 45.94 46.05 46.56 47.13 47.25 45.18 41.77 40.04 47.58 48.42 46.66 40.45 34.19 35.08 37.18 34.18 36.53 38.20 37.49 38.34 43.35 37.41 35.30 34.92 34.22 31.58 28.72 33.72 33.59 32.17 31.36 34.30 36.20 38.54 40.14 40.18 40.15 39.65 39.00 37.55 36.51 35.21 33.89 31.97 31.05 30.71 30.25 30.19
44.46 44.52 44.44 44.39 44.52 44.80 46.19 46.64 46.43 45.98 44.78 44.95 47.43 48.03 46.71 42.82 38.44 32.93 31.66 33.79 33.53 33.24 34.84 36.04 37.14 41.19 38.23 42.39 35.74 35.25 33.05 31.43 27.94 35.08 29.19 30.94 30.96 34.08 34.59 35.41 36.50 37.36 37.51 37.13 37.37 36.20 35.59 34.66 33.09 31.29 29.86 29.70 29.87 29.62
44.07 44.28 44.50 44.55 44.86 45.58 46.82 46.97 46.59 48.45 48.63 46.57 41.89 36.94 38.22 33.12 30.72 30.35 29.37 31.13 32.02 32.56 34.42 34.24 34.22 35.31 37.30 38.80 33.82 32.82 28.88 26.40 33.80 26.85 28.30 28.91 35.85 35.32 35.69 36.47 36.55 37.55 37.74 36.57 35.20 34.30 32.84 31.22 30.80 29.61 29.19 29.82 29.03 27.21
45.57 45.41 45.27 44.85 45.15 45.58 46.28 46.88 47.11 46.59 43.53 35.94 35.67 29.17 30.83 28.45 29.06 29.26 30.53 31.45 32.17 32.23 32.96 33.86 33.68 34.39 32.97 33.97 32.77 33.36 32.22 33.42 29.31 26.96 26.16 32.55 35.33 35.25 36.21 35.82 34.86 33.44 32.86 32.30 31.81 31.27 30.36 29.65 29.07 29.50 29.26 27.09 24.89 24.28
44.98 45.08 45.39 46.12 46.48 46.52 46.75 46.62 45.49 42.37 37.30 32.58 32.58 27.00 28.27 31.10 31.82 31.82 32.23 32.41 33.08 34.16 33.88 34.75 34.72 35.72 32.96 32.46 31.99 32.20 31.61 28.65 28.99 24.28 30.75 33.82 35.64 35.15 34.15 33.25 31.97 30.85 30.45 30.32 30.61 29.70 29.03 28.59 27.06 26.12 25.55 24.47 23.24 21.85
44.47 43.99 42.65 44.94 45.04 44.88 44.25 43.05 40.40 38.50 32.90 32.34 31.18 29.81 31.21 30.74 30.77 31.52 31.75 32.26 35.17 33.14 34.00 34.81 32.32 31.58 30.72 31.78 30.26 27.35 28.25 25.83 27.64 29.64 31.84 33.17 33.88 32.80 32.44 32.24 31.78 31.42 30.63 29.88 29.86 29.74 28.65 27.33 26.20 25.53 24.36 22.76 21.25 19.84
42.73 39.50 42.27 44.14 43.95 44.14 44.18 39.26 35.67 32.16 31.49 29.84 29.20 31.85 31.25 31.25 30.75 31.30 31.63 32.40 34.99 33.65 31.64 26.78 28.17 27.94 31.33 27.15 25.55 27.95 24.45 27.03 29.98 31.28 32.50 32.64 32.17 31.52 31.83 31.63 31.08 30.63 29.86 29.39 28.76 28.27 27.08 25.39 24.46 24.12 22.96 22.62 22.42 20.37
37.66 39.34 43.66 44.09 43.49 42.68 40.22 38.00 33.72 32.17 29.63 30.86 28.80 30.12 30.44 30.08 29.34 30.01 31.54 32.71 33.21 32.35 32.07 29.06 30.53 23.22 18.38 18.81 20.25 24.14 29.20 31.48 31.64 32.02 32.34 33.17 33.75 33.24 33.35 31.95 31.80 31.02 30.12 29.37 27.53 26.66 25.60 25.12 24.48 23.37 23.58 23.44 21.95 21.44
38.78 39.74 42.08 42.77 41.67 37.22 33.53 33.45 34.09 29.03 29.61 31.10 31.55 31.69 31.55 29.73 30.04 29.97 30.06 31.94 32.43 32.35 30.25 26.97 21.78 20.13 20.08 22.98 22.52 23.93 25.05 29.38 29.54 30.17 30.76 31.89 31.95 31.73 31.37 31.33 31.10 30.24 29.60 28.02 26.39 24.14 23.80 23.87 23.34 22.85 21.89 21.67 19.80 18.49
40.54 40.50 40.34 40.54 40.42 32.55 30.20 30.36 34.30 31.32 29.16 30.37 31.49 27.72 27.97 27.00 27.68 27.20 27.21 28.06 28.05 27.06 23.29 20.26 19.25 20.95 21.88 23.09 24.74 24.96 25.25 28.31 30.85 27.22 26.03 26.75 28.34 28.24 27.85 27.71 25.94 25.36 24.41 24.06 23.42 22.96 22.03 21.18 21.28 19.75 18.56 18.09 17.14 15.41
36.34 36.69 36.87 34.68 31.19 31.42 29.23 28.74 31.33 31.90 30.98 30.02 31.30 29.88 28.49 27.64 24.04 23.24 23.68 27.03 23.91 23.43 20.48 22.50 21.92 22.80 24.88 24.65 25.11 25.33 24.35 24.67 24.29 26.61 24.31 22.19 24.30 24.26 24.01 24.25 24.00 23.05 21.07 19.94 18.34 17.82 18.00 17.81 18.59 17.89 15.75 12.78 12.88 14.08
32.55 36.32 26.40 29.74 26.61 26.97 26.44 27.90 28.89 28.73 28.50 27.27 26.02 25.43 22.82 22.59 20.34 21.97 23.85 20.73 20.50 22.36 23.38 22.25 22.14 22.27 21.79 21.40 22.08 23.44 23.93 23.20 22.83 21.45 20.96 21.64 19.57 19.37 19.04 20.42 19.84 18.07 17.87 17.60 17.30 15.44 15.79 17.02 16.97 15.20 12.37 10.23 11.84 10.25
33.60 30.97 26.43 25.22 20.70 19.59 18.44 25.95 20.50 24.13 18.78 18.94 20.45 19.80 19.46 18.04 21.73 24.44 18.00 20.50 19.84 23.09 23.84 22.46 22.05 22.17 20.56 20.94 20.98 21.17 21.86 20.53 18.30 18.17 17.78 17.40 17.21 16.79 15.78 16.16 17.46 16.08 15.33 16.01 17.09 15.07 13.32 13.50 11.01 7.65 6.29 6.00 3.39 1.09
31.59 22.37 16.77 15.01 18.24 11.09 15.06 16.67 23.10 21.08 18.40 15.60 16.93 20.87 20.77 20.18 19.78 15.05 13.87 15.96 18.70 20.79 20.89 21.56 21.47 19.10 18.46 17.48 15.93 16.74 18.42 18.81 17.00 16.90 17.97 15.92 13.47 12.82 13.15 12.21 12.17 11.85 11.83 11.61 9.85 7.52 6.40 3.90 4.64 3.91 -0.53 -3.29 -5.63 -11.61
20.18 18.16 15.71 11.37 14.41 14.83 10.93 12.16 14.24 16.05 11.05 10.44 18.89 18.52 19.72 15.84 9.04 9.04 10.61 13.43 14.81 14.02 15.98 17.71 17.27 16.88 13.65 13.97 14.69 16.16 17.84 16.55 14.08 12.39 14.08 16.37 13.77 12.73 10.93 9.91 9.24 9.79 9.94 5.45 1.81 -0.57 -2.21 -2.44 -4.18 -5.11 -9.07 -13.60 -6.53 -6.90
14.60 20.47 18.38 15.71 15.77 15.02 13.17 9.00 9.55 11.67 8.59 10.36 15.60 21.36 12.28 5.80 2.96 5.75 12.84 9.26 11.60 12.08 12.56 13.63 12.76 12.75 13.01 14.28 12.40 12.59 14.13 17.06 14.33 9.98 10.87 12.33 12.02 8.81 6.15 4.32 4.85 5.83 5.97 -0.03 -1.85 -5.09 -4.36 -8.53 -11.79 -10.70 -11.61 -8.53 -6.35 -8.89
12.97 14.32 23.46 23.89 20.55 19.33 16.51 15.79 13.80 11.72 10.45 17.06 12.74 6.76 7.71 -0.09 1.26 11.99 16.38 15.99 14.26 14.40 16.66 15.96 15.17 13.24 12.32 12.04 12.68 12.97 13.17 13.02 11.82 11.08 11.43 10.43 9.45 8.29 2.75 -1.69 -1.10 4.32 -0.80 -5.45 -8.53 -7.44 -5.81 -6.35 -9.62 -9.43 -10.34 -17.05 -16.51 -15.96
23.79 21.01 12.99 12.83 13.32 13.59 7.42 5.07 6.68 9.61 11.32 19.23 11.93 2.03 -3.27 -1.17 2.87 13.21 14.82 18.59 17.11 16.19 14.60 12.89 11.65 10.09 7.84 7.04 7.45 8.52 9.64 10.66 9.17 8.58 7.95 6.93 5.99 4.83 4.27 4.60 3.95 7.06 -1.84 -7.62 -10.34 -13.79 -12.34 -7.62 -9.07 -8.17 -9.43 -9.07 -8.35 -12.34
17.71 16.21 14.80 8.52 8.52 10.74 14.07 10.58 12.22 18.91 21.05 13.41 0.62 3.72 3.77 9.18 9.47 9.85 13.80 14.84 15.34 12.37 9.17 7.47 8.38 7.20 5.61 5.94 4.35 3.46 4.41 0.77 -3.94 -7.76 -12.34 -13.97 -11.79 -5.55 -4.56 -7.98 -7.98 -7.44 -9.25 -8.71 -0.91 5.52 6.60 -2.01 -4.72 -9.25 -10.16 -9.62 -4.74 -10.34
15.65 8.67 10.03 15.35 7.55 13.36 13.40 9.21 12.84 13.29 12.28 7.44 10.52 10.17 8.38 8.04 10.66 13.43 12.05 9.69 7.57 5.69 3.70 2.64 0.14 -0.53 -7.80 -4.55 -4.73 0.04 -2.21 -7.09 -7.90 -8.11 -12.88 -11.79 -8.00 -7.29 -15.78 -15.96 -15.24 -14.51 -16.69 -15.42 -13.42 -9.12 -3.27 -10.52 -9.25 -12.88 -14.15 -12.88 -17.77 -17.77
8.94 7.64 8.51 8.40 13.30 18.38 18.76 12.59 11.81 5.83 0.88 -1.21 -0.91 -1.68 -1.58 3.46 3.66 9.63 8.65 5.81 6.30 4.29 2.41 -1.18 -4.00 -10.52 -7.26 -9.07 -12.34 -12.52 -9.98 -5.51 -7.08 -6.35 -7.98 -9.80 -10.52 -12.70 -8.17 -11.79 -18.14 -19.41 -19.77 -20.13 -21.94 -22.31 -21.04 -19.77 -20.49 -18.14 -13.60 -11.80 -11.08 -12.34
5.89 -0.92 5.30 7.21 16.10 13.03 19.64 15.31 15.24 5.17 2.98 2.24 -0.97 -5.45 0.06 -2.18 -3.65 1.18 6.13 0.19 0.03 -3.48 -1.28 -5.45 -6.17 -3.82 -6.72 -9.25 -11.43 -11.79 -5.99 -10.16 -12.15 -13.24 -11.61 -12.52 -13.06 -13.24 -14.51 -13.97 -16.69 -18.32 -18.50 -19.95 -22.49 -21.58 -20.68 -20.13 -18.86 -19.95 -19.41 -17.96 -13.79 -13.60
0.90 -1.53 -2.86 2.39 8.79 8.03 5.05 7.97 10.37 5.74 3.23 1.69 0.82 -1.33 -3.11 -1.35 -4.76 -0.66 3.31 -1.74 -5.44 -8.03 -9.25 -11.43 -10.34 -4.36 -2.36 -5.65 -8.79 -12.52 -7.45 -13.42 -15.24 -5.08 -4.54 -2.36 -4.00 -9.07 -15.24 -18.68 -20.13 -20.31 -18.32 -19.22 -21.04 -19.41 -18.32 -18.86 -20.68 -23.58 -21.40 -19.22 -15.60 -15.42

GFSWCAN_sfc_wetblb_024.txt.gz
Wetbulb
46.05 46.31 46.28 45.98 45.71 45.70 46.39 47.18 46.59 46.19 45.85 45.85 45.87 46.01 45.92 45.71 46.18 43.12 39.65 45.27 44.09 39.96 41.38 44.99 45.61 41.36 41.91 41.28 35.72 40.32 41.86 41.07 35.16 34.08 33.42 31.76 28.16 33.05 31.21 34.93 34.41 34.21 30.14 25.61 25.24 22.49 27.23 39.04 38.30 34.58 37.65 37.41 39.55 40.38
45.11 45.88 46.22 45.96 45.49 46.26 46.42 45.76 45.36 45.44 45.35 45.54 45.58 45.61 45.50 45.73 46.09 44.37 38.58 43.55 44.71 42.81 43.09 46.24 45.85 45.16 44.54 46.07 43.24 41.81 40.97 42.70 42.72 38.51 34.64 32.24 31.40 26.99 31.43 29.06 36.79 33.11 35.67 32.38 33.57 33.16 39.17 39.47 38.56 40.13 40.15 39.93 40.04 40.30
42.79 43.62 44.07 44.34 44.73 45.05 45.09 44.90 44.90 44.96 45.07 45.12 45.16 45.33 45.59 45.99 46.13 44.00 39.78 43.23 42.81 41.76 41.21 42.11 41.53 46.39 47.31 47.55 49.44 42.05 44.06 47.11 44.31 45.78 38.77 36.48 31.96 32.35 31.97 31.17 33.16 36.11 37.97 34.15 34.35 37.56 38.08 39.65 40.47 40.37 40.62 40.12 41.13 41.72
44.12 43.55 43.34 43.33 43.64 43.99 44.31 44.21 44.23 44.09 44.14 44.56 44.68 44.76 45.07 45.54 45.82 44.80 41.06 45.93 45.57 43.33 35.73 40.03 50.31 48.65 52.43 50.75 50.53 49.94 48.58 48.70 47.02 46.34 36.06 34.11 32.92 37.42 32.88 36.29 33.54 36.71 38.98 36.24 34.34 38.11 39.75 41.17 40.99 40.07 39.25 39.37 38.31 37.64
44.15 44.08 43.98 43.95 43.69 43.63 43.68 43.59 43.64 43.91 44.09 44.52 44.85 44.87 45.49 45.78 45.92 45.09 44.32 46.77 47.15 43.11 36.91 38.33 44.28 49.55 52.41 51.90 50.96 50.83 49.41 46.43 43.20 39.95 33.66 34.97 35.30 37.04 33.27 35.33 29.82 38.64 37.75 35.07 34.39 40.02 39.17 39.10 39.71 39.68 38.41 36.96 37.12 36.20
44.18 44.20 44.13 44.03 44.07 43.86 43.77 43.81 44.02 43.94 44.05 44.55 45.03 45.42 45.70 45.90 46.19 43.10 38.22 44.73 48.51 47.88 40.32 33.83 45.42 44.88 50.96 50.62 50.28 49.53 49.93 45.29 43.34 40.15 37.33 40.26 43.47 40.13 34.88 33.20 40.32 41.25 41.31 41.79 40.97 41.30 38.53 37.64 37.71 37.96 36.63 36.22 36.55 35.74
44.65 44.41 44.06 43.82 44.07 44.34 44.32 44.34 44.55 44.58 44.86 44.86 45.30 45.54 45.94 46.13 43.92 40.14 38.25 42.73 47.53 47.88 39.70 34.42 35.61 43.16 48.95 49.96 46.80 46.77 46.66 45.18 44.94 41.44 34.61 36.71 39.80 40.22 34.23 35.51 40.86 41.61 41.55 39.73 39.70 39.79 36.83 37.13 35.85 36.42 36.13 35.89 36.26 35.25
44.80 44.86 44.59 44.33 44.55 44.85 44.68 44.38 44.69 44.92 44.99 45.40 45.71 45.91 46.10 46.52 46.03 41.51 46.05 48.19 47.76 43.34 41.74 34.43 35.89 38.80 48.17 41.51 41.71 44.98 40.52 41.42 42.36 41.43 37.99 35.79 37.67 32.52 31.75 37.20 38.85 39.53 39.37 38.33 37.55 38.62 38.60 36.40 35.64 34.69 35.17 34.71 33.29 32.13
44.79 44.72 44.76 44.61 44.43 44.81 45.31 45.58 45.21 44.87 45.04 45.36 45.87 46.40 45.14 43.69 39.47 41.99 47.54 47.42 50.16 43.76 35.57 35.22 34.30 32.26 45.80 41.86 40.54 38.50 39.36 35.31 41.44 36.13 35.93 37.57 34.28 34.12 36.64 37.84 38.36 39.03 39.04 35.88 36.20 36.31 36.03 34.36 33.48 33.59 33.25 32.57 31.41 30.97
44.73 44.81 44.88 45.07 45.01 45.46 45.56 45.49 45.39 45.14 45.50 46.19 45.19 41.20 34.28 39.78 47.43 47.63 45.23 41.70 43.14 44.54 42.22 34.87 40.33 35.90 43.48 36.67 36.84 34.99 34.12 34.84 34.46 34.98 38.85 34.16 33.39 36.61 37.68 39.21 39.38 37.78 37.56 37.19 33.95 32.64 32.90 32.27 32.44 32.51 31.88 32.17 31.72 31.22
44.93 44.75 44.75 45.22 45.43 45.56 45.68 45.46 45.44 45.96 46.15 43.71 41.18 38.10 44.91 47.36 44.18 39.69 33.91 33.57 35.76 33.69 36.87 36.86 36.23 36.84 42.36 35.91 35.37 34.83 33.21 32.08 31.80 34.16 36.16 33.51 32.79 34.79 37.22 39.25 39.64 39.46 39.21 39.77 39.14 37.56 36.73 34.94 33.34 32.03 31.15 30.59 30.63 30.89
45.05 44.80 44.59 44.76 45.31 45.50 45.71 46.12 46.40 45.42 43.09 43.50 45.08 45.84 45.03 41.91 36.74 33.11 31.27 32.59 33.54 32.90 34.45 35.55 36.82 40.34 37.36 42.27 36.93 34.78 32.61 32.25 31.37 35.04 33.51 31.27 32.27 34.33 35.12 35.30 36.50 37.33 36.71 36.51 37.02 35.53 34.74 33.61 32.73 31.10 30.36 30.02 29.80 28.73
44.58 44.48 44.61 44.40 44.85 45.82 45.92 46.24 46.72 46.59 46.36 46.88 41.07 35.47 37.34 31.91 30.06 28.51 29.42 30.81 31.98 32.28 33.94 33.95 34.87 34.83 37.06 37.83 33.88 34.09 32.05 31.12 33.63 32.14 29.92 29.70 34.90 35.18 35.38 35.74 35.52 36.27 35.59 34.68 33.39 32.71 31.89 31.10 31.33 30.46 29.17 28.94 28.06 27.20
44.32 44.39 44.64 44.80 45.22 46.09 45.95 46.29 44.74 45.58 43.63 36.14 33.32 28.21 30.04 28.36 28.72 28.93 29.85 31.49 32.05 32.07 32.64 33.39 33.39 33.54 33.03 33.50 32.31 32.85 31.75 32.94 28.66 25.83 26.64 32.25 34.10 34.91 35.36 35.69 34.52 33.12 32.56 31.98 31.29 30.68 29.68 29.10 28.36 28.55 28.00 27.56 26.79 25.19
44.20 44.46 44.57 44.54 45.18 45.92 46.28 46.10 43.75 42.01 37.44 31.81 31.60 27.04 28.33 31.19 31.57 31.55 31.94 32.47 32.97 33.89 32.85 33.39 33.91 35.30 32.83 32.40 32.05 32.26 31.53 27.50 28.18 26.20 29.71 32.96 34.16 34.08 32.60 32.09 31.46 30.87 30.54 30.38 29.81 28.58 27.76 27.71 26.53 25.19 25.09 25.20 24.67 23.10
45.10 44.09 43.82 45.15 45.73 44.88 43.85 43.06 41.35 38.67 34.08 32.07 30.62 28.68 30.57 30.40 29.69 30.86 31.04 31.88 34.70 33.35 33.85 34.13 32.41 32.01 30.23 30.59 28.00 24.76 27.32 23.18 25.98 29.14 31.33 32.73 31.92 31.56 31.56 31.36 31.00 30.98 30.36 29.94 29.51 28.78 27.86 27.08 25.72 23.81 23.36 22.57 21.77 21.06
43.26 40.42 44.35 44.48 44.29 43.69 43.09 39.38 36.25 32.10 31.75 30.61 29.08 29.73 29.85 30.04 28.36 29.47 30.20 30.28 34.10 33.36 30.80 30.96 26.22 24.06 29.94 24.79 22.78 24.89 23.40 26.52 29.11 30.57 31.30 31.64 31.27 30.70 30.83 30.58 30.02 29.89 29.28 28.92 28.49 27.49 26.24 25.72 24.20 22.83 21.08 21.52 21.75 20.63
38.88 40.89 44.34 44.68 43.86 41.99 39.43 37.49 31.71 30.63 28.73 30.17 27.39 27.96 27.39 27.07 25.66 26.37 28.11 31.26 32.17 32.05 29.56 25.71 27.80 20.11 17.94 17.50 17.92 21.09 23.82 25.67 30.35 30.31 30.68 31.63 31.77 31.77 31.60 30.16 29.98 29.55 28.38 27.61 26.50 25.71 25.15 24.71 23.95 23.22 22.57 21.92 21.58 21.37
39.44 40.79 43.36 44.29 42.74 37.86 33.35 33.16 33.83 27.46 27.96 29.25 27.87 28.88 28.02 24.16 25.97 26.18 27.63 29.62 30.31 30.17 27.60 24.25 17.89 16.93 17.60 20.46 19.64 21.23 22.33 24.36 27.14 26.54 26.53 27.93 30.23 30.20 29.66 29.63 29.22 27.66 27.16 26.13 25.11 24.00 23.51 23.90 22.92 22.98 22.77 21.83 19.15 18.11
40.15 39.83 40.49 42.36 42.05 33.78 31.10 30.31 34.28 29.90 28.33 28.72 28.27 24.24 23.80 22.82 24.01 24.06 25.16 26.10 26.19 24.69 20.79 18.05 16.97 18.47 19.22 20.60 22.23 22.44 22.73 25.92 29.19 23.21 21.99 23.41 24.78 24.50 24.32 24.17 23.55 23.61 22.87 22.72 22.25 22.15 20.88 19.47 19.61 19.46 19.67 19.48 18.04 15.74
35.35 35.27 35.38 35.09 31.59 31.21 29.45 29.40 31.04 30.92 30.59 28.96 30.63 27.34 24.04 24.54 20.94 19.87 20.28 23.74 21.00 20.53 17.43 19.45 19.43 20.84 22.36 22.31 22.77 23.36 21.83 22.12 21.00 22.67 21.91 19.29 21.60 22.31 21.82 21.75 21.54 20.54 18.75 18.01 17.16 17.00 17.32 16.82 17.28 16.98 15.75 14.94 15.32 15.99
31.35 35.10 26.64 30.76 27.99 27.63 27.05 27.88 28.73 28.22 28.01 26.57 24.03 24.43 19.72 14.22 13.27 17.49 20.41 16.64 17.53 19.11 20.68 19.94 19.85 20.03 19.41 19.39 20.18 21.34 21.85 20.88 20.13 18.83 18.14 17.99 15.86 16.07 16.36 18.10 17.67 16.12 15.91 15.65 15.35 14.05 14.21 14.37 14.08 13.22 12.12 11.20 12.95 11.26
32.31 29.91 25.14 24.61 20.76 19.83 18.17 26.06 19.64 22.89 17.75 16.74 19.27 19.11 17.25 15.58 18.69 21.62 13.83 16.91 17.21 20.35 22.21 21.74 20.66 20.19 18.84 19.26 19.26 19.16 19.60 18.44 16.35 15.96 15.19 14.11 13.87 13.64 12.64 12.35 13.42 12.82 11.56 11.87 13.04 11.27 9.03 9.45 8.35 6.49 6.65 6.83 4.83 3.79
30.23 20.99 14.31 13.14 16.74 9.32 13.30 15.17 21.98 19.47 16.58 14.61 18.94 16.85 18.04 12.37 15.62 11.19 10.57 13.41 16.43 17.97 17.59 18.54 18.81 16.87 16.46 15.78 14.24 14.36 16.27 16.65 14.91 14.24 14.95 12.77 9.94 9.48 9.90 9.11 8.88 8.76 8.68 9.01 7.35 4.88 3.96 1.47 2.45 2.45 -0.31 -2.89 -2.83 -5.73
20.25 17.92 14.62 9.75 12.37 12.10 8.36 8.18 10.07 13.68 7.32 13.87 13.03 15.66 17.08 12.34 5.98 5.36 7.69 11.37 12.61 10.76 13.13 14.89 15.02 14.66 11.46 11.57 12.33 13.37 15.01 13.63 11.32 9.39 11.43 14.25 10.95 10.49 8.54 8.07 7.46 7.74 7.79 3.81 -0.48 -2.71 -4.83 -6.65 -9.18 -10.81 -8.47 -13.35 -5.19 -6.10
15.59 19.87 18.97 9.31 13.74 12.65 7.87 7.07 8.21 9.80 5.80 10.81 14.21 16.57 8.30 3.14 0.00 3.48 11.09 7.70 9.71 10.35 10.50 10.72 10.41 11.09 10.57 11.51 9.47 9.63 11.12 13.39 11.20 6.86 8.10 8.64 7.43 0.69 -0.94 -0.02 0.37 4.24 3.63 -6.82 -8.09 -9.36 -8.27 -10.08 -13.53 -11.72 -13.17 -9.54 -10.27 -14.80
16.30 13.43 21.52 21.78 18.45 16.72 11.26 7.98 10.85 9.44 8.15 15.18 8.62 3.05 0.26 -4.86 -1.56 9.90 15.56 14.23 13.08 12.10 12.55 11.48 11.37 10.24 9.77 10.14 10.95 11.34 10.61 10.08 8.62 7.79 8.12 7.16 6.67 6.08 1.00 -4.28 -3.38 2.10 2.07 -3.59 -10.08 -10.81 -9.90 -10.27 -12.80 -13.89 -15.34 -18.97 -19.15 -18.24
21.23 16.54 9.85 9.36 10.38 11.58 11.31 3.86 5.11 7.54 8.98 17.04 6.40 -4.13 -7.37 -6.10 0.40 9.02 12.88 15.53 13.81 12.35 10.59 9.57 8.62 6.81 5.29 5.81 6.62 7.00 7.01 3.76 4.69 3.30 2.16 1.86 -0.07 -2.89 -5.02 -7.55 -6.83 1.88 -10.27 -13.71 -12.99 -13.35 -11.54 -9.00 -9.90 -9.72 -13.17 -12.80 -10.45 -14.62
12.57 8.00 11.79 6.21 6.92 10.46 13.95 10.71 8.72 14.47 14.10 5.73 -3.81 -1.93 1.48 6.96 6.43 6.57 11.55 12.56 12.26 9.33 5.93 5.06 4.57 -0.02 -0.82 1.73 -0.16 -1.65 -1.11 -5.84 -6.24 -10.41 -14.80 -15.34 -13.89 -6.57 -7.38 -12.62 -17.34 -17.34 -20.06 -16.79 -5.01 1.10 3.58 -2.83 -2.47 -8.63 -12.99 -14.80 -9.90 -11.17
10.11 7.88 13.19 5.32 4.91 10.03 10.63 7.77 0.24 -1.78 7.33 3.59 7.91 8.19 6.12 4.91 8.80 11.06 8.52 6.53 4.45 -1.38 -6.82 -9.90 -11.35 -7.05 -10.99 -8.82 -9.72 -5.38 -7.55 -14.98 -13.90 -10.87 -14.98 -15.34 -10.47 -7.59 -12.08 -15.89 -18.06 -18.24 -22.05 -21.69 -22.59 -16.45 -8.27 -16.44 -13.17 -17.52 -18.11 -16.31 -17.54 -19.15
5.52 5.76 6.55 7.07 10.41 9.73 9.83 0.31 -0.81 -1.29 -4.86 -4.50 -6.33 -6.33 -5.25 -0.70 2.13 5.87 4.09 0.40 -2.85 -4.18 -4.33 -8.09 -8.09 -14.98 -11.54 -13.53 -16.43 -16.25 -12.27 -13.56 -16.25 -13.89 -13.71 -15.70 -15.70 -17.88 -18.06 -18.06 -18.79 -22.96 -23.32 -23.50 -24.95 -24.77 -23.14 -23.68 -25.86 -25.49 -22.59 -18.61 -17.92 -14.45
2.14 -1.02 3.78 5.14 10.81 11.65 8.10 9.31 -3.74 -1.41 -4.46 -6.10 -3.20 -11.90 -8.47 -8.89 -10.08 -5.02 1.44 -5.36 -7.94 -8.75 -10.08 -13.35 -12.99 -9.00 -11.54 -14.25 -17.70 -19.15 -12.62 -16.25 -16.61 -16.07 -14.98 -13.53 -14.80 -17.88 -18.79 -19.15 -23.68 -24.59 -23.86 -24.77 -26.58 -24.95 -23.68 -22.05 -24.23 -26.22 -27.49 -25.31 -22.23 -21.51
-3.48 -5.39 -4.39 0.73 6.96 7.28 6.87 6.20 5.28 1.80 -2.49 -3.20 -4.65 -6.64 -9.18 -8.62 -8.85 -3.84 -0.39 -11.38 -10.56 -11.55 -11.72 -13.53 -14.98 -12.62 -9.90 -13.72 -14.98 -16.97 -10.45 -16.61 -18.61 -8.27 -2.47 -2.29 -10.08 -11.17 -18.61 -22.78 -24.23 -25.13 -23.50 -24.41 -25.86 -26.40 -23.32 -22.78 -23.68 -25.49 -26.22 -26.58 -24.77 -24.23

GFSWCAN_sfc_wetblb_027.txt.gz
Wetbulb
46.18 46.11 46.13 45.98 45.77 46.00 46.58 46.46 46.40 46.36 46.29 47.10 46.74 46.92 47.01 46.85 46.91 43.21 39.69 44.39 42.62 38.91 40.05 41.70 43.53 41.28 41.27 40.87 36.21 40.10 40.22 41.19 38.62 34.82 35.26 35.44 33.82 37.14 36.39 38.10 37.00 37.05 35.41 34.53 32.39 33.33 32.97 42.33 40.28 39.12 44.68 43.02 44.05 44.83
45.97 45.92 45.68 45.63 45.72 45.91 46.32 46.51 46.37 46.39 46.87 46.37 46.57 46.83 46.72 46.78 46.56 44.74 39.09 44.56 44.80 38.60 40.42 46.28 46.14 46.22 45.04 45.88 42.44 42.63 40.61 41.11 41.44 38.83 37.12 36.14 35.19 34.80 35.67 34.41 38.70 37.15 39.91 38.44 39.21 40.00 45.04 43.19 45.61 45.20 44.42 44.90 43.65 45.64
44.50 45.74 45.43 45.30 45.67 45.64 45.95 46.14 46.65 46.74 46.44 46.21 46.14 46.24 46.54 46.54 46.60 44.16 40.88 42.50 42.06 38.20 38.47 41.40 40.99 47.12 47.19 46.73 49.70 42.15 43.96 46.91 44.64 47.13 41.47 39.84 35.51 37.28 34.35 34.92 37.40 38.86 40.25 40.25 40.59 42.74 42.12 43.37 44.16 45.09 44.65 44.92 44.67 46.59
43.47 44.04 45.09 45.66 46.03 46.14 46.23 46.23 46.16 45.84 45.95 46.41 46.39 46.52 46.19 46.36 46.35 43.66 41.45 42.69 41.85 40.38 34.92 38.24 48.46 45.60 51.15 47.77 48.21 49.38 48.72 48.93 48.30 46.94 40.54 37.84 37.66 40.73 37.14 40.01 38.65 40.45 40.47 38.68 39.13 40.84 43.14 44.55 44.70 45.55 43.34 44.03 42.91 42.86
43.62 43.43 43.98 44.52 44.29 44.65 44.93 45.18 45.20 45.45 45.79 45.95 46.04 45.97 46.02 46.11 45.90 43.67 42.98 44.07 43.48 40.64 35.74 38.47 43.72 46.73 48.83 49.80 47.68 49.65 48.93 47.71 45.55 42.34 37.13 38.84 38.42 39.28 36.30 37.94 37.03 41.24 40.10 38.49 38.64 44.19 44.85 44.50 45.70 43.28 42.24 42.10 41.63 39.65
44.10 43.88 43.55 43.59 43.80 44.05 44.42 44.69 44.88 45.18 44.94 45.37 45.57 45.76 45.90 45.93 44.80 42.48 35.72 42.49 45.97 44.68 37.64 32.30 43.87 44.92 50.00 51.81 50.58 48.85 49.13 47.53 47.40 43.06 39.32 40.98 44.13 42.05 36.98 36.38 42.59 43.53 44.60 44.38 44.27 43.87 40.93 39.77 40.37 41.10 39.98 39.94 39.34 39.27
44.00 43.92 43.72 43.67 43.57 43.71 43.95 44.09 44.08 44.35 44.47 44.77 44.89 44.91 44.84 44.98 42.67 38.87 36.50 42.14 44.75 43.90 39.61 34.05 35.66 44.39 48.85 50.04 48.87 48.60 49.10 47.19 46.55 44.60 40.48 41.69 42.42 42.42 36.39 37.13 43.39 43.29 43.68 42.39 41.56 42.18 39.99 39.62 39.57 39.07 38.70 37.89 37.87 37.03
43.93 43.98 44.12 43.87 43.62 43.57 43.76 43.75 43.98 44.33 44.52 44.84 44.85 44.99 45.18 45.22 44.33 41.36 45.84 45.62 44.40 42.72 41.47 33.10 33.76 37.81 47.42 41.03 41.90 45.57 43.84 44.21 44.53 42.70 39.91 40.20 39.37 36.32 36.17 40.33 41.00 40.98 40.87 40.25 40.34 39.85 41.36 38.58 37.19 36.39 36.50 36.51 34.93 34.15
44.13 44.43 44.38 44.25 44.11 44.24 44.12 44.30 44.52 44.86 44.63 44.73 45.07 44.61 43.59 42.49 38.91 41.26 47.14 47.06 48.35 42.58 33.69 33.34 33.43 33.75 45.28 41.47 40.58 40.44 41.70 38.15 42.69 37.60 38.54 39.87 36.66 36.20 39.58 39.84 39.92 39.28 40.62 37.89 37.18 37.41 37.58 36.70 35.50 35.22 35.38 35.00 33.61 33.28
44.20 44.02 44.44 44.49 44.36 44.18 44.17 44.31 44.82 45.07 45.23 45.23 43.21 39.87 35.32 40.81 46.50 46.82 44.84 40.58 40.71 40.96 40.81 35.02 40.13 36.66 41.82 37.06 36.88 37.59 36.50 36.32 35.97 38.21 39.19 37.04 37.63 38.43 38.98 39.89 40.51 39.16 37.96 37.84 35.03 33.60 34.18 33.89 34.01 34.13 34.24 34.92 34.51 33.74
44.97 44.62 44.94 45.01 45.28 44.66 44.30 44.68 44.98 45.14 44.70 41.89 38.63 35.77 41.03 46.71 43.60 38.79 34.28 33.40 34.77 32.81 37.43 37.93 37.05 37.57 43.24 36.79 35.95 36.57 33.24 34.11 34.34 37.06 36.88 35.56 35.36 35.56 37.53 39.45 39.85 39.29 39.36 40.10 40.26 37.70 37.64 36.45 34.51 33.05 32.78 33.41 33.47 33.04
45.44 45.32 45.42 45.35 44.94 44.86 44.44 44.50 44.95 44.04 41.76 42.70 42.93 44.00 43.49 40.07 35.41 32.38 31.35 31.74 31.18 32.80 34.65 35.92 37.65 40.81 37.73 43.11 36.45 35.30 33.42 32.68 33.22 36.19 35.00 33.18 33.69 35.20 36.92 37.11 37.58 38.37 38.57 37.21 37.66 35.59 35.38 34.50 33.86 32.67 31.98 31.57 30.40 29.04
44.63 44.88 45.62 45.46 45.58 45.39 45.23 45.23 46.19 46.26 46.45 45.03 38.85 34.78 36.96 32.50 30.15 28.16 27.51 30.61 31.02 32.33 33.75 34.14 33.96 35.74 36.90 38.58 33.91 33.31 31.98 31.91 34.02 32.86 30.91 31.35 34.38 35.42 35.78 35.79 34.90 35.66 35.27 33.87 32.77 32.73 32.60 31.88 31.93 30.58 28.56 28.56 28.66 27.91
44.37 44.39 44.64 45.40 45.60 45.88 45.80 45.17 44.91 44.43 42.92 35.53 32.35 28.30 29.63 28.02 28.52 28.17 29.48 31.00 31.76 31.94 32.31 33.40 33.43 34.31 33.24 33.40 32.53 32.89 31.98 32.80 29.95 27.28 27.34 31.47 33.34 34.03 34.42 34.38 33.15 31.95 31.86 31.09 30.68 30.45 29.59 28.92 28.24 28.89 28.89 29.07 28.27 26.59
44.13 44.38 44.77 45.05 45.95 45.89 44.80 43.82 43.09 41.82 36.68 32.22 31.65 26.80 28.12 31.39 31.59 31.77 31.79 31.97 32.50 33.72 33.22 34.70 34.67 35.65 32.87 32.33 31.73 32.28 30.84 26.74 26.41 25.19 28.52 31.07 32.81 32.48 31.87 31.65 30.90 30.21 29.50 29.01 29.03 28.09 27.58 27.70 26.93 26.62 27.23 27.17 26.31 24.92
44.36 43.95 43.15 44.76 44.89 45.91 44.73 43.39 41.00 38.62 33.96 31.55 27.94 25.23 28.63 28.35 26.06 27.53 27.48 29.14 33.11 32.36 33.64 34.60 32.50 30.96 29.01 28.60 26.27 23.38 25.07 20.93 24.01 28.15 30.33 31.68 30.91 30.69 30.26 30.24 30.27 30.23 29.43 29.06 28.99 28.67 27.92 26.58 25.22 24.51 24.61 24.13 23.54 22.80
43.92 41.03 44.42 43.67 43.58 43.31 42.81 39.34 36.54 32.53 31.44 29.75 26.26 26.68 25.34 25.90 24.28 25.74 26.64 27.94 32.20 33.05 30.42 29.01 20.99 21.43 27.37 21.92 18.98 21.25 19.72 22.70 23.27 28.46 30.68 30.72 29.95 29.56 29.91 29.84 29.64 29.74 29.08 28.49 27.48 26.21 25.02 25.10 25.02 23.97 21.87 22.11 22.28 21.87
39.69 43.85 44.36 44.14 43.21 42.10 39.35 36.54 32.04 30.71 26.09 26.61 24.04 24.54 24.52 24.25 22.99 24.46 26.61 28.65 31.30 30.05 27.90 23.98 25.97 18.82 16.77 16.62 16.35 19.40 21.80 23.18 28.02 25.46 25.42 29.60 30.53 30.34 29.87 28.24 28.24 27.77 26.94 26.59 26.51 26.20 25.81 24.64 22.92 22.11 22.02 22.24 22.09 21.77
42.49 44.01 43.68 43.54 42.43 37.10 31.99 32.32 32.38 24.22 24.71 26.54 25.54 25.40 24.02 22.31 24.45 25.52 26.39 27.87 28.63 28.60 26.57 22.41 16.54 14.78 16.06 18.16 17.52 19.55 20.66 22.20 23.88 23.48 23.77 24.68 25.61 25.44 25.09 25.02 24.82 24.39 24.25 23.78 23.34 22.49 22.54 23.20 23.20 23.17 22.85 22.25 19.99 20.05
43.48 43.17 43.87 43.15 41.22 34.06 31.37 31.16 34.72 29.15 25.97 26.83 26.26 22.00 21.61 20.79 21.59 22.48 22.83 24.23 23.82 22.50 18.08 15.69 14.90 16.24 17.18 18.59 20.79 20.61 21.07 25.38 25.20 20.89 19.86 21.45 23.01 22.59 22.27 22.80 22.18 22.42 21.46 20.87 20.62 20.71 19.76 18.69 19.44 19.46 19.56 19.86 18.73 17.38
36.92 36.06 37.54 36.40 32.51 31.76 30.14 30.62 31.17 31.01 30.10 27.73 29.95 25.13 21.47 21.59 18.85 17.55 17.89 22.01 18.36 17.29 14.99 17.41 18.02 19.15 21.17 20.88 21.88 21.13 19.93 19.55 18.01 19.88 18.76 16.84 19.42 20.11 19.45 19.60 19.51 18.85 17.45 16.92 16.09 15.40 15.32 14.82 15.88 16.66 16.19 15.78 16.81 16.74
31.63 34.79 29.20 31.01 28.58 27.71 26.65 27.22 28.84 28.66 27.43 25.69 23.49 24.04 20.60 15.45 13.12 16.64 19.21 14.57 14.81 16.96 19.17 18.02 18.37 18.90 17.95 17.90 18.49 19.93 20.14 18.72 17.99 16.89 16.26 16.09 14.05 13.95 14.29 15.95 15.26 13.46 13.57 13.74 13.15 11.96 11.58 11.57 12.38 12.17 11.75 11.49 12.61 12.35
32.28 30.01 25.93 25.07 21.23 20.46 18.89 26.23 20.57 22.56 17.83 17.03 19.53 18.29 15.46 12.94 16.72 20.31 12.45 15.00 15.07 17.90 19.55 19.94 19.30 19.15 17.67 17.81 17.53 17.62 17.96 16.35 14.46 13.89 13.12 12.13 11.81 11.47 10.71 10.40 11.59 10.98 9.72 9.71 10.80 9.23 7.47 7.31 7.59 7.14 7.80 7.44 7.57 7.24
29.58 20.39 13.78 12.74 16.62 10.19 13.83 14.38 21.21 18.81 16.11 15.11 16.80 14.56 16.74 12.83 14.74 11.14 9.66 12.09 14.74 16.12 15.67 16.82 17.30 15.62 15.13 14.04 12.56 12.65 14.64 15.44 13.56 12.86 13.29 11.14 9.08 8.45 9.07 8.57 8.62 8.27 8.11 8.18 6.97 5.51 4.47 3.20 2.08 3.90 2.26 3.29 2.65 3.33
19.78 16.85 14.17 9.37 11.10 11.04 7.62 7.93 9.53 13.75 9.14 12.47 12.34 14.28 9.77 12.28 6.26 5.18 7.62 10.97 12.08 10.79 12.42 14.12 13.74 12.67 10.52 10.66 10.95 11.63 12.73 12.42 9.91 7.54 8.76 11.09 9.62 9.20 8.03 7.52 6.68 6.53 7.57 6.15 3.30 3.40 3.07 1.84 1.65 1.93 1.95 0.50 1.12 0.77
14.61 17.39 17.45 7.22 10.27 12.30 8.40 8.02 10.23 11.64 8.95 9.95 11.10 11.55 5.83 3.95 1.23 3.97 9.89 9.34 10.49 10.20 9.72 9.94 10.80 9.92 9.52 10.54 9.30 9.48 10.26 12.33 10.53 6.70 6.75 7.76 7.09 5.01 4.05 3.00 3.37 3.76 4.67 0.95 2.95 2.48 2.49 1.59 0.86 0.15 1.02 1.00 -4.16 -2.82
15.28 12.11 19.18 19.86 17.08 14.61 10.94 7.93 10.49 8.83 7.90 12.90 6.31 -0.24 -0.03 -4.49 -2.28 8.09 13.10 12.35 10.72 8.91 9.83 8.48 9.69 9.68 9.56 9.26 9.50 8.84 8.96 8.69 7.68 6.66 7.13 6.62 5.99 5.18 3.61 1.37 0.54 2.35 2.36 -0.02 -0.54 -0.68 -0.50 -0.89 -1.28 -1.03 -1.79 -0.63 -0.47 -3.20
19.19 13.62 7.68 7.12 9.91 10.90 7.68 2.23 3.14 5.62 7.59 13.29 4.60 -4.67 -7.72 -5.26 1.19 7.49 11.08 11.69 10.67 9.79 8.05 7.32 6.80 6.42 5.90 5.87 5.74 5.75 6.40 5.55 5.18 4.86 4.75 4.30 2.13 1.20 -0.59 -2.08 -2.33 -0.11 -2.93 -3.23 -0.96 -1.57 0.48 -0.58 -0.36 -1.24 -2.12 -2.82 -3.93 -2.78
9.81 4.97 9.98 2.78 5.07 7.27 9.93 4.56 4.74 8.97 11.11 3.12 -3.84 -3.19 0.67 5.63 5.92 5.92 9.64 11.30 11.16 8.08 3.41 2.48 2.35 0.01 1.01 1.91 -0.51 -1.53 -0.35 1.53 1.37 -3.26 -4.24 -3.37 -3.31 0.29 -0.86 -2.84 -3.73 -3.73 -6.27 -3.83 -1.96 2.67 4.36 1.38 -0.11 -3.12 -5.40 -6.40 -6.38 -7.17
6.95 6.60 8.55 0.77 1.82 2.80 -1.01 0.88 -1.76 -3.27 5.25 3.62 7.19 6.95 4.95 4.23 7.08 9.11 7.38 6.84 5.05 -0.12 -3.19 -3.91 -5.56 -1.34 -3.26 -1.82 -2.31 -0.88 -3.77 -6.09 -4.02 -2.55 -4.09 -5.00 -3.07 -1.42 -4.64 -5.36 -4.64 -5.18 -8.99 -7.36 -6.64 -5.11 -4.29 -6.35 -3.94 -5.65 -8.26 -7.95 -8.11 -7.73
4.54 3.86 6.55 7.93 7.70 1.16 -0.01 -5.36 -9.00 -4.40 -4.36 -4.15 -6.34 -5.25 -3.27 0.73 4.35 5.64 4.24 1.33 -1.64 -4.33 -0.45 -1.40 -3.01 -8.08 -3.12 -4.46 -4.11 -5.01 -3.77 -3.78 -12.25 -8.08 -6.81 -6.09 -5.73 -6.27 -5.18 -6.27 -7.36 -9.35 -9.71 -9.89 -10.26 -9.89 -9.53 -8.26 -9.53 -10.44 -9.57 -10.66 -12.29 -12.45
0.92 -0.65 5.67 4.25 6.30 6.83 4.44 0.22 -6.45 -3.38 -6.63 -5.37 -5.54 -12.25 -6.84 -6.86 -8.81 -1.64 0.01 -4.35 -2.90 -1.41 -6.45 -7.90 -6.45 -3.01 -6.81 -8.26 -11.71 -10.44 -12.26 -7.73 -6.81 -7.54 -8.81 -6.45 -3.73 -4.09 -6.09 -7.18 -10.80 -10.98 -9.35 -9.35 -10.80 -11.53 -12.43 -10.98 -10.44 -10.80 -11.71 -12.49 -13.65 -14.07
-4.71 -5.37 -2.74 2.04 4.81 3.96 5.10 4.12 2.10 -0.91 -3.75 -4.46 -4.82 -8.44 -12.08 -6.53 -6.96 -2.18 -1.45 -9.21 -3.51 -3.70 -5.91 -6.45 -6.81 -8.99 -10.44 -11.35 -7.90 -7.72 -8.38 -7.58 -11.16 -8.99 -4.09 -2.82 -8.63 -4.82 -6.09 -8.63 -10.44 -10.65 -9.75 -9.17 -9.89 -12.07 -10.47 -11.53 -10.69 -11.82 -12.25 -14.50 -14.91 -14.79

GFSWCAN_sfc_wetblb_030.txt.gz
Wetbulb
46.54 46.40 46.03 45.33 45.17 45.53 46.45 46.15 46.04 46.61 46.46 46.45 46.33 46.73 47.23 46.89 46.95 44.78 43.84 49.71 45.92 41.60 42.73 43.76 44.43 42.35 42.87 43.72 40.75 44.12 43.30 43.81 42.06 38.19 39.21 39.16 38.66 40.76 40.57 42.39 41.56 40.33 39.69 39.54 41.23 38.69 36.62 48.79 46.20 44.76 50.54 51.73 51.58 51.54
46.15 45.87 45.96 46.01 45.91 46.20 46.38 46.36 46.24 46.33 46.24 46.25 46.68 47.09 46.63 46.96 47.05 45.79 41.92 48.74 50.33 44.57 42.10 44.37 42.54 44.76 46.88 47.96 46.54 46.78 43.88 43.55 44.15 40.72 42.69 43.51 39.81 39.78 41.79 37.98 43.92 39.13 44.73 43.61 44.28 44.46 51.15 49.92 51.48 52.50 52.84 51.90 50.71 51.65
45.84 45.54 45.82 45.94 45.99 46.20 46.34 46.01 46.08 46.27 46.32 46.45 46.91 46.80 46.70 47.22 46.38 45.83 43.86 46.85 46.60 42.77 42.56 42.55 40.14 47.57 50.32 50.62 52.89 44.15 46.57 47.44 46.47 49.89 46.92 46.48 42.49 43.80 38.93 40.83 42.91 44.66 45.73 44.88 44.00 48.87 49.29 50.04 51.71 50.66 50.90 51.33 51.20 52.13
44.86 45.44 45.61 45.50 46.06 46.12 46.06 46.12 46.03 45.84 46.10 46.20 46.73 46.33 46.36 46.19 46.08 45.64 43.98 46.87 45.87 42.42 36.22 38.95 46.85 45.78 50.08 51.51 50.81 51.46 49.82 50.79 51.19 50.07 46.80 45.47 43.32 46.43 43.70 46.34 43.17 46.11 44.51 46.02 46.43 48.85 46.57 49.35 51.27 52.00 50.12 50.09 49.82 51.73
44.44 44.77 45.92 45.90 45.82 46.06 46.06 46.06 45.92 46.10 46.50 46.70 46.56 46.68 47.34 45.98 45.94 45.77 46.10 46.31 47.72 42.91 36.51 37.78 43.86 45.62 47.21 48.94 49.80 50.29 49.94 50.27 50.06 47.07 44.32 42.76 47.74 45.35 45.08 44.39 44.41 46.28 46.15 44.11 45.08 50.64 50.54 51.88 53.11 52.29 50.08 49.05 49.97 50.21
43.99 44.56 44.96 44.94 45.61 45.91 46.15 46.11 45.81 45.94 46.06 46.66 46.99 47.00 45.56 45.08 45.05 44.56 37.67 45.44 47.96 47.74 38.90 32.94 42.99 43.85 47.24 49.41 49.38 48.89 49.65 49.39 49.70 47.54 47.07 48.02 47.43 46.51 42.31 42.19 46.82 48.21 49.47 50.60 48.94 49.43 51.15 47.48 48.99 51.67 50.02 49.92 49.59 49.45
43.83 44.00 44.52 44.82 45.04 45.22 45.24 45.54 45.75 45.74 45.77 46.08 46.17 45.99 45.06 44.67 44.14 40.31 38.67 44.26 46.55 46.82 40.33 35.06 36.37 44.16 46.91 48.43 48.64 49.52 50.67 49.17 48.08 47.19 46.79 47.67 47.45 46.29 44.16 41.63 47.56 49.32 49.36 49.04 47.51 46.67 46.02 45.94 47.63 47.29 48.29 47.91 46.38 48.23
43.67 43.75 44.06 44.22 44.29 44.54 44.68 44.78 44.99 45.20 45.16 45.18 45.49 44.91 44.62 44.76 44.21 43.06 48.07 46.04 46.91 43.45 40.13 34.76 34.68 38.50 47.67 43.47 42.35 46.91 46.26 47.77 47.86 46.55 47.98 46.28 46.15 44.74 41.64 46.98 49.21 47.45 46.73 46.42 46.06 45.00 44.91 46.42 45.71 44.59 45.10 43.93 42.91 42.60
43.92 43.75 43.71 43.78 43.89 44.05 44.03 44.18 44.43 44.67 44.69 44.93 44.95 44.79 45.05 43.43 39.49 39.37 46.22 45.17 47.90 42.24 36.82 35.16 35.13 34.69 46.16 42.58 43.53 42.31 44.29 39.12 44.61 43.50 44.85 46.93 44.62 41.27 44.10 43.53 47.02 46.83 45.57 46.27 43.01 43.06 42.54 42.52 42.21 41.84 41.93 42.53 41.73 40.16
44.20 43.93 43.87 43.72 44.04 44.22 44.34 44.28 44.60 44.74 44.98 44.91 43.50 39.90 36.43 41.34 45.78 45.34 41.58 39.00 39.90 40.68 42.38 37.81 43.70 39.06 45.66 40.60 38.99 38.31 37.87 37.14 35.89 42.51 44.93 42.13 42.88 44.04 42.29 43.59 44.45 43.89 43.31 42.83 40.57 38.88 39.23 39.18 39.46 39.20 39.78 40.27 39.99 38.78
44.91 44.36 44.06 44.07 44.24 44.46 44.30 44.12 44.44 44.03 43.27 41.81 38.88 38.37 45.46 46.15 44.85 40.23 35.14 34.81 35.94 34.25 39.44 40.56 41.89 40.18 46.38 41.53 40.25 40.30 35.71 36.04 38.61 41.13 41.26 39.38 40.24 40.65 40.12 40.79 41.62 42.30 42.83 43.43 44.22 43.72 43.41 42.05 40.02 39.21 38.99 38.39 38.56 38.12
45.70 45.29 44.49 44.24 44.35 44.56 44.74 44.71 44.04 44.30 44.35 43.55 44.38 46.41 44.95 42.18 38.87 33.46 32.45 32.76 32.81 33.80 37.96 38.07 39.73 41.64 39.52 45.20 40.47 38.80 36.95 36.87 33.91 38.11 38.17 35.64 33.89 36.53 37.50 38.24 41.06 41.58 42.06 41.09 41.63 41.00 40.70 40.36 39.67 38.89 37.54 34.45 33.51 32.21
45.31 45.05 44.74 44.33 44.58 44.71 44.75 44.80 45.24 45.27 45.26 46.85 43.49 39.23 38.38 34.74 31.19 29.73 29.10 31.88 32.42 34.46 35.24 36.91 36.27 43.47 40.89 39.44 37.18 38.25 34.27 34.64 36.10 33.50 29.74 29.78 33.68 34.83 35.82 36.19 35.57 36.70 36.68 35.44 34.99 36.51 34.13 33.21 33.46 31.75 29.84 29.78 29.76 29.36
45.39 44.83 44.50 44.40 44.38 44.60 44.41 44.20 44.43 44.14 43.20 38.39 35.66 30.29 31.37 30.08 30.73 31.75 32.04 33.37 34.27 33.01 33.91 36.09 36.09 35.36 34.09 33.55 33.01 33.37 32.82 34.26 32.64 29.16 26.99 30.86 31.86 32.85 33.02 33.59 32.02 31.16 31.27 31.75 31.33 30.99 29.51 29.10 29.18 29.87 30.08 30.47 30.26 29.74
44.72 45.04 45.08 43.97 44.18 43.96 43.86 43.28 42.79 42.64 37.24 32.69 32.26 26.40 29.04 31.34 30.33 31.34 31.92 32.82 33.10 33.87 33.90 34.46 34.77 36.12 32.82 32.64 31.92 32.61 31.72 27.07 26.78 24.74 28.40 30.69 32.82 32.33 31.05 30.87 29.91 29.13 28.82 28.72 29.02 28.51 28.45 28.80 28.27 28.54 29.59 29.37 28.43 27.28
44.41 44.47 44.71 45.08 45.02 44.38 43.22 42.14 41.49 40.23 34.74 30.35 25.56 23.88 26.86 27.58 25.42 26.36 26.68 28.52 32.54 32.02 34.42 35.28 32.98 31.92 29.61 30.44 27.05 24.43 24.99 20.55 23.75 25.99 28.74 31.97 30.73 30.55 30.16 29.95 29.82 29.59 28.98 28.41 28.19 27.94 27.49 27.02 26.40 25.67 26.08 25.86 25.82 25.51
44.45 42.54 43.74 43.51 43.24 43.05 42.57 40.73 38.56 33.19 31.04 27.96 24.99 25.66 24.26 24.64 23.30 24.82 26.19 26.76 30.83 33.35 30.64 30.58 25.23 23.70 29.52 24.44 21.13 23.36 20.83 23.20 25.47 25.80 28.10 29.84 29.30 29.13 29.31 29.31 29.52 29.29 28.19 27.78 27.46 26.97 26.73 27.05 26.68 25.07 22.99 23.60 23.70 23.06
42.31 43.43 43.38 43.35 42.40 41.62 39.84 38.10 33.30 30.03 24.36 25.22 23.55 23.95 24.30 24.32 23.33 24.67 26.70 29.06 33.01 30.44 29.11 24.88 27.43 20.50 19.25 18.66 19.06 21.15 23.75 26.54 26.08 24.89 24.76 25.99 25.85 26.42 27.03 26.59 26.96 27.21 26.57 26.80 26.88 26.51 26.01 25.11 23.82 23.54 23.65 23.88 23.58 23.48
42.92 43.18 43.38 43.30 42.96 39.15 34.89 34.53 33.56 24.35 24.46 25.77 24.75 26.63 25.62 24.52 26.69 27.67 28.91 29.85 30.43 30.70 27.75 23.99 18.89 16.52 17.18 19.43 19.01 21.50 23.01 25.93 23.51 23.40 23.54 23.83 24.79 25.24 25.14 25.03 24.96 24.61 24.30 23.96 23.39 22.78 23.00 23.60 24.06 24.25 24.19 24.15 22.76 23.49
43.23 42.83 41.48 40.70 42.02 37.33 33.73 33.48 36.54 29.11 25.25 26.63 27.28 24.75 23.95 22.98 24.61 26.39 26.67 28.13 26.06 23.84 19.33 16.84 15.98 17.38 18.21 20.04 22.01 21.68 23.07 27.66 25.52 21.54 20.15 21.33 22.93 22.27 22.25 22.62 22.48 22.91 21.92 21.02 20.75 21.43 21.10 20.01 20.91 21.22 21.71 21.78 21.66 20.83
39.99 37.84 38.46 38.52 36.01 34.74 32.44 33.32 31.85 31.09 30.87 29.35 30.71 27.56 24.88 26.02 22.89 21.64 22.07 24.88 21.81 18.46 16.37 19.24 19.29 20.31 21.55 21.93 22.88 22.02 20.77 21.08 20.52 21.06 20.14 18.19 20.06 20.28 19.81 19.87 20.13 19.76 18.73 18.13 17.51 16.83 17.12 17.16 18.21 19.07 19.43 19.17 19.35 19.30
35.40 36.14 36.03 36.17 33.54 32.65 31.29 31.82 32.59 33.39 31.75 30.16 29.16 27.51 23.71 21.22 20.67 20.33 22.36 18.27 15.94 18.07 19.90 19.75 20.11 20.41 19.00 18.91 19.62 20.93 20.64 20.12 19.56 18.64 18.39 18.51 16.76 16.49 16.79 18.05 17.39 15.60 15.25 15.31 15.34 14.39 13.70 13.15 15.28 15.73 15.50 15.87 16.24 15.35
35.71 35.09 32.18 31.51 28.80 30.17 26.38 33.07 28.47 27.63 25.08 26.00 28.19 22.83 21.00 20.46 21.04 23.81 16.35 17.12 16.84 19.84 21.70 20.70 19.86 20.28 18.98 19.82 19.35 19.03 19.58 19.04 17.46 16.99 16.65 16.04 16.00 16.05 15.21 14.84 15.72 14.51 13.34 13.31 14.35 13.52 12.10 11.42 11.92 12.92 13.63 13.60 14.11 13.80
32.59 26.41 23.14 23.57 26.59 22.00 26.42 24.47 27.28 25.53 25.72 24.61 22.91 19.31 18.82 20.10 21.91 17.64 12.66 14.61 16.72 19.22 18.89 19.31 20.97 19.36 18.94 17.61 16.12 16.57 18.09 19.24 17.48 17.13 18.09 16.71 14.57 13.59 14.42 13.72 13.68 13.49 13.59 13.59 12.96 12.13 11.64 11.25 10.02 11.53 10.50 10.75 9.96 9.83
25.26 22.32 25.27 21.34 24.83 22.31 21.67 21.76 21.46 23.06 20.44 21.71 19.78 18.92 17.78 21.92 14.85 13.01 11.60 15.10 16.12 16.11 17.10 18.13 17.97 18.04 16.20 15.86 16.04 15.24 16.10 17.46 15.38 13.10 14.49 16.44 15.63 15.06 13.35 12.49 11.34 10.80 12.23 12.25 10.84 10.94 9.97 9.93 9.86 9.45 9.04 8.26 6.18 6.82
18.33 20.90 21.09 22.06 22.08 21.94 21.57 18.45 18.68 18.78 19.85 18.14 17.62 17.62 19.55 15.50 10.72 9.72 13.21 15.99 15.60 15.27 15.33 16.48 16.84 15.86 14.76 16.15 15.10 14.27 14.41 16.86 15.87 12.04 11.40 12.94 12.74 12.32 10.83 10.11 10.29 8.41 10.06 9.44 8.90 8.54 8.16 7.36 6.95 6.04 6.52 6.47 4.39 4.94
18.05 19.20 21.93 23.04 23.39 22.12 20.33 20.95 21.38 19.25 16.24 15.80 16.02 13.32 13.99 7.71 7.44 11.48 15.69 16.45 15.80 14.38 15.10 16.03 17.45 16.15 14.29 13.63 13.65 13.65 13.88 13.62 12.35 11.20 11.69 10.98 10.43 10.05 9.53 7.57 5.27 6.32 8.73 6.98 7.12 6.41 5.88 5.54 5.33 5.13 5.00 5.90 5.79 4.61
20.27 20.88 15.03 16.76 18.24 19.99 15.61 16.16 15.41 14.19 15.14 16.61 15.42 6.76 6.64 6.89 8.37 13.33 14.98 15.07 14.69 14.72 14.03 13.84 14.15 14.78 13.83 12.71 13.11 13.86 12.38 11.26 10.51 10.87 10.79 9.94 9.75 8.92 7.13 7.84 6.05 4.97 6.48 5.79 6.99 6.84 6.68 5.47 4.65 4.23 2.90 2.47 2.46 3.45
17.84 19.41 19.60 10.33 14.18 13.73 11.82 12.94 13.35 13.23 13.78 14.54 10.28 7.25 6.58 9.50 11.72 13.89 14.87 15.77 15.82 14.31 12.32 10.74 9.85 11.48 10.73 10.35 9.71 10.13 10.90 11.34 7.31 3.84 3.66 5.21 6.68 6.52 7.24 7.18 7.29 6.40 6.33 6.02 5.29 5.69 6.29 5.69 4.71 2.78 1.60 1.75 2.39 3.30
17.42 19.61 16.34 11.01 8.85 9.89 10.43 11.07 11.25 11.34 11.97 12.44 12.05 9.99 9.22 9.78 11.33 14.47 15.25 14.88 14.08 12.95 11.71 11.23 10.68 12.65 9.92 11.09 8.92 7.25 7.00 6.75 5.90 5.85 5.10 3.87 4.40 5.59 5.88 5.79 5.57 5.27 4.87 4.56 3.75 4.15 3.56 3.39 3.64 3.89 1.85 1.57 1.64 0.00
17.40 21.79 17.12 15.41 11.37 12.26 12.32 12.27 12.58 12.19 11.45 10.19 10.54 9.01 7.51 9.26 11.18 11.68 11.20 11.18 10.39 9.60 11.13 9.80 8.37 9.60 9.57 8.12 8.42 7.16 5.69 6.37 2.53 2.71 3.22 5.37 5.82 6.39 5.84 4.31 4.83 4.44 3.97 2.80 2.10 1.92 0.43 1.36 2.00 0.65 0.24 -1.46 -2.81 -2.92
16.23 15.15 14.61 11.24 10.69 12.47 13.05 14.38 14.57 12.81 12.15 11.49 8.76 8.67 7.91 9.15 6.63 9.34 10.34 10.98 10.99 11.20 5.22 8.14 9.77 8.84 6.81 6.19 4.76 5.27 -3.67 4.08 5.30 3.86 2.01 4.38 6.26 5.66 5.16 4.57 3.55 3.16 2.32 1.57 1.68 0.73 -0.34 -1.01 -0.62 -1.03 -1.34 -2.12 -3.45 -4.42
14.13 15.62 15.64 13.50 11.27 10.06 13.03 14.40 12.36 9.91 10.90 9.92 9.23 8.57 8.49 9.07 5.32 9.03 7.62 7.70 10.86 11.04 9.59 9.44 9.00 7.76 4.80 3.65 4.29 5.05 2.64 5.04 0.07 -1.10 -0.66 -0.36 -1.87 0.45 2.53 4.34 3.00 1.80 0.17 0.18 0.64 -0.15 -1.56 -1.97 -1.60 -2.29 -2.65 -4.10 -4.62 -4.97

GFSWCAN_sfc_wetblb_033.txt.gz
Wetbulb
45.99 46.47 46.61 46.68 45.17 45.19 45.96 45.29 46.65 46.21 46.77 46.58 46.83 46.62 46.48 46.85 47.07 46.29 46.98 52.07 47.18 41.66 42.95 44.42 45.68 43.21 42.24 43.75 40.75 43.57 43.03 43.50 44.27 39.90 38.95 38.27 39.15 40.71 39.76 40.85 39.50 39.75 39.49 40.30 42.05 39.03 36.80 50.79 50.39 45.70 50.42 53.49 53.72 53.86
46.29 46.08 46.14 46.79 46.51 45.16 46.00 45.50 46.51 46.40 46.56 46.31 46.56 46.58 46.06 46.96 46.65 46.99 44.15 49.99 50.16 45.75 43.26 47.99 48.48 49.64 48.33 48.05 46.03 46.84 44.42 44.55 45.85 42.08 43.38 42.34 42.80 43.73 41.31 37.20 44.72 37.08 44.80 43.31 44.89 44.49 51.46 52.79 51.99 53.94 54.31 53.92 54.66 54.00
45.39 46.13 46.10 46.44 46.38 46.38 45.89 45.70 45.68 45.93 46.08 46.29 46.46 46.06 46.74 46.54 46.95 46.94 46.60 48.40 47.53 42.42 44.25 44.64 43.80 48.64 50.36 51.47 53.17 45.15 47.73 49.20 47.83 49.95 45.52 45.49 41.45 45.56 38.99 41.41 43.51 45.73 48.15 45.41 46.62 49.48 50.83 52.92 53.86 54.85 55.41 54.98 55.38 55.14
45.63 45.98 46.21 46.26 46.31 46.01 46.01 46.20 45.84 46.05 46.22 46.20 46.73 46.79 46.79 46.24 46.70 47.59 47.03 48.22 46.34 43.02 37.97 40.94 48.48 46.16 49.92 51.32 51.24 52.06 50.48 50.68 50.83 49.59 46.84 46.17 42.99 46.28 43.98 44.28 43.31 45.54 47.53 45.60 46.37 48.95 51.05 52.38 53.72 54.75 54.55 54.50 53.87 53.66
45.61 45.79 45.96 46.13 46.19 46.05 46.01 45.92 45.96 46.20 46.31 46.43 46.84 46.81 46.47 46.49 46.81 47.53 48.22 48.80 49.23 43.58 38.07 39.47 44.89 46.56 48.19 48.93 49.37 51.22 50.58 49.63 47.93 46.36 46.04 43.55 46.36 46.04 47.51 46.98 44.78 47.34 45.98 44.33 44.90 49.84 51.73 52.10 54.31 55.75 54.42 53.22 52.91 52.70
45.25 45.66 46.06 46.12 45.99 45.98 45.77 45.91 46.08 46.19 46.37 46.19 46.42 46.72 46.47 46.45 46.54 44.81 38.78 47.29 48.05 49.58 43.71 36.65 44.57 44.10 46.15 47.88 47.45 48.69 49.62 49.30 48.73 46.66 46.90 47.37 48.27 46.20 42.99 41.45 45.14 47.72 50.56 51.46 49.11 52.19 52.45 54.02 52.85 53.71 54.37 54.46 53.85 53.02
44.95 45.39 45.91 45.86 46.08 45.86 45.99 46.12 45.63 46.21 46.17 45.73 45.77 45.82 46.06 46.10 46.34 41.92 41.06 45.39 47.22 49.08 42.50 36.32 36.40 43.98 46.67 47.17 47.51 47.85 49.63 48.27 48.62 47.45 46.94 47.01 47.30 47.46 44.88 41.38 46.29 48.79 48.96 50.78 52.54 50.79 48.46 50.30 50.53 51.80 52.74 53.41 51.45 52.98
44.57 44.91 45.24 45.49 45.54 45.63 45.74 45.79 46.04 45.95 45.56 45.26 45.17 45.42 45.49 45.31 45.69 44.64 46.86 46.33 47.98 44.49 42.03 32.71 33.58 35.67 45.89 41.63 41.88 48.89 46.39 47.65 46.36 44.73 47.37 46.13 47.80 47.59 41.77 45.13 46.90 48.06 49.95 49.84 50.81 50.21 49.60 49.32 49.43 48.74 50.37 49.95 49.30 49.93
44.03 44.20 44.55 44.70 44.84 44.94 45.01 45.26 44.77 44.74 44.97 45.08 44.65 45.09 44.67 43.66 40.55 43.24 45.82 45.96 49.98 44.20 35.03 35.81 32.60 32.28 44.07 41.71 43.42 45.24 47.89 41.06 46.95 43.69 44.35 46.00 44.39 41.02 44.68 46.17 46.81 47.19 47.55 47.18 48.53 47.40 47.12 47.19 47.17 46.47 46.58 46.65 47.13 46.93
43.96 44.01 43.93 44.08 44.31 44.48 44.69 44.86 44.93 44.83 44.94 44.56 45.55 41.33 37.27 42.56 45.71 45.22 44.08 40.99 41.19 42.52 40.77 35.88 39.83 33.73 43.55 39.30 38.08 38.51 40.95 38.91 37.68 42.43 46.62 43.13 42.67 43.70 42.28 43.83 45.34 46.22 46.76 47.02 45.52 45.59 45.34 44.82 44.87 44.19 44.58 45.37 45.22 44.58
44.47 44.42 44.35 44.27 44.40 44.33 44.68 44.84 44.82 44.69 44.50 45.43 41.79 38.80 44.20 45.37 42.06 39.23 35.83 35.43 37.18 34.50 39.09 39.55 39.52 36.33 43.97 38.40 36.96 38.48 35.00 38.34 35.71 38.83 40.42 39.98 38.61 34.32 37.62 39.24 42.93 45.31 46.25 46.51 46.45 46.40 46.88 46.70 44.88 43.25 42.79 43.24 42.96 42.39
44.74 44.43 44.34 44.20 44.34 44.52 44.54 44.11 44.00 46.09 45.79 43.62 44.25 44.73 43.32 36.33 35.03 34.37 33.22 35.02 35.20 34.37 41.25 39.57 41.33 42.46 39.35 44.74 41.94 41.48 35.27 35.91 34.46 39.39 38.55 31.79 30.40 33.00 33.95 35.49 36.72 38.76 40.57 42.82 44.35 43.92 44.20 43.25 43.77 42.11 40.13 36.36 33.91 32.16
44.54 44.55 44.57 44.53 44.48 43.94 44.36 44.74 44.59 44.44 46.50 48.00 42.91 38.75 38.61 36.43 31.36 32.09 28.06 30.58 32.31 37.54 38.16 39.96 38.21 44.22 43.37 42.42 39.76 39.97 37.10 34.28 36.39 32.18 28.50 29.79 32.25 32.64 32.77 33.08 32.59 33.65 34.89 34.58 33.04 33.68 32.92 32.29 32.92 31.91 30.66 30.82 30.62 29.37
44.50 44.68 44.75 44.77 44.48 44.36 44.48 44.39 44.05 44.40 44.10 38.17 35.83 30.47 32.46 31.50 29.92 28.65 29.59 31.92 33.37 33.91 36.63 37.72 38.81 37.44 35.73 34.28 32.65 33.55 32.46 34.99 32.10 28.76 26.52 29.51 30.96 31.69 32.05 31.53 29.78 29.03 29.43 29.43 29.56 29.82 29.30 29.33 29.60 30.54 30.93 31.11 30.25 29.37
44.30 44.32 44.11 44.09 44.17 44.14 43.91 43.13 43.46 42.82 35.48 31.15 31.32 25.30 26.77 30.01 31.26 30.76 32.09 33.37 34.36 34.35 33.52 35.18 35.73 35.12 33.19 33.01 32.83 34.10 32.10 26.95 26.31 24.89 27.35 30.80 31.31 31.46 30.81 30.76 30.01 29.29 28.75 28.40 28.61 27.67 27.36 27.86 27.42 27.49 28.62 28.78 27.78 26.49
44.23 44.00 43.78 43.98 44.06 44.06 43.55 43.32 43.61 41.96 35.53 29.75 25.24 24.31 25.58 27.60 28.01 27.93 28.36 30.61 31.90 30.72 34.44 34.76 33.01 33.01 30.59 31.35 27.08 26.13 25.61 21.42 24.07 26.91 28.52 30.78 29.80 29.65 29.51 29.48 29.64 29.71 29.32 28.72 28.17 27.75 27.16 26.07 25.50 25.33 25.77 25.83 25.97 26.03
44.33 42.17 43.94 43.43 43.21 43.02 42.60 42.23 38.46 32.13 29.83 27.41 24.58 25.61 24.44 23.91 23.92 27.27 29.05 30.66 32.50 31.89 31.29 32.81 26.59 25.94 32.10 26.11 22.24 24.71 21.30 23.80 26.34 27.14 27.69 27.55 27.67 28.11 28.62 28.57 28.87 29.05 28.52 28.36 27.88 27.37 26.91 27.35 27.05 25.92 23.94 24.13 24.25 23.88
42.56 43.66 43.21 42.87 43.22 41.79 40.03 38.28 33.23 29.76 23.66 24.24 23.64 24.64 25.02 25.91 24.93 27.13 29.56 31.70 34.26 31.69 30.13 25.88 29.87 22.81 21.64 20.84 20.50 23.99 26.87 26.99 26.52 25.40 25.63 27.40 26.90 26.62 27.57 26.95 26.97 26.49 25.95 26.10 26.68 26.82 26.92 26.52 25.20 25.03 25.37 25.54 24.85 24.50
43.67 43.34 43.38 43.02 43.17 41.73 36.47 35.31 34.12 24.50 24.88 25.80 25.49 26.52 26.28 26.18 27.54 29.13 30.33 30.29 30.71 31.63 29.57 25.60 20.79 19.07 19.31 21.95 23.34 25.40 28.08 26.57 24.06 24.22 24.23 23.95 25.11 25.52 25.32 25.02 24.79 24.58 24.53 24.67 24.21 23.55 23.98 24.31 24.95 25.27 25.26 24.53 23.51 24.42
41.55 41.32 41.12 41.37 42.79 39.29 33.79 33.08 36.23 29.17 25.84 27.71 29.67 26.40 26.19 25.16 27.29 28.42 29.13 29.61 27.53 24.80 20.22 17.62 17.46 19.07 20.05 21.86 23.82 24.31 26.80 28.51 25.63 22.10 21.18 22.57 23.43 22.84 23.33 23.94 23.84 24.34 23.36 22.85 22.89 23.24 23.04 22.14 22.39 22.23 22.37 22.19 21.71 20.55
40.62 39.18 39.60 41.33 38.24 36.54 34.61 33.67 31.86 31.95 31.48 29.87 31.32 29.13 26.65 28.92 26.42 25.59 25.74 26.68 23.46 20.91 18.90 21.19 21.26 22.28 23.64 24.48 25.21 24.24 23.57 24.44 23.50 23.02 21.56 20.39 22.80 22.76 22.21 22.49 22.77 22.48 21.38 20.44 19.18 17.76 18.28 18.31 19.13 20.09 20.05 19.71 18.99 19.37
39.89 36.73 38.98 38.73 35.24 34.08 33.32 35.52 33.84 35.41 32.22 31.15 29.80 29.65 26.32 24.21 23.50 23.71 25.03 20.17 18.70 19.56 21.80 21.38 22.25 22.06 21.11 21.07 22.47 23.37 23.60 23.20 22.73 22.14 21.46 21.62 19.57 19.78 19.77 20.68 19.87 17.90 18.12 18.15 17.66 16.38 15.93 15.66 18.34 18.32 18.33 19.01 18.90 16.78
37.15 38.79 36.18 35.59 32.95 32.52 28.83 36.83 30.21 30.52 27.16 28.09 29.32 24.40 23.89 23.12 23.75 27.17 19.78 19.47 19.25 23.51 23.26 22.34 22.39 22.83 21.94 22.47 22.06 22.37 23.18 22.68 21.66 21.29 21.02 20.43 20.43 20.15 19.27 18.97 19.56 17.98 16.76 16.90 18.08 17.03 15.51 14.62 15.43 16.15 16.93 16.42 16.63 16.24
36.03 31.00 28.29 28.72 30.32 25.82 31.48 27.72 30.80 28.56 28.51 26.41 23.90 20.13 20.78 22.82 25.57 20.91 15.71 17.25 19.89 22.20 21.40 22.52 23.58 21.88 21.47 20.50 19.53 19.82 21.72 22.78 21.34 21.08 21.87 20.29 18.08 17.20 17.72 16.91 16.96 17.46 17.73 17.82 17.07 15.92 15.24 15.05 14.03 14.82 13.82 12.99 12.02 12.19
27.67 24.24 28.73 25.01 29.71 27.20 25.08 24.75 25.35 25.51 22.70 24.26 21.21 20.82 21.44 25.70 19.19 17.01 15.31 17.39 19.04 19.56 20.60 21.57 22.12 21.80 19.75 19.60 19.47 18.88 20.07 20.98 18.78 16.62 18.38 20.77 20.27 19.93 17.92 16.36 14.51 14.18 15.39 14.87 13.75 13.96 12.81 13.11 12.23 11.77 11.57 10.35 8.04 8.88
20.87 23.22 24.03 24.95 24.98 24.93 24.82 22.29 22.68 22.59 22.78 20.64 19.94 22.28 24.89 20.87 15.45 13.87 16.44 18.90 18.42 18.54 19.10 20.45 20.12 18.84 18.03 18.97 17.56 16.85 17.79 20.73 19.58 15.40 14.84 15.97 15.72 15.97 14.61 13.34 13.04 11.33 13.48 12.95 11.95 11.44 10.71 10.30 9.71 8.91 9.35 9.78 7.63 7.88
20.94 22.04 23.94 26.99 27.06 26.42 24.83 25.68 25.99 23.70 20.26 19.10 21.33 19.14 19.37 13.20 12.15 14.25 17.91 19.86 17.99 18.04 19.31 21.13 20.97 18.89 17.54 16.93 16.98 17.10 17.22 16.55 15.32 14.37 15.13 14.44 13.79 13.78 12.66 10.54 7.81 8.91 12.40 11.28 11.14 10.39 9.59 8.64 8.28 8.06 7.94 8.71 8.40 7.34
22.97 23.54 18.52 21.66 21.66 24.29 19.84 20.35 19.27 18.26 18.96 20.66 21.27 13.02 12.22 12.84 12.42 17.46 17.66 18.54 19.16 18.96 18.24 17.99 18.53 18.50 17.38 17.24 17.91 17.97 16.64 15.49 14.31 14.95 15.34 14.49 13.86 12.58 11.35 11.97 9.29 7.72 9.90 8.92 9.15 9.69 9.64 8.99 8.15 7.76 6.75 5.87 5.87 7.05
21.77 24.10 20.94 13.84 17.93 16.91 15.78 17.55 17.18 16.23 16.81 20.53 17.14 12.95 11.32 13.06 17.58 16.63 17.77 18.47 19.66 18.82 16.66 15.46 15.38 16.63 15.68 15.28 14.69 15.08 14.78 14.49 11.89 6.33 4.89 10.17 11.66 10.17 11.39 10.84 10.72 10.42 10.37 10.03 8.40 7.68 7.72 7.85 7.05 6.44 5.41 6.56 7.31 7.94
21.30 26.25 18.87 14.46 13.07 12.74 14.64 17.13 14.73 15.71 17.04 17.30 15.86 13.68 12.50 13.14 15.02 19.89 18.45 18.34 17.88 16.81 16.36 16.41 16.62 16.98 15.11 15.40 13.08 10.71 11.64 11.28 9.88 9.99 9.48 8.45 8.43 9.49 10.07 9.57 9.07 9.40 9.27 8.92 8.02 8.25 6.33 7.32 7.92 7.87 6.44 6.03 6.44 4.04
25.87 24.80 19.55 17.50 14.11 15.69 17.02 18.26 18.42 18.31 17.18 15.98 17.27 15.33 12.46 12.82 14.60 16.18 16.23 16.66 16.33 15.69 15.26 13.68 13.92 15.38 14.28 13.15 13.40 11.45 10.05 10.15 6.28 6.66 7.31 9.65 10.12 10.47 9.31 8.10 9.14 8.55 8.30 7.70 6.70 6.53 5.33 4.71 6.28 5.69 5.31 3.47 2.63 1.87
22.10 20.57 17.62 13.84 14.01 16.97 19.72 19.92 19.63 18.12 18.05 16.87 13.98 14.87 13.73 14.51 11.53 13.24 15.53 16.63 15.37 14.93 9.90 14.03 14.17 12.80 12.05 11.35 10.36 9.18 3.90 9.35 9.53 7.95 3.58 8.15 9.46 8.90 8.85 8.74 8.37 7.77 6.92 5.23 5.90 5.68 4.76 3.77 3.88 3.94 3.62 3.00 2.16 0.55
21.11 20.52 19.40 17.89 15.54 15.27 18.32 19.43 17.13 14.86 16.93 15.40 14.12 14.49 14.09 15.02 10.28 13.58 14.10 16.10 16.36 15.56 14.17 14.53 14.03 12.34 9.61 7.95 9.01 9.62 7.39 9.79 3.17 2.19 1.51 2.14 1.01 2.38 3.94 7.48 7.91 6.38 5.16 4.60 4.91 5.17 3.91 3.04 2.44 2.19 1.37 0.89 0.55 -0.11

GFSWCAN_sfc_wetblb_036.txt.gz
Wetbulb
45.34 45.72 46.14 46.34 46.34 47.05 47.10 46.06 46.23 46.36 47.13 46.92 46.73 46.85 46.73 47.02 47.50 46.29 42.97 47.36 45.55 40.71 43.62 44.59 44.58 41.78 42.29 42.08 38.59 42.89 41.79 41.88 43.01 37.44 36.31 37.02 37.21 38.19 36.88 39.33 38.94 35.70 35.75 38.06 39.70 35.47 33.41 50.63 48.71 43.91 48.88 53.97 54.21 53.49
45.35 45.72 46.04 46.45 46.69 46.68 45.38 45.88 46.06 45.74 46.80 46.45 46.53 46.73 46.74 46.98 47.03 46.39 42.48 47.98 51.13 44.32 43.38 48.19 48.18 48.89 47.71 47.01 44.65 45.37 43.20 42.50 41.90 38.92 41.76 41.57 41.48 42.09 40.21 34.30 43.50 35.86 39.57 40.01 40.28 41.86 50.06 50.22 49.46 52.99 54.96 54.51 54.36 54.86
45.43 46.35 46.34 46.48 46.50 45.94 45.93 46.46 46.54 46.18 46.48 46.46 46.69 46.78 46.85 46.94 46.89 46.55 45.05 46.29 46.41 42.86 42.77 43.71 42.68 47.37 50.97 51.32 52.51 44.17 46.35 47.37 46.04 48.29 45.68 45.11 40.55 44.80 38.70 38.73 40.79 43.26 45.24 40.29 39.84 45.83 47.49 51.28 53.04 53.81 54.60 54.41 54.40 55.27
46.01 45.94 46.46 46.38 46.22 46.07 45.86 46.13 45.81 46.13 46.31 46.31 46.46 46.57 46.43 46.58 46.48 47.15 45.43 47.55 46.54 43.45 36.96 39.62 48.84 46.69 51.29 51.35 51.08 50.69 49.29 49.39 49.19 48.48 45.56 44.97 41.74 46.58 41.49 43.10 40.40 43.66 43.96 43.12 42.63 44.30 44.50 48.23 50.99 53.29 54.42 55.11 55.31 55.08
45.80 46.04 46.07 46.11 46.18 46.06 45.95 45.88 45.95 45.93 46.43 46.34 46.15 46.64 46.79 46.86 46.94 47.52 47.54 48.67 50.35 43.01 36.75 39.50 45.80 47.58 48.48 49.05 48.60 49.12 47.94 47.41 44.90 41.98 44.27 42.45 45.64 46.02 48.22 45.70 42.34 45.55 43.97 41.55 40.50 47.66 48.13 49.28 51.67 53.65 52.69 52.03 54.37 53.41
45.87 45.88 46.00 45.95 45.79 45.86 45.86 45.83 45.85 46.02 45.95 45.99 46.52 46.31 46.34 46.53 47.39 45.40 38.69 46.48 49.05 48.95 41.72 36.00 45.20 44.00 45.82 46.95 46.62 46.62 47.73 48.59 48.34 45.74 43.86 45.93 48.37 45.58 42.87 39.57 45.07 46.79 47.53 48.31 46.76 50.98 51.73 51.94 52.07 53.55 51.90 52.36 53.93 53.87
45.83 46.10 45.96 45.93 45.91 45.86 45.95 45.69 45.90 46.22 46.22 46.22 45.85 46.64 46.82 46.55 47.54 42.55 40.76 45.12 47.53 48.98 40.97 36.16 36.94 43.56 45.79 45.72 45.78 45.86 47.81 46.47 47.64 44.60 44.80 45.30 45.88 45.54 42.19 38.10 45.20 46.91 48.40 48.99 51.05 50.49 49.20 50.63 49.52 51.90 51.56 52.11 53.10 53.20
45.38 45.72 45.65 45.78 45.73 45.65 45.56 45.33 45.68 46.16 45.35 45.45 45.69 46.23 46.11 46.46 46.57 43.45 46.74 46.71 48.78 44.68 42.20 34.75 34.66 37.00 44.63 41.62 40.80 46.61 44.36 45.66 45.57 45.18 46.41 44.69 46.36 45.08 39.96 43.62 46.13 47.01 48.51 48.47 49.84 51.37 50.30 49.27 48.94 49.43 49.92 50.55 50.51 50.32
44.67 45.05 44.91 45.53 45.55 45.87 45.41 45.07 45.23 45.47 45.53 45.69 45.66 46.01 45.63 44.55 41.88 43.06 45.30 46.64 51.77 44.77 36.28 35.36 32.26 30.48 39.56 42.83 45.40 44.79 46.25 39.82 45.62 43.00 42.93 44.86 42.39 37.42 36.69 38.41 41.49 44.09 44.75 45.08 47.17 48.07 48.04 47.29 47.57 48.15 47.32 47.01 47.00 48.94
44.37 44.42 44.58 44.43 44.59 44.86 44.69 44.85 45.02 45.27 45.46 45.76 44.94 41.51 37.29 42.78 45.19 44.86 43.49 40.79 40.51 41.81 41.59 34.56 38.30 32.75 37.84 37.12 40.15 41.84 43.53 39.42 36.45 41.49 44.94 40.43 37.18 34.99 34.47 36.28 38.84 39.09 42.51 45.73 43.46 43.10 44.43 45.23 46.77 46.21 45.23 46.50 47.04 46.93
44.48 44.52 44.61 44.52 44.36 44.38 44.54 44.57 44.84 45.20 45.22 43.74 40.44 37.18 43.77 45.22 44.72 40.93 35.85 34.89 36.39 33.64 37.92 36.87 36.68 34.25 37.83 33.63 35.46 39.51 35.39 38.66 34.86 38.80 38.66 37.41 32.13 31.24 33.51 33.70 36.48 36.63 39.81 41.49 43.27 43.91 43.63 44.79 45.78 44.28 42.86 39.36 36.18 35.23
44.97 44.84 44.78 44.51 44.50 44.56 44.40 44.59 44.90 45.32 44.73 42.80 42.55 43.60 43.25 39.62 35.90 33.64 32.75 34.66 33.74 32.23 38.06 36.93 37.81 36.82 34.01 43.08 36.67 37.72 34.60 34.96 32.69 42.47 36.17 26.77 28.99 32.10 31.64 31.74 31.84 33.69 35.21 35.02 36.40 35.81 35.39 35.43 36.06 34.54 32.66 31.64 31.19 30.43
44.41 44.54 44.55 44.15 44.29 44.63 44.72 44.62 44.41 44.55 46.90 46.96 42.92 37.39 35.41 34.38 30.58 30.19 26.75 30.08 32.65 32.84 35.56 36.64 34.01 37.58 39.15 41.01 36.18 36.90 31.88 32.04 34.50 31.55 26.51 26.84 29.65 31.05 30.94 30.32 29.63 30.70 30.97 30.97 30.15 30.85 30.73 30.00 30.40 29.59 28.18 28.45 28.25 27.13
44.48 44.12 44.24 44.32 44.07 44.00 43.96 44.09 43.91 44.86 44.68 37.34 34.62 29.53 30.87 28.00 27.92 26.72 27.61 30.17 32.60 32.78 32.42 33.94 36.57 34.58 34.41 32.95 32.60 32.06 31.68 32.56 30.21 26.57 22.39 26.53 28.76 29.91 30.39 30.47 28.81 27.86 28.16 27.61 27.50 27.78 27.02 26.36 25.87 26.65 27.69 27.72 26.29 25.37
44.11 44.00 44.16 43.98 43.86 43.88 43.83 43.86 43.82 42.30 37.06 30.31 30.99 24.42 25.61 29.34 29.87 30.04 32.00 32.95 32.42 32.71 32.57 34.58 34.58 34.76 33.33 32.01 32.57 33.36 30.76 22.98 23.25 21.52 24.44 27.89 28.95 28.99 28.61 28.83 28.47 27.67 27.18 26.64 26.67 25.72 25.20 25.34 25.10 25.19 26.12 26.05 25.42 24.57
43.97 44.00 43.50 43.96 44.05 43.65 43.62 44.02 41.41 40.80 34.82 28.02 25.23 24.53 26.01 27.24 26.38 27.85 28.73 30.20 32.78 30.32 32.36 34.37 32.60 31.86 29.54 29.73 25.89 24.53 23.15 19.34 21.43 24.62 26.22 28.37 27.16 27.63 27.75 27.73 27.61 27.75 27.33 26.79 26.78 26.04 25.26 24.15 23.42 23.34 24.12 24.14 24.03 23.75
43.99 42.38 43.52 43.03 42.36 42.29 42.14 40.91 36.08 29.66 27.75 27.36 24.50 26.91 26.68 26.15 25.96 28.74 29.93 30.00 33.51 32.36 31.32 31.01 26.42 26.06 30.93 24.56 20.40 23.87 19.95 22.33 24.37 25.58 25.94 25.98 26.44 26.34 26.12 25.84 26.24 26.73 26.88 26.92 26.66 26.43 26.04 26.22 25.66 24.42 22.84 23.92 24.20 23.87
42.49 43.80 42.97 42.65 43.30 42.41 39.42 37.43 31.50 28.03 22.14 24.56 23.14 24.43 27.19 27.89 26.78 28.46 29.52 31.41 32.89 31.38 30.12 26.20 28.32 21.34 20.48 19.74 19.58 24.89 23.97 25.06 24.61 23.10 24.32 25.60 25.29 25.15 25.94 25.29 25.66 25.57 24.97 24.80 25.13 25.67 26.03 25.53 24.58 24.40 25.05 25.08 24.58 24.34
43.05 43.29 43.00 42.88 42.86 40.84 34.99 34.34 32.71 23.81 24.43 27.22 26.61 27.18 27.43 27.35 28.13 30.00 30.61 31.18 30.30 30.45 28.62 24.62 19.71 18.14 18.66 22.75 24.16 25.82 25.64 24.21 22.34 22.36 22.87 23.92 25.42 25.05 24.70 24.44 24.16 23.95 23.97 24.04 23.41 22.40 22.27 22.49 22.85 23.86 24.27 23.19 21.22 22.78
41.17 40.93 41.13 41.33 42.60 38.51 33.17 32.68 35.72 28.95 25.30 26.46 28.47 25.84 25.27 24.56 27.08 25.73 26.41 27.93 26.23 23.46 19.02 16.89 16.87 19.20 19.99 21.85 24.26 26.27 26.90 26.38 23.97 21.30 21.09 22.66 23.87 23.44 23.55 23.87 23.66 23.28 21.70 20.51 20.65 21.36 20.73 20.30 21.06 20.92 20.02 19.59 19.46 18.12
40.45 40.66 40.93 42.35 39.48 38.11 35.07 33.33 31.33 31.20 30.98 29.05 29.61 27.95 25.94 26.30 22.51 21.91 23.03 24.63 21.43 19.96 17.47 20.21 20.29 22.07 24.21 24.68 25.28 25.09 24.75 25.21 23.92 22.89 21.19 20.14 22.51 21.97 21.51 21.76 21.73 21.27 19.87 18.79 17.35 16.69 17.85 17.88 18.66 19.85 19.54 18.02 16.98 17.85
39.42 38.59 40.62 40.72 35.05 35.29 34.22 36.44 34.09 35.53 31.23 30.49 29.44 29.13 25.60 23.75 23.23 22.74 23.71 20.50 18.34 19.91 21.80 21.60 22.02 21.86 22.01 22.60 23.77 23.94 23.81 23.53 23.43 22.89 22.33 21.80 19.20 19.60 19.89 20.77 19.84 18.22 18.14 18.00 16.63 15.68 15.58 14.67 17.48 18.07 17.12 18.05 18.04 15.95
37.29 39.35 37.66 37.15 33.03 32.65 29.40 37.08 30.52 31.23 27.05 27.78 28.79 24.62 23.83 22.99 24.43 27.15 18.80 19.30 20.67 23.84 23.12 22.56 23.02 23.64 22.38 23.03 23.33 23.41 23.89 22.66 21.49 21.46 21.23 20.80 20.40 20.27 19.20 18.90 19.42 18.17 16.86 16.70 17.49 16.45 15.31 14.20 14.83 15.62 15.64 14.90 15.15 14.96
37.87 32.76 30.30 30.44 31.19 26.51 32.41 28.39 31.21 28.47 28.61 25.78 23.62 20.14 20.97 23.41 26.14 20.58 15.23 17.60 21.00 23.28 23.36 24.53 24.12 21.55 21.01 20.12 19.20 20.11 21.90 22.62 21.38 21.80 21.94 19.70 17.22 16.35 16.55 15.39 15.40 16.00 16.93 16.90 16.22 15.03 14.43 14.21 12.60 13.46 12.63 10.99 10.41 11.14
28.12 24.46 29.11 25.86 31.95 28.13 25.62 25.50 25.98 25.43 22.53 24.26 21.01 20.81 21.98 25.83 19.84 17.82 15.54 17.88 19.66 21.24 21.83 22.73 22.79 21.71 19.19 18.79 19.04 19.00 21.01 20.67 17.88 15.79 17.94 19.84 20.06 19.67 16.99 14.80 13.31 13.19 14.94 13.99 12.99 12.66 11.93 12.55 11.58 11.37 11.02 9.37 7.34 8.69
21.05 23.74 24.99 25.88 26.01 25.79 25.61 22.88 23.30 23.30 23.18 20.82 20.86 23.18 25.29 21.59 16.94 14.50 16.82 19.09 18.35 19.13 20.95 21.98 20.48 18.53 17.28 18.54 16.60 15.96 16.77 20.89 19.01 14.09 14.12 15.11 14.77 15.10 14.11 12.38 11.66 9.93 13.18 13.03 11.31 10.91 10.18 10.02 9.15 8.69 8.66 8.84 5.79 6.84
21.35 21.84 25.27 29.95 28.73 27.59 25.93 26.76 26.48 23.53 21.15 20.23 21.47 21.12 20.63 14.62 12.65 14.74 18.91 20.38 17.91 19.61 20.94 22.13 21.33 19.14 17.26 16.70 17.03 16.99 16.92 16.22 15.19 14.25 15.16 14.38 13.74 13.40 11.46 8.69 6.18 7.55 11.90 10.17 10.44 9.72 9.07 8.45 8.09 8.12 7.72 7.90 7.67 6.79
23.62 24.69 19.96 22.56 21.57 24.69 20.73 20.60 20.02 18.89 19.02 21.69 21.81 14.51 13.64 14.11 13.24 17.97 17.76 19.78 19.82 19.77 19.13 18.92 19.12 18.93 17.83 17.53 18.35 18.07 17.79 16.58 15.25 16.46 15.99 14.62 13.98 13.09 12.30 12.00 9.81 10.10 10.51 9.55 8.90 8.65 8.48 7.75 7.56 7.56 6.51 5.54 6.25 8.05
22.82 23.92 20.60 15.10 17.31 16.70 16.95 17.95 16.80 16.71 17.85 21.37 17.90 13.50 11.88 15.79 18.15 17.41 18.78 19.85 21.06 19.48 17.27 15.77 16.09 17.67 16.70 16.10 15.47 15.03 14.61 13.77 12.46 9.02 8.79 10.07 10.94 10.04 11.79 11.41 11.10 10.86 10.37 10.62 11.19 10.34 8.23 7.40 6.91 5.84 5.52 5.86 7.34 8.56
22.38 26.14 17.93 15.28 13.54 11.86 14.45 17.67 15.90 19.46 19.20 17.01 15.72 14.06 13.33 14.46 18.18 21.06 19.87 20.02 19.26 17.66 17.86 17.52 17.63 17.97 15.91 16.08 13.29 11.82 11.96 10.92 9.33 9.22 8.65 7.91 8.07 9.70 10.68 9.91 9.37 9.77 9.73 9.38 8.45 8.63 10.76 7.61 8.70 9.16 7.52 7.27 6.62 5.06
26.67 24.52 18.99 16.81 13.43 15.78 16.87 19.54 20.23 19.74 19.44 18.46 19.09 14.33 11.73 12.77 15.38 17.87 18.23 18.11 17.54 17.13 16.29 14.95 15.05 16.00 14.74 13.54 12.95 11.86 10.31 9.94 7.43 7.10 6.70 9.57 9.96 10.58 9.83 8.81 9.72 9.05 8.52 8.24 7.00 6.89 6.68 5.29 5.49 5.54 5.75 4.90 3.91 3.47
23.99 20.92 16.96 13.25 13.77 17.99 21.19 22.28 20.70 19.10 19.10 16.95 15.10 15.32 15.89 15.93 12.04 13.81 16.93 17.98 16.90 16.40 10.72 15.76 14.87 12.77 12.96 11.94 10.99 8.57 4.96 9.70 10.04 8.54 7.95 8.14 9.17 8.54 8.31 7.73 8.92 9.18 7.87 6.31 5.79 6.07 6.07 5.07 4.07 4.02 3.76 3.40 2.99 1.66
22.47 21.88 20.17 18.45 17.42 18.02 19.90 21.06 18.70 16.86 18.07 15.99 14.76 15.99 15.12 15.87 11.44 13.37 15.81 17.47 17.51 17.23 15.59 15.57 14.61 12.75 10.70 10.24 10.90 9.67 4.97 9.45 4.60 4.57 4.29 3.31 0.19 2.11 2.36 5.67 7.14 6.39 4.80 4.19 4.62 5.00 4.77 4.49 3.78 2.92 1.80 1.03 1.22 1.57

GFSWCAN_sfc_wetblb_039.txt.gz
Wetbulb
45.44 45.30 45.34 45.49 45.68 46.21 46.60 46.86 46.97 47.11 46.97 47.18 47.25 47.32 47.16 47.10 47.16 45.82 43.13 44.48 41.62 37.21 40.49 42.40 43.46 39.97 39.45 39.06 33.97 36.78 37.52 38.57 34.90 29.32 30.81 29.59 29.23 34.48 34.18 36.38 33.44 31.86 31.37 31.70 33.75 29.65 28.96 44.56 45.82 40.98 42.32 46.81 48.59 47.87
45.51 45.29 45.50 46.06 46.22 46.53 46.97 46.69 46.23 46.85 46.83 46.25 46.30 46.67 47.12 47.21 47.16 46.79 41.16 44.50 44.28 41.11 40.13 45.65 45.96 47.06 44.59 43.82 40.20 40.37 38.96 39.16 38.36 34.01 33.56 33.66 28.14 31.91 33.14 28.44 40.17 32.35 35.63 34.09 37.65 35.51 43.43 44.85 45.73 47.12 49.19 48.71 49.65 47.32
45.36 45.97 46.37 46.65 46.76 46.60 46.37 46.46 46.69 46.55 46.18 46.09 46.07 46.84 46.91 47.11 47.24 46.39 42.65 43.50 42.06 38.14 40.21 39.62 40.77 46.17 48.98 47.42 48.85 41.37 40.41 43.51 40.92 42.59 38.24 37.02 29.86 32.27 25.99 31.03 35.56 40.39 42.97 37.61 37.42 40.52 42.76 44.19 47.05 48.67 50.39 49.92 51.55 51.31
45.61 46.12 46.42 46.33 46.31 45.80 46.16 46.10 46.15 46.10 46.00 45.84 46.65 46.69 46.60 46.78 46.85 46.46 42.56 43.98 43.86 41.20 33.90 37.02 46.81 44.54 49.28 49.39 50.03 48.53 46.01 47.59 44.68 42.48 37.47 35.14 31.89 39.23 30.69 36.37 35.00 40.45 41.92 40.13 39.14 41.93 44.17 46.18 47.78 49.53 50.10 50.86 50.72 51.17
45.88 46.00 46.00 46.17 46.05 45.91 45.98 46.15 46.03 45.51 46.26 46.05 46.26 46.49 46.64 46.76 47.25 45.98 45.04 45.36 47.19 40.51 35.08 38.72 43.17 46.26 48.39 47.53 47.15 46.96 45.35 45.75 41.33 39.36 36.18 35.60 38.33 37.72 38.18 37.98 35.10 41.24 39.50 36.60 35.35 43.58 43.86 45.58 48.98 49.52 47.98 50.36 50.86 50.81
45.87 46.01 45.76 45.64 45.87 45.89 45.96 45.90 45.98 45.88 46.19 46.28 46.65 46.76 46.81 46.94 47.15 44.65 37.28 45.53 47.60 47.08 39.98 32.92 42.56 43.06 43.41 44.75 45.78 44.94 44.92 45.04 43.88 38.61 35.77 40.79 44.15 40.00 31.06 31.84 41.29 43.35 43.82 44.66 43.17 45.97 45.27 46.57 49.03 50.35 49.64 50.06 50.25 50.26
45.90 45.78 45.78 45.58 45.81 45.91 45.79 45.59 45.75 46.03 45.96 45.98 46.02 46.30 46.54 46.54 45.57 41.31 38.10 42.77 46.28 46.53 37.98 29.67 31.02 39.99 43.31 43.10 41.91 42.38 45.30 43.27 42.98 42.03 39.47 39.53 40.10 41.21 29.74 29.74 40.68 42.26 44.96 45.62 46.75 46.69 45.12 46.47 45.49 47.65 47.81 48.34 48.75 48.76
45.59 45.87 45.62 45.46 45.63 45.60 45.58 45.54 45.68 45.79 45.86 46.14 46.09 46.80 46.69 46.97 46.09 42.08 44.34 46.74 47.38 40.34 38.59 27.51 28.22 32.76 40.77 35.17 35.34 41.26 38.62 41.85 42.65 39.57 41.82 39.49 40.89 39.06 31.64 36.08 38.48 38.98 41.83 43.35 44.01 45.73 45.11 45.76 46.36 45.83 46.26 45.75 45.36 45.06
45.32 45.46 45.18 45.07 45.24 45.62 45.29 45.49 45.91 46.15 46.17 46.32 46.16 46.21 45.27 43.69 40.01 39.54 46.39 47.21 46.56 40.67 30.79 28.30 29.16 25.90 38.46 36.54 37.60 37.70 40.15 32.28 41.99 35.79 37.86 40.51 34.33 28.92 31.81 32.42 34.65 35.87 37.34 39.39 42.67 43.36 43.58 43.14 43.96 43.81 43.44 42.73 42.96 41.96
44.77 45.01 44.89 44.79 44.81 45.15 45.16 45.20 45.55 45.82 45.82 45.89 44.64 40.80 35.66 41.12 45.16 44.75 42.46 37.98 37.30 38.41 37.33 28.82 33.92 30.05 37.13 33.08 30.73 31.80 30.01 32.19 28.60 34.49 40.20 34.44 29.74 33.78 33.06 33.38 33.94 34.32 37.24 38.29 37.32 35.95 37.44 37.75 40.74 35.70 35.07 34.76 33.34 32.47
44.80 44.78 44.73 44.84 44.79 44.87 45.10 45.23 45.23 45.39 45.75 43.28 38.59 36.94 41.07 44.92 41.29 37.79 30.84 30.71 33.24 27.89 32.95 32.85 32.29 33.08 38.21 31.83 33.87 32.18 28.92 30.48 26.77 31.88 31.70 29.91 25.02 28.57 30.84 30.94 32.11 32.80 34.92 35.75 37.04 36.08 35.80 35.72 34.78 33.12 30.97 30.14 29.32 28.54
45.23 44.93 44.75 44.67 44.64 44.81 44.71 44.94 44.91 43.89 42.55 42.52 41.09 42.47 41.12 37.88 34.79 28.95 26.27 30.05 27.87 27.92 32.79 32.23 33.61 36.40 34.90 38.02 35.08 34.67 32.94 31.85 27.71 33.28 28.20 21.75 25.37 29.14 29.27 28.89 29.09 30.41 31.41 31.28 31.89 31.34 31.52 31.10 30.65 29.38 28.07 26.97 26.11 25.58
44.58 44.43 44.40 44.41 44.70 44.67 44.52 44.51 44.65 45.23 45.14 43.59 39.70 33.67 35.55 32.15 28.37 21.74 24.37 26.74 29.03 30.72 32.19 33.87 33.18 32.24 33.79 36.84 33.87 32.05 31.56 30.73 33.54 28.18 21.84 22.36 26.21 27.90 28.20 28.06 27.23 28.24 27.94 27.50 26.97 26.94 26.70 26.31 27.10 26.97 25.59 25.54 25.57 24.95
44.20 44.07 43.98 43.94 43.88 44.12 44.25 43.74 43.85 43.95 41.23 34.09 30.75 21.58 25.93 21.82 24.02 24.22 25.14 27.39 30.73 31.11 30.60 31.80 31.88 31.88 31.86 31.83 32.06 31.24 30.25 30.61 25.19 20.21 17.31 22.90 25.59 27.05 27.49 27.42 25.86 24.77 25.10 24.70 24.59 25.08 24.40 23.95 23.54 24.03 23.88 24.26 23.26 22.39
43.89 43.91 43.88 43.64 43.65 44.05 43.19 43.34 42.76 38.04 31.77 26.03 24.72 19.98 21.67 27.17 27.25 27.86 29.44 30.67 30.91 31.77 30.27 32.19 31.88 32.77 31.49 29.86 30.67 30.90 25.85 18.94 19.89 16.30 21.22 24.08 25.87 25.93 25.59 25.79 25.25 24.49 23.72 22.99 23.15 22.57 22.24 22.50 22.18 22.22 23.54 24.05 23.97 23.45
44.01 43.84 42.71 42.66 42.51 42.87 43.23 40.85 38.27 37.41 30.18 22.88 20.51 17.53 20.29 18.61 18.39 25.40 26.39 27.65 31.78 30.64 31.26 32.42 30.87 28.61 26.01 25.04 21.75 20.14 18.72 15.10 17.26 20.73 23.96 24.12 23.05 23.63 24.57 25.07 24.89 25.00 24.37 24.01 24.00 23.69 23.22 22.20 21.77 21.74 22.69 22.89 22.95 22.71
43.91 41.14 43.24 42.37 42.37 41.22 41.82 38.40 33.24 28.53 26.02 23.23 17.93 17.23 17.44 18.88 21.01 26.06 26.90 26.81 31.31 31.25 28.28 28.83 21.80 21.44 27.39 21.00 18.48 20.74 15.27 17.95 20.30 21.00 22.32 23.67 23.28 23.31 23.59 23.63 23.67 24.00 24.05 24.67 24.51 24.24 23.78 23.90 23.42 22.37 20.97 22.27 22.68 22.38
41.21 41.91 43.10 43.45 43.54 42.61 37.22 34.70 29.90 26.23 21.72 23.86 19.26 23.02 23.95 22.91 23.46 26.61 28.14 27.61 29.48 29.62 27.79 23.64 25.19 18.00 15.60 15.31 16.51 18.48 19.14 20.05 21.09 22.32 21.95 22.33 22.49 22.86 23.32 22.24 22.96 22.62 21.98 21.55 20.96 20.82 21.57 21.99 21.26 20.84 22.33 22.93 21.84 21.21
41.92 41.89 42.18 42.45 41.99 38.89 32.89 32.81 31.85 22.72 23.77 24.85 23.06 23.47 24.91 23.55 24.51 25.76 26.90 27.57 26.99 26.85 25.63 21.60 15.90 15.00 15.55 18.98 20.41 20.46 20.82 20.28 19.36 20.42 20.91 22.13 23.41 23.00 22.06 21.40 20.44 19.72 20.37 20.39 20.04 19.03 18.94 19.13 18.24 18.55 19.35 18.69 16.81 19.36
41.80 41.41 41.30 41.38 42.08 35.96 31.23 30.62 33.93 27.17 24.04 24.61 24.61 21.85 21.58 21.41 23.86 22.98 22.75 24.81 23.81 21.58 16.80 14.45 15.31 17.72 18.41 19.86 24.30 23.12 23.14 23.71 21.36 18.29 18.50 19.91 20.92 20.58 20.14 20.00 19.13 18.74 17.45 17.39 17.24 17.74 17.38 17.24 17.45 15.94 14.94 14.70 14.36 13.44
40.46 40.02 41.00 40.81 37.46 36.28 33.33 31.61 30.18 29.46 28.61 25.99 27.04 25.97 22.49 22.47 19.46 18.67 19.05 22.48 18.64 17.37 15.65 18.31 18.15 20.22 22.01 22.42 22.76 22.08 21.53 22.03 20.80 19.90 18.87 17.88 20.36 19.83 18.89 18.52 18.27 16.94 14.97 13.50 12.07 11.57 12.14 13.58 13.49 15.56 12.82 6.80 7.44 10.75
37.85 39.65 36.14 38.04 32.06 32.67 31.50 33.15 31.33 31.78 28.99 27.49 26.96 27.17 22.93 19.76 18.45 18.32 20.80 16.66 16.43 17.41 18.94 18.70 19.80 20.79 21.21 21.23 21.72 22.34 22.20 21.68 20.68 19.49 19.03 18.66 16.14 16.07 16.31 16.24 14.82 13.05 13.67 12.63 10.96 8.08 8.77 11.15 12.58 10.98 8.98 10.99 9.25 7.76
38.41 37.50 33.73 32.65 26.42 24.49 22.75 31.72 23.95 27.86 20.58 22.07 23.36 19.90 17.53 15.77 20.13 22.46 13.60 17.80 18.89 21.33 21.65 21.34 21.77 22.67 21.32 21.78 21.58 21.80 22.07 20.40 17.62 16.72 15.84 15.17 14.45 13.15 12.41 12.46 13.22 10.79 10.75 11.88 12.95 11.55 7.75 8.07 7.87 3.80 3.33 4.41 2.76 2.32
36.86 30.02 25.45 23.53 24.27 18.25 24.19 20.99 26.48 24.93 22.22 19.73 17.75 14.40 17.20 18.99 20.34 14.24 12.74 15.95 19.08 22.50 22.57 21.81 20.46 17.91 17.84 17.25 15.82 17.38 18.55 17.85 15.49 15.22 15.90 13.98 11.58 11.00 11.37 10.38 10.15 10.68 12.35 13.38 9.98 5.42 5.74 -0.79 2.05 2.84 -2.07 -3.69 -3.08 -7.98
20.69 19.00 22.63 17.94 24.03 18.80 16.38 16.76 17.50 18.97 14.30 16.54 13.72 16.67 15.84 20.17 14.01 12.29 11.75 15.21 17.84 18.30 19.28 20.34 19.98 17.58 13.34 12.62 13.69 14.46 16.29 15.61 11.84 10.09 11.12 13.81 15.21 12.37 9.98 9.37 8.33 9.40 9.78 4.02 6.04 -1.65 -4.20 -3.32 -2.40 -1.35 -2.20 -9.57 -4.35 -3.60
13.66 19.30 20.30 20.51 18.87 17.95 18.84 13.41 13.33 13.91 13.66 14.11 15.55 19.38 17.12 10.10 5.92 8.56 14.55 12.65 13.20 13.77 18.34 14.54 10.27 11.82 12.74 13.58 11.17 10.91 12.31 16.29 13.10 8.12 9.94 10.72 9.44 3.59 2.63 3.77 2.32 2.84 6.74 3.79 -3.09 0.60 -3.71 -3.42 -6.29 -5.08 -7.67 -0.53 -4.97 -9.26
14.27 18.12 24.58 26.98 25.64 23.91 19.39 19.43 20.40 15.44 11.77 10.59 13.32 12.44 7.63 0.77 2.36 11.72 16.30 14.84 11.99 15.38 17.67 17.86 16.38 14.32 12.94 12.52 13.02 12.51 11.79 11.49 9.77 10.72 10.71 10.53 10.10 8.35 2.67 -4.39 -5.80 -0.28 4.32 -2.11 -5.29 -5.08 -2.90 -4.35 -6.71 -4.89 -7.69 -10.97 -9.31 -9.87
22.17 20.16 13.92 17.47 15.39 18.78 11.99 12.14 10.88 10.87 9.68 16.35 13.61 2.94 1.38 3.36 6.12 13.91 12.74 16.03 14.07 14.73 13.85 13.68 14.09 13.91 13.16 13.13 12.98 12.16 10.48 9.03 6.02 9.70 10.08 8.91 5.84 2.59 2.53 2.83 3.28 7.78 2.08 -1.15 -3.86 -7.41 -7.91 -9.81 -10.15 -9.61 -10.88 -11.60 -9.07 -8.46
17.43 18.69 15.87 8.50 10.68 11.55 12.59 11.35 9.75 13.08 16.01 16.49 5.62 3.83 5.89 13.88 11.14 13.58 13.80 15.92 15.43 14.24 7.16 6.32 5.81 4.85 5.04 6.85 6.41 4.72 4.01 3.67 -1.18 -5.01 -6.88 -2.72 -0.91 -1.17 -2.27 -1.62 -2.67 -1.24 -4.29 -2.76 5.67 4.53 -2.13 -3.85 -6.71 -7.01 -7.85 -9.21 -8.80 -4.35
17.28 18.48 10.97 6.64 5.09 6.72 12.11 14.05 15.35 12.08 12.74 9.97 11.74 12.44 11.90 12.99 15.12 14.07 15.14 17.75 15.86 12.09 8.69 7.97 12.96 10.64 9.25 7.36 -1.63 -2.37 -2.73 -5.62 -4.71 -5.62 -6.16 -5.80 -4.01 -4.92 -0.62 -5.68 -5.83 -4.17 -6.39 -6.18 -5.62 -4.92 3.27 -5.72 -4.22 -6.17 -4.97 -4.95 -6.18 -11.17
22.10 17.00 12.12 11.23 8.93 9.69 8.75 10.74 15.05 14.95 13.49 11.18 8.44 5.59 4.36 5.37 8.43 13.20 11.81 7.89 5.71 4.77 4.38 2.52 3.92 7.19 4.41 -0.95 -1.65 -2.17 -4.35 -4.89 -7.26 -6.76 -6.72 -6.71 -3.44 1.71 -5.26 -7.43 -2.91 -5.81 -7.09 -5.62 -9.46 -9.99 -9.79 -9.97 -10.88 -11.60 -10.53 -10.23 -9.16 -7.62
18.12 11.67 7.61 5.26 9.28 14.62 16.19 17.41 13.22 10.24 10.85 3.89 2.38 3.25 5.90 5.81 1.99 4.46 7.21 10.82 11.34 6.77 3.73 9.67 6.42 0.00 -2.54 -2.91 -5.98 -7.81 -3.40 -3.08 -1.09 -5.80 -7.25 -8.52 -9.24 -11.06 -10.15 -8.34 -8.18 0.25 -3.30 -9.99 -9.61 -9.06 -9.24 -8.34 -9.43 -9.61 -10.15 -10.88 -13.11 -13.84
15.87 14.50 11.21 9.23 8.23 9.37 13.89 14.32 11.36 12.55 12.77 7.25 3.11 6.59 4.40 5.06 0.52 4.12 5.60 8.26 12.42 10.94 8.41 5.82 1.19 -2.26 -2.57 -2.66 -1.96 -5.35 -3.49 -7.09 -5.80 2.54 -2.17 -3.99 -7.10 -7.07 -12.88 -12.71 -12.15 -13.05 -12.69 -12.87 -12.87 -11.42 -5.98 -4.53 -5.98 -5.63 -6.71 -11.24 -12.33 -12.69

GFSWCAN_sfc_wetblb_042.txt.gz
Wetbulb
44.72 44.39 44.81 45.22 45.31 45.38 45.64 45.80 45.95 46.25 46.57 46.85 47.08 47.12 47.06 47.16 47.27 45.65 42.75 43.95 40.39 35.43 37.76 41.05 41.42 37.57 37.20 36.69 32.11 34.63 35.33 36.99 35.88 31.08 29.56 27.50 25.68 31.31 30.44 34.04 32.12 30.57 29.33 28.49 31.34 28.67 27.96 43.95 43.42 38.57 41.99 45.53 47.96 47.75
44.90 45.23 45.09 45.20 45.53 45.97 46.39 46.61 46.55 46.63 46.71 46.66 46.99 46.96 47.08 47.19 47.25 46.99 41.27 44.35 45.69 39.15 39.03 44.10 43.69 44.73 42.95 42.23 39.00 38.44 36.98 37.28 38.29 34.29 31.93 30.21 26.45 24.77 29.52 25.25 38.40 30.90 34.91 32.35 33.85 33.07 43.25 45.50 45.07 46.27 47.68 46.84 47.27 46.76
44.93 45.17 45.63 46.03 46.05 46.39 46.57 46.36 46.52 46.68 46.27 46.45 46.82 46.44 47.30 47.19 47.31 46.77 42.73 43.62 42.73 38.22 35.36 36.88 39.31 45.14 48.90 47.23 46.58 37.56 38.90 41.89 41.77 42.90 36.42 33.86 28.57 29.84 24.13 28.35 32.23 37.08 40.59 36.99 37.84 40.32 41.47 44.27 45.57 47.49 47.40 47.62 48.91 48.75
45.27 45.82 46.09 46.27 46.29 46.11 45.95 46.32 46.20 46.14 46.46 46.52 46.68 46.91 47.21 47.30 47.57 47.21 42.40 44.02 41.61 38.92 32.67 34.08 43.04 42.51 48.37 47.89 47.13 44.89 43.28 45.62 43.30 40.06 37.31 34.71 28.76 36.30 27.96 33.36 31.21 37.48 40.66 38.59 38.01 40.91 42.65 44.37 46.45 47.35 46.62 48.83 49.12 49.00
45.94 45.96 45.65 45.88 45.72 45.99 45.90 45.91 45.53 45.89 46.55 46.43 46.47 46.48 46.77 47.23 47.51 45.46 44.54 43.88 43.83 37.89 30.57 35.18 42.37 45.17 46.77 47.22 46.18 46.46 44.76 42.03 40.55 37.79 33.17 31.87 35.66 35.49 35.17 36.25 31.97 39.51 38.52 35.91 34.20 40.85 40.23 41.74 45.95 47.18 46.59 47.97 48.43 48.02
45.90 45.72 45.31 45.65 45.74 45.63 45.93 45.49 45.84 45.46 45.86 46.08 46.45 46.72 46.78 46.83 46.73 43.70 37.91 43.67 44.16 45.24 39.60 32.03 41.44 42.78 45.31 44.83 44.62 43.59 44.09 42.21 41.81 40.27 34.42 37.68 40.60 36.72 30.01 30.63 39.03 39.06 39.78 41.90 40.20 43.46 44.47 45.82 45.97 47.80 47.43 47.67 50.36 49.37
45.61 45.33 45.53 45.71 45.68 45.70 45.91 45.83 45.95 45.84 45.97 46.11 46.43 46.61 46.77 46.18 44.35 39.54 36.00 41.40 46.35 46.35 39.46 33.38 34.77 40.73 42.74 43.75 42.85 43.31 44.88 43.59 40.62 40.58 38.86 36.51 37.65 39.86 28.05 28.84 35.93 37.93 37.66 41.55 41.11 43.70 42.94 43.52 42.68 44.83 45.37 45.76 47.12 47.67
45.55 45.55 45.44 45.64 45.52 45.67 45.56 45.46 45.60 45.91 46.16 46.23 46.13 46.06 46.27 46.48 46.13 42.40 44.10 45.92 45.73 41.75 38.55 30.20 31.39 35.64 39.70 33.83 35.14 41.65 38.20 39.86 41.30 39.31 39.54 37.02 38.61 37.90 30.35 31.78 33.91 35.51 36.74 38.71 38.60 40.57 40.96 43.08 42.29 40.99 42.29 43.58 40.56 37.95
44.88 44.99 45.17 45.16 45.35 45.48 45.44 45.51 45.57 45.65 46.06 45.94 45.69 46.36 45.04 43.32 40.00 41.45 46.46 46.27 46.63 41.17 29.23 26.98 25.07 29.31 37.65 35.31 35.36 36.15 38.65 30.88 39.69 34.72 35.38 38.64 30.66 24.55 28.29 29.75 30.94 31.67 33.40 35.50 38.34 37.84 38.60 36.89 35.70 35.04 35.18 34.70 33.16 30.98
44.85 44.87 44.90 45.15 45.18 45.27 45.27 45.41 45.59 45.95 45.86 45.90 43.83 38.95 34.74 40.48 45.24 45.39 42.39 38.13 36.89 38.02 35.24 27.91 30.74 28.98 36.61 33.23 32.14 30.89 30.26 30.79 29.65 33.01 39.55 30.96 26.66 29.76 29.84 30.97 30.71 31.46 34.07 34.96 35.10 34.01 34.72 34.57 32.46 30.72 30.07 29.95 29.08 27.88
45.09 44.93 44.75 44.90 44.98 45.04 45.08 45.25 45.23 45.74 45.85 40.68 36.94 35.48 40.92 44.46 41.16 37.32 31.51 30.36 31.81 28.64 31.07 30.65 29.69 31.90 36.45 28.74 32.61 29.56 27.78 29.12 26.81 29.90 30.53 25.86 22.15 25.75 28.31 27.95 29.13 30.96 32.14 32.32 34.04 33.35 32.68 32.23 30.89 28.80 27.21 26.97 26.18 25.53
45.40 44.96 44.68 44.48 44.37 44.61 44.86 44.67 44.81 42.16 40.03 40.19 39.27 40.49 38.54 36.92 31.39 28.49 26.11 27.91 28.10 28.85 31.56 28.32 30.48 34.09 34.50 37.22 33.88 33.88 28.72 31.11 25.55 31.78 25.35 19.26 23.01 26.38 26.47 25.99 26.51 27.58 27.92 27.48 28.38 27.69 28.09 27.59 27.36 26.17 25.36 24.78 24.51 24.55
44.50 44.53 44.62 44.30 44.36 44.44 44.20 44.14 44.38 44.66 44.72 42.27 37.06 33.43 31.95 26.86 18.79 18.72 22.91 27.31 27.78 30.25 30.98 32.31 32.52 32.69 34.38 35.46 32.70 32.03 30.26 28.81 32.69 23.37 16.53 19.86 24.13 25.22 25.45 25.00 24.36 25.27 25.64 25.45 24.82 25.07 24.28 23.86 24.59 24.28 23.19 23.54 23.39 22.30
44.06 44.11 43.89 44.04 43.63 43.72 43.40 42.98 43.72 40.70 37.32 29.79 25.40 16.64 17.82 15.81 20.50 21.44 23.06 25.11 29.52 30.46 29.34 30.25 31.57 31.62 31.78 31.24 32.33 28.81 28.27 28.06 20.31 14.83 14.11 20.49 22.90 24.11 24.64 24.74 23.01 22.22 22.77 22.64 22.70 23.03 22.68 22.43 22.22 22.92 22.73 22.74 21.98 20.68
43.90 43.58 42.27 42.22 43.16 41.77 41.18 41.56 40.03 34.81 29.05 23.56 22.36 15.14 16.55 23.04 23.34 23.81 26.36 27.50 29.88 31.56 30.04 31.38 31.62 32.67 30.04 27.35 26.44 26.68 19.89 15.16 15.98 13.14 17.98 21.81 23.78 24.04 23.47 23.68 23.13 22.56 22.05 21.67 22.04 21.46 21.50 21.83 21.36 21.28 22.20 22.36 22.10 21.57
44.02 43.17 41.63 42.17 41.21 43.06 40.62 37.45 34.17 33.10 26.99 21.60 20.33 15.04 17.51 14.95 17.71 19.38 23.61 25.90 29.94 29.57 31.39 31.35 29.51 26.60 21.82 22.50 18.31 17.34 15.46 12.20 15.07 19.02 21.31 22.22 21.34 21.89 22.29 23.38 23.77 23.52 23.13 22.60 22.59 22.36 21.94 21.16 20.41 20.49 20.96 20.62 20.32 20.58
43.38 40.74 42.88 43.48 41.13 39.31 39.32 34.86 30.22 25.69 20.81 17.31 15.41 13.78 14.06 13.33 18.49 23.38 25.81 25.53 28.93 29.70 26.55 26.15 19.13 19.73 24.82 19.55 15.05 16.62 12.82 15.67 17.66 18.91 20.97 21.73 20.98 20.84 21.34 21.17 21.15 20.96 20.09 20.10 21.17 22.14 21.68 22.15 21.77 20.06 18.42 19.51 20.16 19.92
40.32 41.60 43.11 43.39 43.27 40.43 35.58 33.83 28.87 24.36 18.69 19.59 16.16 20.26 19.82 20.30 19.11 21.68 24.85 25.95 26.94 28.17 25.78 21.26 23.38 16.24 14.76 14.17 12.72 15.51 17.42 19.79 20.62 20.36 19.82 19.67 19.48 19.28 20.12 19.45 20.18 20.13 19.70 19.49 19.10 18.59 18.25 18.43 17.90 17.11 19.56 19.90 18.88 18.55
40.89 41.25 41.99 42.33 41.79 36.47 30.89 30.63 29.54 21.15 20.83 19.64 20.41 21.18 19.53 20.48 22.67 23.55 24.76 25.39 25.16 24.75 23.06 19.08 13.14 12.48 13.39 17.21 16.02 17.46 18.14 18.27 17.22 18.15 18.86 20.62 20.76 19.63 19.09 18.81 18.34 17.58 17.86 18.41 17.89 16.13 15.54 15.62 15.36 15.80 15.83 15.84 15.63 16.45
42.03 41.70 41.68 42.11 42.04 33.74 28.28 27.71 30.58 24.60 21.42 21.50 20.66 19.40 19.49 19.50 20.84 20.52 20.99 22.94 21.44 19.54 14.91 12.70 13.48 15.36 17.74 20.07 20.53 20.19 20.53 21.00 18.90 16.19 16.13 17.75 19.15 18.61 17.60 17.12 15.67 15.66 14.59 14.10 13.93 14.14 13.94 13.28 12.62 12.08 11.56 11.58 10.24 10.43
39.73 38.89 40.27 39.40 36.61 35.43 32.03 29.39 27.91 27.40 26.72 23.13 23.97 21.90 19.49 20.13 17.31 16.52 17.32 21.09 16.68 15.27 14.05 16.47 16.66 19.05 20.96 21.20 21.48 21.02 20.60 20.79 18.69 17.72 16.36 14.96 17.19 16.83 15.97 15.10 14.37 13.19 10.97 9.35 8.42 9.11 10.47 9.79 11.00 11.00 5.83 0.10 2.36 7.09
35.62 39.15 33.77 36.37 31.12 30.33 29.94 31.11 29.69 29.22 26.76 26.01 25.83 24.74 20.55 15.35 13.99 16.14 19.17 15.05 15.30 16.48 18.23 17.91 19.05 19.45 19.01 18.99 19.86 20.53 20.07 19.53 18.29 17.03 16.55 15.94 13.53 12.68 12.25 11.50 11.32 10.16 8.87 6.90 6.56 1.57 4.01 7.18 6.31 6.28 3.39 0.98 3.92 3.08
37.07 35.41 30.01 28.64 24.26 21.79 22.71 29.90 25.34 28.08 20.86 20.98 22.23 18.81 16.04 13.44 17.61 21.22 13.63 17.38 17.40 19.62 19.16 18.61 19.57 21.13 19.70 20.34 19.93 19.39 19.13 17.41 13.87 12.52 11.23 10.25 9.75 6.35 8.89 9.53 9.88 6.74 7.74 9.71 9.39 5.94 3.77 2.40 0.22 -4.00 -3.12 -1.23 -3.96 -3.00
34.07 27.29 24.65 19.27 19.97 17.64 18.56 17.28 24.53 22.55 19.80 18.34 16.94 15.30 16.81 13.87 18.12 12.63 11.94 15.45 18.86 20.96 18.75 17.92 17.31 15.08 15.21 14.61 13.64 14.56 14.53 14.15 12.13 10.63 10.96 10.45 8.23 7.95 8.40 7.94 8.00 8.86 8.43 8.00 4.63 0.03 -0.23 -6.96 -3.69 -3.92 -8.39 -6.58 -11.12 -12.39
20.09 18.49 18.53 13.61 18.16 15.51 11.56 11.20 11.81 15.42 9.70 11.82 9.99 9.06 11.09 15.28 7.03 5.21 7.37 11.80 11.95 12.78 12.92 15.57 15.31 13.32 9.13 7.16 8.62 10.55 12.84 12.64 9.53 8.69 9.91 12.37 8.57 7.67 6.53 6.41 5.77 6.91 5.75 0.59 -5.87 -10.22 -11.67 -11.15 -12.21 -12.03 -10.80 -13.84 -9.20 -14.21
12.17 18.08 19.66 15.91 14.60 16.56 14.11 9.30 8.31 9.04 9.20 10.74 11.62 13.84 10.52 4.80 1.34 3.19 10.38 7.17 9.79 7.06 5.55 0.24 8.05 8.83 9.88 10.99 8.22 8.61 10.24 12.72 10.44 6.12 7.90 8.97 7.25 -1.43 -3.34 -5.16 -4.96 -1.90 0.51 -8.59 -6.46 -8.22 -6.77 -10.05 -12.57 -10.94 -12.21 -8.96 -10.77 -13.84
11.85 16.97 21.88 23.08 20.01 18.83 13.43 13.69 16.00 11.63 9.99 8.50 9.36 7.49 1.20 -5.88 -3.87 7.78 12.75 11.40 10.83 8.31 12.14 9.67 11.75 10.69 9.86 9.90 10.75 10.31 9.77 9.58 8.51 8.36 8.59 7.95 6.72 4.25 -3.19 -8.46 -6.95 0.13 -3.37 -8.44 -12.21 -11.49 -12.39 -12.75 -11.49 -12.75 -15.11 -17.11 -16.38 -13.66
15.76 13.73 7.19 7.45 9.51 12.83 4.48 3.90 4.00 4.26 5.87 14.58 8.37 -1.92 -3.93 -3.70 2.74 9.03 8.23 10.82 9.43 12.63 11.91 11.41 11.83 11.65 10.03 8.89 7.18 4.62 4.11 4.56 6.72 6.99 7.32 5.67 2.50 -3.35 -3.89 -2.81 -0.29 4.29 -3.71 -4.97 -10.22 -14.57 -14.06 -15.29 -14.75 -15.66 -16.92 -15.84 -15.11 -13.30
10.67 10.09 10.81 1.66 3.46 5.06 7.42 3.19 4.80 11.26 13.03 9.36 -2.32 -1.51 4.77 10.62 5.12 9.55 9.94 10.72 9.29 9.83 4.72 4.84 -0.06 0.76 2.56 2.48 -0.80 -3.71 -6.24 1.88 -0.29 -7.13 -8.77 -10.22 -6.59 -2.48 -6.41 -10.58 -8.40 -10.58 -13.12 -8.22 0.80 -1.18 -1.04 -5.71 -12.03 -12.75 -9.85 -9.32 -5.91 -9.31
10.32 10.03 5.56 -1.14 -0.07 3.02 7.48 4.04 -0.27 0.01 8.91 5.59 10.59 11.73 9.73 9.88 14.05 11.56 13.09 12.96 5.18 -1.17 -2.97 -0.11 1.87 0.68 -4.60 -6.23 -10.58 -5.91 -9.85 -16.74 -13.84 -7.18 -10.40 -12.03 -7.53 -5.71 -11.49 -13.30 -11.67 -12.39 -16.74 -13.48 -13.30 -11.36 -2.78 -10.58 -8.96 -13.69 -14.06 -14.06 -14.93 -13.30
13.15 7.21 5.19 4.34 4.34 5.28 1.85 -0.17 8.93 7.47 1.67 0.01 -3.21 -0.60 -0.86 3.74 6.57 11.19 9.78 4.17 2.53 0.13 2.59 -0.63 -1.54 -10.04 -2.69 -7.86 -11.67 -14.21 -11.67 -10.40 -16.06 -14.02 -8.95 -7.86 -10.76 -14.57 -15.47 -16.56 -17.29 -14.75 -9.67 -11.85 -17.47 -17.83 -16.02 -13.84 -13.84 -16.56 -17.47 -16.92 -17.29 -18.74
6.59 -1.14 -0.34 2.20 4.72 7.89 6.55 3.71 -1.37 -3.34 -6.59 -4.97 -6.59 -10.40 -4.05 -4.61 -5.32 -1.00 6.79 0.98 3.46 0.48 -2.78 -4.96 -3.15 -6.23 -12.03 -14.39 -16.92 -16.20 -8.24 -10.40 -13.30 -14.02 -13.48 -16.38 -17.83 -19.46 -19.28 -17.83 -16.74 -17.11 -17.29 -18.01 -19.83 -19.46 -18.74 -15.66 -14.21 -12.94 -13.30 -13.12 -14.57 -16.92
5.91 6.96 0.03 1.71 3.08 1.75 4.34 5.77 2.77 3.82 0.05 -5.68 0.23 -0.31 -1.55 -2.72 -4.79 1.18 5.51 2.26 0.62 1.21 -2.10 -6.95 -10.94 -12.39 -9.14 -8.80 -10.48 -12.75 -10.42 -13.30 -13.30 -1.33 -6.05 -7.13 -11.30 -10.94 -19.28 -21.28 -21.82 -21.64 -18.92 -19.83 -21.46 -21.28 -17.29 -18.01 -19.83 -21.82 -22.91 -23.09 -23.09 -24.18

GFSWCAN_sfc_wetblb_045.txt.gz
Wetbulb
43.18 44.19 44.43 44.94 45.05 44.85 45.20 45.46 45.68 45.80 45.94 45.97 46.24 46.41 46.52 46.82 47.11 44.95 42.06 45.66 40.40 34.94 36.29 40.94 40.94 37.80 37.14 36.40 30.83 34.04 35.04 35.79 34.61 29.04 29.99 28.27 23.33 28.68 28.95 32.32 30.73 29.60 29.05 28.12 30.95 28.47 25.53 41.83 43.11 37.06 41.09 43.95 45.40 46.92
43.62 44.32 44.91 44.99 45.10 45.29 45.57 45.64 45.57 45.85 46.08 46.13 46.03 46.45 46.93 47.09 46.94 46.52 40.94 45.06 45.47 38.87 36.33 41.30 42.81 44.95 43.35 41.75 38.36 37.53 36.02 36.42 36.61 32.54 30.94 29.31 24.32 23.38 28.78 25.17 35.00 28.27 31.29 28.65 31.61 30.84 40.34 44.77 44.30 45.76 45.82 45.26 46.36 46.51
44.25 44.79 44.87 44.99 45.35 45.99 46.36 46.31 46.38 46.50 46.49 46.58 46.68 46.77 47.05 47.26 47.41 46.59 42.82 43.49 42.09 38.41 37.58 35.97 36.31 42.42 46.28 45.98 45.39 35.95 36.63 39.62 39.13 39.03 33.40 32.09 27.43 28.42 24.03 25.75 30.55 34.28 37.68 33.67 34.15 38.36 40.20 42.33 44.89 45.95 47.31 47.32 47.91 47.78
44.45 44.38 44.77 45.24 45.98 46.06 46.31 46.34 46.24 46.34 46.43 46.47 46.79 46.89 47.07 47.21 47.36 47.30 42.89 43.77 41.25 38.42 32.42 31.52 41.77 39.49 44.70 46.53 46.82 44.31 40.92 43.35 41.68 39.50 34.64 32.15 28.65 34.51 26.96 32.19 29.98 33.86 37.36 35.02 35.24 39.55 41.90 43.41 44.48 45.84 46.88 48.13 47.10 48.70
44.74 45.81 45.82 45.69 45.87 45.80 45.81 45.97 45.83 45.81 46.09 46.41 46.66 46.79 46.99 47.27 47.51 46.70 45.21 44.20 44.35 38.00 29.94 30.06 39.60 42.33 43.76 45.11 45.02 45.67 43.93 40.90 38.42 36.21 31.20 29.99 33.89 35.12 34.85 33.00 29.31 37.54 36.04 33.23 31.51 40.46 39.73 41.30 44.05 46.13 46.01 45.98 47.69 47.43
45.58 45.20 45.06 45.56 45.53 45.95 45.66 45.29 45.20 45.78 46.40 46.63 46.90 46.86 46.96 46.87 47.17 43.45 36.78 43.88 44.66 42.47 34.14 26.77 38.39 39.86 42.87 44.55 43.93 42.98 43.80 42.76 40.91 37.46 32.98 35.91 39.09 37.97 32.70 31.26 37.29 38.34 38.34 38.97 38.12 39.31 40.46 42.78 45.47 44.19 44.93 45.16 47.38 47.36
44.71 45.24 45.49 45.53 45.70 45.88 45.81 45.51 45.62 45.90 46.01 46.29 46.65 47.03 47.12 46.96 44.82 38.54 36.25 40.89 45.14 44.05 36.74 32.18 34.45 39.21 43.07 42.78 42.12 41.22 42.82 42.27 40.34 39.07 35.91 37.16 37.62 38.97 31.21 30.21 33.81 35.70 35.95 37.99 38.41 39.57 41.11 41.82 39.43 38.69 38.89 40.90 38.57 36.77
45.02 45.34 45.54 45.45 45.42 45.47 45.52 45.75 45.84 46.18 46.17 45.99 45.83 45.75 45.95 45.71 45.71 42.08 43.62 45.05 44.28 39.25 37.52 31.10 31.99 35.72 40.96 36.79 37.44 41.86 39.91 40.14 38.96 36.29 39.42 36.20 38.02 34.73 27.39 29.50 31.55 32.45 34.36 37.37 36.26 38.82 38.28 38.75 36.76 34.01 34.81 34.66 31.93 30.32
45.14 45.21 45.23 45.25 45.22 45.13 45.52 45.58 45.59 45.86 46.01 46.04 45.82 45.45 43.60 42.52 39.68 41.47 45.63 45.30 43.46 40.12 32.01 30.34 29.30 29.25 39.02 36.26 36.64 37.53 39.30 31.81 39.27 32.94 36.21 36.95 27.98 22.03 25.50 27.21 27.83 29.55 30.98 32.80 35.09 37.71 37.00 34.98 32.55 30.98 30.06 29.19 27.74 26.38
45.05 45.09 44.98 44.97 44.92 44.55 44.63 45.33 45.24 46.03 45.96 45.68 43.58 37.79 32.25 39.88 45.61 45.01 41.93 36.05 34.33 36.41 35.49 30.52 31.96 30.89 35.65 32.82 32.05 32.87 31.98 30.97 29.45 34.19 36.09 27.29 23.81 27.00 27.24 27.50 27.81 29.11 31.89 32.63 32.33 32.19 31.49 32.37 30.48 28.44 27.42 27.53 26.67 25.26
45.36 44.85 44.77 44.85 45.05 44.91 44.98 44.97 45.01 45.50 45.48 40.33 37.53 32.96 41.83 45.32 42.16 37.20 31.65 30.46 32.07 28.04 31.18 31.75 30.43 31.20 34.97 29.84 30.67 31.30 27.93 27.48 25.03 32.01 26.91 23.25 20.16 23.62 26.47 25.51 26.79 28.28 29.28 29.73 31.08 29.55 28.76 28.59 27.46 26.13 25.39 25.36 25.05 24.80
44.82 44.59 44.43 44.50 44.60 44.90 44.66 44.80 44.49 40.44 38.94 40.05 39.41 39.97 38.32 34.13 29.20 26.29 24.82 25.34 29.06 28.65 31.34 26.84 28.81 33.90 34.57 37.78 33.91 33.68 27.39 30.04 25.04 30.43 22.10 15.97 21.35 24.24 25.18 24.17 24.74 26.22 26.35 25.69 25.92 25.37 25.63 25.39 24.92 24.03 23.32 22.58 22.30 22.36
44.20 44.26 44.42 44.14 43.80 43.88 43.99 44.46 43.92 43.62 43.52 39.02 33.50 28.21 26.74 22.43 16.52 16.06 21.62 25.35 25.68 29.79 29.48 32.01 31.34 32.93 34.24 35.25 32.51 32.14 28.73 27.97 29.32 19.96 15.48 18.38 22.14 23.34 23.32 23.19 22.64 23.84 24.35 23.95 23.72 24.02 23.36 22.77 23.42 23.29 21.98 22.24 22.08 21.21
42.06 42.43 43.41 42.95 42.49 42.34 41.77 41.33 40.38 37.66 33.83 27.49 24.18 15.54 15.90 13.28 16.83 18.78 20.98 21.20 26.87 26.75 29.15 29.95 31.29 31.30 31.65 30.74 31.87 26.62 25.70 24.54 16.56 9.28 10.78 18.42 21.35 22.43 22.53 22.65 21.54 20.83 21.79 21.48 21.35 21.60 20.98 20.45 20.09 21.14 21.34 21.19 19.96 18.60
42.99 42.29 41.25 42.36 41.96 40.89 40.23 39.90 38.76 32.94 27.96 22.98 21.17 12.23 15.60 20.70 22.89 23.14 25.15 26.05 28.19 30.64 29.96 30.92 31.31 30.39 24.93 25.21 22.79 22.11 17.40 10.51 13.47 9.45 14.49 20.09 22.20 22.11 21.56 21.90 21.39 20.94 20.78 20.45 20.81 19.86 19.59 19.79 19.05 18.99 20.27 20.08 19.62 19.09
43.29 42.96 41.62 39.96 40.55 40.52 38.93 36.22 33.13 31.62 26.34 22.20 19.37 15.16 16.31 15.51 17.98 20.59 23.00 23.52 27.71 27.21 30.70 30.26 27.71 23.43 19.14 21.30 13.92 12.77 11.59 7.35 10.52 15.22 19.20 19.62 19.01 19.06 18.87 19.54 19.62 21.44 21.61 21.25 21.21 20.81 20.27 19.35 18.80 18.86 19.39 19.17 18.72 18.40
43.04 40.09 43.29 41.67 39.59 38.70 38.72 31.42 28.60 23.95 20.47 17.51 15.89 18.45 15.90 14.12 16.15 19.29 23.11 23.47 26.97 27.33 24.79 24.19 17.97 18.46 22.51 15.23 12.27 14.20 10.17 13.63 16.25 17.19 19.07 19.78 18.68 18.74 19.44 19.77 19.96 19.93 19.13 19.17 19.50 19.43 19.58 20.37 19.90 18.25 16.49 17.95 18.02 17.37
40.02 41.66 42.96 43.17 41.89 38.55 34.88 31.71 25.47 21.77 16.23 16.60 12.25 16.84 17.41 19.68 18.66 20.34 22.82 24.35 26.12 25.86 24.11 20.23 21.75 12.85 10.90 9.35 9.74 14.69 16.58 17.89 18.71 18.10 17.96 17.97 18.15 18.71 19.22 18.10 18.77 18.60 17.64 16.99 16.87 16.49 16.40 16.49 15.64 16.36 16.85 16.61 15.71 15.02
40.63 41.43 42.43 42.80 39.95 35.42 29.68 28.24 26.65 17.11 16.90 15.77 18.10 19.04 19.62 19.60 21.61 22.69 23.73 24.03 24.05 24.80 22.81 19.28 14.31 12.07 13.24 15.79 14.52 15.93 17.01 17.24 16.05 16.97 17.68 18.53 18.33 17.35 16.72 16.52 15.90 15.09 15.71 15.55 14.87 13.20 12.84 13.46 13.55 13.59 13.82 13.54 11.13 11.09
41.85 41.16 41.56 41.79 40.91 31.58 28.19 26.18 27.92 21.22 15.93 17.72 21.15 18.74 18.70 18.43 20.14 20.76 20.89 22.20 21.74 18.67 14.01 11.69 11.94 15.22 16.09 18.24 19.55 18.94 19.19 19.66 17.67 14.56 14.27 15.46 16.35 15.63 14.40 14.40 13.71 13.97 12.89 12.76 11.94 12.19 11.57 10.51 10.20 9.48 8.80 8.42 7.35 5.64
39.06 38.39 39.87 37.79 33.46 34.20 29.54 26.38 24.23 23.32 22.95 19.96 21.07 19.75 18.14 19.67 17.38 17.03 16.70 19.89 16.02 15.20 13.06 15.85 15.86 17.89 19.84 20.04 20.78 20.38 18.87 18.47 15.64 14.93 13.67 12.66 14.78 14.27 13.06 12.31 11.92 10.53 8.56 6.78 6.72 6.78 7.54 7.27 8.04 6.65 2.52 -3.43 -1.99 1.31
34.36 39.41 32.90 33.63 28.22 29.18 27.14 27.68 26.81 26.88 24.14 23.80 23.77 23.52 17.24 12.71 11.95 14.98 18.10 13.24 13.23 14.78 17.49 17.54 17.90 18.02 17.61 17.33 17.98 18.42 17.71 16.79 15.71 14.21 13.86 13.58 10.73 9.81 8.49 7.87 8.69 5.97 5.78 3.26 3.41 -2.53 -0.56 5.29 4.29 1.47 -2.59 -9.96 -0.67 -1.73
36.10 34.61 30.30 28.04 22.18 22.52 24.96 28.49 23.68 26.84 19.67 21.17 20.71 16.73 14.02 8.64 13.68 19.68 10.66 15.39 15.72 18.83 18.45 17.73 18.23 18.60 16.39 16.66 16.22 16.25 16.54 14.25 10.65 9.43 8.83 8.51 8.10 5.66 7.17 8.10 5.61 1.41 4.40 6.46 6.29 2.85 -2.75 -1.92 -3.21 -3.67 -3.83 -6.35 -9.96 -12.68
32.01 25.17 22.96 19.13 20.97 16.01 17.64 16.25 23.87 20.57 17.39 15.01 13.89 11.67 10.07 9.09 15.22 10.15 9.56 13.43 16.86 18.57 17.03 16.68 16.42 13.74 13.48 12.69 11.22 11.74 12.64 12.45 10.31 7.25 8.27 8.38 6.49 6.56 7.10 6.67 6.10 5.12 3.58 4.95 1.45 -4.74 -4.50 -13.95 -8.70 -7.69 -14.49 -16.49 -18.84 -15.22
19.85 17.10 16.21 11.01 15.84 14.53 11.64 10.83 12.06 14.77 10.59 10.79 9.88 8.73 8.49 12.63 5.17 2.33 3.82 8.62 9.75 7.18 9.99 13.72 12.31 10.46 4.91 1.63 7.04 9.75 11.96 11.72 8.95 7.55 6.53 8.62 5.62 5.48 4.55 4.39 3.72 5.67 4.57 -4.82 -12.32 -14.85 -12.86 -17.75 -18.48 -17.03 -15.94 -19.21 -13.97 -16.85
14.07 16.87 14.78 13.94 12.89 14.58 11.55 7.34 6.80 7.02 7.04 7.90 8.55 11.05 7.13 2.57 -0.67 0.18 7.66 5.33 9.14 6.43 1.42 -0.59 4.08 6.62 8.58 9.56 7.40 7.45 8.50 11.10 9.11 4.34 7.02 9.00 6.47 -2.23 -7.97 -7.98 -6.70 -3.45 -1.71 -9.23 -11.23 -14.85 -13.59 -15.76 -17.03 -14.85 -16.30 -14.13 -15.58 -18.48
12.89 15.45 18.39 19.11 17.70 16.52 9.54 10.32 13.23 10.43 6.72 6.78 8.30 0.93 0.40 -6.17 -5.61 6.21 11.66 10.65 10.13 6.44 8.87 5.28 8.92 8.52 7.96 8.02 8.52 8.04 8.13 7.86 6.50 6.19 5.99 5.76 4.51 2.36 -4.49 -9.43 -8.15 -1.53 -5.98 -11.06 -15.04 -15.22 -14.67 -16.30 -17.21 -18.12 -18.48 -19.93 -19.39 -17.75
10.06 10.26 2.54 2.22 5.74 8.09 -0.62 -1.08 -2.35 -0.35 4.29 12.79 6.15 -3.85 -5.97 -4.77 1.59 7.98 7.50 9.55 10.06 10.55 9.52 9.02 9.60 8.82 7.05 5.53 1.58 3.72 1.90 1.35 3.36 3.25 2.84 2.59 0.97 -5.79 -8.33 -8.87 -7.43 1.82 -9.60 -14.49 -16.12 -19.75 -16.67 -17.94 -17.39 -17.75 -19.57 -17.94 -17.03 -19.21
5.54 3.70 6.27 -3.83 -0.27 3.04 5.12 -1.62 0.01 7.71 10.76 2.48 -6.03 -4.16 2.34 8.84 4.60 4.31 7.97 8.87 8.60 8.93 4.74 2.24 -1.80 -5.25 -3.30 -2.64 -6.05 -7.42 -5.79 -4.70 -6.35 -10.87 -13.95 -15.22 -15.40 -4.90 -5.25 -13.04 -14.67 -15.76 -18.48 -11.59 -0.38 -3.98 -3.80 -11.77 -13.95 -15.94 -15.58 -15.40 -13.59 -14.67
4.59 4.18 1.09 -4.78 -2.09 -0.71 0.18 0.15 -1.29 -0.07 6.44 5.16 9.82 10.72 8.26 6.96 10.22 6.58 6.34 2.95 1.13 -2.26 -6.33 -4.94 -8.33 -6.93 -10.57 -9.28 -12.68 -9.33 -17.21 -19.02 -11.05 -7.14 -13.40 -15.76 -11.29 -10.73 -14.67 -14.13 -15.58 -17.03 -19.21 -18.30 -18.30 -13.98 -5.06 -13.95 -9.96 -16.85 -17.94 -19.02 -21.74 -21.02
8.06 2.50 2.87 3.52 3.02 0.37 -0.01 -6.51 2.94 3.03 -2.95 -1.68 -6.15 -1.46 -2.20 2.82 7.03 10.30 8.79 2.48 -1.09 -1.35 -0.24 -4.88 -7.42 -9.96 -9.60 -15.22 -16.85 -16.49 -12.68 -14.49 -19.39 -16.49 -14.13 -15.94 -16.12 -15.94 -16.85 -19.75 -21.56 -21.56 -18.30 -20.11 -20.47 -21.74 -20.47 -20.84 -21.38 -20.29 -19.75 -18.48 -18.12 -21.20
1.98 -2.49 -0.21 -0.39 1.94 3.13 2.58 -5.43 -7.42 -7.79 -11.59 -7.07 -8.69 -13.95 -7.24 -6.57 -7.60 0.97 4.00 2.39 1.19 -5.61 -9.23 -12.13 -6.53 -7.82 -15.58 -17.94 -20.29 -20.29 -12.33 -13.59 -16.85 -17.21 -16.30 -19.02 -19.93 -22.29 -23.01 -21.20 -24.46 -24.28 -23.01 -23.74 -24.83 -24.46 -22.47 -21.74 -22.47 -22.65 -22.65 -22.83 -23.74 -24.28
-0.67 -1.04 -4.90 -2.56 -1.65 -3.43 -0.05 2.28 -0.39 -4.16 -7.42 -8.33 -3.98 -7.60 -8.69 -9.25 -7.07 -0.21 2.90 -2.00 -3.12 -1.42 -3.47 -6.54 -13.59 -14.86 -13.95 -14.13 -13.04 -15.58 -13.77 -16.85 -16.67 -4.70 -9.96 -9.42 -15.04 -15.04 -23.74 -25.19 -25.91 -24.64 -22.11 -23.74 -25.91 -25.01 -23.56 -22.47 -24.46 -26.09 -26.64 -27.55 -28.45 -28.81

GFSWCAN_sfc_wetblb_048.txt.gz
Wetbulb
42.76 42.71 43.08 43.58 43.40 44.13 44.30 44.90 44.85 45.17 45.50 45.35 45.44 45.73 45.94 45.82 46.30 45.12 42.87 45.72 40.75 34.47 37.58 40.39 39.95 37.37 37.86 36.29 31.67 34.68 34.30 35.24 34.03 29.69 27.62 27.46 24.48 28.45 27.47 30.86 30.23 28.74 26.41 28.08 30.04 27.49 22.95 38.31 40.97 34.19 38.02 42.20 41.85 42.28
42.80 42.89 43.08 43.48 43.79 44.11 44.76 44.98 45.16 45.29 45.34 45.34 45.56 45.80 45.77 45.84 45.84 45.50 39.74 44.83 45.07 38.03 37.74 41.55 42.69 43.85 42.44 41.24 38.21 37.02 34.03 35.35 34.91 29.99 29.73 28.18 23.68 22.61 28.03 23.83 33.06 27.51 30.55 28.19 30.14 29.43 36.76 41.50 42.24 44.43 44.39 41.97 43.39 43.45
42.54 43.02 43.40 43.62 44.37 44.66 44.48 44.68 45.16 45.85 45.41 45.50 45.86 46.07 46.15 46.44 46.56 45.30 41.60 42.85 42.10 36.89 36.55 38.11 36.36 41.72 45.28 45.30 44.99 36.37 36.31 39.74 38.54 37.39 32.49 30.48 25.96 26.66 22.82 25.25 30.07 33.00 35.60 31.73 32.24 35.15 37.74 39.19 41.30 42.61 44.99 44.81 46.66 45.83
43.90 44.02 44.11 43.96 43.95 44.13 44.50 45.46 46.08 46.17 46.26 46.31 46.44 46.28 46.24 46.40 46.68 46.58 42.65 44.01 41.02 38.12 31.93 31.98 40.15 38.83 44.39 45.08 44.37 43.34 40.74 43.21 42.29 40.83 35.19 29.30 26.75 32.49 25.50 30.38 28.76 32.20 34.80 33.17 33.56 36.02 38.57 40.31 41.46 43.04 44.11 45.56 46.72 46.72
43.72 43.64 43.59 45.06 45.70 45.56 45.78 45.87 45.84 46.00 46.22 46.54 46.79 46.93 46.84 46.91 47.23 46.70 45.19 44.32 43.32 36.33 30.48 29.94 38.00 40.49 42.11 44.01 43.20 44.05 42.81 41.11 39.64 36.46 34.18 29.89 31.39 32.65 31.32 31.47 28.32 35.11 33.44 31.00 29.29 36.92 37.69 38.20 41.70 39.98 41.69 41.38 43.08 45.91
45.08 44.84 44.84 45.33 45.29 45.45 45.68 45.73 45.57 45.68 45.80 46.22 46.69 46.82 47.01 46.72 47.02 44.01 34.89 43.44 44.11 41.71 35.58 27.06 35.24 37.38 39.28 40.47 41.16 42.44 43.10 42.00 40.38 37.98 35.22 35.32 37.64 36.34 26.97 24.51 35.96 36.99 37.55 37.82 37.00 37.73 37.38 38.62 40.63 38.03 37.16 37.39 38.01 37.37
44.95 45.48 45.36 45.48 45.58 45.70 45.62 45.15 45.27 45.45 45.91 46.13 46.29 46.77 46.98 46.55 45.34 38.87 36.40 41.52 45.18 44.24 36.41 28.79 27.42 36.72 39.72 40.17 39.85 41.01 42.18 40.73 40.88 37.88 36.38 35.53 35.81 37.66 27.16 25.82 32.62 33.39 33.70 35.27 38.45 37.60 37.86 38.42 36.07 35.05 34.46 34.94 35.11 32.55
45.06 45.28 45.27 45.52 45.55 45.46 45.68 45.74 45.71 45.74 46.20 46.37 46.40 46.59 46.61 46.60 45.54 41.94 43.50 45.40 44.97 39.97 37.74 25.58 31.61 35.25 40.16 33.62 36.12 39.87 38.52 40.32 40.07 35.42 37.98 36.24 37.43 34.25 29.48 26.97 28.94 29.98 31.23 34.73 34.64 35.53 37.46 36.69 33.45 31.35 31.89 31.24 28.88 27.00
45.07 44.76 44.55 45.03 45.09 45.29 45.10 45.44 44.85 45.54 46.47 46.56 46.58 46.38 43.87 42.11 39.57 41.48 45.56 45.02 44.62 39.62 31.08 31.17 28.70 28.56 38.66 36.70 37.47 37.62 37.82 32.09 38.33 33.56 34.29 35.75 27.13 18.87 22.75 24.58 25.75 26.99 27.78 30.15 32.15 34.55 34.58 33.82 29.76 28.74 28.16 27.37 26.03 24.78
44.87 44.70 44.56 44.66 44.71 44.77 44.90 45.08 44.85 45.18 45.05 44.87 42.18 38.12 32.34 40.91 45.35 44.68 40.61 35.90 36.05 35.88 35.24 27.41 33.41 31.01 35.84 33.05 31.98 33.07 32.60 31.90 29.99 32.43 32.75 25.62 21.68 25.73 25.57 26.26 26.64 26.84 28.29 29.48 28.65 28.83 28.42 29.27 27.56 25.91 25.20 26.12 25.49 24.52
44.98 44.80 44.80 44.70 44.59 44.64 44.96 44.80 45.08 45.65 44.63 40.03 36.29 35.87 42.17 45.15 40.49 36.05 30.77 30.45 32.28 30.09 32.82 32.60 32.27 32.67 35.58 30.56 30.73 29.65 29.28 28.27 28.27 30.86 26.38 21.98 18.53 22.09 24.87 23.81 24.87 25.69 26.48 26.47 27.99 27.22 26.70 26.02 25.00 23.97 23.25 23.61 23.05 22.48
44.88 44.76 44.58 44.03 43.90 44.16 44.57 44.07 44.27 41.71 40.36 40.81 39.95 41.09 38.63 33.16 30.47 29.32 27.53 29.62 29.44 28.54 31.72 31.18 32.82 34.21 34.62 38.08 32.35 33.17 27.71 28.69 24.58 28.09 21.14 13.82 19.61 22.34 22.45 22.48 23.21 24.76 24.62 23.92 24.86 23.96 24.28 24.14 23.90 22.67 22.18 21.35 20.95 20.81
43.51 43.26 43.06 42.47 42.29 42.70 42.12 42.94 42.05 44.52 42.53 36.05 33.11 27.87 27.69 21.03 13.96 12.98 23.21 24.51 24.98 28.70 28.92 31.85 30.58 32.30 33.65 35.59 32.75 30.13 28.46 24.64 26.73 18.57 14.55 16.72 20.44 21.78 22.15 22.49 22.12 23.35 23.17 22.66 21.94 22.37 22.09 21.13 21.47 20.89 19.62 19.97 20.21 19.31
42.17 43.04 42.58 41.67 41.33 41.37 40.73 39.14 39.62 37.18 32.51 26.21 22.58 11.39 11.11 8.39 15.26 19.04 18.19 19.80 26.31 27.63 28.61 30.19 31.39 31.00 31.39 29.55 29.69 23.71 21.25 21.28 11.36 5.93 9.46 17.30 19.84 20.92 21.65 21.97 20.50 19.73 20.31 19.96 19.75 20.01 19.55 18.77 18.14 19.03 19.43 19.63 18.70 17.16
43.25 41.65 40.21 40.65 41.35 39.89 39.10 38.79 37.15 32.07 27.38 21.87 19.24 9.57 13.13 19.33 20.83 21.55 23.19 24.17 25.88 27.73 29.09 30.79 28.66 26.79 23.55 22.62 21.02 20.11 13.18 5.87 10.84 7.38 12.77 18.21 19.91 20.65 20.34 20.78 20.01 19.61 19.46 19.08 19.26 18.81 18.34 18.29 17.64 17.26 18.19 18.17 17.68 17.15
43.26 41.58 39.66 40.12 39.66 39.14 37.30 34.72 31.60 30.46 25.84 20.52 17.44 14.17 15.50 15.96 16.51 17.60 18.93 19.25 25.93 25.26 29.45 29.56 25.34 17.52 17.38 19.87 12.23 9.19 9.73 4.49 6.60 10.66 16.46 18.32 18.21 18.44 18.42 18.94 19.13 19.48 19.46 19.46 19.45 19.18 18.64 17.58 16.69 16.42 17.20 16.65 15.96 15.53
42.44 39.31 43.09 42.89 42.15 38.97 37.61 29.70 27.41 22.78 19.56 16.64 13.43 16.43 13.48 12.39 14.01 17.06 20.67 21.85 25.90 26.09 22.68 22.86 16.41 14.94 19.45 12.14 10.05 13.04 3.46 7.33 13.71 16.58 18.43 18.60 17.51 17.55 18.43 18.56 18.39 18.37 17.80 18.14 18.27 19.01 18.74 18.88 18.41 16.56 14.48 15.39 15.80 15.54
39.74 41.34 42.58 42.29 39.15 36.29 31.76 28.35 23.55 20.70 14.44 15.42 12.63 15.66 16.89 18.87 18.22 19.53 21.81 23.55 25.29 24.82 23.25 18.43 20.56 12.43 9.49 8.86 8.81 13.37 14.74 16.53 17.36 16.95 16.95 16.97 16.78 16.78 17.65 16.75 17.27 17.33 16.59 16.10 16.23 15.89 16.12 15.67 15.22 14.36 14.67 14.06 12.91 12.61
40.59 40.95 42.26 42.06 37.54 31.29 26.62 24.89 24.37 15.39 15.32 15.97 17.87 20.64 20.54 19.70 21.77 22.42 23.52 24.06 23.77 24.32 22.44 18.41 11.78 11.27 9.89 13.01 13.85 15.28 16.35 16.51 15.07 15.62 15.78 16.79 16.75 16.19 15.84 15.91 15.44 14.94 14.35 14.47 13.91 12.54 12.14 12.40 12.15 12.04 11.54 10.57 7.90 8.59
41.52 41.17 40.95 41.10 38.55 29.43 25.83 24.19 26.18 20.01 15.33 18.44 21.49 19.11 18.66 18.12 19.79 20.17 20.51 22.02 20.90 18.53 13.89 12.37 12.54 15.12 15.96 17.62 19.10 18.20 18.36 18.80 16.73 13.45 12.52 13.75 14.94 14.19 13.43 13.60 12.81 13.24 12.16 11.10 10.21 10.78 10.32 9.03 8.37 7.55 7.02 6.14 3.93 0.42
38.63 37.55 38.98 35.58 31.71 30.47 26.16 24.18 21.79 21.12 20.59 19.46 21.62 20.72 18.12 19.42 15.96 14.79 15.52 19.88 16.28 14.26 12.41 14.86 14.88 16.34 18.32 18.49 18.85 18.55 17.70 17.09 14.47 13.95 12.12 10.87 13.18 12.72 11.56 10.71 10.20 9.00 7.03 5.19 4.95 4.93 5.92 5.09 5.63 3.92 -0.18 -8.43 -8.61 -4.99
33.42 38.54 28.35 30.73 28.08 27.14 25.09 26.28 23.95 24.30 23.25 22.83 22.73 21.53 15.96 8.95 7.62 13.12 16.41 12.00 12.21 13.46 16.31 15.78 16.33 16.58 15.79 15.62 16.44 17.05 16.25 15.53 14.30 12.85 12.74 12.28 9.24 7.50 5.67 5.23 6.22 2.81 3.11 -0.32 0.44 -5.53 -0.27 4.51 1.22 -1.11 -5.53 -12.78 -3.85 -4.71
34.27 32.86 27.12 25.99 20.72 20.86 24.80 28.83 22.74 25.00 15.81 18.53 20.77 14.86 10.84 5.49 11.53 18.67 10.15 14.31 14.72 17.66 17.30 16.28 16.33 16.81 15.04 15.76 14.79 14.68 14.97 12.78 9.57 8.06 7.14 6.70 6.17 1.53 5.20 5.01 1.75 -1.25 0.80 4.12 4.15 -0.04 -5.00 -2.29 -2.69 -10.06 -11.51 -10.62 -15.87 -16.23
30.94 23.52 15.91 13.88 17.98 11.76 16.48 13.61 22.05 18.75 17.68 15.78 12.98 9.91 9.04 8.05 13.83 9.30 8.35 11.62 14.91 16.72 15.23 15.55 15.64 13.49 12.72 11.65 9.66 10.14 10.94 10.40 8.27 4.93 6.63 6.83 5.04 5.15 5.54 4.94 3.72 2.13 1.29 3.55 -0.37 -7.57 -8.11 -18.04 -11.70 -9.35 -19.49 -20.58 -22.57 -20.40
19.35 16.00 14.62 11.00 14.99 13.38 8.56 6.48 8.11 12.49 7.26 9.13 9.52 7.58 6.71 11.80 4.15 0.98 2.95 7.72 9.00 6.05 8.01 11.41 10.66 8.95 2.92 2.25 6.33 8.28 10.52 10.35 7.45 5.74 1.82 6.98 4.02 3.85 3.09 3.15 2.13 3.69 0.70 -9.53 -14.23 -16.41 -16.77 -20.94 -21.67 -19.67 -17.68 -21.85 -14.78 -15.87
11.50 14.15 12.07 10.46 10.04 12.56 10.43 5.86 5.31 6.22 5.71 5.67 6.06 6.74 3.38 -0.32 -2.54 -3.18 5.60 -0.10 7.09 0.61 -3.73 -2.67 3.43 6.08 7.34 8.62 6.60 6.23 7.70 10.08 8.18 2.31 5.94 7.67 3.92 -6.03 -9.88 -8.80 -7.34 -3.60 -3.05 -10.61 -13.87 -16.59 -15.32 -17.32 -18.59 -15.87 -17.86 -15.50 -16.95 -20.40
4.11 7.42 14.98 16.02 15.54 14.10 6.56 6.58 10.57 7.52 3.45 4.21 4.16 -2.34 -2.56 -7.37 -6.44 4.01 9.15 6.89 6.20 1.18 5.71 3.04 7.15 7.43 7.03 6.75 6.88 6.31 6.24 5.90 4.76 4.02 3.98 3.68 2.88 1.08 -5.95 -10.64 -9.34 -3.24 -7.90 -12.80 -17.13 -16.77 -16.05 -17.86 -18.22 -19.31 -20.40 -23.84 -21.12 -20.40
7.22 8.42 1.85 -0.30 3.72 6.23 -1.26 -0.19 -0.66 -0.46 2.92 10.35 4.52 -5.94 -7.61 -6.07 0.47 6.62 6.16 7.18 7.53 7.90 6.35 5.49 6.23 6.22 4.49 3.14 0.75 2.48 -0.52 -1.43 1.02 0.42 0.57 0.46 -1.65 -6.62 -10.43 -12.60 -7.71 0.27 -10.61 -16.59 -19.31 -21.30 -18.59 -19.31 -19.31 -19.85 -21.85 -20.40 -18.22 -21.49
1.76 0.13 4.03 -4.29 -1.17 0.05 1.99 -3.55 -1.55 6.06 8.78 -0.62 -6.68 -4.44 1.34 7.01 3.22 3.61 7.33 9.46 8.84 7.21 2.38 -1.05 -4.12 -9.35 -5.57 -4.50 -7.71 -9.16 -9.34 -8.62 -7.99 -11.88 -15.14 -15.87 -18.04 -9.02 -12.06 -15.32 -17.68 -19.31 -21.85 -14.42 -3.54 -9.70 -9.16 -14.78 -16.95 -19.67 -20.58 -20.94 -19.31 -21.85
1.83 1.09 -1.26 -8.01 -5.43 -2.99 -3.90 -1.04 -2.84 -1.61 4.96 3.80 8.89 9.74 6.69 6.31 9.19 7.27 6.17 5.99 4.37 0.33 -7.34 -10.25 -14.63 -13.69 -13.85 -12.94 -14.05 -10.83 -15.68 -19.49 -11.88 -5.03 -9.52 -16.59 -12.16 -14.98 -20.04 -17.68 -18.40 -21.12 -22.75 -21.67 -20.04 -15.14 -6.62 -15.68 -12.60 -18.22 -20.22 -21.67 -23.84 -24.57
3.60 -2.16 -0.72 0.57 1.10 0.83 -0.47 -6.84 1.84 0.37 -4.87 -2.25 -6.64 -3.51 -3.21 -0.15 6.22 7.92 3.58 -6.62 -8.08 -6.29 -5.02 -10.61 -12.24 -17.13 -12.06 -16.95 -17.68 -16.59 -12.61 -16.41 -21.85 -19.67 -19.13 -20.94 -21.12 -20.76 -20.94 -22.75 -25.11 -25.29 -20.58 -20.40 -23.12 -24.21 -23.12 -24.39 -26.74 -25.29 -23.66 -22.75 -24.93 -27.11
-4.32 -9.52 -3.26 -2.49 -0.83 -0.73 -2.17 -12.06 -11.51 -10.08 -14.60 -8.43 -9.70 -15.14 -10.61 -7.79 -8.80 -0.23 1.06 -1.63 -3.91 -5.17 -9.52 -13.69 -10.61 -8.08 -14.78 -18.95 -22.75 -22.94 -15.51 -15.87 -18.22 -18.77 -18.22 -20.22 -21.12 -24.39 -25.66 -24.39 -29.10 -27.83 -26.38 -26.20 -27.11 -26.56 -25.29 -25.11 -26.38 -26.92 -27.65 -26.92 -28.56 -29.10
-3.27 -3.48 -6.46 -5.35 -4.29 -5.35 -4.45 -2.83 -4.08 -6.62 -10.25 -9.70 -8.07 -12.06 -15.32 -11.54 -7.38 -2.45 0.14 -4.27 -1.77 -0.75 -4.30 -9.01 -13.70 -18.59 -17.86 -17.86 -16.41 -18.59 -16.41 -19.31 -19.49 -4.63 -11.70 -10.79 -16.59 -17.68 -26.20 -27.29 -27.11 -25.66 -23.66 -25.66 -27.83 -27.47 -25.66 -24.93 -26.20 -27.47 -28.19 -29.64 -29.46 -30.91

GFSWCAN_sfc_wetblb_051.txt.gz
Wetbulb
43.68 43.55 42.70 42.72 42.65 42.72 43.14 43.46 43.70 43.71 44.17 44.68 45.04 45.34 45.00 45.09 45.11 43.67 41.75 44.82 39.38 34.14 37.28 39.22 39.21 36.47 37.09 36.57 32.70 35.15 34.61 35.40 34.53 29.91 29.49 29.36 28.28 30.80 29.86 33.14 31.48 30.03 29.37 29.57 31.20 28.11 25.09 40.06 42.78 36.79 41.18 45.02 45.05 45.29
43.88 43.71 43.83 43.38 43.19 43.35 43.69 43.81 43.98 44.38 44.44 44.60 44.47 45.61 45.40 45.14 45.65 45.51 39.92 44.72 43.97 37.44 37.68 42.44 43.12 43.92 42.44 41.48 38.22 37.73 35.88 35.50 36.68 32.95 32.47 32.13 29.44 29.70 31.26 27.18 35.23 30.98 34.40 32.21 33.49 33.52 39.75 42.15 43.01 46.33 45.27 44.46 45.56 45.70
44.45 44.33 43.38 42.77 43.12 43.06 43.54 44.04 44.14 44.52 44.76 44.82 44.93 45.05 45.56 45.66 45.87 45.67 40.99 43.91 41.50 33.45 36.57 38.59 37.61 42.68 45.45 45.50 46.03 36.60 37.94 39.94 38.53 40.81 36.50 34.45 29.77 31.76 28.87 29.68 33.70 35.38 37.54 34.57 33.97 38.19 39.83 41.76 42.97 43.36 43.04 43.84 44.87 46.42
43.40 43.45 43.17 44.10 44.22 44.13 44.20 44.59 44.63 44.41 44.68 44.54 44.61 45.21 45.19 45.36 45.17 45.01 41.17 43.47 40.36 37.00 32.71 34.35 42.25 40.60 44.97 44.79 45.59 45.05 42.60 44.07 43.19 42.56 37.29 34.68 31.64 34.97 31.91 34.19 33.38 36.40 36.93 35.54 35.54 38.76 40.07 42.03 42.22 40.39 41.08 41.83 41.65 42.36
44.00 45.13 45.67 44.63 44.21 44.18 44.27 44.40 44.23 44.51 45.21 46.19 46.26 45.45 46.00 45.92 45.89 44.49 43.54 43.64 42.99 37.80 31.53 32.43 38.90 41.07 43.17 43.05 42.31 44.28 42.74 41.49 41.26 37.19 34.51 33.81 35.00 35.72 34.59 34.40 32.69 37.09 35.88 34.66 33.78 36.89 36.52 37.93 41.68 39.84 38.16 37.72 38.44 37.36
44.99 44.94 45.00 45.11 45.27 45.55 45.49 45.57 45.73 45.78 46.01 46.24 46.56 46.60 46.68 46.52 46.01 42.93 35.47 43.28 43.53 43.90 35.22 30.27 37.85 37.87 40.00 42.34 41.14 40.78 41.83 41.64 40.27 37.67 36.03 37.77 39.39 37.79 31.66 30.91 36.38 37.00 36.74 37.42 36.51 38.20 38.84 40.04 40.70 36.22 35.10 34.85 35.87 33.57
45.32 45.30 45.40 45.35 45.30 45.59 45.50 45.50 45.41 45.73 45.85 45.98 46.26 46.66 46.89 46.44 44.80 37.00 36.43 41.33 44.39 43.80 36.16 30.12 30.02 37.18 39.33 39.19 39.72 40.94 42.25 40.89 40.16 37.85 36.52 36.64 37.87 39.34 34.34 30.81 30.56 31.97 32.54 34.43 37.68 36.91 38.28 38.12 35.00 34.24 33.52 33.21 32.53 30.65
44.91 45.27 45.41 45.12 45.46 45.47 45.35 45.39 45.37 45.69 45.75 45.89 46.21 46.20 46.57 46.44 45.25 41.08 44.19 45.26 44.61 39.32 37.73 28.59 29.14 34.80 40.38 35.09 34.69 40.34 37.46 38.43 37.34 35.25 36.97 36.60 38.08 36.48 32.68 26.33 27.45 28.47 29.76 33.56 32.43 34.34 34.64 36.84 33.12 30.72 31.40 30.96 28.55 26.93
44.85 45.00 44.74 44.48 44.85 44.43 44.61 44.94 45.27 45.55 46.07 46.24 46.15 46.29 44.91 41.33 38.33 41.04 45.62 45.22 44.72 39.76 31.54 30.28 26.42 27.54 39.10 35.71 37.41 37.88 38.92 33.66 39.29 33.98 35.54 35.10 28.64 28.48 23.15 23.76 24.63 25.52 26.29 27.72 29.98 32.42 33.40 31.82 28.88 27.65 28.01 27.75 26.47 25.19
44.71 44.54 44.39 44.67 44.79 44.54 44.82 45.06 45.95 46.13 46.17 44.92 42.62 36.75 32.57 40.76 45.46 44.42 40.47 36.50 37.00 37.11 36.59 30.79 32.61 30.39 35.65 34.64 34.31 33.82 34.58 32.92 30.45 33.04 31.95 25.73 22.04 24.30 24.47 24.39 24.56 24.97 26.54 27.64 26.87 27.77 26.75 26.90 25.84 24.84 24.56 25.14 24.68 23.96
45.17 44.58 44.00 43.90 44.44 44.76 45.06 45.10 45.05 45.08 44.47 40.87 37.13 35.51 41.69 44.94 40.00 36.65 31.58 30.45 32.60 29.55 31.84 32.59 31.73 31.93 36.54 31.95 32.14 33.31 31.40 32.23 28.76 29.21 27.09 22.17 19.55 22.37 23.83 23.35 24.49 25.19 25.48 26.29 26.78 25.88 25.76 25.74 24.58 23.27 22.38 22.44 21.99 20.92
43.88 42.68 42.60 42.82 44.50 44.83 44.18 44.29 44.16 41.80 40.64 40.51 39.14 39.22 36.30 31.86 31.56 30.20 27.22 30.17 30.13 28.49 32.50 30.90 32.97 33.99 34.32 34.40 32.15 32.52 30.37 30.28 25.21 27.82 21.85 15.73 19.67 22.01 22.21 21.91 22.72 23.93 23.87 23.30 24.02 23.54 24.06 23.74 23.46 22.68 21.83 20.53 19.83 19.20
42.68 42.38 42.17 41.74 42.05 42.03 41.41 43.42 43.77 42.23 39.45 35.48 31.12 26.41 26.73 21.77 15.17 16.41 20.99 23.95 24.62 27.43 28.98 31.97 31.46 32.03 34.10 35.92 32.51 32.30 28.03 22.21 26.09 17.95 14.36 16.70 19.98 21.12 21.25 21.70 21.30 22.84 22.40 21.62 21.16 21.54 21.07 20.57 21.09 20.34 18.74 19.18 18.67 17.48
41.65 41.86 42.49 41.56 40.86 40.08 39.39 40.93 39.65 36.81 32.05 26.52 24.01 14.31 15.47 11.87 16.12 18.78 19.00 20.73 25.53 27.77 27.46 30.53 31.83 29.43 30.29 27.24 27.91 22.84 21.63 21.61 13.01 10.60 10.51 17.26 19.16 19.89 20.76 21.23 20.36 19.49 20.04 19.87 19.67 19.60 18.62 17.90 17.48 18.37 18.56 18.19 16.98 15.36
41.04 40.76 40.39 40.43 40.49 39.25 38.61 37.95 36.37 32.19 27.28 21.16 19.74 12.65 14.71 18.46 20.25 21.01 22.16 23.71 25.22 27.20 28.25 31.17 25.68 27.28 23.90 20.95 20.21 19.37 14.58 10.48 12.42 10.86 14.59 18.23 19.52 19.92 19.82 20.32 19.66 19.14 18.73 18.40 18.94 17.81 17.11 16.91 16.15 15.86 16.96 17.50 17.21 16.51
41.92 40.97 41.23 42.94 39.06 38.61 36.64 34.68 31.85 30.16 25.81 19.65 16.54 14.47 15.67 16.08 15.96 16.96 18.08 20.00 24.89 24.68 29.15 28.22 21.24 18.89 17.69 18.73 13.21 9.82 12.04 7.97 10.40 14.06 17.76 18.95 17.85 18.13 18.18 18.81 18.92 19.47 19.49 18.95 18.94 18.36 17.65 16.38 15.64 15.71 16.32 15.78 15.29 14.83
41.99 38.88 42.49 42.23 39.82 36.84 36.01 30.06 27.60 22.43 19.32 16.29 14.29 16.61 15.51 15.45 15.35 17.34 20.06 21.11 25.58 25.56 22.09 22.44 15.51 15.47 18.25 12.09 9.76 12.99 8.36 11.57 16.14 17.31 18.68 18.80 17.72 17.29 17.87 17.98 18.14 18.13 17.93 18.13 18.47 18.30 17.62 18.18 17.58 15.93 13.81 15.23 15.54 14.99
39.38 40.88 42.41 41.37 37.72 34.35 29.93 27.77 23.83 20.22 14.41 16.32 13.36 16.30 18.44 19.19 18.62 19.79 22.32 23.71 25.26 24.34 22.16 17.29 20.00 12.31 9.97 8.79 9.19 13.15 15.07 16.54 17.50 16.86 16.68 16.77 16.97 17.68 18.14 16.85 17.25 17.54 16.73 16.38 16.39 16.14 15.97 15.58 14.71 13.95 13.86 13.79 13.15 12.35
40.39 38.88 41.68 40.98 35.95 30.53 26.10 24.92 24.60 15.44 16.02 17.65 19.66 20.54 20.69 20.13 21.40 22.44 23.66 24.83 23.97 25.20 21.74 18.30 13.52 11.62 11.76 14.81 14.30 15.33 16.58 16.11 14.15 14.41 15.27 16.41 17.11 16.35 15.99 15.90 15.30 14.85 14.84 14.84 14.11 12.88 12.63 12.74 12.67 12.42 12.03 11.85 10.23 10.72
41.22 40.57 40.93 39.22 36.16 28.29 24.81 23.08 26.95 20.06 16.04 18.96 21.74 19.21 18.72 18.27 19.48 20.36 20.58 21.97 20.42 17.88 13.56 11.19 11.44 14.22 15.64 17.41 18.86 17.80 17.76 17.83 16.06 13.22 12.42 13.61 14.80 14.27 13.74 14.08 13.20 13.18 12.49 11.90 11.15 11.71 11.48 10.08 9.33 9.01 8.95 8.43 8.00 5.77
35.85 36.20 36.83 34.05 30.01 28.64 25.67 23.57 20.98 21.06 21.08 20.12 21.88 20.77 18.22 18.96 16.03 15.48 15.95 19.11 15.61 13.79 11.93 14.95 14.89 16.35 18.50 18.87 19.78 19.19 18.11 17.62 15.80 15.05 12.78 11.09 12.93 12.71 11.51 11.00 10.77 10.13 8.60 7.86 7.84 7.09 7.23 7.00 6.94 6.50 5.84 3.51 3.45 5.72
31.81 36.26 28.20 30.97 27.00 26.19 24.33 25.56 23.26 24.31 23.99 22.55 22.00 19.70 13.97 11.38 11.13 14.22 17.09 12.18 11.58 13.02 15.16 15.05 15.57 15.84 15.11 14.67 15.59 16.33 15.74 14.97 14.05 13.28 12.99 12.45 10.01 8.73 7.58 8.03 7.94 5.46 5.46 5.61 5.91 4.63 5.67 5.91 5.46 4.86 4.26 2.85 3.53 4.20
33.39 31.48 27.06 26.28 20.68 19.25 21.67 28.95 22.01 24.03 18.26 20.04 19.13 13.35 10.88 8.83 13.81 18.42 11.14 13.86 14.10 17.01 16.86 15.85 15.88 15.94 14.08 14.50 14.07 13.75 14.18 12.62 9.95 8.86 8.24 7.88 7.63 7.05 7.57 6.97 6.65 5.71 5.25 5.58 6.20 5.07 3.36 2.23 0.52 1.00 1.10 1.67 2.16 1.61
29.73 21.97 14.94 13.34 17.86 14.42 14.86 13.07 21.51 18.25 17.72 15.87 12.86 8.74 9.16 9.53 13.85 10.82 8.54 10.79 13.88 15.92 15.34 15.87 15.63 13.60 12.88 11.60 10.27 10.40 10.78 10.60 8.80 7.93 9.43 8.51 6.73 6.25 6.95 6.27 5.92 5.88 6.13 5.48 3.25 1.52 0.08 -1.56 -3.25 0.91 -1.23 -0.71 -2.11 -0.09
16.18 12.38 12.90 7.23 12.78 10.73 8.07 6.70 9.03 12.69 7.74 8.79 8.34 6.14 7.66 12.13 5.90 3.99 5.46 9.70 10.15 8.33 8.77 12.17 11.52 10.13 7.14 7.63 9.07 9.77 11.35 11.32 9.12 6.94 7.59 8.20 6.49 6.24 5.33 4.90 4.48 5.05 4.41 3.87 1.66 1.02 -1.22 -3.36 -2.57 -1.07 -1.08 -1.12 0.07 -1.51
8.31 11.01 8.56 7.59 7.55 11.12 9.20 5.71 4.77 6.77 7.48 6.77 5.71 6.33 5.55 3.60 1.58 0.67 7.72 5.76 9.72 7.61 4.02 4.49 7.65 8.80 8.70 9.93 8.77 8.52 8.81 10.97 9.47 6.26 6.86 8.50 6.43 3.35 2.11 1.83 2.38 3.25 1.81 0.58 0.64 0.96 0.02 -3.19 -2.48 -2.23 -1.33 -2.89 -10.03 -3.87
1.51 3.10 12.59 13.85 13.94 12.78 7.04 7.49 10.13 6.96 2.80 3.20 1.92 -2.36 -2.28 -7.16 -6.40 5.13 10.15 9.61 9.77 5.97 8.14 7.63 10.50 9.76 8.02 7.24 7.10 6.53 6.72 7.08 6.84 5.56 5.44 5.11 4.40 4.27 2.42 1.17 0.36 3.54 0.88 -0.68 -0.58 0.63 0.79 -1.04 -1.36 -2.26 -2.82 -3.87 -4.45 -4.05
5.05 6.99 1.70 -0.63 2.43 4.69 -2.68 -1.07 -1.37 -1.33 4.06 9.15 3.85 -4.63 -7.75 -5.97 1.90 7.52 8.33 8.83 7.45 7.22 5.82 5.07 6.24 7.04 5.93 4.44 4.15 4.16 2.84 2.67 3.05 3.82 4.48 3.70 1.51 -0.17 -1.76 -0.87 -0.94 0.30 -1.61 -2.40 -1.48 -3.87 -1.52 -1.16 -1.29 -2.61 -4.41 -3.14 -3.52 -4.94
2.28 0.73 3.03 -5.93 -2.44 -1.56 0.37 -2.81 -0.50 5.48 7.50 0.67 -4.34 -1.70 2.86 5.82 4.61 6.80 8.90 9.11 8.52 6.86 2.97 1.50 -1.38 -2.18 -1.49 -1.07 -3.74 -2.86 -0.14 1.19 2.11 -4.23 -5.13 -2.42 -3.06 0.91 -3.62 -3.53 -2.83 -4.41 -5.32 -0.84 -3.55 -2.50 -0.37 -1.86 -2.45 -2.63 -4.06 -3.87 -5.50 -9.49
1.27 1.40 -2.00 -7.84 -5.78 -2.78 -3.15 1.05 -0.68 0.52 4.36 4.99 8.73 8.64 5.79 6.35 8.55 9.65 9.17 8.07 5.68 1.02 -3.91 -3.06 -6.31 -1.76 -2.32 -0.64 -2.05 -1.93 -6.41 -8.22 -3.35 0.85 -0.62 -1.38 -1.27 -3.32 -5.86 -4.23 -3.87 -6.40 -8.40 -4.23 -2.63 -1.11 -2.11 -4.07 -3.47 -6.28 -6.65 -6.79 -7.15 -6.83
2.94 -1.51 -0.91 -0.16 -0.28 3.17 1.94 -3.71 1.69 1.97 -2.78 -0.70 -3.27 -2.88 -0.55 1.10 6.00 6.19 1.65 -3.73 -4.68 -4.99 -1.61 -2.04 -4.30 -8.91 -4.15 -6.00 -3.47 -4.13 -2.85 -5.34 -14.38 -10.76 -8.49 -7.54 -7.49 -6.23 -6.58 -8.76 -10.57 -10.94 -8.76 -7.13 -6.95 -6.95 -6.77 -8.04 -8.76 -8.41 -7.85 -8.62 -11.28 -13.38
-5.69 -10.94 -3.77 -2.64 -1.51 0.49 -0.94 -8.40 -9.30 -6.06 -7.85 -2.43 -4.05 -9.85 -5.98 -3.17 -5.13 2.40 2.41 2.05 1.70 0.11 -4.05 -5.13 -2.42 1.00 -4.95 -8.04 -11.84 -10.76 -13.49 -5.32 -6.95 -8.40 -8.42 -7.21 -5.45 -8.71 -10.22 -10.81 -13.84 -11.85 -9.33 -9.30 -9.85 -9.69 -10.91 -10.24 -9.74 -10.84 -10.98 -11.37 -12.97 -14.58
-3.03 -3.28 -5.71 -2.81 -2.42 -4.41 -4.23 -3.71 -4.10 -5.32 -7.31 -6.95 -7.49 -12.75 -14.56 -7.40 -5.18 1.13 1.60 -1.53 2.28 3.34 -1.19 -2.30 -5.57 -8.76 -9.67 -10.03 -5.87 -7.67 -12.45 -7.69 -11.84 -3.32 -10.39 -9.67 -13.84 -10.40 -10.98 -11.48 -12.20 -11.66 -10.03 -9.49 -10.57 -11.49 -10.96 -11.91 -10.87 -12.47 -13.01 -14.93 -15.17 -15.40

GFSWCAN_sfc_wetblb_054.txt.gz
Wetbulb
43.60 43.79 43.93 44.01 43.88 44.22 43.21 43.16 43.13 43.06 43.19 43.33 43.60 43.87 44.09 44.42 44.41 44.05 41.76 45.96 40.04 33.02 35.55 39.60 39.30 36.45 37.37 36.76 32.16 36.95 35.57 35.32 34.37 32.85 31.89 31.44 31.17 33.54 32.55 35.36 33.21 30.88 30.96 31.20 32.72 28.71 27.03 43.62 42.45 37.67 44.56 47.04 46.56 47.12
43.63 44.09 44.59 45.00 44.86 44.31 44.40 43.47 43.21 43.31 43.36 43.62 43.93 44.29 44.48 44.79 44.83 44.78 40.94 45.69 45.91 36.45 36.83 42.85 42.77 44.78 42.68 41.99 38.52 38.50 37.48 37.12 38.20 35.10 35.49 35.98 32.94 35.99 33.96 29.49 39.60 32.89 36.87 35.14 36.08 35.97 43.20 45.62 45.68 46.98 47.28 46.14 46.95 47.11
44.01 44.70 44.30 43.88 43.70 43.99 43.21 43.66 43.52 43.54 43.75 43.85 44.11 44.36 44.71 45.40 45.70 44.75 42.00 44.75 41.10 35.51 35.53 38.52 39.28 43.72 46.60 45.91 46.14 37.06 39.39 41.47 40.76 43.74 39.36 37.97 32.72 37.46 31.66 33.39 36.12 39.13 42.47 38.32 38.42 41.38 43.00 44.55 46.55 46.18 46.22 45.79 46.20 46.47
44.66 44.00 44.07 44.49 44.90 43.83 44.13 43.76 43.69 43.93 44.13 44.40 44.26 44.53 45.22 45.28 46.19 45.70 40.73 42.74 40.92 37.36 32.44 36.09 43.89 42.59 46.72 46.89 45.79 44.78 42.82 43.85 43.26 43.05 39.26 37.50 34.49 39.92 35.86 37.51 36.90 39.77 41.30 38.90 38.86 41.60 43.26 44.47 44.98 44.71 44.09 45.11 44.24 44.83
43.97 44.18 45.03 45.47 45.56 45.22 44.37 44.33 44.20 44.38 44.57 44.90 45.03 44.92 45.07 45.56 46.16 44.55 43.27 43.85 43.61 39.02 34.35 36.51 40.73 42.43 45.29 45.18 44.01 44.42 43.05 41.71 40.85 38.39 36.01 35.02 39.16 38.71 40.03 39.13 36.66 41.35 39.00 37.35 36.27 41.41 41.40 41.73 44.55 42.54 42.54 41.81 41.95 40.77
45.31 45.34 45.41 45.47 45.34 45.44 44.99 44.68 44.56 44.81 44.71 44.98 45.39 45.03 44.95 45.24 45.68 40.78 33.36 42.95 44.59 44.95 37.53 32.53 41.46 39.59 42.26 43.89 42.37 42.05 43.06 42.22 40.89 38.23 37.17 39.65 42.48 38.89 35.23 34.26 40.41 40.78 40.48 41.04 39.84 41.28 42.04 43.37 44.19 40.19 39.60 39.26 38.78 37.67
45.24 45.24 45.24 45.44 45.56 45.42 45.49 45.54 45.54 45.44 45.35 45.38 45.85 46.30 45.41 45.39 42.99 37.98 38.43 42.94 44.82 44.84 37.06 34.04 34.74 40.31 41.97 42.16 42.03 41.06 43.00 41.37 41.09 38.92 37.00 37.67 39.04 40.44 35.91 33.24 34.22 34.64 36.20 37.27 37.85 36.50 38.88 37.82 37.05 36.80 35.84 35.51 35.16 35.44
44.99 45.04 44.83 44.81 44.62 45.16 45.28 45.54 45.54 45.72 45.79 46.12 46.39 45.96 45.53 45.45 43.33 40.20 45.82 44.90 44.99 40.26 39.67 33.07 33.21 36.45 41.76 37.26 36.44 42.23 39.16 39.85 37.57 36.64 37.70 36.89 39.18 38.29 32.97 28.64 31.39 33.06 33.86 35.76 33.80 34.93 33.92 35.63 34.03 31.97 32.97 32.97 33.20 31.05
44.61 44.58 44.52 44.12 44.68 44.73 45.40 45.33 45.61 45.82 46.02 46.02 46.12 46.78 45.32 41.56 38.49 41.01 45.59 44.92 46.35 40.75 34.62 33.78 31.41 29.64 41.07 37.93 39.25 39.12 39.80 32.44 38.23 34.05 35.57 38.35 34.82 32.29 25.12 26.93 27.31 27.64 28.19 29.42 32.47 34.72 33.71 31.59 29.54 28.32 29.00 28.30 29.10 26.47
43.92 43.94 44.02 44.45 44.41 44.74 45.06 45.35 45.51 45.70 45.70 45.82 43.34 36.79 34.10 41.00 45.43 44.47 40.26 35.02 35.61 38.57 39.39 35.01 38.82 32.32 37.52 36.85 36.26 36.39 37.82 33.99 31.25 33.79 34.88 33.54 28.02 25.74 26.42 26.31 26.28 26.94 28.02 29.50 29.20 30.57 29.43 28.84 27.75 25.37 24.67 25.12 23.98 22.92
43.39 44.17 44.70 44.47 44.11 44.58 45.23 45.61 45.82 45.65 44.80 40.97 35.99 35.32 42.18 44.87 42.12 37.61 33.00 33.87 33.45 31.32 34.63 36.79 36.17 33.76 39.29 34.23 34.21 37.87 33.17 34.66 29.37 30.71 32.61 29.06 26.32 24.18 26.27 25.96 26.34 26.63 27.55 27.36 27.44 27.39 27.56 27.33 26.86 24.89 23.49 23.38 22.61 21.91
43.60 43.54 43.95 43.65 44.00 44.63 44.82 44.75 44.93 45.09 43.42 41.48 39.34 39.01 36.31 35.20 35.17 32.38 30.50 31.17 30.68 29.07 33.10 32.77 34.31 36.72 36.74 38.68 36.45 35.91 32.91 33.09 28.73 33.41 30.79 25.22 22.05 23.75 23.95 23.72 24.41 24.94 25.16 24.67 25.92 25.50 25.53 25.24 25.12 23.90 22.69 21.19 20.42 20.35
42.03 42.07 41.59 41.53 41.62 43.63 42.10 42.52 42.54 42.83 42.79 39.97 36.04 29.97 31.80 28.15 25.04 27.00 25.73 28.85 28.97 31.35 32.89 33.00 32.27 34.82 34.73 36.18 33.56 34.89 31.56 28.22 31.50 27.87 23.54 21.46 22.22 23.04 23.36 23.84 23.56 24.74 24.04 23.09 22.71 22.73 22.49 22.08 22.33 21.05 19.49 19.97 19.84 18.69
41.48 41.73 41.43 40.74 40.54 40.02 39.56 39.07 39.04 38.86 37.89 31.20 28.16 20.51 23.25 21.13 22.78 23.11 24.85 26.38 28.15 29.72 31.74 32.66 33.37 32.83 32.83 31.00 29.87 27.11 26.69 28.79 23.62 21.30 17.14 20.66 21.28 21.79 23.01 23.58 22.45 20.99 21.48 21.00 20.27 20.02 19.10 18.82 18.81 19.35 18.80 18.99 17.75 16.52
43.15 42.25 39.94 40.01 40.00 38.77 38.29 37.81 36.13 34.49 30.53 24.86 25.30 18.24 19.78 22.82 24.07 24.56 26.25 27.71 28.83 29.80 30.86 32.60 31.03 32.79 29.25 26.29 26.02 25.57 22.75 19.55 20.54 19.17 19.63 21.73 22.22 22.09 21.90 21.72 20.75 20.05 19.83 19.47 19.68 18.57 18.05 18.02 17.45 17.23 18.06 18.08 17.66 16.96
42.01 42.70 40.52 38.54 38.93 37.77 36.63 35.93 34.79 33.89 28.68 23.77 21.42 19.45 22.98 23.99 22.76 24.12 25.02 26.78 29.07 27.95 32.03 33.17 27.98 25.91 22.45 23.88 20.29 16.86 20.95 18.16 16.94 19.93 21.75 22.14 20.56 20.45 20.43 21.02 21.02 21.05 20.54 20.02 19.63 18.86 18.20 17.49 17.19 17.46 17.39 16.67 16.37 16.09
42.09 40.68 42.19 37.85 36.08 35.78 35.79 32.40 30.08 24.31 22.44 20.40 19.47 22.95 21.98 22.11 20.65 22.73 24.57 25.57 28.97 29.24 27.63 27.42 22.31 18.83 23.63 19.49 15.08 18.05 16.55 18.32 20.12 20.91 22.56 22.30 20.68 20.19 20.57 20.63 20.67 20.81 20.67 20.53 19.95 19.78 19.40 19.82 19.64 18.27 16.66 17.42 17.35 16.40
41.09 42.80 41.90 40.74 39.25 35.34 31.90 30.64 25.86 22.77 18.28 20.77 18.84 20.81 22.43 22.87 22.38 23.53 25.74 27.15 29.23 27.79 26.12 20.55 24.12 18.00 16.15 12.72 15.51 16.79 19.11 20.45 21.09 20.65 20.76 20.64 20.73 20.75 21.23 20.11 20.33 20.43 19.50 18.98 19.28 19.44 19.62 19.14 18.27 17.35 17.02 16.70 15.99 15.38
41.34 41.97 40.90 38.92 38.37 33.70 27.70 26.62 27.33 18.87 19.84 22.35 22.56 22.99 22.96 22.99 24.24 25.59 26.91 26.95 27.08 27.55 24.88 22.07 17.52 15.80 15.87 18.94 18.43 18.58 19.64 19.32 17.85 17.89 18.39 19.23 19.41 18.53 18.34 18.57 18.80 18.80 18.44 18.49 17.98 17.08 16.90 16.94 17.16 17.54 17.64 17.50 16.16 16.20
40.17 39.94 38.83 38.20 38.14 31.15 24.89 24.68 29.61 22.51 19.24 21.23 22.95 19.92 20.32 20.58 22.74 23.93 23.34 23.49 22.81 20.68 16.59 14.40 14.51 17.05 18.08 19.81 21.18 19.91 19.97 20.44 19.51 17.28 16.56 17.68 19.21 18.81 18.93 19.25 18.52 18.41 17.86 17.17 17.06 16.91 16.98 16.00 16.03 15.48 15.75 15.68 15.27 13.50
39.93 39.67 38.13 38.69 35.23 32.34 28.33 25.54 23.66 23.84 23.77 20.91 22.42 21.12 19.54 21.12 19.07 18.66 19.03 22.47 17.41 15.90 13.82 16.64 17.01 18.75 21.20 22.35 23.08 22.88 22.47 22.76 21.49 21.13 18.44 16.70 18.01 18.18 16.93 16.82 17.04 17.08 16.44 16.33 15.32 13.65 14.18 13.73 13.98 14.20 13.88 12.98 13.01 13.05
38.12 36.84 38.00 37.15 31.43 30.12 28.47 29.31 26.06 27.05 24.33 23.34 22.63 22.14 18.97 17.89 18.12 17.88 20.26 15.88 14.15 15.37 17.58 18.43 19.70 19.84 18.88 18.55 19.52 20.23 19.67 19.27 18.25 17.50 16.82 17.42 16.33 16.11 15.58 16.24 16.01 14.07 14.12 14.25 14.31 13.41 13.13 13.15 13.70 13.17 12.58 11.84 11.84 11.89
36.15 36.57 33.59 32.56 27.69 27.51 25.67 31.64 25.35 25.65 21.78 22.01 22.01 17.55 16.99 17.59 18.74 21.95 15.48 16.03 16.31 19.25 19.49 18.84 18.41 18.78 17.31 17.56 17.25 17.19 18.29 17.78 16.70 16.05 15.63 15.22 15.28 15.41 15.03 14.58 15.13 13.66 12.45 12.14 13.71 13.25 11.47 7.93 8.83 11.45 11.29 12.30 12.10 10.83
32.10 25.39 23.59 25.10 27.25 22.31 25.31 23.22 25.53 23.28 23.41 20.50 18.21 14.22 15.13 17.37 19.94 16.81 12.12 14.29 16.65 18.99 18.69 18.79 19.20 17.07 17.11 16.93 16.15 15.65 16.38 17.35 15.96 15.94 16.49 15.83 13.94 13.01 13.79 13.06 13.21 13.03 13.02 12.71 12.23 11.50 10.96 10.17 7.13 11.45 10.28 10.70 9.89 10.06
23.81 17.29 21.74 19.35 23.34 21.53 19.79 19.64 19.11 20.45 17.57 18.36 15.76 15.76 15.72 20.11 14.68 12.93 11.56 14.78 16.84 16.62 17.19 18.06 17.88 17.65 16.29 15.69 16.13 15.25 16.17 17.81 15.87 13.31 14.33 15.20 14.17 13.57 12.66 12.36 11.96 11.93 13.82 14.00 11.26 10.75 8.97 9.37 9.60 9.31 8.75 8.91 6.78 5.31
13.83 15.33 17.29 18.13 19.93 20.47 20.04 17.29 17.77 17.55 17.82 14.66 13.64 15.15 18.12 15.88 11.55 10.42 13.86 16.45 16.81 16.97 17.31 18.04 17.75 16.79 16.04 17.13 15.71 15.33 14.59 16.78 17.06 14.13 12.82 14.21 13.70 14.38 13.28 11.74 11.38 10.07 11.40 11.80 12.16 11.05 9.33 8.28 8.09 4.58 7.52 3.37 0.42 3.87
12.68 12.94 15.77 16.67 18.42 19.13 17.60 18.43 18.98 17.63 14.49 12.87 13.94 11.60 13.05 7.49 7.31 10.95 15.46 17.05 17.15 16.76 17.51 17.98 19.23 18.01 15.54 14.03 13.67 13.47 14.11 14.01 13.36 12.04 12.18 11.84 11.59 11.97 12.46 11.10 7.33 9.45 11.05 9.91 10.06 9.64 8.80 7.86 7.21 6.69 6.26 7.94 7.29 5.77
12.86 12.77 9.32 8.28 9.97 12.24 9.28 10.14 10.05 9.47 11.12 13.59 13.73 5.96 5.67 6.43 8.65 13.67 14.61 15.20 16.05 15.88 14.75 14.36 15.26 15.64 14.31 12.90 12.74 12.29 11.45 10.82 10.40 11.15 11.31 10.79 10.48 10.01 8.76 9.62 8.04 5.23 9.09 8.75 9.95 8.55 8.50 7.60 7.33 6.74 5.40 5.46 5.23 6.28
10.29 11.79 10.51 1.28 6.19 7.12 6.09 6.53 8.00 10.17 11.20 12.49 9.47 7.50 7.53 9.90 11.59 14.10 14.23 14.91 16.08 15.70 13.35 11.68 10.07 11.79 10.98 9.90 10.01 12.72 12.93 13.28 8.76 4.33 3.28 8.81 9.32 8.97 9.25 9.70 9.70 8.93 9.38 9.20 2.23 5.04 7.73 6.61 6.19 5.91 4.85 5.18 5.16 3.77
9.02 12.62 6.95 3.92 2.54 3.95 7.25 8.91 9.23 10.11 11.65 12.41 12.79 11.07 10.53 10.76 11.86 15.71 15.26 15.29 14.75 13.70 12.89 12.22 10.82 13.76 11.09 11.75 9.16 8.38 8.80 7.75 7.53 8.97 8.75 7.88 8.53 7.96 8.02 7.96 7.32 6.40 6.34 7.59 7.31 6.33 3.17 5.30 3.69 4.78 3.72 3.87 4.54 3.34
12.37 12.36 8.48 7.97 5.59 8.54 9.63 12.82 12.76 12.81 13.04 11.47 13.07 10.35 8.41 11.06 12.49 11.55 9.99 10.05 10.06 9.70 10.77 9.90 8.77 10.54 10.57 10.30 11.58 9.77 8.52 6.20 1.37 2.74 5.35 6.60 6.65 7.06 5.54 3.65 4.28 4.97 5.21 4.55 3.99 4.12 3.28 3.62 3.58 1.43 1.62 0.05 -1.84 -2.66
9.97 7.85 6.84 5.36 7.19 10.59 11.13 12.16 12.40 11.18 12.62 12.28 10.58 11.96 10.36 12.08 8.25 11.00 9.75 11.65 12.04 12.73 6.88 11.49 12.91 11.44 8.54 7.40 5.46 5.70 1.05 5.60 5.02 3.54 2.24 4.69 5.83 2.77 3.89 3.49 2.20 3.72 3.46 2.72 2.90 2.18 -0.19 -0.64 0.37 -0.44 -0.27 -1.62 -2.76 -3.90
11.41 11.89 11.13 9.77 8.43 9.25 9.76 11.09 10.89 10.30 10.67 10.20 7.70 6.62 6.26 8.77 5.72 9.20 8.80 8.02 10.62 12.45 12.11 10.84 9.05 7.26 5.28 6.16 6.83 5.00 4.50 4.44 0.79 1.94 -1.92 -2.11 -4.33 -0.05 3.87 4.51 3.45 2.03 0.34 1.41 2.02 0.47 -1.10 -1.81 -1.33 -1.92 -2.14 -3.77 -3.93 -3.92

GFSWCAN_sfc_wetblb_057.txt.gz
Wetbulb
42.82 43.02 43.30 43.52 43.88 43.92 44.05 44.51 44.40 43.76 43.16 43.37 43.32 43.57 43.86 44.03 44.07 44.54 42.52 45.83 41.36 35.50 37.18 39.29 39.99 36.79 37.12 38.69 34.71 37.26 35.16 35.74 34.53 32.67 32.15 33.05 32.65 34.96 34.25 35.78 35.10 32.74 31.24 31.30 32.69 29.83 27.83 44.89 43.52 38.32 43.95 46.84 47.34 47.11
43.31 43.33 43.44 43.84 44.18 44.47 45.14 45.22 45.10 44.59 43.12 43.21 43.28 43.47 43.50 43.57 43.78 44.32 40.37 44.17 45.99 37.53 37.66 42.83 43.36 43.51 42.91 41.61 38.00 38.65 37.68 37.53 39.42 36.43 37.45 36.62 34.31 36.67 35.12 30.30 40.12 32.40 37.35 35.24 36.22 36.30 44.28 46.43 46.59 47.75 48.05 46.64 47.07 47.21
43.33 43.47 43.88 44.31 44.73 45.18 44.62 44.03 44.59 44.49 43.48 43.35 43.38 43.59 44.00 44.27 44.73 44.59 42.14 43.71 41.75 35.83 37.05 38.43 37.64 42.55 45.37 44.69 46.78 36.63 40.18 39.45 42.24 45.00 40.23 38.99 33.41 37.45 31.72 34.63 36.67 40.81 42.06 38.97 38.06 42.53 43.15 45.01 47.71 48.03 47.67 46.95 47.43 47.56
43.53 44.09 44.26 44.42 44.46 44.64 45.11 44.43 44.30 44.27 43.72 43.48 43.64 43.92 44.32 44.42 44.96 44.99 42.26 45.06 42.09 37.93 30.80 34.67 43.79 40.13 44.67 46.66 44.93 44.89 43.72 44.70 44.15 43.35 40.64 38.18 35.69 41.12 36.23 38.48 37.98 40.81 41.19 39.80 39.43 42.71 44.06 45.53 47.09 46.40 46.15 47.00 46.27 46.59
44.11 44.25 45.01 45.39 45.34 45.62 45.88 44.74 44.35 44.20 43.89 43.94 44.14 44.36 44.61 45.02 45.32 44.34 44.71 45.79 46.37 38.33 32.30 34.00 41.72 43.99 45.18 44.88 44.42 44.24 42.84 40.93 39.32 38.71 37.33 36.87 40.13 39.59 40.28 39.98 37.66 42.53 40.28 38.46 37.65 43.54 43.85 44.43 45.69 45.72 43.94 43.86 43.99 43.22
44.01 45.33 45.26 45.46 45.59 45.66 45.57 44.70 44.50 44.16 44.09 44.15 44.64 44.95 45.13 45.05 45.12 42.21 35.10 42.31 46.83 45.43 34.81 31.54 42.00 42.33 44.04 43.93 43.32 43.18 42.21 40.72 40.16 38.42 38.05 40.02 42.89 40.87 35.80 34.36 41.21 43.33 44.24 43.10 41.55 42.92 43.26 44.47 45.39 43.64 42.09 41.32 40.43 39.90
45.30 45.15 45.38 45.33 45.53 45.77 45.57 45.10 44.68 44.60 44.59 44.75 45.10 45.36 45.49 45.45 44.28 38.02 38.15 43.44 45.60 45.37 35.61 33.44 34.92 41.85 42.85 42.57 42.07 41.14 42.48 40.98 38.60 37.14 35.83 38.85 41.27 40.43 37.04 33.76 38.01 39.32 40.21 41.01 40.71 40.43 40.53 40.10 38.99 38.99 39.10 38.99 38.88 37.86
44.77 44.70 44.70 44.25 44.45 44.83 45.44 45.43 45.50 45.23 45.18 45.27 45.36 45.30 45.16 44.56 43.92 40.72 46.70 44.97 44.68 39.35 39.39 34.64 35.00 37.65 43.49 38.24 37.17 42.77 38.75 40.14 39.27 39.76 39.41 38.58 40.12 39.89 33.77 34.13 36.50 36.85 37.54 39.02 37.64 38.54 38.36 38.71 36.39 34.41 34.97 34.62 33.89 31.21
44.30 44.23 44.59 44.49 45.17 44.62 45.40 45.53 45.67 45.90 45.69 45.73 45.90 45.78 42.65 40.42 37.32 42.03 45.16 45.19 46.27 41.47 35.15 35.46 32.62 31.55 42.16 39.07 39.74 39.88 41.01 34.60 40.38 37.43 36.58 38.73 36.87 31.84 27.93 30.74 30.90 30.46 31.47 32.72 35.29 37.61 36.01 33.58 32.81 32.86 32.41 31.65 30.13 27.28
44.28 44.62 44.13 44.42 44.81 45.11 45.27 45.45 45.46 45.86 46.30 45.44 41.36 36.77 33.67 40.12 45.32 44.27 39.42 34.81 35.50 39.32 40.14 35.34 39.63 34.49 39.68 38.44 37.08 37.08 37.79 34.67 31.94 34.39 37.57 34.55 26.60 28.42 29.43 29.11 29.25 29.94 31.47 31.72 30.98 32.37 30.14 30.94 29.79 28.56 27.72 27.62 26.79 25.41
44.37 43.20 44.01 44.87 45.12 45.23 45.28 45.54 45.77 45.84 44.30 41.23 35.13 35.45 41.84 44.99 41.34 36.66 33.30 34.54 34.75 33.57 37.69 38.42 38.66 34.67 40.27 35.36 34.82 39.13 34.12 35.74 29.65 33.17 33.39 32.60 26.18 25.31 28.30 28.24 28.69 28.80 29.16 28.74 28.90 28.50 28.24 28.67 29.04 27.50 25.31 25.15 24.53 23.88
42.19 42.27 44.26 43.94 45.29 45.29 45.40 45.22 45.23 45.08 42.87 41.58 39.45 40.69 41.26 38.07 36.46 34.14 32.50 34.01 32.93 31.80 35.29 34.93 37.04 39.30 38.22 41.66 36.73 37.94 33.64 35.00 28.34 36.70 33.40 29.20 24.45 26.05 26.44 25.35 26.13 26.73 26.28 25.78 26.97 26.05 26.24 26.37 26.13 24.87 23.64 22.61 21.94 21.85
41.86 41.91 42.83 41.61 43.48 45.37 45.21 45.29 44.91 43.88 44.90 42.96 37.17 33.67 35.80 31.68 29.76 29.90 26.06 29.40 30.89 33.62 34.67 34.68 33.93 37.02 37.55 37.96 35.60 35.49 30.45 31.08 36.20 31.23 27.94 24.31 24.99 25.67 25.78 25.95 24.81 25.61 25.26 24.44 23.35 23.69 23.36 22.58 22.95 21.73 20.34 21.16 21.35 20.46
41.41 41.38 41.21 41.17 41.49 42.15 41.19 40.54 41.30 42.33 40.98 35.66 32.05 23.39 28.33 25.86 26.20 27.03 28.13 29.54 30.25 31.74 34.13 34.38 33.30 33.65 34.03 32.38 33.49 29.50 30.27 31.86 27.11 25.58 22.27 23.14 23.48 23.82 24.50 24.86 23.56 21.89 22.27 22.03 21.38 21.28 20.62 20.07 19.78 20.15 19.90 19.96 19.04 17.69
41.02 40.48 40.42 39.20 38.87 38.73 38.55 38.92 39.81 40.19 35.45 28.69 29.57 22.23 22.78 25.68 26.79 27.50 29.27 30.28 30.51 33.06 34.38 33.95 34.35 35.25 32.20 28.45 30.08 28.77 26.32 25.08 24.86 22.28 22.28 23.93 23.96 23.72 23.08 22.81 21.81 21.21 20.90 20.62 21.02 19.66 19.20 19.12 18.52 18.25 19.13 19.17 18.78 18.03
42.05 42.42 38.16 39.10 38.13 37.51 38.26 37.62 38.16 37.30 31.88 27.11 25.42 24.35 27.52 27.59 26.68 28.18 29.01 29.62 32.13 32.77 34.95 34.74 30.65 28.57 25.62 28.61 24.71 22.79 25.35 22.15 20.96 23.10 23.46 23.40 22.49 22.66 22.64 22.73 22.64 22.43 21.77 21.06 20.99 20.30 20.02 19.05 18.25 18.19 18.38 18.18 17.99 17.48
42.83 41.68 37.37 37.10 37.12 36.65 37.51 36.45 34.33 27.69 25.93 24.43 22.61 26.51 26.41 25.45 24.65 26.45 28.13 28.34 32.16 31.95 30.39 31.41 26.03 22.53 28.74 24.54 19.63 21.67 20.51 21.43 23.56 24.37 25.10 24.22 22.54 22.10 22.56 22.53 22.72 22.80 22.30 22.06 22.09 21.88 21.61 22.23 22.43 20.94 18.81 19.11 19.09 17.88
42.29 42.55 39.99 37.76 39.50 37.27 34.20 33.64 29.26 26.55 21.32 24.80 22.25 24.57 25.47 26.22 26.57 27.47 28.54 30.10 31.93 30.39 29.88 24.25 28.82 23.02 21.22 18.28 19.30 21.00 22.74 24.35 24.16 23.42 23.14 23.65 23.81 23.66 23.90 22.81 22.60 22.55 22.28 22.06 22.17 22.28 22.10 21.53 20.51 19.54 18.94 18.90 18.57 18.11
41.56 42.05 40.48 40.35 39.49 35.16 29.54 29.45 31.12 21.99 23.01 25.28 25.76 26.50 26.33 26.26 27.65 28.92 29.20 29.75 30.85 31.50 29.72 26.75 21.72 19.57 19.12 22.33 20.83 21.67 22.36 22.03 20.55 20.81 21.11 21.70 21.77 20.93 21.02 21.66 21.93 21.86 21.55 21.43 21.02 20.29 20.04 20.26 20.57 21.25 21.03 21.08 19.92 19.87
39.73 39.57 39.43 39.11 39.10 32.66 26.52 26.55 32.02 25.13 22.04 23.68 25.75 23.87 23.94 24.22 26.72 27.40 26.34 26.66 26.30 24.55 19.86 18.00 18.06 21.26 21.64 23.30 24.37 23.16 23.00 23.41 21.88 19.10 19.13 21.37 22.85 22.86 23.15 22.71 21.45 21.43 21.25 20.72 20.66 20.59 20.55 19.46 19.09 18.60 19.08 19.03 18.92 17.26
40.19 39.47 39.57 40.27 36.15 33.80 29.68 27.17 25.43 25.21 24.88 23.23 25.31 24.44 23.19 24.96 23.07 22.86 22.67 24.78 20.38 18.42 16.73 19.60 19.86 22.07 24.90 24.78 25.12 25.10 25.02 25.80 25.21 24.07 21.72 20.11 21.61 21.50 21.10 21.50 21.93 22.22 21.55 21.20 19.78 18.02 18.12 17.67 17.92 18.23 18.08 17.03 16.73 16.32
40.46 38.48 40.55 38.16 32.79 31.36 28.94 30.71 26.99 28.57 25.26 24.31 24.11 24.62 22.27 21.15 20.39 20.71 23.18 19.16 17.44 18.68 21.74 22.09 22.39 22.58 21.69 21.24 22.12 22.99 22.71 22.22 21.63 21.35 20.94 21.93 21.08 21.16 20.65 21.13 20.55 18.80 18.93 19.07 19.05 18.13 17.41 17.39 17.74 17.42 16.83 15.88 16.13 15.67
38.01 39.62 37.11 34.81 30.00 28.99 25.83 32.93 27.07 27.64 23.52 22.77 24.45 20.89 21.22 20.90 21.51 25.84 18.19 18.63 19.30 22.11 22.34 21.39 21.06 21.40 19.87 20.59 20.82 21.33 22.53 22.33 21.53 21.17 20.97 20.77 20.49 20.40 19.93 19.61 19.95 18.32 17.20 16.85 18.36 18.01 15.47 11.47 13.60 15.74 15.53 16.59 16.04 13.95
35.10 29.56 28.54 29.46 28.72 23.91 29.06 25.83 28.76 26.42 26.08 23.61 20.89 17.53 19.17 21.46 24.24 19.96 15.03 17.22 19.46 22.63 21.39 21.22 21.82 20.64 21.15 21.07 20.39 20.07 20.97 22.18 20.99 20.79 21.40 20.46 18.60 17.76 18.57 17.89 17.64 17.12 17.14 17.13 16.87 16.17 15.71 14.41 10.21 15.41 14.15 14.35 13.71 13.29
26.74 20.34 26.04 23.03 28.14 25.33 23.27 23.23 23.19 24.14 21.08 21.71 19.40 19.63 20.28 24.84 19.41 17.21 15.46 17.52 19.68 20.45 21.13 22.45 22.85 22.85 21.20 20.36 19.86 19.14 20.97 22.13 20.18 17.78 18.95 19.97 18.83 18.36 17.15 16.86 16.20 15.95 17.89 18.10 16.17 15.33 13.93 13.99 13.91 13.85 13.06 13.11 10.54 9.09
17.91 19.30 21.33 23.07 24.19 24.02 24.69 21.57 22.06 21.79 20.85 18.31 18.21 20.65 24.27 21.92 16.99 15.45 17.39 19.42 20.20 20.97 22.02 21.96 21.98 21.41 20.84 21.69 19.83 18.88 18.53 21.12 21.62 17.71 16.77 18.10 17.61 17.94 16.81 15.99 16.00 14.19 15.64 15.52 15.87 14.88 13.51 12.35 11.93 8.51 10.79 8.56 5.18 7.09
17.07 17.49 19.80 22.46 23.81 24.95 23.62 24.41 25.15 22.60 19.13 17.06 19.83 18.45 19.83 13.73 12.66 14.63 18.98 21.84 19.90 21.04 22.06 22.99 23.41 22.09 19.80 18.22 18.04 18.09 18.01 17.55 16.76 15.79 16.50 16.09 15.91 16.22 16.00 14.72 11.23 12.95 15.12 13.38 13.63 12.50 11.65 11.19 10.68 9.99 9.90 11.40 11.30 9.64
17.12 17.55 13.43 15.95 16.78 19.58 15.51 16.77 16.52 15.79 17.34 18.73 20.10 12.20 11.58 12.64 13.01 18.45 18.82 20.40 20.69 20.83 20.28 20.12 21.00 20.67 19.12 18.05 18.10 17.29 16.34 15.89 15.30 15.83 16.01 15.46 15.09 14.33 12.97 12.89 11.20 8.30 11.44 10.75 11.54 11.63 11.06 10.10 9.91 10.11 9.41 8.89 8.88 9.44
15.85 18.17 14.62 7.22 12.61 12.96 11.92 13.11 13.91 14.10 15.36 19.41 16.13 12.87 11.43 13.51 17.83 16.99 18.35 19.70 21.26 20.18 17.85 16.71 16.61 17.78 16.88 16.80 17.60 17.96 17.89 16.84 12.63 7.95 7.09 13.09 14.08 12.73 13.53 13.17 13.20 12.04 12.42 11.95 6.90 8.47 10.04 9.42 9.07 8.87 8.64 8.81 9.30 8.65
13.81 19.42 12.25 9.70 8.37 8.70 10.75 14.82 13.40 16.37 16.83 17.35 15.72 13.58 13.15 13.93 17.60 20.59 19.91 20.29 19.64 18.64 18.25 17.92 17.93 18.32 15.95 15.96 13.67 13.29 14.09 13.62 12.22 12.54 12.22 11.47 11.43 11.84 12.32 11.60 10.69 10.66 10.35 10.96 10.54 9.52 8.32 9.03 9.34 8.50 7.72 7.88 8.76 7.90
19.25 18.74 13.72 12.33 9.60 13.13 14.94 16.49 17.70 18.16 18.52 17.70 18.55 14.76 12.84 13.66 15.30 16.43 16.87 17.88 17.40 16.98 16.43 14.92 15.21 16.77 15.66 15.03 15.95 13.63 11.82 10.49 7.50 7.93 10.32 11.29 11.13 11.14 9.16 8.23 9.14 9.66 9.87 8.77 7.94 8.08 6.58 6.62 7.84 6.79 6.39 4.96 3.90 2.10
16.79 13.77 11.91 8.72 9.98 14.23 17.12 17.55 17.05 16.33 16.69 15.80 14.82 16.09 16.58 15.93 12.45 14.83 15.40 18.23 17.39 16.26 12.35 16.53 15.82 14.20 13.28 12.46 11.69 10.53 8.91 10.05 8.91 8.30 8.09 9.36 9.83 7.89 8.86 8.77 8.45 8.75 7.52 6.49 7.11 6.45 5.33 4.30 4.53 4.91 4.37 3.89 3.38 1.76
16.63 16.49 15.89 14.52 12.55 13.58 14.69 17.66 16.65 14.85 16.46 15.07 13.64 14.31 13.86 14.99 10.18 13.19 14.70 15.59 15.83 16.98 15.78 14.85 14.05 12.31 10.72 10.95 11.04 10.10 9.77 8.30 4.67 4.77 3.37 2.49 0.94 3.31 5.96 9.60 8.23 7.35 5.24 5.51 6.13 5.89 4.10 3.34 3.36 3.41 2.54 2.07 1.44 1.61

GFSWCAN_sfc_wetblb_060.txt.gz
Wetbulb
42.54 42.55 42.74 43.09 43.30 43.58 43.99 44.28 44.45 44.34 44.35 44.32 43.88 43.60 43.83 43.83 44.12 43.69 41.30 44.50 40.07 35.28 36.60 38.89 38.66 35.09 35.82 35.96 34.21 37.64 36.34 36.01 35.06 30.15 30.46 31.17 31.26 33.84 33.38 35.20 33.47 32.50 30.96 30.45 31.62 28.62 26.76 43.63 43.57 37.68 43.20 45.60 45.60 45.89
42.39 43.07 43.29 43.33 43.62 43.84 44.12 44.24 44.51 44.60 45.32 44.13 44.01 43.48 43.69 43.84 44.05 43.96 39.35 44.24 44.71 37.60 36.50 41.97 42.40 42.68 40.66 39.90 37.30 38.84 36.87 34.82 37.81 33.70 35.44 35.99 33.49 36.60 34.30 29.25 37.99 31.40 36.47 33.84 34.78 33.94 44.33 46.48 45.66 47.17 47.37 45.38 44.67 45.51
42.89 43.13 43.19 42.74 43.23 43.81 44.27 44.75 44.84 45.27 45.00 45.11 44.48 43.35 43.84 44.01 44.31 43.50 40.01 42.29 42.14 36.94 36.29 36.98 36.34 42.01 44.79 44.02 46.10 35.78 38.33 40.52 38.49 40.21 38.64 37.90 33.62 37.28 31.45 32.75 35.71 37.92 41.83 37.40 37.29 40.97 42.36 45.34 46.90 46.81 46.72 45.60 45.73 45.45
42.77 42.86 43.47 44.13 44.44 44.74 44.81 45.06 44.95 45.07 44.67 44.81 44.01 43.31 43.77 43.94 43.95 43.66 41.30 43.33 42.25 37.71 31.07 33.95 43.24 41.05 44.89 44.78 44.04 44.26 41.26 41.45 41.60 40.02 36.72 37.11 34.84 40.13 35.63 37.06 36.40 38.48 38.76 38.75 38.99 41.35 41.65 42.80 44.59 44.63 44.73 44.43 43.23 44.15
42.76 43.19 43.79 44.12 44.77 45.28 45.94 45.66 45.71 44.87 44.63 44.74 44.14 43.85 43.82 43.88 44.03 44.22 44.98 44.60 45.35 37.24 32.00 34.65 39.98 42.88 43.90 44.27 42.05 42.38 42.60 40.75 38.48 37.02 35.88 34.96 39.59 38.75 39.74 38.93 35.60 41.05 37.44 36.71 36.47 41.15 41.56 40.24 42.27 43.90 41.92 40.96 40.86 40.15
43.29 43.72 43.91 45.10 45.50 45.64 45.78 45.87 45.37 44.64 44.52 44.36 43.87 44.06 44.15 44.18 44.39 42.81 34.80 43.74 45.58 44.72 35.07 29.57 39.93 40.10 42.67 43.36 42.86 41.65 41.07 40.95 39.84 36.42 36.21 39.87 42.60 39.34 35.02 33.21 38.79 41.14 42.00 41.01 38.75 41.07 42.54 42.53 41.17 41.01 40.14 39.71 39.87 38.36
43.59 44.04 45.24 45.44 45.40 45.62 45.71 45.45 44.79 44.59 44.23 44.03 44.08 44.16 44.28 44.38 44.20 36.93 36.98 43.54 44.77 45.39 34.77 30.57 31.38 40.09 42.61 42.78 42.20 41.56 42.22 40.01 38.09 37.11 36.69 37.63 39.72 40.37 37.26 32.33 37.04 37.33 39.33 39.93 39.57 40.09 40.63 38.74 36.08 37.25 37.54 38.11 38.23 34.96
44.12 44.69 44.53 44.74 44.96 44.94 45.15 45.30 44.78 44.68 44.47 44.39 44.37 44.45 44.59 44.57 43.23 39.57 44.49 45.85 45.98 39.42 37.31 30.30 31.98 36.91 42.10 37.43 37.25 41.48 38.04 39.04 38.06 37.47 37.87 37.75 39.63 39.35 32.86 34.40 34.94 33.93 37.57 36.35 36.38 38.89 37.30 37.63 36.59 35.26 35.70 35.45 31.89 29.87
44.55 44.22 44.60 44.63 45.05 45.26 44.95 45.28 44.98 44.94 44.80 44.68 44.86 45.28 43.48 39.94 37.61 40.45 45.65 44.84 46.39 40.11 31.95 34.04 31.14 30.95 42.13 38.93 39.51 39.94 39.96 33.30 38.87 36.64 36.97 37.57 37.53 30.86 27.88 29.27 29.07 30.40 31.29 31.80 34.55 37.02 36.02 33.87 33.13 32.05 31.28 30.74 28.95 26.91
43.80 43.73 44.09 44.48 44.92 44.78 45.11 45.39 45.32 45.44 45.22 44.90 40.39 35.81 32.76 38.70 45.24 43.33 39.93 35.22 36.64 37.58 38.47 34.03 38.27 33.83 38.91 38.94 37.49 36.78 38.47 34.74 30.14 34.39 39.73 34.74 27.05 29.45 30.20 29.51 29.37 29.73 30.66 30.28 29.70 28.51 29.42 29.70 29.77 27.64 26.65 26.94 26.15 24.59
43.58 44.12 44.56 44.90 44.97 45.27 45.38 45.55 45.83 45.40 44.22 40.69 36.82 35.81 41.78 44.71 40.80 36.71 32.58 32.75 34.15 32.43 36.36 37.06 38.05 35.39 41.13 35.41 34.48 38.45 33.87 35.65 29.13 32.97 32.81 31.51 25.25 26.06 29.02 27.84 28.37 28.22 28.40 28.50 28.72 28.02 27.50 27.40 27.30 25.46 23.87 23.60 23.09 22.55
43.20 44.17 45.35 45.20 45.18 45.38 45.30 44.43 44.19 43.76 42.76 41.25 40.43 41.60 41.90 37.54 34.42 32.19 31.58 33.15 32.60 30.88 36.90 36.23 37.31 38.58 39.29 41.61 36.39 37.24 32.92 34.52 27.44 35.69 31.98 25.17 23.92 26.27 26.31 25.58 25.94 26.43 25.93 25.66 26.56 25.35 25.48 25.34 24.91 23.51 22.21 21.08 21.01 20.85
42.45 45.05 45.43 45.34 45.25 44.86 44.52 44.70 44.94 43.93 43.81 42.91 38.84 34.75 35.21 33.83 29.82 29.01 25.98 29.18 30.60 34.48 35.71 36.61 34.34 37.46 37.94 38.59 35.97 33.87 30.79 29.75 36.72 30.70 25.02 23.24 24.71 26.03 26.11 25.45 24.63 25.61 24.72 23.78 22.58 22.65 22.17 21.45 22.04 21.13 19.99 20.46 20.39 19.24
42.07 42.18 42.77 43.48 43.27 44.20 44.27 44.50 44.24 43.30 42.18 35.18 32.46 24.92 29.55 26.61 26.90 27.13 28.16 29.22 31.68 33.26 35.10 36.96 34.03 34.06 34.36 32.87 33.92 29.59 31.10 32.49 28.09 26.29 21.37 22.79 23.45 24.10 24.72 24.25 22.90 21.79 21.88 21.11 20.59 20.48 19.70 19.32 18.60 18.98 19.07 19.29 17.86 16.58
41.05 41.09 40.42 39.29 40.50 39.92 40.26 41.54 41.92 41.52 36.00 29.40 30.50 23.63 23.69 26.86 28.20 29.20 31.38 31.59 31.73 34.30 35.07 33.65 34.34 35.30 32.64 29.84 31.45 29.57 26.25 26.29 23.39 20.13 22.25 23.17 23.60 23.25 22.51 22.12 21.25 20.83 20.73 20.50 20.29 19.41 18.80 18.40 17.99 18.08 19.06 18.93 18.40 17.63
41.82 41.07 37.23 39.27 39.49 38.93 40.01 40.45 39.44 37.85 32.76 27.82 27.45 25.39 28.97 28.00 27.76 28.97 30.76 29.65 32.58 33.56 35.48 36.03 32.63 29.50 27.49 29.43 26.72 24.10 25.52 21.24 21.25 22.35 23.44 23.54 22.28 22.28 22.22 22.51 22.25 21.99 21.37 20.98 20.97 20.18 19.38 18.73 18.17 17.75 18.42 18.06 17.58 17.54
44.04 39.00 37.97 38.54 38.72 38.78 39.63 37.91 34.43 29.20 27.41 25.70 24.14 28.75 29.04 27.54 27.03 28.25 29.35 29.28 33.62 32.54 31.25 32.06 27.28 24.02 28.23 25.85 20.45 22.09 20.72 21.68 23.82 24.10 24.41 23.63 22.23 21.76 22.44 22.46 22.53 22.88 22.43 22.36 22.25 21.81 21.36 21.61 21.84 20.28 18.05 18.36 18.16 17.11
41.49 37.91 39.05 39.25 40.20 38.13 35.62 35.50 30.99 27.36 22.84 26.39 24.30 25.67 27.36 28.62 28.42 28.60 30.10 32.16 33.34 31.68 30.72 25.87 29.52 23.59 20.97 20.82 18.76 21.92 22.93 24.33 24.87 23.94 23.35 23.65 23.86 24.05 24.08 22.86 23.36 23.37 22.60 22.38 22.24 22.40 22.39 21.88 19.96 18.40 18.63 18.83 18.53 18.35
41.61 41.09 40.69 39.82 39.62 35.80 31.06 31.35 32.49 22.62 24.36 26.44 27.19 27.86 27.79 27.73 29.06 29.72 30.50 31.27 31.14 32.37 30.01 27.05 21.42 19.57 20.05 22.93 21.32 21.84 22.39 21.99 20.25 20.73 21.02 22.09 22.50 22.00 22.23 22.71 22.84 22.56 22.24 21.85 21.36 20.34 20.03 20.39 20.68 21.04 20.93 20.95 19.38 18.89
40.07 40.06 39.52 39.15 38.78 32.51 27.45 28.18 33.41 26.34 23.64 24.79 27.09 25.25 25.38 25.99 28.32 27.89 27.05 27.50 26.79 24.48 20.30 18.71 19.63 21.85 22.26 24.01 25.08 23.98 23.39 23.46 21.67 19.50 19.83 22.00 23.72 24.00 23.80 22.70 21.72 21.93 21.29 20.98 20.95 21.01 20.07 18.84 18.50 17.77 17.63 17.26 18.33 16.62
39.88 38.37 39.53 40.01 35.52 34.14 30.71 28.16 26.01 26.15 26.18 24.42 26.83 25.87 24.32 25.81 24.03 23.82 23.09 25.23 21.67 19.95 18.08 21.08 22.18 23.90 25.27 25.60 26.35 25.80 25.40 24.70 23.98 23.09 21.15 19.97 22.12 22.42 21.89 22.34 23.05 23.00 21.85 21.03 19.81 18.26 17.88 17.51 17.62 18.09 17.84 16.72 16.50 15.42
39.49 38.98 39.26 38.41 32.84 31.38 28.71 30.18 27.15 28.65 26.20 25.67 25.42 26.43 23.61 21.94 21.30 21.27 23.35 19.24 18.39 19.80 22.92 22.16 22.63 22.40 21.79 22.07 23.03 24.11 24.08 23.74 23.38 22.76 22.41 23.12 21.37 21.16 20.81 21.56 21.03 19.38 19.12 19.25 19.06 17.84 17.22 16.68 15.28 17.26 16.80 16.01 15.35 13.35
38.36 39.58 37.55 35.41 30.12 28.64 26.01 32.04 27.16 28.13 22.58 22.36 25.42 22.22 21.87 21.19 22.53 25.75 18.51 19.25 19.47 22.80 22.68 21.84 21.79 22.49 21.27 22.46 23.05 23.40 24.31 23.31 21.71 21.62 21.83 21.31 21.19 21.46 20.40 20.07 20.31 18.64 17.20 16.80 18.17 17.50 14.81 9.07 13.36 15.17 15.21 15.53 15.56 13.83
36.06 31.14 30.25 29.14 28.29 24.13 29.95 26.56 29.05 26.74 26.16 23.57 21.22 18.73 20.76 21.71 24.29 19.97 15.46 17.25 21.21 22.83 21.84 22.28 22.53 21.43 22.21 21.89 20.63 21.08 22.37 23.15 21.74 21.67 22.43 20.90 18.72 17.95 18.80 18.04 17.49 17.21 17.11 17.09 16.65 15.95 15.26 14.03 8.00 14.68 13.60 13.36 13.03 11.88
27.55 21.15 27.10 24.43 29.99 26.22 24.36 24.42 24.76 24.70 21.47 22.57 20.70 20.34 21.38 25.39 19.70 17.49 15.56 17.91 20.96 21.67 22.90 24.65 25.30 23.53 20.66 19.80 20.08 20.27 22.89 22.85 20.36 17.80 19.86 20.67 19.01 18.40 17.23 16.97 16.00 15.81 17.49 17.62 15.55 14.74 13.30 13.30 13.43 12.66 12.06 12.10 9.47 10.25
18.84 20.53 23.14 24.78 25.71 25.75 25.55 22.72 23.29 22.36 21.92 20.01 20.26 23.08 25.67 23.03 18.66 15.81 17.81 20.38 20.90 22.33 23.87 24.05 23.26 21.93 21.47 22.00 19.81 18.80 18.81 21.93 21.56 17.02 16.61 18.28 17.92 17.84 16.55 15.63 15.18 13.08 15.69 15.35 14.71 14.12 13.51 12.09 11.70 9.95 10.49 9.04 2.91 6.81
18.66 19.12 21.58 25.73 25.84 26.94 25.62 26.56 26.79 24.17 20.86 19.26 21.74 21.58 21.20 15.39 13.63 15.88 22.17 22.79 21.36 23.06 24.01 24.97 24.70 22.56 19.55 18.26 18.39 18.02 17.84 17.51 17.42 16.29 17.01 16.57 16.32 16.26 15.06 13.40 11.76 11.92 14.86 13.51 13.50 12.36 11.42 11.18 10.91 10.45 10.48 11.29 11.60 10.39
18.89 20.21 15.77 19.49 19.39 21.94 18.50 19.15 18.92 18.44 18.51 21.10 21.46 15.01 14.60 15.14 14.07 19.87 20.25 22.46 22.26 22.15 21.71 21.51 22.21 21.29 19.86 18.60 18.28 17.60 17.17 16.50 16.24 16.70 16.38 15.94 15.68 14.93 13.74 12.14 11.13 10.83 11.33 10.92 10.41 11.26 10.89 10.10 9.44 9.77 9.81 9.35 9.25 10.52
18.42 19.41 16.25 10.70 15.10 14.22 14.03 15.38 15.41 15.72 17.27 20.86 17.78 13.47 12.00 16.15 18.97 18.86 19.96 20.95 21.89 20.35 17.90 16.92 17.08 18.74 18.57 18.99 18.56 18.11 17.63 16.81 14.92 11.17 11.29 13.00 13.57 11.31 13.63 13.20 13.12 12.33 12.21 11.93 9.79 9.03 9.81 8.90 8.46 7.52 7.27 7.59 8.91 9.44
17.09 21.49 14.35 12.13 10.58 9.31 13.15 17.95 15.98 17.57 18.29 17.08 16.29 15.61 15.45 17.12 19.96 22.53 21.88 22.01 20.71 19.36 19.37 19.50 19.72 18.90 16.79 16.02 14.07 13.10 13.90 13.36 12.35 12.52 11.64 10.97 10.67 11.74 12.35 11.62 10.97 11.11 11.08 10.78 10.25 10.40 11.29 9.62 10.64 9.80 7.15 7.79 8.76 8.34
21.66 20.53 15.40 14.08 11.67 14.04 17.24 20.20 21.43 20.85 20.09 18.07 18.36 13.85 11.91 13.46 15.85 18.33 19.16 19.51 18.92 18.44 17.87 16.96 17.02 17.75 16.44 15.83 15.59 14.10 10.82 10.25 8.08 7.95 10.62 11.46 11.25 11.05 9.04 8.77 9.39 9.55 10.29 9.24 8.24 8.27 6.73 5.56 7.09 7.47 7.30 5.98 4.72 3.36
20.32 15.95 13.16 9.53 11.77 17.68 19.36 19.70 18.38 17.14 17.40 16.07 15.36 17.47 17.76 17.07 12.83 14.80 16.16 19.39 19.40 16.73 15.02 18.23 15.78 12.58 13.20 12.73 11.72 11.10 9.43 10.47 9.70 9.35 8.85 9.83 10.18 8.89 9.61 9.34 9.36 9.41 7.91 6.41 7.47 7.40 6.52 5.09 4.72 4.68 4.54 4.25 3.95 2.51
17.45 16.91 16.22 14.46 13.07 14.77 16.60 19.18 17.33 16.58 17.35 15.64 14.64 16.13 15.11 15.89 11.04 13.27 16.90 17.63 18.19 17.83 15.79 14.80 13.71 12.83 12.28 12.21 11.46 10.76 9.22 7.32 4.60 6.49 4.54 3.32 1.04 2.76 4.77 9.39 8.43 8.01 6.65 6.09 6.38 6.49 5.59 4.82 3.78 2.93 2.11 1.68 2.00 2.16

GFSWCAN_sfc_wetblb_063.txt.gz
Wetbulb
41.64 42.97 42.75 42.80 42.87 43.33 43.72 43.91 44.01 44.14 44.21 44.35 44.17 44.15 43.98 44.10 43.83 41.35 38.10 41.95 37.38 32.45 33.46 36.17 35.98 32.74 33.72 34.10 31.11 34.27 32.27 34.97 32.08 25.92 24.14 25.07 23.91 29.07 28.89 33.18 32.43 29.62 28.02 26.90 26.56 23.97 23.66 42.81 41.00 36.75 40.29 43.18 43.24 42.86
41.73 42.19 42.38 42.68 43.18 43.57 44.02 43.83 44.12 44.22 44.15 44.38 44.66 44.35 43.98 43.95 44.20 43.29 36.98 41.91 41.29 34.86 33.27 38.51 38.70 39.00 37.60 36.64 34.74 36.20 32.48 34.24 35.31 31.65 28.78 29.93 25.40 29.42 31.38 27.15 37.26 29.97 34.19 29.68 30.57 29.21 39.83 44.57 43.38 44.51 44.22 42.57 42.48 42.35
41.37 42.29 42.56 43.10 43.39 43.52 43.90 44.14 44.29 44.48 44.57 44.88 45.00 45.27 43.88 43.83 44.19 42.63 37.61 38.19 37.46 34.37 33.40 32.82 32.52 38.34 41.43 39.95 40.92 33.37 36.15 39.57 38.10 38.63 34.08 33.94 29.60 33.23 27.05 29.73 33.90 37.03 39.71 35.14 34.97 38.17 39.63 42.14 43.41 43.89 43.11 41.95 42.11 41.84
42.07 42.48 42.85 42.95 43.14 43.42 44.08 44.21 44.71 45.15 45.34 45.61 45.55 45.10 44.88 43.74 43.97 42.75 37.29 37.94 38.14 36.18 22.94 28.27 39.40 36.86 40.79 40.61 39.99 39.41 38.07 40.16 38.81 38.06 34.46 32.99 31.91 37.63 31.27 34.22 32.56 37.38 36.27 35.81 36.03 39.50 39.89 39.84 40.33 40.59 40.30 41.58 40.17 40.06
42.09 42.32 42.70 42.91 43.57 43.95 44.46 45.08 45.71 45.96 45.93 45.94 44.87 45.09 44.67 43.61 43.55 41.51 38.81 38.52 40.09 34.53 28.31 30.90 36.23 39.13 41.73 40.05 38.79 38.34 37.38 36.61 36.61 34.85 33.35 33.11 36.60 36.50 35.64 35.46 34.01 38.61 32.31 33.70 33.49 38.22 38.75 38.42 40.40 40.26 38.40 38.21 37.54 36.56
42.14 42.56 42.91 43.65 44.08 44.35 44.89 45.68 45.61 45.81 45.53 45.00 44.76 44.75 43.84 43.81 43.83 37.77 32.81 38.33 40.66 39.45 31.33 23.51 35.80 37.09 39.62 39.29 39.11 37.38 36.97 36.39 37.45 35.17 34.94 37.43 40.48 36.60 28.51 28.94 36.28 37.09 37.24 36.20 33.13 40.47 37.80 36.46 36.81 38.44 37.58 34.07 33.10 31.43
42.39 42.77 43.51 43.91 44.59 45.51 45.55 45.44 45.68 45.34 44.92 44.70 44.69 44.00 44.02 43.69 40.16 33.28 31.56 38.55 42.32 41.59 33.93 28.84 29.61 37.91 38.68 39.22 39.02 37.83 39.09 37.89 38.47 36.61 34.42 35.36 35.43 38.83 29.07 27.10 30.93 33.96 36.17 35.15 37.29 38.44 34.16 34.62 32.48 35.49 35.44 33.30 31.44 28.86
42.72 43.12 43.47 44.48 44.79 45.12 45.17 45.26 45.16 44.87 44.55 44.53 43.83 43.76 43.65 43.69 41.42 36.29 38.78 44.73 43.12 36.32 36.52 28.56 28.11 32.15 40.89 36.43 35.69 40.59 37.16 37.64 36.83 36.11 36.37 35.70 36.73 35.36 29.62 29.32 30.17 31.16 33.35 31.83 33.82 35.91 34.62 33.74 31.54 30.70 32.49 30.88 27.11 25.23
43.78 44.31 44.50 44.63 44.74 44.84 45.22 45.40 44.95 44.60 44.38 44.00 43.73 43.73 40.94 38.30 36.04 35.49 44.63 44.90 43.90 36.43 29.00 30.00 25.10 27.95 39.38 37.04 37.65 37.09 38.63 31.17 37.94 32.93 33.71 34.04 28.20 25.04 27.06 27.06 27.12 28.52 28.07 28.23 32.45 31.43 31.76 29.21 27.50 27.05 26.85 26.29 24.40 23.70
44.02 43.65 44.06 44.31 44.71 44.83 45.21 45.02 44.63 44.40 44.30 43.93 40.58 34.60 30.62 35.99 44.35 43.77 39.20 35.17 34.64 35.71 35.27 28.99 33.42 28.42 36.64 34.79 32.68 33.31 34.33 31.92 28.00 30.33 34.78 31.43 24.51 28.53 28.02 27.52 26.91 27.27 28.13 28.38 26.43 24.88 26.80 25.78 23.96 23.28 23.42 23.78 23.57 21.76
43.39 44.11 43.99 44.42 44.79 45.06 45.17 44.86 44.66 44.46 43.62 39.82 34.36 32.81 40.96 44.39 39.30 35.81 30.61 30.34 30.66 28.71 31.90 32.10 32.00 30.53 38.45 31.43 31.47 33.45 29.48 29.54 25.50 29.18 29.01 28.04 23.17 24.98 26.12 25.20 26.15 26.44 27.15 27.57 27.10 26.38 25.51 24.71 23.13 21.52 20.87 20.47 19.83 19.43
43.66 44.85 45.12 44.97 44.81 45.37 45.23 44.87 44.46 42.26 41.08 40.29 40.12 41.91 40.51 35.99 32.48 30.72 27.89 30.18 28.42 27.10 30.90 29.56 31.24 35.83 36.40 39.34 33.17 34.01 30.32 30.47 25.80 31.92 28.67 18.14 22.58 24.44 24.21 24.07 24.51 24.68 24.31 23.25 24.00 22.60 23.00 22.52 21.66 20.69 19.68 18.80 18.59 18.42
45.17 45.35 45.54 45.48 45.43 45.78 45.21 44.10 44.59 44.37 43.64 41.83 37.95 34.81 34.20 32.09 27.70 26.63 21.36 23.75 24.05 30.90 32.69 33.47 32.81 34.09 34.47 34.94 31.17 31.86 28.37 26.21 32.70 28.32 20.03 20.16 23.39 24.16 23.35 23.07 22.54 23.40 22.45 21.44 20.26 20.20 19.42 18.91 19.54 18.19 16.40 15.40 15.06 14.09
43.72 44.18 44.98 44.68 44.20 43.92 43.84 44.81 44.47 44.09 40.36 33.85 29.81 21.09 26.85 25.12 24.95 24.68 26.50 27.85 30.83 32.28 32.89 32.72 31.48 32.06 32.45 30.54 30.67 26.71 27.85 26.57 25.44 20.25 14.03 19.04 20.89 21.41 21.54 21.58 20.00 18.50 18.68 17.46 17.04 17.10 15.91 15.33 14.64 14.61 12.85 10.43 12.19 12.51
41.47 41.44 41.88 42.14 43.59 42.95 42.88 42.88 42.29 38.52 32.69 27.69 27.25 21.35 21.32 25.46 25.41 27.82 30.05 29.83 31.06 32.98 32.92 30.10 27.57 28.40 26.30 27.13 28.97 26.60 21.60 21.35 18.90 12.27 16.38 19.03 19.36 18.72 17.50 18.47 17.37 17.88 16.78 15.91 15.81 15.00 12.60 11.11 13.44 13.99 12.04 11.66 12.38 12.23
41.24 39.55 38.17 39.73 39.85 40.06 41.54 40.16 37.63 35.66 29.89 25.47 25.32 24.53 27.14 23.56 25.16 27.11 28.97 27.79 31.25 31.88 33.26 32.36 27.74 27.04 25.92 27.42 22.17 18.53 19.63 12.93 13.68 14.77 18.96 20.15 18.58 18.89 18.70 18.81 18.64 18.97 18.05 17.65 17.28 16.42 14.46 12.03 12.76 13.00 12.61 13.48 12.12 11.35
42.17 36.53 38.52 40.28 40.10 40.43 40.77 34.98 30.65 27.95 26.19 21.97 19.73 23.62 23.51 19.33 19.20 25.65 27.77 28.71 32.42 30.40 29.33 27.60 20.71 22.07 25.13 19.99 16.76 18.66 12.03 16.12 18.90 19.85 20.33 20.06 18.87 18.68 19.02 20.03 19.87 20.36 20.31 19.59 19.11 18.23 17.49 17.46 17.25 17.00 14.40 14.56 15.66 14.72
34.87 37.44 39.07 39.45 39.81 37.64 34.50 33.04 27.48 24.95 21.50 25.00 19.60 18.04 19.51 25.31 23.60 24.00 27.66 28.46 29.49 29.11 27.59 22.56 26.82 17.77 12.32 14.03 11.17 17.20 18.37 20.16 20.91 20.35 20.72 20.96 21.91 22.12 22.23 21.32 21.51 21.58 21.24 20.95 21.35 21.42 20.59 19.02 17.97 16.25 16.89 17.15 16.44 16.17
36.40 37.47 39.56 40.57 39.44 34.60 29.45 29.01 28.97 21.31 22.53 22.43 23.93 24.64 24.27 24.37 26.03 26.58 27.11 27.53 27.30 26.61 25.61 21.73 14.75 13.16 13.35 17.44 16.65 17.67 18.67 18.67 16.95 18.27 19.50 20.98 21.66 21.65 21.69 22.21 22.21 21.65 21.52 21.36 20.14 17.84 16.99 16.88 15.85 15.77 16.89 18.53 15.16 15.49
41.49 40.75 39.36 39.35 39.44 30.85 26.64 25.68 30.10 24.32 21.61 22.48 24.86 21.65 22.28 24.86 24.83 21.83 22.52 24.05 24.17 22.06 18.19 15.31 14.90 18.27 17.90 20.96 20.71 20.58 20.10 20.52 19.32 17.31 17.73 19.55 21.50 22.43 22.22 21.46 20.01 19.15 18.24 18.72 17.60 17.34 17.12 15.36 15.00 14.41 14.03 13.78 12.72 8.37
38.80 37.42 39.29 38.61 34.41 32.91 29.03 25.65 24.45 24.62 25.22 23.31 24.95 22.55 21.38 22.45 19.32 17.57 17.48 22.83 19.72 17.99 15.02 18.65 17.94 21.47 23.75 24.15 24.76 24.19 23.03 23.08 21.18 20.90 19.13 17.70 18.81 19.86 19.71 20.18 20.81 20.33 18.12 15.40 12.41 11.04 11.29 10.59 10.73 13.22 6.80 0.04 -0.93 -0.15
36.88 39.31 36.16 36.31 30.45 29.65 27.01 27.74 25.09 26.84 24.96 24.25 24.36 25.17 20.00 15.49 14.06 16.68 20.90 16.80 15.91 18.05 19.95 19.60 20.95 21.12 21.15 21.60 22.28 22.69 22.28 21.88 21.30 20.88 20.51 20.33 18.67 17.13 15.84 15.91 14.79 9.42 10.09 8.74 12.94 8.91 7.01 9.01 10.33 11.49 5.78 0.31 4.51 1.92
38.98 38.57 34.10 32.20 27.81 26.40 24.34 29.17 25.30 25.59 19.57 20.76 23.91 20.19 17.90 15.73 18.82 22.82 14.09 17.48 17.56 21.25 21.14 20.97 21.44 22.15 20.74 21.68 22.08 22.46 22.72 21.37 18.35 17.12 15.60 14.99 14.84 12.17 13.81 13.87 13.38 9.23 9.53 9.81 13.13 10.03 3.25 4.71 4.25 0.16 3.77 5.78 7.74 1.95
35.27 29.63 26.79 24.90 24.26 20.45 27.85 25.37 26.51 24.92 23.01 20.98 17.90 16.52 18.42 16.83 21.50 16.82 13.22 16.31 16.74 20.21 19.91 19.57 20.91 20.09 20.16 19.71 17.73 18.03 18.61 18.74 16.77 14.47 15.59 15.39 13.10 12.74 13.51 12.25 11.05 9.67 9.07 11.46 9.83 5.01 3.44 -2.23 -0.58 8.21 -2.60 -2.16 1.00 -5.89
22.41 19.07 22.10 18.63 25.37 19.99 19.16 20.94 22.32 22.37 16.01 17.71 17.21 15.26 15.62 22.58 13.48 11.22 10.75 13.69 17.96 19.53 18.50 21.07 22.59 19.75 15.05 10.75 12.20 14.31 18.63 18.81 14.62 12.32 11.52 15.34 11.45 11.35 11.31 11.48 9.61 10.40 11.07 12.88 5.45 3.41 -2.67 -3.60 -1.47 -4.16 -2.84 -7.34 -4.62 -6.76
14.54 16.72 18.18 20.08 21.65 20.38 20.69 15.38 16.16 16.36 14.40 13.67 13.33 17.86 21.27 16.93 9.61 8.08 14.37 16.17 16.35 14.62 18.25 17.04 16.74 17.91 17.31 17.28 13.55 12.37 12.95 16.93 15.76 9.53 11.43 13.31 12.44 6.46 4.77 8.21 7.60 5.16 7.24 0.15 -1.73 1.97 6.18 0.06 -5.00 -3.09 -5.45 0.24 -1.82 -6.41
10.89 13.06 20.47 25.09 24.14 24.99 19.25 21.04 21.71 16.50 12.60 12.27 18.17 14.05 10.36 3.82 4.21 14.24 20.11 17.66 18.46 19.27 19.96 22.07 20.92 16.06 13.88 13.16 13.69 13.27 12.64 12.80 11.79 12.08 11.90 12.16 11.57 10.31 4.93 0.73 0.23 3.21 3.67 3.00 0.16 -5.05 -4.47 -4.31 -3.42 -0.38 -3.77 -4.30 0.27 0.21
16.57 18.41 10.69 17.12 14.53 17.03 10.35 9.90 9.36 9.73 10.18 16.83 15.01 5.04 4.59 4.53 9.20 17.01 18.58 19.50 17.84 16.99 16.27 16.38 17.19 16.46 14.37 12.67 9.83 7.68 6.43 5.92 7.39 9.55 9.88 8.00 5.74 2.40 0.64 -0.75 -0.90 7.99 -0.93 -4.37 -6.06 -5.47 -5.16 -6.31 -6.65 -6.10 -1.76 -2.49 -5.58 -4.67
14.41 15.23 13.32 4.86 8.53 9.18 10.17 9.75 8.74 11.83 14.90 15.41 5.08 3.48 5.56 14.47 16.54 16.66 15.98 17.03 17.29 15.57 12.28 10.73 8.46 10.82 13.06 12.30 11.31 9.65 7.10 6.01 2.37 -2.67 -3.85 2.87 0.59 0.47 -0.15 -1.36 1.70 -2.34 -4.42 -0.20 5.09 1.33 -1.88 -2.62 -6.17 -6.33 -7.76 -8.54 -8.51 -8.47
14.44 16.65 8.98 5.04 2.84 4.33 10.24 15.50 9.83 11.82 12.35 11.24 14.20 14.39 13.31 14.77 18.27 16.48 16.94 18.50 17.34 15.02 11.14 9.72 9.56 7.34 5.00 4.89 0.77 -0.86 1.15 -0.08 -1.42 -2.30 -0.86 -1.75 -0.01 -1.25 -3.41 -4.68 -4.84 -3.60 -3.47 -4.83 -5.81 -3.98 5.34 -1.39 -2.19 -1.18 -2.50 -5.02 -5.39 -9.85
19.35 14.29 9.91 9.42 8.12 13.35 14.98 17.33 17.25 14.85 13.51 11.70 10.82 8.64 6.64 9.59 11.27 15.81 15.90 12.00 8.81 8.58 10.38 8.12 9.46 7.23 5.88 4.44 1.98 1.82 -4.47 -4.29 -6.50 -4.87 -3.51 -3.94 -4.47 -5.39 -6.91 -6.70 -6.03 -6.57 -2.53 -5.86 -7.99 -7.78 -9.40 -10.61 -11.41 -11.40 -10.37 -10.54 -11.49 -13.50
14.63 8.30 6.21 4.23 9.59 16.28 18.76 10.96 12.05 12.73 12.12 11.13 7.38 5.90 7.38 8.81 4.16 7.89 10.90 13.76 15.99 11.72 12.95 10.24 3.39 -0.12 -1.40 -2.12 -3.05 0.19 -0.89 -2.69 -4.29 -5.92 -6.29 -2.12 -3.75 -7.56 -4.66 -1.64 -4.89 -5.46 -7.62 -8.85 -8.51 -6.84 -8.03 -10.78 -12.50 -13.24 -14.45 -13.58 -13.90 -13.41
11.56 11.56 10.43 7.01 4.91 6.99 12.40 13.63 12.53 13.07 12.76 8.73 8.71 9.71 8.19 6.13 1.29 6.32 11.94 14.98 15.13 10.20 7.66 3.87 0.50 0.06 1.00 0.16 -1.02 -1.01 -2.93 -7.74 -5.38 1.87 -2.12 -3.93 -8.10 -7.74 -10.84 -8.46 -10.70 -10.57 -10.15 -11.02 -11.03 -10.28 -9.42 -10.18 -11.40 -12.41 -13.18 -14.04 -13.32 -14.56

GFSWCAN_sfc_wetblb_069.txt.gz
Wetbulb
40.50 41.30 42.47 43.00 42.65 42.13 41.86 42.41 42.48 42.76 43.14 43.43 43.39 43.61 43.82 43.81 43.70 39.75 36.50 38.26 35.33 30.87 30.58 33.93 33.64 29.01 30.62 29.97 24.04 28.86 28.49 30.01 30.25 24.68 25.79 26.32 23.33 27.34 26.08 27.83 26.44 26.59 24.91 23.54 25.74 23.50 20.22 37.17 39.22 33.17 38.14 41.51 40.70 39.42
40.38 41.77 41.82 42.10 42.36 42.15 42.31 41.94 42.11 43.08 43.59 43.46 43.59 44.11 43.90 44.02 44.07 43.25 36.06 39.58 38.09 33.54 30.74 35.48 35.73 36.01 35.14 34.50 31.43 32.31 31.50 31.22 32.32 30.60 29.87 29.20 24.67 23.10 26.52 22.31 33.88 22.21 31.68 28.12 28.31 27.28 36.29 37.36 36.42 39.89 42.22 41.23 40.89 39.66
40.42 41.30 41.55 41.99 41.89 41.56 41.33 41.56 42.69 43.32 43.85 43.71 43.82 44.18 44.58 44.55 44.34 43.52 38.67 38.97 38.22 33.86 32.18 30.45 30.14 35.53 38.04 37.60 38.47 30.98 33.20 35.32 33.48 36.06 33.10 31.19 26.37 31.78 22.26 25.28 29.84 36.29 38.70 33.39 34.26 36.07 36.14 36.30 36.91 37.00 36.31 36.12 38.47 39.06
40.99 41.39 41.43 41.30 41.18 41.31 41.64 42.32 43.17 43.60 43.82 44.07 44.28 44.84 45.17 45.08 45.12 44.20 37.73 39.50 37.00 34.82 24.33 26.03 35.81 33.14 37.57 37.19 37.58 37.87 35.91 39.07 37.93 37.36 33.66 30.90 27.77 35.01 30.03 32.19 31.84 35.50 35.90 32.17 35.06 36.67 37.56 38.04 37.08 36.05 35.05 33.95 32.64 33.15
40.66 40.83 41.26 41.21 41.41 41.59 42.20 42.84 43.15 43.68 44.06 44.69 45.09 45.47 45.84 45.92 45.99 44.16 38.87 40.24 38.87 31.63 26.81 27.92 32.59 35.32 36.77 36.28 35.46 35.78 36.07 35.12 34.56 32.65 31.68 29.05 32.94 34.19 33.07 34.52 31.20 34.27 30.57 29.40 30.34 35.55 35.44 34.70 36.27 36.29 32.84 31.21 31.27 29.40
40.62 41.07 40.96 40.97 41.17 41.84 42.55 42.95 43.59 44.04 44.58 45.22 45.67 46.43 46.75 46.68 44.63 36.19 31.52 37.39 38.34 35.84 29.41 23.17 30.20 32.28 35.74 35.33 35.36 34.09 34.43 33.16 33.76 33.32 33.09 35.80 38.35 34.70 30.54 27.92 32.34 34.35 35.13 36.43 32.26 34.05 33.53 33.15 32.07 31.66 28.90 28.75 28.36 27.13
40.37 40.45 40.36 40.71 41.42 42.36 42.76 43.24 43.66 44.40 44.97 45.87 46.32 45.20 45.30 42.57 39.24 31.71 27.52 32.07 40.34 37.55 31.63 27.02 25.06 31.46 34.98 34.67 33.03 32.60 33.54 32.87 32.39 32.86 30.84 32.82 33.44 36.31 31.10 26.19 30.19 32.71 34.83 35.47 35.36 34.99 30.88 31.69 28.04 28.52 26.83 26.08 26.11 24.42
39.60 40.06 40.21 41.18 42.08 42.74 43.08 43.37 44.20 45.27 45.54 45.50 45.63 44.40 43.08 42.24 39.77 34.15 40.16 41.88 39.99 32.85 32.92 23.33 23.37 25.56 36.40 30.09 28.71 33.07 31.51 32.94 34.18 33.97 34.44 33.04 34.25 35.30 24.55 27.07 28.20 29.85 31.57 30.73 29.49 30.22 29.15 29.39 28.49 27.45 27.26 25.74 23.23 22.02
40.49 40.61 41.20 41.97 42.05 42.59 43.22 43.68 44.67 45.44 45.26 44.89 44.07 42.86 39.08 34.84 29.95 37.06 43.09 42.11 37.46 31.34 24.20 25.84 19.28 15.02 33.69 35.03 33.73 32.88 34.57 28.81 34.95 30.81 32.38 33.87 28.53 21.18 24.39 24.81 25.20 26.53 26.04 27.21 29.53 28.42 27.78 26.06 25.16 24.91 24.59 23.61 21.86 20.44
40.59 41.15 41.13 41.52 42.37 42.67 43.68 44.17 45.37 44.97 44.47 42.64 38.76 33.06 27.10 31.15 42.17 42.14 37.91 33.21 32.13 32.01 33.54 29.33 31.62 26.98 32.06 31.87 31.87 32.47 32.74 29.52 28.20 30.79 35.15 26.53 18.17 24.32 24.93 25.51 26.02 26.36 25.79 27.56 26.96 25.19 24.94 23.70 23.16 22.67 21.52 21.86 22.06 21.37
40.50 41.22 41.51 42.11 44.00 44.15 44.75 44.94 44.45 43.87 41.87 34.28 30.85 31.14 32.31 41.94 35.09 32.32 27.25 27.05 29.28 28.50 30.05 30.65 30.65 29.36 35.85 30.13 31.08 32.54 29.11 31.20 25.59 27.24 29.92 24.30 19.78 21.15 23.95 23.44 23.89 24.26 23.86 23.44 23.09 22.93 23.04 22.70 21.36 20.30 19.98 20.02 19.23 18.04
42.10 43.62 44.28 44.30 44.73 44.85 44.30 44.04 42.92 38.48 35.44 34.65 37.72 37.58 35.26 33.49 30.83 26.34 25.52 28.21 27.84 24.52 27.60 28.56 29.69 31.18 32.39 38.52 32.21 32.53 27.95 27.78 25.33 32.52 26.23 16.20 18.60 22.20 21.97 21.60 21.62 21.55 21.27 21.22 22.50 21.48 21.32 20.60 19.54 18.57 17.69 16.47 15.29 14.33
43.08 43.62 44.23 44.36 44.85 44.27 43.84 42.70 42.13 42.80 42.44 40.03 35.92 32.50 30.97 28.88 24.81 23.33 20.71 24.64 25.17 27.07 32.64 33.31 31.61 29.39 33.31 35.79 30.92 30.53 28.09 21.24 32.58 20.98 15.69 17.07 21.04 21.99 21.51 20.95 20.08 20.31 19.68 18.72 17.89 17.67 16.93 15.75 15.96 14.93 13.13 11.84 11.92 9.81
43.47 43.44 44.91 44.79 44.07 43.40 42.60 43.08 44.03 43.08 39.37 32.82 27.65 24.81 24.36 19.20 18.15 15.99 15.69 21.98 30.37 31.82 32.20 31.78 29.97 27.34 30.47 29.30 29.03 25.20 24.57 26.44 18.72 10.51 11.99 15.05 20.02 20.42 20.23 19.62 16.95 14.38 15.32 14.80 13.76 14.06 13.25 11.83 10.63 11.17 11.03 10.28 9.79 7.98
45.04 44.53 44.60 43.96 43.48 42.82 43.86 43.83 41.37 36.79 32.21 25.82 23.27 12.77 13.44 16.89 19.94 21.00 27.92 29.60 30.59 32.56 32.20 30.52 27.68 25.12 28.03 25.81 23.82 25.40 19.91 11.11 12.07 8.90 8.15 14.54 16.86 15.34 12.86 12.89 11.13 11.45 11.76 11.76 11.88 11.66 11.52 11.85 11.43 11.20 11.91 11.86 11.75 10.49
44.82 44.18 42.65 43.49 43.01 43.75 41.29 39.15 36.74 33.27 28.16 25.14 21.97 19.98 22.09 21.84 20.03 25.29 26.79 27.39 30.98 31.08 31.57 29.08 20.23 18.62 22.65 19.21 20.49 11.04 13.86 8.08 4.78 3.78 11.30 15.08 10.29 7.97 10.60 13.80 13.25 13.05 13.16 14.20 14.19 13.98 13.80 13.29 12.89 12.10 12.97 10.41 8.47 9.09
39.79 40.10 42.97 42.43 40.82 40.43 39.50 34.07 32.61 28.25 23.53 21.62 18.07 17.17 16.31 16.45 16.63 23.93 25.74 26.16 30.39 30.84 22.44 26.06 13.66 22.50 22.04 12.60 11.46 10.86 3.02 2.44 4.11 8.78 13.25 9.42 10.99 11.55 12.77 16.35 15.84 16.32 16.14 16.14 16.11 16.61 15.75 15.92 15.49 14.27 12.07 12.82 13.74 12.26
38.17 40.51 40.81 40.06 38.57 37.33 33.19 31.73 28.26 25.69 19.80 17.69 16.28 16.06 12.60 16.19 12.65 13.15 23.40 25.95 27.11 27.20 21.64 21.20 21.03 10.87 3.23 7.77 5.95 4.44 9.69 8.21 8.12 12.20 12.68 13.99 13.48 15.58 17.86 17.21 17.27 18.09 18.10 18.32 18.37 17.83 16.90 16.20 16.69 15.45 15.08 15.07 13.78 13.47
38.59 39.36 40.86 40.94 37.59 32.39 29.19 27.81 27.50 19.46 17.93 15.62 17.71 18.47 17.02 11.93 15.31 17.84 22.84 25.65 24.21 24.59 22.89 18.13 10.54 7.03 4.68 5.03 1.97 -0.01 3.25 7.37 14.49 13.07 16.69 17.80 18.94 18.93 19.88 20.52 20.74 20.60 19.77 19.66 19.38 17.28 16.25 15.94 14.85 14.78 15.49 15.67 12.47 12.17
40.70 40.50 41.16 40.28 37.43 30.10 26.37 25.52 27.82 21.83 14.32 17.76 17.61 16.72 15.91 15.55 17.52 15.77 20.39 22.62 22.93 20.90 14.64 9.28 5.38 9.26 8.44 12.48 7.99 9.96 12.45 17.60 18.11 16.13 16.11 18.47 19.25 19.01 17.80 19.37 18.56 18.68 17.47 16.40 14.82 13.58 13.55 12.41 12.58 13.19 13.78 13.05 10.87 9.61
38.31 37.80 38.65 35.72 30.28 28.98 25.73 24.15 22.68 22.26 22.59 16.16 17.73 17.16 13.55 18.93 16.02 14.92 16.29 20.96 16.88 14.99 9.82 10.35 12.36 17.20 14.62 15.95 18.31 18.73 15.07 16.49 12.87 14.94 15.55 15.54 15.63 17.52 17.73 17.36 18.62 17.07 12.51 8.43 8.20 7.12 8.06 7.80 8.82 8.95 2.42 -3.83 -6.72 -4.54
36.40 38.80 34.38 34.47 29.49 27.76 25.92 25.02 22.59 23.44 22.42 22.31 21.72 21.44 14.73 9.58 9.14 12.72 18.22 14.35 13.20 11.43 13.08 14.52 16.68 19.47 18.64 17.35 15.56 18.42 17.60 18.76 17.13 16.66 16.46 16.39 15.65 14.73 13.33 9.85 12.88 8.41 8.21 5.28 7.65 4.05 4.48 8.89 6.71 3.28 -5.09 -8.89 -4.20 -3.73
38.53 36.56 31.77 29.69 22.33 17.79 18.29 26.55 18.56 22.12 14.76 18.54 19.53 15.43 11.75 11.94 14.95 21.11 11.79 13.50 11.30 15.00 15.65 19.52 19.81 20.67 19.02 20.14 20.28 20.10 20.02 18.69 15.38 13.40 12.59 11.86 9.86 4.28 8.26 6.91 5.40 6.23 6.10 7.40 8.93 4.57 0.75 0.70 -2.57 -7.47 -8.35 -6.54 -8.00 -8.38
33.23 28.18 23.48 20.25 19.13 16.99 20.45 17.95 23.83 22.28 20.85 18.36 14.85 12.34 12.49 12.98 17.60 9.50 6.88 9.90 11.61 18.06 19.22 19.02 18.46 17.17 17.51 17.16 14.27 14.54 15.98 15.15 12.22 9.49 12.39 11.84 9.48 8.06 9.01 8.48 8.00 6.77 6.50 8.21 4.89 -2.02 -4.32 -9.81 -7.26 -6.54 -12.70 -13.43 -13.79 -9.62
24.00 19.23 21.01 15.86 20.10 12.35 10.81 11.98 15.05 16.29 11.87 11.70 9.19 7.39 11.06 14.94 4.65 2.09 4.69 7.31 11.26 11.78 15.17 16.03 15.11 14.59 8.61 3.79 7.45 10.72 14.11 14.85 12.07 9.50 5.74 10.85 8.43 8.12 6.80 6.83 4.57 5.65 5.20 -0.75 -3.64 -9.08 -10.36 -15.78 -14.88 -13.25 -11.61 -16.51 -11.39 -12.90
12.94 15.09 16.50 17.54 17.66 15.12 15.51 7.74 5.83 6.74 6.25 5.61 5.87 12.28 13.33 3.77 0.46 0.48 8.96 5.20 9.31 7.47 9.98 10.79 10.57 10.92 11.35 12.79 10.00 9.82 10.14 13.52 12.26 6.33 8.63 10.09 7.95 3.25 -0.13 -1.36 -2.24 -0.58 -0.24 -9.26 -9.44 -9.44 -7.26 -11.43 -12.52 -11.43 -12.52 -10.53 -12.34 -15.96
8.57 9.14 19.01 19.99 19.06 20.06 12.31 10.18 13.95 9.56 3.90 5.21 7.71 5.96 1.84 -4.21 -3.27 7.37 14.02 8.95 11.66 6.46 13.14 14.46 14.57 12.28 10.40 9.16 10.15 9.44 9.74 9.54 8.80 8.48 7.25 6.65 5.89 4.76 1.47 -2.16 -1.15 -0.32 -4.21 -9.10 -12.34 -11.61 -10.71 -10.89 -10.71 -11.61 -12.34 -10.34 -10.89 -13.43
12.18 12.21 9.19 6.28 6.92 9.23 -0.66 -0.98 -1.83 -0.19 4.09 13.05 10.24 -2.08 -3.42 -1.04 3.04 8.83 8.94 10.00 12.71 13.72 12.49 11.93 12.12 11.03 8.70 6.52 4.33 5.87 3.44 5.12 4.96 4.75 4.54 4.25 1.08 -3.32 -7.09 -7.63 -6.36 2.16 -10.73 -15.24 -14.33 -17.78 -15.96 -15.96 -15.96 -16.87 -17.42 -15.42 -15.24 -18.50
6.79 7.89 9.11 -1.04 0.48 2.67 4.78 -0.37 0.71 8.82 12.33 6.92 -2.67 -3.82 1.96 9.04 7.41 5.90 10.97 11.69 13.01 12.11 8.54 6.35 1.26 2.35 1.76 0.49 -2.61 -4.36 -7.08 0.05 -2.11 -7.63 -10.71 -11.98 -12.70 -3.66 -6.17 -13.43 -13.79 -14.88 -16.87 -10.53 -2.19 -7.63 -6.54 -11.07 -11.98 -14.51 -15.60 -17.05 -13.25 -17.78
7.14 6.43 2.57 -4.05 -3.68 -0.19 -0.41 1.54 -0.24 2.73 10.00 6.03 9.53 10.68 8.28 8.94 12.31 14.22 11.04 9.54 8.40 4.48 -1.47 4.95 -1.84 1.94 -4.01 -2.29 -8.89 -4.76 -9.62 -15.60 -10.54 -3.80 -9.26 -12.52 -7.22 -8.56 -12.52 -13.06 -14.33 -17.05 -20.32 -17.42 -15.60 -12.17 -3.64 -13.25 -9.82 -15.83 -17.46 -18.14 -21.77 -21.95
9.80 2.80 1.36 3.01 1.60 1.20 3.25 2.67 4.49 5.72 -0.93 -0.21 1.88 3.00 1.71 7.04 11.32 12.57 10.04 2.32 6.21 6.03 4.13 -3.11 -8.17 -11.80 -4.86 -11.90 -14.56 -12.89 -10.01 -10.35 -17.42 -14.51 -10.35 -11.25 -17.60 -17.60 -18.14 -18.50 -18.14 -21.22 -21.40 -20.13 -19.95 -19.77 -18.50 -20.13 -23.58 -22.13 -20.68 -19.23 -19.77 -23.04
-1.38 -5.46 -0.49 -0.77 2.29 2.73 -1.29 -1.99 0.38 0.45 -0.02 0.98 1.42 -4.01 -1.67 -0.69 -2.56 3.08 8.43 6.32 2.83 -1.12 -7.44 -4.55 -0.58 -4.91 -13.25 -16.15 -17.42 -16.88 -8.44 -10.16 -14.70 -14.15 -13.43 -17.05 -18.50 -20.13 -19.05 -18.14 -21.95 -21.40 -20.50 -21.40 -22.67 -22.31 -20.86 -20.13 -21.40 -21.22 -21.77 -21.40 -21.95 -20.68
-3.54 -6.24 -4.62 0.75 2.41 1.60 4.90 3.65 3.40 2.35 1.67 2.54 2.41 0.62 -5.99 -4.06 -2.68 0.30 6.12 5.76 3.13 2.29 -1.28 -8.90 -9.80 -8.89 -11.47 -8.20 -7.27 -14.51 -14.35 -17.42 -16.51 -3.09 -8.89 -10.34 -14.70 -14.88 -22.31 -24.67 -24.85 -24.12 -21.43 -22.31 -23.94 -23.22 -21.04 -19.77 -20.50 -21.95 -23.04 -24.49 -23.22 -22.67

GFSWCAN_sfc_wetblb_072.txt.gz
Wetbulb
41.63 40.75 40.38 40.94 41.89 42.22 42.70 42.81 42.31 42.24 42.42 42.59 42.74 43.04 43.06 43.31 43.46 39.23 36.35 36.84 32.94 29.29 29.94 32.10 32.34 28.33 27.78 27.84 18.71 24.72 25.79 28.42 27.57 26.10 26.07 25.99 22.11 25.96 25.73 27.35 26.17 25.66 24.14 23.72 26.42 23.65 19.86 35.41 36.55 30.47 35.84 38.21 36.88 36.33
41.43 40.80 41.14 41.93 42.02 42.23 42.91 42.06 42.09 42.42 42.35 42.73 42.88 43.19 43.35 43.62 43.78 42.70 36.27 39.43 36.93 32.65 28.21 34.53 34.89 35.33 34.18 32.71 28.65 28.78 26.96 30.38 31.19 27.61 28.25 29.48 26.18 25.35 26.43 22.12 32.21 21.94 28.51 27.51 28.47 27.00 35.26 35.80 34.44 36.23 41.02 39.75 37.27 35.86
40.63 40.20 41.08 41.08 41.57 42.24 41.80 41.80 42.20 41.83 41.87 42.18 42.72 43.40 43.78 44.09 44.17 42.85 39.31 38.81 37.42 33.28 31.36 29.13 28.90 33.84 37.19 36.74 35.70 27.92 30.29 35.46 32.96 35.61 31.85 31.01 26.29 30.85 25.67 24.69 30.38 33.35 37.27 32.04 32.57 34.86 34.64 35.42 35.22 34.70 34.48 33.99 36.63 35.48
40.72 40.80 40.59 41.15 41.48 41.57 41.67 41.65 41.20 41.36 41.78 42.46 43.04 43.31 43.65 44.08 44.56 44.26 39.55 39.39 37.27 33.45 23.89 25.69 34.61 31.74 36.43 36.09 36.06 36.39 34.49 37.42 37.08 36.71 32.60 30.85 26.36 34.42 28.30 31.02 30.07 33.87 34.64 31.02 33.54 35.69 36.58 36.45 36.08 35.08 32.92 32.13 31.42 31.42
40.14 40.54 40.97 40.61 41.41 41.47 41.35 41.09 41.53 41.79 42.49 42.78 43.15 43.63 44.04 44.32 44.78 43.76 42.13 39.96 39.54 32.91 24.76 27.46 32.03 33.43 35.32 34.62 34.06 34.96 34.70 33.54 32.51 30.25 29.83 28.72 32.92 32.44 33.28 32.84 30.27 33.04 30.59 27.96 29.09 33.58 33.82 31.67 33.16 33.04 30.26 29.68 29.38 27.78
40.25 40.67 40.96 41.09 41.11 41.11 41.36 41.51 41.66 42.11 42.52 43.05 43.91 44.67 45.28 45.63 45.37 35.15 30.79 36.33 40.41 38.41 30.11 23.05 30.02 31.19 33.51 33.63 33.18 32.57 33.81 33.70 32.61 33.84 31.28 33.37 36.69 34.53 29.44 24.98 31.25 33.13 35.13 35.84 32.09 33.34 31.01 30.26 29.63 29.83 27.61 27.08 27.12 26.83
40.65 40.86 40.82 40.74 40.95 40.90 40.84 41.36 42.00 42.38 43.23 43.82 44.46 45.03 45.94 45.93 39.46 33.40 30.59 34.36 40.37 38.75 27.42 20.88 25.41 30.58 34.20 33.84 32.19 32.36 34.12 33.78 32.39 30.00 29.02 28.29 31.15 35.83 30.91 26.11 29.61 32.17 31.59 31.04 32.47 35.00 29.85 28.69 25.72 26.95 25.08 24.29 24.72 23.31
40.41 40.36 40.50 40.69 40.49 40.47 41.02 42.10 42.69 42.94 43.61 44.11 45.31 43.81 42.73 42.16 40.73 37.00 39.52 40.78 39.49 32.37 32.06 23.80 23.63 25.00 34.83 28.64 27.86 32.44 30.64 33.60 33.30 29.24 31.50 31.60 33.63 34.80 25.51 25.89 27.49 28.20 30.98 28.99 28.33 29.52 28.29 27.65 26.43 25.46 25.54 23.63 21.78 20.36
39.74 39.89 40.12 40.58 40.54 40.57 41.34 42.53 42.56 43.19 44.00 45.03 43.46 42.58 38.89 35.11 33.37 37.41 42.26 41.25 35.25 30.23 24.18 24.89 20.57 16.20 33.21 32.97 32.83 34.29 34.37 28.32 30.73 29.77 29.20 31.46 28.24 23.08 23.59 24.31 25.02 25.75 25.22 26.28 27.82 27.31 26.80 25.15 24.36 23.92 23.28 21.73 19.61 18.93
39.27 39.66 40.29 40.79 40.89 41.24 42.08 42.14 42.93 44.48 43.44 42.03 38.73 32.61 27.28 35.35 42.68 41.04 35.91 29.41 26.67 28.57 31.42 27.43 26.05 21.38 31.12 30.70 29.70 29.45 27.50 22.25 25.51 29.02 32.87 27.25 15.74 23.78 24.81 24.87 24.44 24.21 24.13 25.45 27.24 25.28 24.89 23.09 22.35 21.20 20.74 21.60 20.60 19.08
39.47 39.83 40.53 40.87 41.38 41.14 41.46 42.41 43.66 42.86 42.12 35.83 31.30 29.56 32.10 42.64 33.25 29.47 27.33 23.11 20.55 25.86 27.41 28.43 27.54 27.85 33.34 27.57 30.12 32.13 29.05 28.87 24.63 27.54 29.35 20.99 17.47 20.94 23.62 22.66 22.80 22.57 22.80 22.49 22.53 22.11 22.44 22.48 21.31 19.96 19.46 19.20 18.11 16.72
39.72 40.07 40.99 40.81 40.83 41.81 42.45 43.70 43.07 38.66 35.75 35.66 34.72 37.80 37.63 32.83 24.03 24.69 24.61 26.64 27.03 24.08 24.90 28.20 29.88 31.58 31.33 36.60 31.09 31.06 28.43 29.20 25.73 31.78 25.79 13.61 15.49 21.27 21.05 20.30 20.30 20.54 20.60 20.47 21.60 20.73 20.48 19.75 18.91 18.09 16.96 15.11 14.11 13.14
40.19 40.55 41.42 41.56 42.18 43.78 44.37 43.07 42.17 41.67 41.05 37.19 32.40 29.47 28.62 27.94 22.74 19.67 14.73 22.83 24.54 25.50 29.52 32.44 31.12 31.05 32.38 35.09 30.91 30.61 25.87 23.41 31.67 22.12 14.95 13.97 20.13 21.00 20.70 20.32 19.20 19.54 18.94 17.60 16.64 16.32 15.23 14.39 14.61 14.08 11.93 10.89 10.55 8.02
40.85 41.06 42.56 44.37 44.75 44.28 43.09 42.29 42.77 41.98 37.62 31.63 29.31 23.99 25.20 22.15 21.93 22.07 16.50 17.71 27.79 31.47 32.01 31.68 30.16 29.96 29.13 28.65 28.39 23.39 26.01 27.47 17.34 12.73 12.63 15.42 18.98 19.46 19.93 18.68 15.57 12.59 12.78 12.94 12.14 12.18 10.84 10.14 8.84 8.26 5.96 4.30 7.49 7.18
42.84 43.65 44.22 44.39 44.00 42.97 42.15 43.14 40.17 34.77 28.71 25.77 22.51 15.49 19.58 18.99 16.59 16.67 25.05 29.89 30.78 32.54 32.06 29.62 25.95 26.77 27.75 25.56 23.33 25.05 19.85 12.23 13.83 9.46 6.67 14.51 16.76 15.46 13.24 12.96 11.04 8.97 7.19 8.28 8.94 11.36 11.04 11.13 10.64 10.77 11.06 11.04 10.22 7.55
43.13 44.04 42.85 43.51 42.76 42.56 42.46 38.74 35.32 33.12 26.83 22.36 18.22 17.03 19.38 18.17 16.45 19.95 25.02 27.42 30.81 31.29 31.64 25.32 19.36 17.70 19.90 18.06 16.53 8.08 12.47 8.64 5.66 2.49 8.57 13.20 7.78 5.62 7.60 11.16 9.59 10.57 10.34 10.07 11.59 12.42 12.27 11.51 10.85 10.66 10.47 9.74 8.67 8.34
43.67 40.72 42.73 42.57 41.86 41.20 39.78 34.75 33.12 28.06 21.28 17.76 13.07 15.19 13.80 11.98 14.89 22.69 24.82 25.45 29.37 29.78 18.47 18.08 13.34 14.29 21.57 11.50 10.73 9.25 3.55 2.09 0.86 7.17 9.93 6.52 8.67 8.04 11.88 13.24 14.06 15.09 14.41 14.41 14.58 15.30 14.47 14.60 14.72 13.97 11.79 12.79 13.50 11.64
39.75 41.75 42.94 41.18 38.75 36.32 32.80 30.58 28.66 24.63 19.84 18.95 18.69 16.66 11.38 11.55 15.14 13.48 20.77 24.23 26.85 27.63 22.56 21.05 20.17 10.37 3.75 8.63 6.80 4.36 7.90 4.08 7.87 8.29 6.70 5.97 8.57 11.26 15.43 14.42 15.73 16.39 16.56 16.58 16.66 16.48 15.66 15.26 15.20 14.41 14.52 13.96 13.07 12.61
38.88 39.29 40.96 40.61 37.14 32.27 28.75 26.98 27.62 19.99 19.72 20.38 20.20 19.58 18.71 11.68 16.38 19.31 21.74 24.65 24.33 24.16 21.95 17.19 10.21 6.37 3.69 3.56 0.31 -2.36 1.45 5.56 11.73 10.95 12.19 13.77 15.37 16.93 17.52 18.02 17.63 18.23 18.35 18.27 18.01 16.99 16.40 16.22 14.58 13.76 14.10 13.95 10.83 10.96
40.61 40.49 39.74 39.10 37.21 28.77 25.56 24.11 27.26 22.00 15.73 18.82 17.05 13.88 12.96 11.02 13.39 11.95 18.45 22.23 22.28 19.95 14.42 9.04 4.11 6.80 6.84 8.28 5.62 8.48 8.17 16.22 16.61 14.85 14.12 14.87 16.67 18.28 16.62 16.77 16.13 17.10 16.09 15.39 13.17 12.00 12.29 11.32 11.87 12.26 13.02 13.53 11.16 9.41
37.43 37.70 37.85 34.59 30.24 28.71 25.52 23.84 21.69 21.52 21.32 14.97 16.41 15.77 11.72 16.77 14.72 13.58 14.93 20.30 16.32 13.66 10.02 6.25 14.47 15.80 8.50 7.94 13.48 15.94 13.52 16.08 11.24 12.68 14.36 14.87 15.53 17.10 17.38 17.66 16.85 14.94 11.85 7.42 7.24 7.63 8.55 8.27 9.08 8.83 1.80 -4.54 -5.98 -3.99
35.75 38.62 32.38 32.94 28.50 27.07 25.17 24.25 22.06 22.58 21.16 21.14 19.63 19.74 11.23 6.98 7.65 11.41 17.64 12.88 10.41 9.45 10.53 11.31 13.83 16.46 16.78 15.76 13.51 17.30 16.57 17.82 16.31 15.39 15.23 14.95 13.38 11.50 9.01 8.29 10.55 3.53 4.19 3.66 8.23 4.16 3.56 7.32 5.29 2.32 -5.44 -9.24 -5.99 -4.92
38.47 36.39 31.89 29.92 23.13 19.39 17.04 26.15 17.92 21.35 13.64 18.06 17.99 13.58 9.74 8.87 12.19 19.39 8.41 10.99 9.63 12.84 14.40 18.22 18.35 20.44 19.48 18.89 19.03 18.66 18.82 17.63 13.97 12.02 10.56 9.14 7.52 2.69 6.65 6.18 5.40 4.49 3.18 5.81 8.13 3.11 -1.00 -1.99 -3.99 -9.97 -10.88 -9.79 -11.97 -11.42
33.83 28.35 24.87 22.31 19.87 14.40 19.73 15.75 23.27 21.22 19.40 16.46 12.54 9.47 9.79 8.44 14.62 7.65 4.52 7.57 10.13 15.72 18.35 18.58 18.77 17.32 17.74 16.34 13.38 13.08 14.34 13.83 11.24 8.24 10.22 10.79 8.38 6.97 7.58 7.12 5.69 4.24 4.21 6.49 3.62 -4.19 -6.20 -12.69 -9.97 -7.98 -14.68 -15.77 -18.31 -15.59
24.44 19.38 20.30 11.23 15.67 12.40 10.27 8.91 14.61 13.80 8.16 7.92 8.13 5.80 8.97 12.67 2.90 0.32 3.96 5.69 9.27 11.10 13.60 14.10 14.79 13.50 7.80 4.71 7.33 9.05 13.24 14.52 11.74 8.86 4.51 9.40 6.79 6.06 5.23 5.64 3.18 4.12 2.56 -4.36 -7.07 -9.43 -11.60 -18.49 -17.77 -15.59 -13.96 -17.77 -11.79 -12.17
14.48 15.01 11.97 13.28 15.77 12.07 13.02 6.48 5.36 5.36 4.67 4.04 4.39 11.92 9.49 2.53 -0.03 -0.35 7.25 5.10 9.70 6.77 6.00 7.74 8.03 9.34 10.41 11.75 9.34 8.76 9.30 12.64 11.46 5.75 7.46 8.78 6.75 1.77 -2.58 -3.32 -2.61 -1.38 -1.86 -10.33 -11.24 -13.23 -9.24 -9.97 -10.88 -9.61 -11.96 -11.24 -13.41 -17.58
8.96 8.64 17.38 18.14 17.66 17.33 7.57 7.28 12.25 7.30 2.62 3.93 7.48 3.97 0.58 -2.35 -2.90 5.93 9.84 7.02 7.91 3.60 10.38 11.14 13.38 12.39 11.05 9.44 9.54 8.37 8.13 8.21 7.69 6.84 5.41 5.30 4.36 3.57 0.03 -3.60 -2.39 -0.40 -5.28 -10.18 -13.96 -12.69 -11.24 -11.78 -12.51 -13.60 -14.14 -15.77 -15.77 -15.05
11.32 11.79 7.75 6.23 8.03 9.29 -1.03 -3.10 -3.26 -1.81 2.51 12.42 8.90 -3.52 -1.63 -0.46 1.91 6.49 8.50 9.76 9.46 12.03 10.44 9.38 9.73 9.86 7.87 5.55 4.33 4.23 2.09 2.89 2.92 2.88 3.00 3.18 -0.17 -5.26 -8.70 -9.43 -0.91 0.18 -13.43 -17.58 -17.40 -19.76 -17.22 -16.86 -16.86 -18.31 -19.76 -17.77 -16.32 -20.85
6.20 7.45 9.19 0.99 4.27 4.04 3.19 -2.18 -1.10 7.94 11.30 5.98 -2.18 -3.08 1.41 7.41 5.65 4.95 11.30 11.52 10.74 11.16 7.10 4.01 -1.99 -2.02 -0.54 -1.60 -4.72 -5.62 -4.89 -2.81 -3.68 -7.61 -11.24 -12.69 -14.50 -6.19 -11.96 -16.32 -16.32 -17.95 -20.48 -13.96 -4.17 -6.74 -10.15 -10.36 -15.23 -17.77 -18.67 -19.03 -16.68 -19.76
5.37 4.90 1.98 -5.66 -5.44 -2.72 -1.35 0.45 0.10 1.67 8.47 5.11 7.60 8.83 7.18 5.77 9.71 12.19 10.78 9.82 5.84 2.14 -0.94 1.97 -4.76 -1.31 -2.97 -1.60 -7.07 -5.62 -14.32 -18.85 -12.17 -4.86 -8.89 -11.42 -7.71 -12.15 -15.95 -15.77 -16.50 -19.76 -23.02 -19.40 -17.40 -14.14 -5.80 -15.59 -12.69 -19.94 -21.40 -21.21 -25.02 -24.47
7.18 0.75 -0.22 -0.02 -2.36 -1.32 1.12 -1.31 0.26 2.55 -0.17 -2.27 -1.72 -0.55 0.30 5.65 10.25 11.34 8.66 6.24 6.16 4.66 2.69 -3.64 -8.52 -13.23 -3.57 -7.25 -11.96 -10.15 -9.07 -11.78 -19.76 -17.22 -15.23 -15.95 -17.95 -19.40 -19.58 -20.67 -22.30 -25.38 -24.47 -22.48 -21.75 -21.94 -21.57 -22.84 -25.74 -23.75 -22.66 -21.21 -21.39 -25.02
-4.65 -7.62 -2.79 -4.53 -0.75 0.58 -2.61 -4.93 -2.11 0.26 0.41 0.03 -0.81 -4.91 -3.38 -0.85 -1.30 4.47 5.79 4.15 4.25 3.02 -3.81 -1.70 -1.58 -5.35 -12.89 -17.62 -19.61 -18.85 -10.57 -10.16 -17.58 -17.22 -14.14 -18.13 -20.12 -22.48 -21.75 -20.85 -25.20 -24.65 -24.11 -24.47 -25.38 -24.47 -23.02 -22.12 -23.02 -23.75 -24.11 -23.39 -23.20 -24.11
-8.25 -9.28 -8.53 -2.75 -0.26 -1.63 -2.60 -0.77 -1.87 -0.51 -0.99 0.48 -0.18 -7.07 -10.16 -3.17 0.08 1.55 3.98 3.10 3.38 1.85 -0.59 -5.81 -12.51 -11.61 -12.36 -12.53 -10.51 -14.86 -15.42 -18.67 -15.05 -3.26 -9.97 -11.60 -16.68 -17.40 -25.38 -27.56 -27.92 -26.11 -22.66 -24.29 -26.11 -25.74 -23.39 -22.12 -22.66 -23.93 -24.65 -26.11 -25.38 -23.58

GFSWCAN_sfc_wetblb_075.txt.gz
Wetbulb
42.47 42.23 41.94 41.37 41.09 41.38 41.73 42.56 42.74 42.89 42.97 42.72 42.51 42.61 42.74 43.24 43.34 38.75 36.23 37.31 33.88 29.25 29.32 32.90 33.13 29.62 30.23 28.95 24.64 27.83 26.90 28.82 28.73 24.51 26.35 27.12 26.10 27.85 27.44 29.31 28.61 28.02 26.45 25.88 26.99 23.90 20.91 35.93 37.31 30.92 35.07 37.84 35.90 35.29
42.79 42.02 41.72 41.40 40.74 41.35 41.73 42.51 42.80 42.74 42.83 42.68 42.60 42.90 43.30 43.42 43.17 41.29 34.93 38.69 37.89 33.32 30.16 35.46 35.68 36.04 34.25 33.90 31.10 30.97 28.63 28.35 31.01 27.87 27.85 28.04 27.59 29.59 27.56 24.50 33.37 27.48 31.15 29.91 30.00 29.42 35.67 36.02 34.58 34.59 39.51 37.82 36.00 34.74
42.04 42.06 41.57 40.92 40.87 41.28 42.01 42.19 42.54 42.26 42.55 42.36 42.28 42.55 43.07 43.23 43.74 42.70 38.90 38.82 37.21 33.21 32.46 31.00 30.72 35.29 37.29 37.14 38.12 29.59 31.28 34.22 33.53 35.74 31.70 31.45 27.22 30.47 25.89 27.83 30.80 33.52 36.31 32.80 32.24 34.62 34.52 35.04 34.21 33.61 33.91 33.91 34.33 34.25
41.06 41.15 41.33 40.60 40.82 41.86 41.50 41.43 41.93 42.30 42.13 41.69 41.90 42.43 42.93 43.42 43.89 43.80 39.08 39.35 37.48 33.78 25.29 26.90 35.03 32.63 37.13 37.13 36.29 36.61 34.86 37.58 37.02 36.04 30.41 30.73 27.86 33.67 28.65 30.40 30.04 33.33 34.56 30.56 32.49 33.80 34.07 33.04 33.66 33.11 31.66 31.68 30.80 31.32
40.92 40.83 40.83 41.09 40.87 41.41 41.20 41.68 41.97 41.60 41.21 41.30 42.09 42.91 43.19 43.54 43.91 43.31 42.40 40.08 40.02 33.58 26.53 27.81 33.36 34.84 36.68 35.93 34.72 35.64 34.84 33.74 33.02 30.14 29.33 29.12 32.95 33.21 33.01 33.45 28.86 32.10 30.24 28.76 27.58 32.00 30.26 28.71 30.40 31.37 29.70 29.03 29.40 28.09
40.55 40.59 40.75 40.40 41.29 41.39 41.11 41.60 41.29 41.12 41.12 41.86 42.36 42.81 43.35 44.08 44.42 41.39 31.19 36.68 40.68 39.20 31.43 25.62 33.87 32.54 34.91 34.66 33.73 33.37 34.14 34.00 33.71 32.03 32.46 33.94 36.40 34.25 28.76 27.49 30.40 31.21 31.52 32.65 30.82 30.73 29.04 28.85 29.05 29.33 27.20 26.66 26.93 26.47
40.27 40.07 40.12 40.25 41.21 41.40 41.34 41.38 41.27 41.25 41.50 42.09 42.46 43.42 44.11 44.86 42.84 33.33 32.01 36.35 41.23 38.33 30.65 25.50 26.43 32.42 35.35 34.23 33.80 33.42 35.28 34.79 34.18 32.60 31.35 31.64 31.94 34.14 32.47 27.26 27.79 30.43 30.17 30.19 32.28 31.88 27.46 28.55 25.08 26.33 25.09 24.44 25.17 24.35
40.10 40.11 40.74 41.18 41.04 40.93 41.19 41.05 40.97 41.14 41.71 42.51 43.26 43.86 44.10 42.68 40.33 36.96 39.65 41.70 40.03 33.78 32.24 23.94 23.80 26.85 36.25 31.37 31.00 33.56 32.02 33.88 33.81 32.60 32.94 32.15 33.56 34.30 26.68 26.19 27.40 28.71 30.58 28.83 28.57 29.23 27.81 27.17 26.32 25.11 25.26 24.14 22.02 21.11
39.70 40.33 40.61 40.73 40.93 40.97 40.82 40.50 40.80 41.59 42.63 42.82 43.39 41.47 39.18 35.94 35.28 36.65 41.92 41.16 38.24 33.03 25.62 25.10 21.34 20.32 34.20 33.01 33.38 34.45 34.73 29.09 32.96 30.52 30.01 32.12 29.25 26.54 23.93 25.21 24.61 24.97 24.94 27.06 28.10 27.67 26.92 24.77 24.15 23.39 22.92 22.03 20.65 19.43
39.66 40.05 40.15 40.59 40.81 40.82 40.20 40.38 41.04 42.02 41.99 42.79 38.64 33.53 30.36 36.66 42.07 41.47 36.59 30.54 29.05 30.39 31.53 25.80 27.72 24.77 32.07 29.78 30.34 30.46 30.38 27.35 24.62 29.40 33.72 30.59 22.04 24.52 24.61 24.66 24.19 23.98 24.10 26.33 27.00 25.35 24.59 22.95 22.29 22.01 21.34 21.27 20.74 19.40
39.84 39.92 39.88 39.72 39.77 39.97 40.29 40.81 41.68 42.12 42.14 36.59 32.17 30.26 37.82 41.75 34.33 31.78 26.42 21.77 22.22 23.93 27.42 28.01 28.34 27.77 34.17 27.99 29.30 31.53 28.19 28.13 23.19 28.51 27.85 23.66 20.88 21.90 23.33 22.06 22.41 23.46 23.51 22.79 22.68 22.57 23.78 23.90 22.24 20.67 19.38 19.21 18.59 17.59
39.66 39.46 39.46 39.44 39.99 40.19 40.73 40.91 42.77 40.19 37.50 35.81 36.34 38.67 38.33 32.65 25.54 24.20 24.84 26.87 24.67 23.89 27.84 27.51 29.63 32.11 32.58 35.39 31.31 31.15 28.48 29.24 25.47 31.70 27.04 20.61 18.99 21.49 21.29 20.24 20.21 20.99 21.18 20.90 21.93 20.88 20.75 20.22 19.93 18.53 17.33 16.07 14.83 14.04
39.37 39.62 39.92 40.23 40.77 41.10 41.32 41.39 42.89 41.26 41.00 37.94 33.89 30.84 27.48 24.83 15.29 18.80 16.08 22.24 24.34 27.36 27.17 31.10 30.63 33.09 33.96 34.37 31.35 31.48 27.04 26.06 31.66 25.82 21.14 17.20 20.72 21.25 20.66 20.01 18.62 19.43 18.76 18.06 16.78 16.61 16.03 15.49 16.04 15.42 13.32 13.20 13.01 11.58
39.68 39.80 40.23 40.91 40.65 41.08 41.78 42.33 42.04 41.64 37.65 30.61 25.89 21.69 22.55 16.78 21.39 19.29 20.86 20.94 26.25 32.05 32.44 31.94 31.55 31.75 32.27 29.69 29.50 25.22 27.48 28.92 21.73 18.23 16.77 17.58 20.11 19.95 19.33 18.38 16.01 14.37 14.66 14.41 13.92 13.97 13.06 12.20 11.53 11.72 11.53 11.67 11.24 9.06
40.43 40.34 40.63 41.00 41.41 41.85 42.63 42.28 42.03 35.27 30.32 25.91 24.88 17.55 20.58 20.42 22.45 19.49 22.93 29.98 31.17 32.92 32.43 30.80 28.91 30.10 28.90 26.84 26.77 26.21 23.03 20.11 19.20 18.42 15.00 18.39 18.70 16.92 14.95 14.19 12.18 11.03 10.91 11.62 13.17 12.50 12.02 12.45 12.23 11.97 12.46 12.73 11.18 8.91
40.59 40.37 40.14 42.79 43.19 42.38 42.13 38.36 35.37 31.97 27.55 22.80 19.14 19.59 22.21 23.91 23.44 25.27 26.73 28.70 29.97 31.27 31.79 29.52 24.76 22.48 22.26 21.75 20.70 17.10 18.62 17.01 15.90 13.24 14.14 16.24 12.11 11.17 11.35 11.53 10.22 10.15 11.02 12.08 13.56 13.95 13.47 12.82 12.53 12.25 11.97 10.79 9.65 9.44
41.15 40.64 43.41 42.11 42.27 41.14 39.01 33.72 30.60 25.98 22.37 18.07 13.19 17.45 17.77 13.75 18.09 22.04 22.80 23.69 27.42 30.09 24.72 22.84 18.74 19.03 23.58 17.06 16.13 14.48 15.44 14.28 11.37 12.10 14.83 13.26 12.40 10.76 10.08 12.22 12.86 13.81 13.93 14.62 15.07 15.41 14.97 15.19 15.17 14.79 13.34 13.84 14.17 12.61
40.77 41.82 42.26 42.31 39.52 35.53 31.36 30.96 26.93 24.13 18.10 19.13 18.12 18.24 17.37 16.69 18.72 19.24 21.17 23.52 26.42 27.07 24.68 22.00 22.83 17.60 15.24 16.06 15.09 12.43 12.31 11.07 12.49 14.43 14.01 12.19 12.46 12.83 15.10 14.89 15.01 16.28 16.53 16.62 16.86 16.62 16.01 16.50 16.16 15.46 15.12 14.83 14.19 13.69
40.63 41.24 41.99 41.12 37.02 31.51 27.47 27.31 28.54 18.85 18.76 20.01 20.61 20.22 16.83 16.90 20.41 20.28 22.12 25.07 24.89 25.36 22.72 19.33 15.65 15.11 14.09 11.82 11.14 8.54 10.83 13.83 14.57 14.65 14.61 13.24 15.14 15.31 15.73 17.03 17.57 18.13 17.83 17.79 18.08 17.71 17.65 16.82 17.21 17.48 16.71 15.56 14.42 14.11
40.82 40.04 39.71 39.14 35.94 28.40 25.15 24.47 28.35 22.08 18.51 21.09 20.05 18.57 17.09 16.69 16.91 15.80 19.55 22.79 22.20 20.74 16.40 13.53 12.69 12.00 12.23 13.57 12.62 15.74 14.63 18.18 17.85 15.73 15.65 17.56 18.80 18.10 18.50 19.29 19.16 19.95 18.64 17.91 16.94 15.47 15.64 15.04 15.00 15.06 15.63 15.69 15.48 14.56
37.29 36.92 36.94 33.34 28.70 28.23 26.05 24.32 22.28 22.34 21.48 17.79 17.77 17.90 15.29 16.87 14.73 15.24 16.97 20.54 17.51 14.46 12.83 11.95 14.93 16.33 11.95 12.64 15.63 17.90 17.52 18.78 17.29 17.34 17.23 16.55 19.06 19.87 19.58 19.65 19.46 18.20 15.68 14.62 14.16 12.82 12.36 13.16 12.81 11.58 11.03 8.75 8.14 9.97
35.14 37.48 31.02 31.58 27.89 26.45 24.18 25.05 22.83 23.23 21.65 21.20 20.13 19.70 14.00 9.90 10.23 14.55 18.16 14.10 12.65 13.25 13.63 14.01 15.94 17.45 17.55 16.98 17.56 19.15 18.54 18.32 17.78 17.69 16.96 17.87 17.32 17.10 16.93 16.23 15.75 13.15 12.77 12.97 13.86 12.65 12.04 11.80 11.25 9.87 9.85 8.09 5.53 8.99
37.54 35.02 30.82 28.99 21.01 17.04 17.15 26.14 19.06 21.22 14.64 17.55 18.16 14.80 12.23 10.87 13.98 19.10 11.43 13.01 12.44 15.55 17.06 19.18 19.36 19.93 18.39 18.78 19.19 18.75 19.33 18.57 16.61 15.86 14.80 13.90 12.56 12.98 13.86 13.33 13.59 12.18 12.12 11.80 12.54 11.46 10.78 2.07 4.42 7.18 5.79 6.35 6.57 8.16
33.45 27.83 25.19 21.50 20.43 13.97 20.11 17.58 23.24 20.85 18.82 15.75 13.51 10.09 11.24 11.55 15.08 10.16 8.64 11.04 13.40 17.94 18.99 18.98 19.28 17.94 17.87 16.48 15.04 15.23 15.64 15.16 12.78 11.91 13.86 13.58 11.86 10.58 11.52 10.91 10.75 10.63 11.46 11.03 10.38 8.06 6.43 5.77 -2.01 6.32 3.63 4.98 3.25 4.53
25.74 20.72 22.61 16.94 18.15 12.08 15.40 10.55 12.70 13.85 8.56 11.27 9.43 8.01 10.20 14.22 7.77 5.36 8.24 9.96 13.08 14.67 16.19 18.45 17.30 16.26 12.59 11.03 12.33 13.72 15.21 16.19 14.37 12.02 11.24 12.22 10.51 9.94 9.24 8.90 7.82 8.06 8.12 9.21 8.37 7.26 5.42 0.72 1.05 3.04 3.67 2.77 4.39 3.52
17.12 16.71 13.95 13.91 15.84 12.56 12.52 8.00 5.22 6.52 6.46 5.25 6.52 12.57 9.93 7.14 3.65 4.63 9.77 9.28 11.86 12.19 13.65 15.47 13.21 13.53 13.31 14.06 12.57 13.26 12.81 14.66 13.68 10.81 10.26 11.60 11.12 9.90 8.07 8.02 8.42 8.38 5.50 5.79 5.74 5.82 3.84 1.58 2.42 2.32 3.66 1.89 -5.80 -1.79
9.78 8.70 16.02 17.73 17.58 15.85 8.63 8.27 12.37 8.63 3.72 5.99 9.42 7.22 5.10 1.55 1.60 7.39 10.90 10.63 13.07 11.58 14.79 15.27 16.64 15.89 13.22 11.15 10.32 9.58 9.88 10.30 10.93 9.82 7.94 7.50 7.28 7.70 8.35 7.16 5.91 8.40 4.25 3.13 3.18 4.62 4.53 1.89 1.40 0.50 0.53 0.09 -0.47 -1.06
11.58 12.52 9.29 7.26 8.16 7.88 -0.81 -1.50 -2.01 -0.15 3.64 12.03 9.99 1.96 4.66 3.39 4.79 9.11 10.64 11.25 10.25 12.64 10.54 9.27 10.81 12.78 10.91 8.31 6.78 5.92 5.00 5.31 4.96 5.77 6.48 5.66 3.05 1.14 0.19 2.15 2.95 1.31 -0.69 -1.57 0.76 -1.29 1.15 1.47 1.40 0.37 -0.56 0.14 0.08 -2.97
7.58 7.30 9.64 2.67 4.31 4.01 2.81 -1.79 0.53 8.04 10.58 7.63 1.52 0.92 2.96 7.73 7.78 7.43 10.78 13.00 12.70 11.82 8.31 6.16 2.57 3.46 2.03 0.73 -1.03 1.71 5.35 6.39 5.20 0.84 0.80 2.11 1.51 4.08 -1.04 -1.05 -0.56 -1.71 -1.79 2.20 -1.30 -0.76 -1.12 0.35 -0.19 -0.51 -2.51 -2.32 -3.59 -6.85
4.54 5.91 3.13 -0.61 -1.48 -0.33 -0.07 2.52 1.56 4.62 8.69 6.99 8.72 8.65 7.12 7.36 9.66 12.31 12.14 11.99 10.87 8.34 6.01 6.06 2.84 5.29 3.70 3.97 1.26 1.12 -4.13 -4.68 0.92 4.91 4.30 3.42 3.68 1.03 -1.23 -0.15 0.22 -3.23 -4.17 -0.06 0.54 1.42 -0.90 -2.39 -2.41 -4.42 -4.55 -4.06 -3.88 -4.26
5.95 1.12 -0.22 0.46 -1.97 -0.92 2.04 1.73 1.31 3.91 1.90 0.76 -2.23 1.24 2.71 5.97 9.62 10.12 8.33 7.87 6.67 5.96 4.62 1.08 -1.52 -0.60 2.12 0.38 1.95 2.65 1.96 -2.17 -10.31 -7.09 -4.74 -3.53 -3.59 -2.33 -2.86 -4.86 -6.49 -6.87 -5.05 -3.41 -3.05 -2.86 -3.42 -4.31 -4.86 -4.86 -4.16 -4.60 -6.74 -9.98
-4.06 -6.69 -2.93 -4.86 -1.10 2.04 0.76 -4.19 -2.18 1.23 3.63 3.41 0.18 -5.95 -2.24 1.35 2.11 6.18 6.36 7.94 7.93 6.63 4.12 4.84 4.01 2.87 -3.25 -4.93 -6.03 -5.10 -6.58 -3.99 -5.58 -6.13 -4.50 -4.13 -4.13 -7.58 -7.58 -7.76 -10.84 -7.94 -6.13 -6.50 -7.03 -6.86 -7.65 -6.55 -6.13 -7.12 -7.22 -7.65 -9.10 -10.12
-10.90 -10.48 -9.03 -4.14 -1.12 -2.50 -3.99 -1.81 -1.09 0.46 0.05 0.20 0.40 -6.67 -7.98 -0.84 2.43 3.78 5.89 4.92 7.58 7.76 3.76 0.06 -3.45 -2.69 -4.13 -4.15 -3.82 -6.33 -8.15 -7.58 -9.03 -1.96 -7.22 -8.85 -12.29 -9.94 -9.81 -9.99 -10.05 -8.82 -7.25 -6.90 -7.94 -8.74 -8.43 -9.03 -7.54 -8.68 -8.97 -11.12 -11.47 -11.67

GFSWCAN_sfc_wetblb_078.txt.gz
Wetbulb
43.68 42.85 43.38 43.31 42.78 42.51 42.27 42.62 42.90 43.33 43.62 43.87 43.45 43.61 43.43 43.67 43.80 42.95 41.37 43.52 38.55 33.09 34.78 35.19 35.43 32.76 33.36 33.18 29.33 32.70 31.98 32.99 31.29 27.64 26.61 25.76 27.57 30.94 30.81 32.11 30.78 30.05 29.03 29.35 30.16 26.12 23.47 39.43 40.08 34.39 36.38 38.96 38.27 35.87
43.23 43.13 43.15 43.01 42.50 42.26 42.46 42.78 43.17 43.22 43.41 43.40 43.15 42.73 42.83 43.21 43.73 43.21 39.55 42.93 42.75 36.05 35.03 38.69 39.08 39.59 38.19 37.87 34.53 34.64 32.00 31.77 33.06 30.25 29.72 29.24 29.40 32.10 30.74 27.61 35.44 29.96 33.36 32.04 33.51 32.53 37.07 37.17 36.33 36.11 37.76 37.08 36.36 34.94
42.26 43.28 43.03 42.64 42.23 41.62 41.70 42.35 42.67 43.21 43.06 43.03 42.96 42.91 43.25 43.58 43.58 43.10 41.39 41.30 39.45 34.98 34.92 34.43 35.19 40.05 41.73 40.66 41.61 31.48 36.22 35.43 34.78 36.79 31.87 31.40 28.79 33.04 27.83 29.86 32.68 35.39 36.47 33.29 34.02 31.76 32.97 34.38 34.22 33.69 33.73 33.15 32.64 32.56
41.33 42.16 41.97 42.17 42.03 41.85 42.12 41.96 41.97 42.71 42.68 42.91 42.77 42.64 42.79 43.12 43.36 43.40 40.40 40.75 38.76 36.67 30.56 33.57 39.85 37.32 41.25 41.49 40.44 39.99 37.64 38.87 38.70 37.17 32.09 30.90 30.01 35.54 31.11 32.20 32.12 32.51 35.67 31.64 31.52 31.91 32.36 32.37 32.92 33.50 32.71 32.29 31.08 32.09
41.53 41.95 42.44 42.09 41.86 41.94 42.19 42.00 42.01 41.77 42.43 42.47 42.22 42.06 42.38 43.10 43.34 44.12 42.85 42.62 42.64 36.32 31.31 33.61 38.12 39.63 40.75 41.00 39.33 39.14 37.30 36.15 35.06 31.02 31.54 30.56 35.22 34.74 36.29 34.06 29.88 32.12 29.53 29.21 29.63 31.67 30.67 29.38 31.71 32.79 31.63 30.95 31.72 30.86
41.22 41.00 42.03 41.91 41.56 41.69 42.14 42.35 41.99 42.06 42.17 41.68 41.42 41.81 42.69 43.33 43.53 42.43 33.18 40.88 41.25 40.57 34.00 28.56 37.85 35.58 38.59 39.51 38.36 37.56 37.61 36.23 34.63 33.35 33.07 35.50 37.85 35.43 30.21 30.44 30.91 32.18 32.32 32.91 30.61 31.63 30.77 30.52 30.81 31.50 29.92 29.03 29.06 28.62
40.74 41.13 41.29 41.19 41.54 41.48 41.96 42.28 41.92 41.76 41.51 41.25 41.67 42.33 42.62 43.16 42.43 35.08 36.38 40.34 42.26 39.73 32.82 29.30 29.62 35.55 37.91 38.13 38.94 37.86 37.91 36.93 36.70 34.49 33.37 34.76 35.37 36.28 32.79 30.18 30.39 30.79 31.27 32.00 33.80 33.14 29.72 30.73 27.72 29.37 29.29 28.88 28.88 28.47
40.47 40.21 40.78 41.26 41.14 41.09 41.93 41.87 41.69 41.49 41.65 41.64 41.92 42.52 43.28 43.23 41.11 36.83 39.61 40.94 40.39 34.35 34.63 29.04 28.92 31.97 39.09 34.75 33.55 38.82 35.65 36.37 36.75 36.04 37.05 34.20 36.06 36.41 29.82 28.16 29.20 30.61 30.98 30.14 30.50 31.96 30.18 29.79 29.32 28.18 29.03 28.66 27.11 26.67
40.38 40.61 41.29 41.34 41.26 41.37 41.76 41.55 41.50 41.32 41.28 41.82 42.45 42.73 39.60 37.74 35.82 38.40 42.00 40.95 40.72 37.41 31.14 29.72 28.04 27.40 37.20 35.34 36.61 35.83 36.42 30.19 37.92 32.21 33.32 34.74 32.18 28.99 26.49 27.03 26.43 26.73 27.41 29.21 30.21 29.72 29.50 27.85 27.03 27.11 27.29 26.91 25.43 24.50
40.00 40.42 40.95 41.30 41.36 41.59 41.72 41.48 40.91 41.06 42.01 42.09 39.21 35.88 32.82 37.23 42.20 40.70 37.55 35.44 35.52 35.89 35.98 29.81 34.00 29.98 34.39 33.40 31.29 32.62 34.30 31.81 28.05 32.30 36.10 31.64 30.02 26.59 26.08 26.54 27.15 27.04 27.46 30.05 28.10 26.32 26.99 26.00 25.77 25.54 25.04 25.67 24.89 23.49
39.60 39.84 40.20 40.80 41.01 41.27 41.30 40.76 40.62 40.96 41.28 37.25 35.22 33.53 38.93 42.41 39.52 36.88 29.85 29.42 30.74 27.78 32.32 32.06 32.73 31.39 37.75 31.85 31.44 35.04 30.16 32.07 25.28 31.22 29.77 29.03 26.81 24.38 25.82 24.77 25.82 26.31 26.95 27.08 27.45 27.24 28.17 27.51 25.42 23.92 22.89 22.92 22.58 21.87
39.70 39.90 40.45 40.31 40.38 40.44 40.31 40.50 41.15 39.58 37.46 38.65 38.62 39.79 39.53 35.32 32.39 27.69 25.95 28.35 27.08 25.75 32.48 30.42 31.38 34.28 36.40 39.18 34.40 33.21 29.98 30.42 25.06 34.10 29.82 26.96 22.20 24.38 24.39 23.30 23.66 24.69 24.85 24.40 25.41 24.63 24.77 24.23 24.12 22.63 21.51 20.16 19.19 18.15
39.73 40.43 40.28 40.38 39.94 40.11 40.43 40.86 41.95 41.46 41.57 40.62 36.22 33.05 30.85 30.50 24.05 23.02 20.27 24.22 26.06 31.05 33.96 32.71 30.21 34.33 36.11 36.37 33.14 32.19 27.68 29.34 34.38 30.23 28.55 24.29 23.35 23.86 23.85 23.57 22.54 23.27 22.85 22.10 21.14 21.57 21.79 21.06 20.98 20.30 18.10 17.76 17.57 15.59
40.23 40.35 40.18 40.41 40.55 40.93 41.26 40.39 41.14 41.50 39.27 33.12 30.07 23.78 26.26 23.93 26.39 28.08 29.49 31.30 34.01 33.80 33.92 34.07 33.55 33.18 34.09 31.55 32.28 28.62 31.01 31.91 27.90 25.22 22.90 23.78 23.32 22.60 22.85 22.12 21.13 19.33 19.01 19.06 18.74 18.10 16.77 16.12 15.49 16.02 16.13 15.92 15.03 13.76
39.92 40.31 40.44 40.66 41.41 41.65 41.08 41.76 41.54 39.20 34.82 30.96 30.71 24.69 25.06 30.57 30.13 30.95 32.28 32.58 32.39 33.85 34.09 33.37 33.70 34.80 32.02 30.10 31.17 29.87 27.24 25.94 26.05 26.15 25.30 24.20 23.00 20.87 19.24 19.08 17.74 16.51 16.64 17.12 17.69 16.74 16.26 16.36 16.15 15.93 16.74 16.86 15.01 13.34
40.03 39.97 39.39 41.06 41.41 40.89 41.39 41.67 38.22 37.25 32.52 29.38 26.84 25.64 27.19 27.54 27.50 30.30 31.19 30.16 32.64 32.70 35.54 35.47 31.23 29.50 27.16 28.88 26.05 23.73 24.08 24.01 24.95 24.18 23.44 21.98 19.16 18.17 17.66 17.56 17.09 17.72 18.22 18.13 17.94 18.04 17.52 16.64 16.88 16.35 15.59 14.83 14.07 13.77
40.00 37.53 40.38 41.09 41.75 41.69 41.04 37.55 35.03 28.79 27.63 24.71 25.55 27.12 28.09 28.58 28.93 28.55 29.76 30.61 33.21 32.84 31.54 31.51 27.13 23.62 28.67 25.55 23.53 25.38 26.50 24.93 22.58 22.35 23.67 22.44 19.28 16.96 16.34 16.47 16.50 17.88 18.77 19.01 18.95 19.28 18.34 18.07 17.55 17.19 15.97 16.61 16.60 15.87
37.47 40.58 42.03 41.84 39.50 37.31 35.75 34.47 30.71 27.80 23.12 26.32 25.92 25.75 26.54 26.94 28.05 28.52 29.82 30.36 31.10 32.75 31.41 28.56 30.79 26.63 25.88 23.65 26.55 23.93 22.10 20.66 23.30 23.04 21.88 20.58 19.46 18.57 19.92 19.53 19.15 20.10 20.11 20.07 19.67 19.07 19.01 19.05 19.34 19.99 18.90 18.73 17.83 17.07
41.08 40.69 41.01 40.82 40.01 36.34 31.18 30.10 31.33 23.82 24.64 26.23 25.61 26.24 26.85 26.60 26.95 27.55 29.30 30.15 31.13 32.38 30.46 28.67 26.46 27.83 27.31 25.41 24.17 22.18 22.07 23.02 21.24 21.82 20.75 20.73 20.74 19.43 20.21 20.58 20.71 21.49 20.95 21.28 21.41 22.29 21.99 20.70 21.46 22.74 22.28 20.81 20.91 20.06
41.42 41.05 40.22 39.13 39.01 32.89 27.33 27.51 33.02 26.52 24.79 26.03 26.85 25.77 26.40 26.48 26.85 27.69 29.46 28.85 28.74 28.73 26.82 25.72 25.96 24.73 25.27 24.43 25.15 25.20 25.09 25.38 23.11 20.43 20.16 21.31 22.24 21.59 22.25 23.16 23.47 23.32 22.73 21.87 21.54 20.43 21.11 20.87 20.91 20.84 21.08 20.58 20.12 19.38
38.84 38.11 38.11 37.98 34.18 32.29 28.87 27.40 25.93 26.59 25.60 23.95 24.90 26.28 25.04 26.30 26.25 27.01 27.12 26.96 27.74 23.91 24.34 23.39 23.88 22.55 21.85 22.95 26.02 26.10 25.28 25.54 24.81 24.65 22.87 20.97 22.87 24.30 23.70 23.83 23.64 23.63 23.02 22.67 22.10 19.34 19.67 20.58 19.97 19.72 20.26 18.88 18.60 19.31
37.85 38.35 36.61 35.80 30.91 29.29 27.60 29.70 27.06 27.73 25.76 25.24 25.26 26.12 24.55 24.88 25.05 25.11 24.80 24.49 23.15 23.25 24.14 24.10 23.13 22.73 21.90 22.43 23.80 25.42 24.49 24.13 24.17 24.09 23.45 23.30 22.30 22.38 22.45 22.94 22.42 22.15 22.11 22.56 22.07 21.21 20.58 19.66 19.58 18.84 19.03 18.37 14.73 18.07
38.71 37.44 33.84 31.47 25.35 25.16 22.58 30.77 24.51 25.26 21.91 22.78 24.42 21.45 22.29 22.88 22.78 24.08 21.71 22.02 22.66 23.15 23.79 24.06 23.63 24.55 23.30 23.33 23.44 23.40 23.95 24.29 24.19 24.05 23.95 23.93 23.38 23.78 22.95 22.52 23.59 21.65 20.41 19.96 21.02 20.39 19.07 10.55 14.05 17.33 17.46 17.28 17.64 17.28
35.40 29.89 27.57 25.54 25.55 21.06 25.94 23.88 26.46 24.21 23.79 22.08 20.98 17.61 18.46 21.92 21.97 21.13 19.47 21.15 21.76 22.80 22.63 22.15 23.72 22.26 22.77 22.53 22.90 22.53 22.77 24.58 22.83 22.70 22.95 22.49 20.90 20.06 21.30 20.38 20.57 20.69 20.68 19.81 19.43 18.82 17.53 17.38 9.13 16.25 15.26 15.12 15.11 13.16
29.72 23.87 25.78 20.87 24.13 22.10 20.02 21.13 21.25 21.53 18.68 19.11 17.89 17.91 19.52 21.53 18.77 17.66 17.94 19.39 20.32 21.54 22.19 23.23 24.33 24.39 23.43 22.08 21.61 20.61 21.52 23.59 22.33 20.04 20.71 22.27 20.18 18.69 17.90 17.89 17.68 17.53 18.77 18.91 17.32 17.10 16.71 14.82 14.61 14.34 13.63 13.13 11.31 10.82
21.30 19.38 21.34 22.39 22.08 21.49 20.69 18.31 19.31 19.08 19.41 17.81 18.44 20.43 21.79 19.95 15.49 16.69 18.30 20.13 20.79 21.66 22.34 22.88 23.01 21.93 21.27 22.45 20.49 20.15 19.75 22.02 22.30 20.34 18.33 20.06 20.44 20.39 18.40 16.63 16.45 16.24 17.37 17.89 17.57 16.13 14.53 13.03 12.20 9.32 11.09 9.44 4.72 6.78
18.11 17.53 20.45 21.24 22.87 22.10 20.87 21.18 21.76 21.53 18.02 17.44 18.86 17.57 18.26 15.12 16.17 16.86 18.60 20.21 21.86 23.79 25.14 25.42 24.98 24.10 21.41 18.64 17.41 17.40 18.00 18.44 19.16 17.73 16.81 16.20 16.39 16.95 18.85 17.90 13.94 16.25 15.49 14.27 14.32 13.63 12.83 11.51 10.75 9.89 9.51 10.91 10.22 8.28
17.92 18.28 16.71 16.14 15.82 17.38 14.62 15.69 16.41 16.87 17.09 18.70 19.54 15.88 15.71 15.12 15.26 16.57 17.88 18.83 20.93 21.89 19.96 19.24 21.70 21.98 19.88 17.44 15.85 14.99 14.28 13.57 12.99 14.12 14.30 13.56 13.14 12.70 11.91 12.58 11.28 8.54 11.66 11.15 12.49 11.29 11.73 11.37 10.54 9.70 8.33 7.89 7.75 8.74
14.88 16.37 16.85 9.19 11.08 11.61 11.20 13.01 13.98 15.28 15.72 17.79 17.17 13.40 11.93 13.73 14.55 15.88 17.62 18.66 20.17 20.18 17.81 15.57 12.98 13.56 12.26 11.90 13.53 15.84 15.98 16.27 14.21 10.66 10.96 12.75 12.29 11.63 11.44 12.09 11.79 11.67 12.94 12.46 4.29 7.25 6.85 9.06 8.54 7.97 5.75 7.12 7.11 6.04
12.37 15.80 11.55 7.71 7.80 9.19 11.66 13.25 13.45 14.09 14.54 15.41 15.96 13.74 13.36 14.08 15.27 17.46 18.35 18.34 19.12 19.61 18.34 16.32 14.44 15.48 13.11 13.57 10.49 9.87 11.13 12.24 13.41 15.69 14.31 13.23 14.14 12.36 10.95 10.91 10.67 10.06 11.13 11.72 10.76 9.69 3.95 7.91 5.78 7.15 6.17 6.47 7.28 5.80
14.57 15.11 10.62 10.33 8.64 12.03 12.61 12.37 13.10 13.85 14.44 14.02 13.14 14.73 12.39 13.83 15.25 15.01 15.35 16.63 15.30 14.12 13.78 12.53 12.11 14.33 14.37 13.19 14.34 12.21 11.21 10.32 4.10 5.41 9.47 10.48 10.55 10.39 9.23 8.10 8.83 9.96 9.47 8.78 8.13 8.26 7.38 6.86 6.93 5.02 4.64 3.21 1.81 0.45
13.57 9.88 8.84 6.83 8.24 11.60 13.27 14.46 14.27 14.07 13.95 14.40 12.23 11.97 11.38 13.75 11.81 13.53 12.54 14.90 14.52 14.73 12.91 14.43 13.23 12.01 12.29 11.23 10.20 9.73 8.31 7.27 6.85 6.65 7.91 8.72 8.80 7.11 7.04 6.27 5.14 7.32 6.88 5.86 5.75 5.41 2.74 2.06 3.21 2.46 2.37 1.78 0.35 -0.90
8.69 10.02 9.64 9.84 9.09 9.32 11.06 12.29 11.03 10.35 12.59 12.16 11.98 11.44 11.34 13.38 10.68 11.45 11.62 12.25 15.89 16.00 14.32 13.04 11.56 8.95 7.33 8.00 8.01 6.60 5.94 5.50 4.92 4.65 2.96 2.62 2.61 4.16 5.57 5.82 6.20 5.32 2.89 5.47 5.11 3.40 0.78 0.24 1.58 0.78 0.48 -1.20 -1.42 -1.68

GFSWCAN_sfc_wetblb_081.txt.gz
Wetbulb
44.35 44.41 44.06 44.08 43.86 43.90 43.88 43.47 43.68 43.85 43.98 44.10 44.05 44.30 43.83 43.80 43.95 43.70 42.11 45.35 39.45 34.59 37.85 37.65 37.20 34.91 35.96 35.07 30.22 35.31 34.05 34.62 33.08 28.95 29.25 27.22 24.53 32.07 31.23 33.28 31.56 30.51 29.33 29.30 31.04 28.02 23.40 39.58 41.05 35.39 36.10 39.67 39.31 37.24
43.73 44.05 43.72 43.70 43.72 43.62 43.49 43.32 43.15 43.56 43.62 43.72 43.95 43.63 43.63 43.66 44.00 43.67 38.79 43.87 43.31 36.22 37.19 41.68 41.61 41.97 40.31 39.42 36.52 36.08 34.12 32.98 34.94 30.91 31.36 29.62 28.65 32.98 32.02 28.08 37.25 30.00 32.88 32.16 32.39 31.61 35.78 36.65 35.28 35.90 38.22 36.51 36.32 34.58
42.90 43.84 43.43 43.58 43.42 43.09 43.26 43.29 43.33 43.18 43.46 43.76 43.62 43.24 42.97 43.29 44.03 43.61 41.41 41.46 41.55 38.13 37.36 38.73 38.08 42.75 44.41 43.00 43.57 33.54 37.03 37.49 36.83 37.84 34.22 32.37 29.64 33.91 28.85 29.87 33.19 36.06 38.79 33.99 34.92 31.14 31.50 33.32 34.80 34.35 34.37 33.19 32.91 33.14
41.99 43.14 43.26 43.23 43.02 42.69 42.39 42.53 42.94 43.02 43.26 43.50 43.16 43.05 43.14 43.53 43.76 43.59 42.12 43.60 40.98 38.65 31.94 36.20 43.10 39.99 43.56 43.94 42.61 42.06 40.18 41.14 39.56 37.97 33.36 31.97 30.09 37.08 32.53 33.49 32.54 34.42 36.86 33.01 30.85 32.08 33.34 33.14 34.51 34.59 33.33 33.03 32.74 33.61
41.42 41.12 42.30 42.88 42.73 42.18 42.29 42.14 42.61 42.85 42.97 42.65 42.93 42.98 42.85 43.05 43.27 44.22 45.13 44.06 43.45 37.59 33.09 35.09 40.77 42.62 43.12 42.89 41.30 41.71 39.94 38.16 36.01 33.16 31.55 30.99 35.88 35.92 36.99 36.13 31.15 32.96 29.13 29.37 29.39 32.83 32.24 30.39 32.89 34.35 32.90 32.43 33.55 32.04
41.31 41.25 41.74 42.26 42.46 42.28 42.59 42.49 42.60 42.96 42.88 42.74 43.02 42.39 42.36 42.69 43.18 42.90 33.07 42.69 43.71 43.23 35.84 30.62 40.68 38.72 41.09 41.70 40.89 39.70 39.78 37.01 35.02 33.42 32.65 36.15 39.00 36.67 31.33 30.69 31.84 32.60 33.46 33.53 31.06 33.23 31.64 31.92 33.04 33.70 31.78 30.99 31.10 30.74
41.03 41.13 41.38 42.00 42.15 42.30 42.60 42.76 42.73 42.57 42.41 42.21 42.01 41.91 42.22 42.97 43.93 38.09 37.60 39.01 43.52 40.75 33.07 31.41 32.52 38.83 39.73 40.31 40.67 40.04 38.69 36.45 35.18 34.48 34.73 34.80 35.50 37.49 34.27 30.13 31.75 31.70 32.50 34.11 34.44 35.14 31.92 33.03 30.03 31.65 32.26 31.85 32.00 31.45
40.80 41.57 41.98 41.95 41.95 42.06 42.42 42.73 42.50 42.29 42.08 41.87 41.48 41.95 42.40 42.69 41.91 38.97 42.74 42.30 41.32 34.97 35.48 30.28 31.16 34.05 39.76 35.44 34.32 39.61 34.84 35.38 35.48 36.11 37.71 34.42 37.30 37.13 31.08 30.01 31.08 31.97 32.60 31.93 32.45 34.05 32.67 32.51 32.18 31.64 32.33 32.02 30.25 28.84
40.74 41.49 41.64 41.80 41.80 41.71 42.00 42.09 42.38 42.12 41.74 41.64 41.89 42.21 41.88 39.25 36.04 38.06 41.83 41.75 40.51 37.17 32.38 31.75 29.18 29.19 39.09 36.90 38.46 36.32 37.44 31.96 38.93 34.08 34.66 35.54 34.27 29.63 29.09 29.48 28.68 28.93 28.67 30.61 31.94 31.93 32.32 31.00 30.81 30.83 30.83 30.43 28.95 27.33
40.50 40.89 41.43 41.45 41.66 41.39 41.62 41.95 42.32 41.91 41.78 41.71 40.51 35.10 32.54 36.53 42.51 41.07 38.07 34.67 35.48 36.95 36.83 31.89 36.61 32.40 36.36 34.60 32.66 34.63 36.41 32.54 29.66 34.11 37.97 32.30 31.98 28.60 28.83 29.19 30.08 29.60 30.38 32.26 30.42 28.26 29.09 28.41 28.55 28.29 27.95 28.72 28.03 26.60
40.37 40.85 41.37 41.64 41.32 41.37 41.78 41.93 41.68 41.57 41.32 37.66 35.01 34.34 39.17 42.04 38.00 37.43 31.96 31.25 32.36 29.52 34.28 34.82 35.61 33.31 38.76 32.27 32.10 36.11 32.76 34.03 26.73 32.01 31.00 30.68 28.67 26.36 27.84 28.07 29.32 29.97 30.55 30.66 30.66 30.12 30.06 29.81 27.94 26.60 25.45 25.57 25.11 24.07
40.34 40.52 40.70 41.06 41.62 41.62 41.70 41.30 41.57 40.28 37.67 38.03 39.79 40.26 39.25 36.98 33.97 29.15 28.24 30.61 29.69 27.86 34.46 33.48 34.78 36.73 37.78 39.83 34.88 35.34 30.63 32.14 25.45 35.70 30.27 28.70 25.64 26.99 26.53 26.30 26.87 27.90 27.97 27.38 28.10 26.82 26.78 26.11 26.24 24.89 23.49 22.10 20.88 20.08
40.25 40.48 40.58 40.97 41.16 41.16 41.30 41.22 41.26 41.32 41.33 40.64 37.13 33.67 33.24 31.64 25.79 24.01 21.68 25.96 28.40 33.45 35.03 35.45 32.16 35.83 38.07 38.58 34.91 33.96 28.62 28.77 36.48 30.82 29.89 26.38 26.25 26.87 26.97 27.04 25.97 26.27 25.57 24.72 23.89 24.44 24.04 23.32 23.45 22.29 20.12 20.10 19.90 18.05
40.30 40.68 40.81 41.07 41.19 41.29 41.21 41.32 41.55 40.37 39.72 35.17 31.89 26.52 28.08 25.59 28.18 30.55 31.57 33.82 35.48 36.36 35.48 36.10 33.10 33.77 36.66 32.13 32.54 29.99 33.63 34.21 28.42 27.14 26.76 26.83 25.52 25.41 25.81 25.67 24.86 21.92 22.08 21.96 21.26 20.58 19.44 18.68 18.38 18.88 18.52 18.61 17.62 15.84
40.78 40.90 40.99 40.86 41.08 41.07 41.48 40.99 41.68 40.08 37.79 33.27 32.84 26.70 28.23 32.91 32.71 33.07 33.76 34.35 35.08 35.61 34.86 34.53 35.68 35.06 33.47 31.63 32.04 31.05 28.69 27.31 29.52 27.24 26.50 26.05 25.27 23.60 22.69 22.22 20.68 19.93 20.10 20.17 20.39 19.32 18.80 18.86 18.75 18.73 19.32 18.74 16.79 15.28
40.44 40.36 40.05 40.95 41.08 41.30 41.06 40.42 38.35 39.00 36.19 33.61 30.25 27.92 29.91 29.61 28.89 31.09 33.44 32.72 35.92 35.77 35.80 35.97 32.86 31.09 30.35 31.45 27.73 27.50 26.92 26.90 26.51 26.18 25.55 25.00 23.04 22.41 21.57 21.35 21.21 21.71 21.55 21.14 20.74 20.49 19.95 19.51 19.51 18.54 17.78 17.15 16.37 15.86
40.06 38.26 40.60 41.11 41.15 40.70 40.39 37.52 37.04 31.79 31.25 28.16 28.18 29.92 30.97 31.24 31.37 31.45 32.81 33.00 36.18 34.52 32.54 35.00 29.49 29.24 32.07 28.38 25.96 30.80 28.12 26.82 25.70 25.09 26.33 24.77 22.75 20.92 20.28 20.20 20.48 21.63 21.91 21.71 21.62 21.53 20.76 20.35 19.15 19.38 18.31 18.19 18.97 17.91
38.72 41.42 41.16 41.51 41.09 38.43 36.96 37.36 34.61 31.33 25.84 29.06 28.01 27.75 29.13 29.60 31.21 31.44 32.83 35.89 34.79 34.38 34.81 31.97 34.90 29.20 28.53 26.55 29.20 27.48 25.61 26.14 26.35 25.64 24.90 23.79 22.41 21.63 22.66 21.94 22.03 22.57 22.39 22.06 21.83 20.92 20.67 20.68 21.32 22.45 21.15 20.82 20.12 19.28
40.24 41.98 41.52 40.91 39.59 38.72 34.61 33.93 35.81 27.88 27.30 28.14 27.85 28.74 28.89 28.81 30.49 31.48 32.63 34.60 36.17 36.70 35.11 33.62 30.42 31.16 31.06 30.36 28.80 26.92 26.21 26.28 24.47 23.99 23.07 23.25 23.45 22.77 22.57 22.77 22.94 23.22 22.51 22.45 22.70 24.31 24.22 23.10 24.17 24.97 24.76 23.56 22.59 23.52
40.27 41.11 41.31 40.95 40.32 35.32 30.59 30.92 37.06 30.65 28.48 28.15 29.34 28.43 28.83 29.26 29.90 29.94 31.98 33.79 33.76 33.30 31.41 30.29 30.44 29.62 29.62 28.54 31.16 29.14 28.55 28.29 25.38 22.18 21.68 22.35 23.24 23.18 22.95 23.68 24.27 24.12 24.16 23.89 23.60 23.00 23.41 23.57 24.50 23.81 22.99 22.68 22.06 22.23
39.37 39.04 38.98 39.76 36.75 36.02 33.02 31.53 30.03 31.49 28.66 28.54 28.83 29.37 28.45 30.39 29.16 28.93 30.04 32.95 31.94 31.28 29.78 29.56 27.99 26.33 28.18 29.75 30.79 30.16 28.62 28.48 26.74 26.19 23.77 21.57 24.01 25.08 25.49 26.83 25.29 25.30 24.22 23.94 23.64 22.28 21.73 23.65 23.19 23.00 22.62 22.35 21.67 21.35
38.32 39.17 38.75 38.65 33.51 31.59 31.13 33.98 31.43 31.82 29.89 28.20 28.31 30.56 28.28 26.90 27.17 28.38 30.95 29.61 29.37 27.84 29.03 28.80 27.86 25.99 26.00 26.47 27.89 29.05 28.31 28.39 28.75 27.72 26.78 25.50 24.12 23.95 24.07 24.72 24.35 23.91 24.19 24.47 24.48 23.71 23.42 23.09 22.24 21.88 21.56 21.36 17.06 20.39
39.81 40.46 37.57 34.18 28.71 28.08 25.38 34.00 27.64 28.29 25.00 26.10 28.22 25.56 26.33 26.66 28.23 28.88 26.98 28.76 26.84 26.77 28.10 28.06 27.84 29.00 26.48 26.67 26.39 26.55 27.23 27.74 27.07 26.51 26.39 26.15 26.64 27.09 25.32 24.76 25.57 24.23 23.40 23.55 24.47 23.73 22.64 14.49 18.05 19.27 20.46 19.31 19.63 19.10
37.94 32.98 30.55 29.37 29.59 24.30 28.11 26.65 29.60 27.42 27.59 25.75 25.40 21.83 22.23 26.16 26.92 25.53 25.06 26.67 25.02 25.33 25.42 25.12 26.86 25.04 25.67 25.27 25.50 25.80 27.33 28.24 26.34 26.13 26.67 25.39 23.88 23.91 24.50 24.65 24.68 24.74 24.13 23.51 22.97 22.13 21.10 20.95 14.42 18.67 18.85 17.11 17.47 15.99
33.64 26.72 29.50 24.15 27.94 25.69 24.10 24.80 24.93 25.11 22.96 24.02 22.36 22.57 23.58 25.68 23.42 23.54 23.37 24.29 23.25 23.92 24.26 26.16 26.54 26.69 25.79 26.10 25.34 24.90 26.72 27.50 25.88 23.86 25.63 26.18 24.96 23.45 22.73 22.59 22.31 21.77 22.95 22.20 20.74 20.52 20.34 19.18 17.83 16.98 16.67 16.18 14.91 14.05
25.35 24.11 25.13 26.35 25.96 25.04 25.35 22.56 23.15 23.33 23.95 22.57 23.52 25.86 25.94 24.60 20.78 21.56 23.53 24.55 23.89 24.80 24.60 25.59 26.21 25.75 25.19 26.15 24.31 23.93 24.58 27.07 26.30 23.17 22.91 24.81 24.76 24.32 22.28 20.23 19.90 19.79 21.41 21.58 20.61 19.11 18.14 17.17 15.33 13.94 14.13 14.13 9.35 9.71
22.93 22.56 24.73 25.72 27.50 27.12 25.57 26.63 27.66 25.68 22.26 21.63 23.68 22.63 22.49 19.19 21.29 21.61 22.53 25.65 25.22 26.77 27.40 28.12 27.66 26.63 25.64 24.48 23.84 23.99 23.68 23.74 24.37 23.09 22.68 21.96 21.34 22.07 23.38 21.76 17.99 19.09 19.79 18.37 18.45 16.82 15.62 15.39 14.27 13.08 12.96 13.94 13.82 12.39
23.48 23.83 21.19 22.64 22.91 25.01 21.89 23.46 23.26 22.65 23.91 25.51 25.52 20.66 19.46 21.15 20.95 21.22 22.13 24.19 27.63 27.00 26.94 27.83 28.40 26.89 25.22 23.70 22.39 20.83 19.26 18.65 18.71 19.62 19.70 19.25 19.28 18.98 17.78 17.34 15.78 13.11 15.59 14.66 15.90 15.29 15.34 14.62 13.59 12.98 11.95 11.13 10.97 11.85
21.05 23.06 22.19 14.59 18.22 20.24 20.69 22.00 23.17 22.32 21.66 23.61 23.59 21.53 18.87 18.84 19.58 20.76 21.28 23.07 24.47 23.49 21.99 20.99 20.36 22.27 21.93 21.68 21.74 21.76 21.97 21.43 19.13 15.13 15.40 16.56 16.06 15.26 17.50 17.09 16.56 16.47 17.35 15.40 9.09 11.66 11.30 11.74 11.14 10.54 10.13 10.57 10.82 10.85
17.94 23.17 19.04 14.94 15.10 17.67 19.19 20.30 20.42 19.26 20.52 20.89 21.32 18.45 18.29 18.04 19.00 21.56 22.05 22.51 23.68 24.53 23.71 22.63 21.25 20.85 18.67 18.37 16.74 16.54 18.90 19.88 20.54 20.17 18.25 17.07 17.65 16.19 15.87 15.38 14.73 14.24 15.75 15.96 14.65 14.19 7.61 11.28 11.50 11.17 10.32 10.36 10.93 10.14
20.72 21.10 17.69 18.03 15.95 18.01 17.90 18.34 18.58 18.88 19.86 19.50 20.18 21.45 18.13 17.33 18.54 20.34 21.36 22.29 22.42 22.04 21.08 20.59 20.75 21.55 20.55 18.44 18.46 16.30 14.56 15.49 12.69 14.88 17.07 16.72 16.22 15.73 14.25 13.38 14.07 14.65 13.80 12.96 12.15 11.97 10.30 9.82 10.85 9.47 8.73 7.39 6.37 5.52
20.14 17.22 15.36 12.95 14.22 15.60 17.50 18.18 18.26 18.52 17.90 18.07 16.85 17.86 16.69 18.11 16.25 17.45 18.84 21.72 21.15 20.90 20.04 20.78 19.91 19.73 20.86 18.98 17.07 16.30 15.64 13.69 13.12 13.40 14.13 14.63 14.08 12.62 12.45 11.66 11.31 12.42 11.42 10.55 10.48 9.93 7.67 6.65 7.36 7.16 6.77 6.38 5.28 3.71
15.94 17.36 16.94 15.18 13.64 13.85 15.98 16.72 16.01 15.04 16.80 16.67 16.76 18.10 19.34 19.04 14.79 16.00 17.55 18.74 22.01 21.34 20.92 20.02 18.07 16.79 15.12 14.85 14.15 13.40 12.71 12.07 9.48 8.70 8.05 8.38 8.72 9.92 11.34 11.72 11.54 10.49 7.95 9.69 9.80 8.39 6.55 5.66 5.85 5.11 4.74 3.85 3.21 2.39

GFSWCAN_sfc_wetblb_084.txt.gz
Wetbulb
44.75 45.08 44.99 44.78 44.55 44.50 44.45 44.43 44.50 44.14 44.26 44.57 44.46 44.17 43.80 43.82 43.72 43.14 43.19 45.61 40.44 36.38 37.72 38.31 38.06 35.43 36.33 35.29 31.24 35.06 33.76 34.09 32.93 28.26 28.38 27.17 25.39 27.32 30.06 31.79 30.11 28.10 27.14 27.09 28.14 26.82 24.08 35.48 36.97 31.77 33.96 36.53 36.39 33.78
44.65 44.80 44.62 43.56 44.00 44.44 44.17 44.29 43.80 43.85 44.26 44.26 44.27 44.19 43.94 43.65 43.92 43.31 41.36 44.12 43.70 38.15 37.36 42.32 41.92 42.55 40.61 39.54 36.02 36.38 34.06 34.42 34.86 30.53 30.57 30.06 27.02 31.33 29.89 26.51 36.12 28.67 32.13 29.78 28.69 27.84 34.19 34.59 33.31 34.49 35.50 33.84 33.78 32.86
44.14 44.42 43.81 43.42 43.90 44.12 44.12 43.62 43.81 44.00 44.13 43.93 43.90 43.84 43.73 43.63 43.90 43.58 42.20 43.30 41.98 37.53 37.66 38.85 38.35 43.35 44.78 43.23 43.70 33.85 37.16 38.46 36.19 38.51 33.82 31.77 27.86 32.95 27.00 28.85 30.88 33.79 37.48 32.44 32.19 31.13 31.16 32.67 33.75 33.10 33.09 32.22 33.24 32.83
43.15 43.54 43.74 43.69 43.76 43.88 43.60 43.37 43.33 43.43 43.42 43.57 43.86 43.70 43.25 43.18 43.48 43.62 42.05 44.33 41.48 38.26 32.40 36.26 44.20 40.79 44.32 44.33 43.06 41.99 39.66 40.62 39.40 37.71 34.05 31.14 28.50 35.73 31.15 32.68 31.48 31.49 33.61 30.66 30.16 32.55 32.46 31.39 33.99 33.50 33.30 33.27 32.64 32.53
42.14 43.38 43.39 43.48 43.46 43.23 43.19 42.88 43.09 43.26 43.62 43.54 43.43 43.25 43.33 43.35 43.40 43.77 43.83 44.33 44.26 37.07 32.50 34.21 41.13 42.49 43.92 43.21 41.52 41.42 39.87 37.92 35.74 33.22 31.97 29.81 34.23 35.10 36.55 35.13 29.08 31.44 28.72 26.53 26.99 31.18 30.62 29.95 32.90 33.06 31.45 33.12 34.16 31.54
41.70 42.00 42.26 42.58 43.12 42.90 42.57 42.57 42.54 42.87 43.34 43.42 42.73 43.10 42.98 43.01 42.77 42.58 33.72 43.41 44.97 43.80 35.18 29.50 40.86 40.18 41.93 41.91 40.78 40.10 39.24 38.13 36.00 33.39 32.51 34.76 38.37 35.67 31.42 29.30 31.42 31.59 32.33 32.46 29.75 33.04 31.74 32.40 33.71 33.93 31.81 31.31 31.44 31.08
41.57 41.54 41.33 41.94 42.43 42.73 42.67 42.47 42.61 42.87 42.93 43.12 42.94 42.79 42.30 42.51 42.33 37.78 36.08 38.56 44.00 43.10 34.09 30.88 32.54 39.38 40.88 40.29 39.64 39.34 39.93 37.95 34.83 34.15 32.98 34.48 35.54 37.00 34.06 29.27 30.59 30.65 31.46 33.49 34.60 34.55 31.83 32.34 30.04 33.04 32.08 31.70 32.00 31.53
41.37 41.45 41.18 42.44 42.52 42.73 42.69 42.69 42.71 43.03 42.81 42.65 42.19 41.85 41.98 42.42 41.87 38.91 43.24 43.68 42.78 36.02 35.26 29.79 30.92 34.60 40.53 35.31 34.19 39.68 35.77 35.18 35.61 34.21 36.46 34.74 36.48 36.42 30.23 29.57 30.53 31.50 32.52 32.25 33.30 34.14 32.60 33.09 32.92 32.43 33.13 32.34 29.82 28.19
40.80 41.57 41.13 40.57 41.61 42.40 42.56 42.84 42.96 42.53 42.50 42.23 41.77 41.76 42.17 40.29 36.25 38.06 42.46 42.86 41.78 37.05 32.07 31.75 28.67 28.03 39.42 36.51 37.29 36.62 37.34 30.97 37.37 33.29 34.14 35.66 33.74 29.59 29.75 29.26 28.64 29.49 29.79 30.90 32.78 33.70 32.43 31.16 31.31 31.44 31.55 30.75 27.79 25.84
40.63 41.31 41.75 41.72 41.83 42.18 42.28 42.50 42.64 42.53 42.11 42.03 40.91 36.22 32.80 37.23 42.68 41.50 37.80 34.07 33.68 34.87 35.90 31.58 35.73 31.41 36.54 35.23 33.99 33.66 35.16 31.31 28.76 33.32 37.50 33.13 30.97 30.19 30.24 30.47 30.78 30.54 31.48 32.88 32.76 29.90 29.93 28.71 28.16 27.58 27.11 27.42 26.66 25.01
40.27 41.10 41.98 42.30 41.98 42.17 42.17 42.38 42.27 42.17 41.74 39.15 35.03 33.18 39.61 42.69 38.84 36.28 31.91 30.31 31.72 30.19 34.17 34.46 35.02 32.66 38.88 31.74 31.71 35.37 31.82 32.86 26.71 31.71 31.32 30.07 28.00 27.11 29.36 29.13 30.16 30.55 30.79 30.07 29.78 29.12 29.34 29.02 27.68 25.71 24.18 23.65 22.60 21.53
40.40 40.82 41.33 41.80 41.75 42.00 42.10 42.41 42.18 40.61 39.30 38.38 38.30 39.95 38.64 35.58 34.22 30.25 28.59 30.88 30.36 27.96 34.99 33.34 34.47 36.35 37.13 39.19 34.02 34.80 30.10 32.07 25.03 36.05 30.54 27.13 25.11 27.74 27.68 27.21 27.83 28.11 27.60 26.66 27.68 26.27 26.49 26.19 25.89 24.33 22.19 20.44 19.81 19.77
40.78 40.95 41.34 41.56 41.90 41.26 41.93 42.08 41.85 41.69 41.33 40.00 37.26 34.57 34.23 32.80 26.69 24.19 21.95 25.71 27.71 33.59 35.96 36.83 34.08 37.25 37.71 37.99 34.97 32.70 28.11 27.44 35.81 30.50 28.09 25.73 26.27 27.09 27.11 26.82 25.94 26.69 26.02 24.93 24.22 24.23 23.33 22.34 22.69 21.32 19.53 19.85 19.22 17.76
41.20 41.28 41.53 42.00 41.87 41.90 41.85 41.94 41.73 41.30 38.25 35.05 31.60 26.64 28.56 25.49 27.78 29.67 30.91 33.79 35.93 37.17 36.69 37.11 34.52 34.37 36.84 33.81 33.08 26.79 32.94 32.99 28.17 26.01 25.91 25.96 25.99 26.36 26.54 26.61 23.92 22.45 22.41 21.70 20.96 20.34 19.50 19.15 18.27 18.50 18.88 19.11 16.77 14.56
40.94 41.14 41.63 41.51 41.62 41.63 41.75 41.46 41.70 39.85 35.26 33.62 32.97 26.59 27.67 33.35 32.95 33.53 35.35 35.41 35.61 35.31 37.23 34.23 34.56 34.37 32.24 30.52 32.20 31.23 28.24 26.18 28.36 25.44 25.74 26.34 25.73 24.30 23.26 22.53 21.27 20.77 20.45 20.05 20.15 19.14 19.10 19.52 19.16 18.56 18.86 17.40 15.75 13.74
41.02 40.71 39.98 41.37 41.47 41.58 41.31 40.25 39.05 38.01 36.08 33.09 31.91 28.37 31.15 31.39 30.86 31.27 31.71 33.18 37.01 34.63 35.54 34.70 32.58 30.60 30.08 31.41 28.71 26.89 26.61 25.86 25.21 25.03 25.69 25.34 23.91 23.30 22.47 21.81 21.77 22.29 21.65 20.74 20.69 20.42 20.24 20.30 19.03 17.40 17.28 16.48 15.03 15.03
40.23 38.24 40.89 41.28 41.32 41.24 40.56 37.28 35.99 34.36 33.09 29.87 28.41 31.16 32.26 32.44 32.56 32.82 33.68 34.57 37.07 34.09 31.71 33.25 30.46 29.83 32.38 28.46 27.11 30.90 27.36 26.03 25.94 25.84 26.52 25.33 22.92 21.89 21.95 21.77 21.98 22.24 22.19 21.91 21.85 21.74 20.58 19.71 18.86 19.47 18.38 18.23 19.30 17.62
38.44 41.28 41.31 41.28 40.43 37.72 35.70 37.47 35.18 31.74 27.59 29.73 28.70 29.26 30.39 31.79 32.64 32.44 33.34 35.31 34.27 34.40 34.87 33.06 34.62 29.21 28.09 26.75 29.41 27.57 26.46 27.19 27.18 25.47 24.49 23.68 22.25 21.86 22.52 21.95 23.23 23.09 22.69 22.70 21.52 20.81 20.63 20.82 22.00 22.12 21.56 21.31 20.54 19.85
40.62 41.65 41.19 40.52 39.47 37.17 34.71 34.05 35.67 28.55 28.50 28.99 29.30 29.40 29.94 30.29 31.99 32.85 33.90 34.82 36.10 37.03 34.81 33.55 30.34 30.08 30.33 29.99 28.90 27.01 27.06 26.50 23.94 23.21 23.10 23.67 23.94 23.55 23.22 23.40 23.48 23.38 22.92 22.12 22.91 23.74 24.03 23.15 23.26 24.09 24.07 23.39 22.14 23.19
41.37 41.14 41.23 40.76 40.81 36.51 31.80 32.07 37.33 31.53 27.55 29.07 30.28 28.71 30.20 30.39 30.68 31.31 32.00 33.51 33.95 33.20 31.56 30.30 29.93 28.76 28.87 29.33 32.13 29.95 29.26 28.39 24.60 21.57 21.13 22.51 23.30 23.54 23.09 23.51 23.96 24.15 24.10 24.40 24.01 23.67 23.39 23.31 23.69 23.02 21.24 19.84 20.36 21.26
39.82 40.33 40.66 39.43 36.82 36.49 33.79 32.51 31.84 32.60 30.37 28.81 30.05 30.17 28.68 29.74 29.04 29.50 30.36 33.51 31.37 31.70 30.81 29.76 27.94 27.23 30.25 31.89 31.81 31.11 29.59 28.30 26.53 25.30 22.50 21.09 23.73 24.31 24.57 26.30 25.34 25.18 24.60 24.12 23.83 22.19 20.51 23.00 22.67 22.12 21.78 21.81 21.44 20.65
37.84 39.66 37.53 37.75 33.64 32.66 31.59 34.96 32.79 32.85 30.26 29.20 28.60 30.79 27.82 26.51 27.43 28.70 32.07 29.63 30.55 29.24 29.68 29.49 27.33 26.51 27.18 27.85 28.79 29.81 30.12 29.95 29.49 27.58 26.57 25.37 23.99 24.10 25.02 25.36 25.08 24.87 25.63 25.20 24.57 23.87 23.17 22.45 21.06 21.36 20.77 20.90 16.73 19.84
39.61 39.37 36.86 33.80 29.37 29.23 26.97 35.08 28.75 30.03 25.56 26.80 29.11 27.00 26.45 26.78 28.77 30.08 27.00 29.45 27.33 29.22 29.48 29.10 28.80 29.75 27.37 28.10 28.17 28.34 29.09 28.26 26.59 26.47 26.44 26.86 27.14 27.86 26.26 26.04 27.11 25.36 23.60 23.54 24.00 23.10 20.99 13.82 15.27 18.36 20.08 19.13 19.80 19.32
39.69 34.55 31.73 30.79 30.48 25.69 29.44 27.51 30.82 28.52 29.02 26.97 26.19 23.90 25.33 26.74 28.33 26.38 25.24 27.64 26.52 28.11 27.70 27.59 27.06 25.34 25.92 25.96 25.41 26.10 28.33 29.03 27.52 28.25 27.72 25.79 24.46 24.47 25.45 24.89 25.02 24.84 23.88 23.68 22.39 21.62 20.59 20.50 14.58 18.39 19.28 17.59 17.47 17.42
31.13 27.85 30.56 25.43 29.56 26.71 25.22 25.89 26.24 26.09 24.50 25.38 24.61 24.61 24.92 27.03 23.52 23.99 24.17 25.39 25.43 25.54 25.72 27.19 27.27 27.03 25.75 26.77 26.81 26.80 28.94 27.88 25.37 24.23 27.12 27.04 25.73 24.43 23.54 23.19 22.63 21.85 22.92 21.96 20.61 20.37 20.23 19.74 18.19 17.57 17.11 16.56 15.52 14.65
26.73 26.00 27.51 28.06 27.47 27.06 26.81 24.10 24.51 25.12 25.39 24.10 25.20 27.55 26.80 24.88 22.20 22.75 25.06 25.98 25.23 26.08 26.52 27.48 27.40 26.88 26.68 26.56 24.14 24.87 26.35 28.84 27.32 24.42 24.41 25.78 25.07 24.55 22.39 20.36 19.39 18.82 21.47 21.49 20.24 19.04 18.59 17.98 16.16 14.66 14.03 14.14 7.57 10.66
24.73 24.09 27.05 28.95 29.77 28.97 27.05 28.41 29.14 26.90 23.97 23.56 24.92 23.17 22.92 19.95 22.12 22.23 24.63 26.45 27.29 28.38 29.00 30.02 29.67 28.32 26.84 26.27 26.48 25.86 25.27 26.24 26.24 23.72 23.62 22.56 22.38 22.63 22.69 21.33 19.22 18.31 19.75 18.24 17.67 16.41 15.60 15.31 14.53 13.56 13.38 13.99 14.31 13.59
26.41 26.84 22.39 24.94 26.17 27.75 25.29 25.72 24.40 24.44 25.83 27.98 26.51 22.01 21.70 22.76 21.18 22.70 23.60 26.39 29.64 29.53 29.78 30.24 30.79 29.23 26.58 25.00 23.75 22.45 20.94 21.22 21.22 20.96 21.00 20.36 20.08 18.97 17.83 16.36 15.14 15.06 14.05 13.41 15.00 15.06 14.69 14.11 13.16 13.05 12.60 11.43 11.25 12.66
23.51 25.57 24.69 21.14 22.64 23.97 25.06 24.95 25.92 24.81 23.91 26.11 25.17 23.58 21.14 19.88 21.57 22.39 22.66 25.60 27.34 26.05 24.04 22.81 23.35 25.04 24.22 23.58 23.59 23.27 22.51 21.50 18.83 15.61 15.91 15.04 14.74 15.35 18.10 17.44 16.95 16.99 17.06 13.29 9.94 12.97 10.98 11.68 10.17 9.38 9.84 10.20 11.03 11.53
21.40 25.88 22.67 19.72 18.58 20.77 21.92 22.58 22.70 22.04 23.03 23.40 23.31 20.66 19.78 19.20 20.46 23.05 23.38 24.14 24.09 23.91 24.07 22.95 22.60 22.28 20.68 20.70 20.06 19.98 21.82 22.07 22.21 20.69 18.68 17.57 16.69 16.67 16.49 15.75 14.85 14.50 16.07 15.61 14.40 12.23 9.24 11.01 13.12 11.34 9.57 10.99 10.80 8.58
23.16 23.42 21.57 21.95 19.79 20.80 20.49 20.85 21.06 21.54 21.95 21.83 22.14 23.36 19.70 17.54 19.44 22.15 24.01 25.99 26.55 25.19 23.24 21.40 22.19 22.54 21.12 19.38 17.98 16.32 13.94 15.61 16.42 18.23 18.53 17.96 17.71 16.70 15.48 14.86 15.11 14.94 14.09 13.14 12.11 11.31 9.17 9.37 10.21 9.72 9.03 7.59 7.04 6.49
21.66 21.28 19.02 17.29 16.69 17.88 19.17 19.12 18.97 19.63 19.40 19.05 19.03 19.94 17.77 18.69 16.08 17.52 21.06 23.40 22.81 22.48 23.39 23.05 21.83 21.54 21.43 19.60 18.21 18.58 16.42 15.58 15.72 16.17 16.34 16.00 14.20 13.63 13.01 12.23 12.84 12.79 11.68 11.15 10.36 9.84 8.26 7.37 7.41 7.37 6.76 6.09 4.89 3.90
18.84 19.95 20.25 17.65 15.14 15.09 17.88 19.01 17.74 17.64 18.58 18.68 19.11 18.90 19.53 20.72 15.99 16.58 20.02 21.26 23.68 23.57 23.05 21.97 19.68 19.63 18.08 17.23 16.28 15.66 13.66 12.29 10.76 11.40 10.03 10.52 11.39 12.48 12.59 12.69 11.96 11.12 10.22 10.06 10.03 9.00 7.64 6.06 5.39 4.37 4.75 3.57 1.90 0.67

GFSWCAN_sfc_wetblb_087.txt.gz
Wetbulb
45.24 45.12 45.05 44.82 44.84 44.62 44.61 44.44 44.44 44.47 44.42 44.55 44.57 44.04 43.47 43.67 43.77 40.53 39.24 40.68 35.84 30.41 33.21 36.60 37.06 31.19 31.22 30.45 23.25 29.10 27.27 28.38 26.52 21.50 25.36 18.80 16.21 24.57 24.98 31.14 28.97 26.70 25.79 25.37 26.47 22.84 21.15 32.42 33.11 28.15 33.44 33.86 32.33 30.54
44.67 44.68 44.72 44.57 44.15 44.39 44.42 44.36 44.29 44.30 44.33 44.17 44.62 44.28 43.74 43.42 43.65 42.59 36.60 40.44 39.79 32.53 32.43 37.52 38.23 38.50 36.51 35.39 31.01 30.61 28.57 29.44 28.25 22.49 24.29 24.86 25.17 27.76 28.27 24.18 32.92 27.43 31.06 27.28 27.48 25.59 32.64 32.55 31.07 33.40 34.03 32.62 31.96 30.59
44.14 44.47 44.49 44.43 43.97 44.07 44.31 44.17 44.05 43.87 44.07 44.14 44.17 43.94 43.71 43.37 43.44 43.13 38.72 38.66 36.48 30.56 32.03 32.74 33.74 39.08 41.40 38.83 38.48 28.15 33.08 35.86 31.99 33.20 25.03 26.31 23.56 29.65 25.47 27.75 29.52 30.77 33.60 30.35 29.83 29.33 29.34 31.91 33.26 33.13 33.97 31.71 30.87 30.97
43.81 44.25 44.39 43.64 42.75 43.68 43.99 43.82 43.72 43.57 43.81 44.07 44.05 44.26 43.69 43.25 43.55 42.79 37.72 40.40 37.70 34.06 24.41 32.69 41.82 37.50 41.98 40.80 39.19 37.49 35.15 36.44 35.23 31.95 26.11 24.46 23.57 32.77 29.18 31.32 27.87 29.20 30.41 28.42 29.51 30.56 30.05 30.67 32.99 34.18 32.93 31.71 30.94 31.15
43.40 43.83 43.25 43.06 43.45 43.59 43.64 43.50 43.29 43.42 43.52 43.90 43.90 43.42 43.05 43.04 43.42 40.52 39.38 39.80 40.34 34.88 27.74 28.20 36.37 39.71 40.28 39.69 38.63 37.83 35.64 33.13 29.81 26.81 24.27 24.28 28.74 31.85 31.36 32.15 26.19 30.28 27.31 24.37 24.26 29.64 29.08 29.73 32.46 32.37 30.62 31.85 31.07 28.91
42.78 43.14 43.09 43.17 43.17 43.38 43.23 43.13 42.79 43.06 43.18 43.59 43.43 43.12 43.17 43.06 42.36 37.22 28.98 38.69 40.86 39.02 28.21 21.96 34.74 36.16 38.09 38.85 37.72 36.67 35.26 32.53 30.34 26.97 25.44 30.27 33.70 32.58 23.10 22.96 29.51 30.67 32.30 31.97 28.06 31.66 30.44 32.17 32.85 32.40 30.09 30.12 30.02 29.17
42.09 43.03 43.19 42.94 43.06 43.13 42.73 42.96 42.70 43.02 43.33 43.33 43.75 43.38 42.80 42.96 38.38 34.99 33.73 38.53 43.03 41.07 30.71 25.56 26.76 34.93 38.30 37.40 34.94 35.03 36.57 33.24 30.87 28.58 27.45 28.94 30.00 35.11 26.12 24.16 28.98 29.95 31.59 32.21 33.58 32.71 29.37 30.91 29.37 31.51 30.32 30.33 30.71 29.29
41.72 41.76 41.93 41.39 42.27 42.77 42.50 42.32 42.38 42.89 42.82 43.12 43.11 42.79 42.82 42.51 40.40 35.19 38.72 42.55 41.75 35.28 34.16 26.41 24.80 28.65 36.53 29.35 28.29 34.90 31.52 31.01 30.40 28.41 30.56 29.89 31.74 31.84 25.41 28.52 30.49 30.94 31.50 31.15 32.63 32.53 31.56 32.08 31.71 31.08 32.16 29.57 26.61 24.79
41.52 41.81 41.35 42.27 42.47 42.62 42.49 42.40 42.54 42.90 42.85 42.65 42.55 42.38 38.58 35.37 32.85 36.53 43.37 41.71 40.36 34.60 28.16 24.96 20.61 17.42 36.50 31.83 31.56 31.75 33.30 22.04 31.31 25.73 29.36 30.91 23.52 22.96 28.71 28.19 27.88 28.99 28.83 30.24 32.55 32.10 31.47 29.90 28.41 28.29 28.83 26.96 23.99 23.35
41.08 41.64 41.12 42.24 42.27 42.68 42.45 42.51 42.55 42.75 42.58 42.48 38.03 32.88 29.01 34.12 42.68 40.39 37.06 32.69 32.39 33.67 33.91 27.98 30.42 23.25 32.85 25.82 24.24 26.31 26.76 24.64 23.66 27.59 32.00 22.97 24.28 28.85 29.77 30.04 30.20 30.90 32.13 31.04 30.75 27.41 29.07 25.77 24.61 23.96 23.64 24.49 23.64 22.08
40.54 40.89 41.17 41.09 41.91 42.30 42.42 42.46 42.36 42.41 41.67 34.47 30.92 30.45 38.46 42.77 37.11 35.16 29.37 28.09 25.04 27.77 28.82 29.04 29.12 25.59 34.19 22.47 25.10 31.39 27.77 27.91 24.56 28.24 25.74 21.73 23.54 26.11 28.73 28.11 28.39 27.66 28.84 28.52 28.01 26.84 26.11 25.95 23.49 21.97 21.03 20.47 19.40 18.74
40.44 40.93 40.98 40.63 41.59 42.25 42.17 42.39 42.38 37.37 35.11 35.36 37.20 38.89 38.46 34.98 32.10 28.66 26.02 26.03 27.07 24.51 28.11 26.22 27.73 30.65 31.40 35.33 28.78 30.14 26.85 26.62 23.20 30.15 24.41 17.63 24.02 26.40 26.01 25.38 25.12 25.24 24.64 24.55 24.66 23.58 24.42 23.86 22.42 20.50 19.21 18.19 17.25 16.21
40.51 41.14 41.36 41.88 41.83 42.17 42.09 42.10 41.93 41.74 41.03 38.79 35.71 32.02 32.10 29.10 25.29 18.14 14.65 20.44 18.40 25.64 27.50 27.07 24.50 29.21 30.47 32.70 29.37 30.33 26.06 22.96 31.97 26.67 22.17 22.48 24.58 25.16 24.72 24.29 23.39 24.05 23.75 22.98 21.11 20.44 19.74 19.11 19.38 18.23 16.33 13.34 13.87 11.44
40.91 41.32 41.39 41.84 41.90 41.90 42.14 42.07 41.92 40.28 36.67 32.39 30.46 20.72 23.74 18.94 19.15 20.27 22.40 23.24 26.80 26.94 27.20 26.37 24.83 24.61 26.81 25.39 26.03 25.07 24.27 30.05 26.17 20.48 21.17 23.10 24.75 23.68 24.10 23.16 21.13 18.27 17.72 17.83 16.19 16.57 14.62 12.48 11.55 11.87 10.83 7.68 7.79 4.37
41.02 41.46 41.35 41.28 41.54 41.80 41.92 41.84 41.05 37.15 33.97 30.48 31.05 20.82 18.84 27.67 30.42 31.18 31.92 31.86 32.70 33.65 27.42 25.55 25.83 27.74 29.38 26.43 28.46 25.47 22.03 20.42 24.58 21.40 21.74 22.85 21.97 19.99 17.93 17.51 15.48 13.90 12.96 13.70 12.25 13.14 13.03 12.69 14.02 11.66 6.20 5.61 4.63 2.02
41.14 40.82 39.08 41.43 41.62 41.95 41.66 40.85 38.11 36.38 33.25 31.21 28.75 26.97 26.88 28.58 28.35 28.86 30.04 30.59 33.40 32.04 32.70 32.47 29.57 27.48 24.55 24.85 24.66 24.22 25.19 21.86 22.13 22.80 23.12 23.01 19.81 18.36 17.03 16.42 15.75 17.76 15.79 13.87 13.32 13.96 13.36 11.90 9.80 7.26 5.98 5.39 3.74 4.14
40.01 35.97 40.91 41.42 41.61 40.68 39.86 36.09 34.58 30.14 30.16 28.67 25.78 26.56 29.75 30.46 30.37 31.07 30.89 31.01 34.32 32.26 28.52 29.50 26.48 24.13 31.01 24.46 22.52 23.23 22.98 23.38 24.08 24.12 23.93 21.24 19.44 17.54 16.58 18.56 16.92 16.94 17.20 17.04 16.42 16.19 12.02 11.84 12.97 14.89 13.69 13.53 14.90 14.26
36.24 39.69 41.33 41.20 40.10 38.62 36.34 36.44 32.94 30.77 27.66 28.69 24.67 27.74 29.17 30.20 31.01 30.89 31.60 31.16 32.19 31.96 31.47 30.61 30.88 23.86 17.63 21.08 24.56 24.65 24.74 24.85 24.60 22.62 20.90 19.22 17.82 17.03 18.30 16.97 19.90 21.08 20.51 19.17 16.31 15.06 15.42 15.34 17.81 18.76 18.75 19.08 18.52 17.55
38.96 39.50 41.09 40.56 38.06 34.99 32.25 33.41 34.56 27.41 27.56 28.13 27.10 28.32 28.61 28.82 30.32 30.87 31.39 31.88 32.93 33.86 29.28 28.16 24.76 22.91 25.90 27.87 25.59 24.86 24.53 22.46 19.41 19.53 19.53 16.04 16.98 20.05 20.80 22.16 22.00 21.63 17.67 17.78 19.95 19.59 19.82 20.87 19.01 19.67 20.28 19.84 16.16 18.54
41.10 40.98 40.66 40.50 39.30 34.62 31.50 31.92 35.83 29.17 24.94 25.86 29.07 27.26 27.86 28.20 29.13 29.79 30.20 31.25 31.47 30.67 26.56 25.27 26.10 26.15 27.00 27.63 27.75 26.08 26.38 23.66 20.53 18.77 19.59 21.26 20.70 21.50 21.71 22.03 22.44 19.90 19.95 21.91 20.96 17.82 18.78 18.79 18.98 18.28 15.24 14.49 11.62 9.44
39.21 39.48 39.96 38.60 35.47 35.57 31.44 29.62 29.30 29.75 27.61 27.05 28.75 28.09 26.66 28.28 27.78 28.00 28.87 31.17 28.73 27.45 27.20 27.14 25.49 26.08 28.28 29.14 29.95 28.55 25.07 23.13 20.09 18.56 18.94 18.82 21.89 22.17 20.58 22.45 21.64 20.75 18.91 16.16 15.28 14.06 12.84 17.40 16.52 16.37 9.06 6.06 5.68 6.36
37.31 39.56 36.62 36.75 32.84 31.69 29.19 30.77 29.73 29.41 27.48 27.07 27.29 29.11 26.16 25.03 25.93 27.32 30.00 27.59 26.91 25.89 26.84 23.65 22.24 24.97 26.64 26.72 27.23 27.74 25.11 26.47 24.68 22.26 20.86 21.29 20.85 19.05 22.49 19.89 19.28 20.20 21.25 18.59 19.52 15.93 15.07 14.87 13.80 11.97 6.95 6.87 8.06 7.72
38.97 38.09 34.46 32.84 29.07 26.97 25.66 31.96 27.57 28.29 24.73 25.50 27.97 26.10 25.18 25.63 27.44 27.70 22.60 26.68 24.07 21.87 23.24 24.76 24.68 27.15 26.66 26.92 26.50 27.11 26.88 25.21 22.98 22.36 21.56 21.11 19.77 22.99 20.11 19.58 23.52 20.29 16.78 16.55 19.02 15.74 8.96 9.38 6.32 4.80 4.44 4.36 4.57 4.46
39.75 33.41 30.23 28.38 29.45 23.91 25.82 25.74 28.29 26.75 27.78 25.59 24.84 23.21 23.94 25.39 26.19 20.48 22.35 22.69 20.40 21.16 24.71 24.19 25.01 23.73 24.57 24.72 20.94 21.63 25.04 25.09 22.88 20.56 24.00 23.55 22.56 21.07 21.25 20.63 19.19 17.71 17.43 18.80 16.62 12.72 9.82 4.35 5.08 6.36 5.72 6.74 1.59 0.19
28.96 26.34 28.91 25.37 28.06 24.91 23.32 22.65 24.14 23.94 18.18 21.38 21.19 22.79 22.51 22.93 21.00 21.42 22.23 19.74 22.22 24.95 21.80 24.53 24.45 22.79 16.97 16.03 19.05 23.68 24.85 25.42 23.49 21.29 17.72 22.10 19.68 19.66 19.18 17.95 15.18 14.93 14.96 8.76 7.16 5.91 6.06 8.58 4.45 1.74 2.61 -1.75 -0.84 -2.61
25.93 25.60 25.67 25.74 25.42 23.53 24.48 22.24 22.75 23.32 23.86 21.70 23.59 23.14 21.20 22.83 19.79 18.06 20.73 20.03 20.11 24.21 23.00 25.22 24.18 22.99 23.41 24.12 21.79 22.60 21.98 24.64 24.48 21.29 21.47 22.04 20.26 16.32 13.10 11.35 7.93 8.29 12.27 7.66 5.43 3.41 4.39 5.77 1.62 -0.24 -1.48 -0.91 0.31 -3.05
22.48 23.38 24.44 27.19 27.95 28.27 24.41 27.28 27.64 24.87 22.78 21.77 22.97 19.83 21.35 17.47 16.04 16.29 18.31 20.33 22.97 18.94 23.97 27.16 24.90 26.28 23.38 21.69 20.67 20.35 21.09 22.79 20.45 18.44 18.02 18.26 17.26 15.49 13.17 10.90 13.14 10.51 8.88 7.43 5.12 0.83 0.87 -1.02 -2.46 -2.94 -3.57 -4.57 -1.23 0.74
26.36 26.17 14.03 18.38 22.95 24.93 24.21 23.84 21.66 22.26 22.14 25.87 24.69 20.51 19.78 17.89 13.13 16.46 17.70 19.60 26.04 23.16 24.89 26.74 27.98 25.39 21.32 19.40 18.97 17.75 16.72 17.12 16.68 16.38 16.09 14.85 12.83 9.72 5.86 6.21 8.20 10.12 3.45 3.98 3.49 3.91 2.44 -2.25 -3.74 -4.44 -4.71 -5.64 -6.32 -5.74
19.50 23.28 23.63 22.31 21.98 17.86 23.27 21.88 20.74 19.08 20.32 20.49 22.87 19.81 12.47 14.48 16.22 14.64 14.89 21.45 23.43 21.56 20.20 19.76 20.31 20.83 20.05 19.97 19.63 18.40 16.87 14.50 11.64 8.15 5.51 2.28 1.55 5.29 3.40 2.13 1.98 4.07 3.05 3.65 11.37 5.42 2.13 -1.75 -4.43 -5.31 -5.18 -5.37 -4.37 0.04
20.35 24.62 18.21 12.58 11.15 15.76 16.46 16.98 17.15 17.42 17.91 16.95 16.94 16.33 14.52 12.69 11.48 14.31 16.92 19.01 17.97 18.49 17.64 19.24 20.01 19.07 17.93 17.28 17.35 16.59 15.88 12.93 11.10 10.90 10.28 7.54 6.41 6.93 5.71 3.09 2.33 2.83 6.96 8.86 4.84 2.08 6.85 -1.33 1.62 0.03 -1.44 -3.98 -7.28 -9.99
22.54 22.32 20.15 18.09 15.61 16.06 17.81 16.71 15.08 14.42 14.01 13.67 13.03 16.36 11.35 9.02 10.92 13.58 17.51 19.54 19.50 22.64 18.73 19.03 19.06 19.19 18.96 16.84 14.61 11.65 7.98 8.90 8.62 11.54 13.43 13.00 10.32 8.94 7.53 5.61 3.69 4.63 5.17 3.03 2.73 -3.63 -5.93 -7.00 -8.01 -8.35 -8.41 -8.85 -6.88 -9.78
19.68 20.49 17.90 14.50 10.90 14.50 13.85 13.05 13.00 13.06 11.80 10.86 14.17 12.55 10.11 8.89 5.71 8.36 12.76 17.09 20.76 18.73 16.23 19.53 18.75 18.72 17.75 16.86 16.29 14.70 12.36 10.15 9.08 10.84 9.28 8.97 8.37 6.94 6.17 3.88 4.17 5.06 2.66 1.21 -2.40 -5.46 -7.60 -8.82 -10.11 -10.55 -11.75 -12.59 -13.69 -14.99
16.85 18.74 18.26 13.72 7.91 10.05 12.76 14.02 13.76 13.91 14.35 14.51 16.24 11.71 10.96 13.29 8.77 8.66 10.61 13.69 14.11 21.68 20.19 17.15 16.66 16.52 15.46 13.91 11.82 9.40 8.45 6.91 8.36 11.27 9.48 8.79 7.65 8.30 5.18 5.11 3.47 2.52 1.97 -1.14 -5.17 -7.19 -8.50 -9.10 -11.61 -12.31 -13.76 -16.45 -18.21 -19.11

GFSWCAN_sfc_wetblb_090.txt.gz
Wetbulb
45.29 45.03 44.52 45.06 45.03 44.64 44.83 45.10 44.88 44.47 44.43 44.66 43.99 43.55 43.55 43.62 44.01 40.22 36.99 37.68 34.63 27.93 31.46 34.90 35.55 29.72 29.03 27.93 21.92 26.74 25.15 25.90 24.93 20.71 20.92 15.48 14.48 22.70 25.20 28.15 27.77 26.47 25.19 24.32 25.80 21.97 19.37 30.46 30.84 26.13 31.11 31.87 29.64 28.20
44.81 44.53 44.85 44.61 44.63 44.48 44.69 44.73 44.76 44.45 44.60 44.68 44.09 43.63 43.57 43.57 43.77 42.41 34.17 38.76 38.01 31.17 31.29 35.21 35.72 36.55 35.20 34.22 29.23 28.23 26.73 27.60 26.11 20.59 21.40 21.55 21.02 24.21 26.02 24.00 32.10 24.21 27.03 25.31 25.71 23.58 31.31 31.90 31.16 33.38 33.44 31.21 30.01 28.90
44.42 44.68 44.62 44.39 44.24 44.55 44.52 44.46 44.32 44.43 44.43 44.60 44.58 43.72 43.59 43.40 44.06 41.97 36.00 36.86 34.83 28.11 29.53 31.58 32.15 36.84 39.17 36.71 35.96 27.57 31.10 34.15 30.23 29.65 22.61 22.73 19.79 26.39 23.56 26.56 27.65 29.15 31.93 28.32 27.45 28.13 28.86 31.48 32.89 32.06 31.88 29.14 28.81 28.07
44.20 44.26 44.16 44.12 43.82 44.16 44.08 44.12 44.11 44.03 44.00 44.36 44.39 43.89 43.40 43.28 43.50 42.31 36.53 37.73 35.19 31.25 24.10 32.27 39.99 36.13 40.12 38.41 36.70 35.45 34.10 34.69 33.32 30.35 22.96 20.68 21.58 29.92 26.20 30.47 25.78 27.97 29.31 26.98 26.35 28.75 29.19 29.45 30.66 32.04 29.84 29.61 29.01 29.13
43.01 43.95 43.95 43.76 43.33 43.85 44.02 43.76 43.61 43.67 43.93 43.98 43.82 43.67 43.17 43.59 43.38 39.23 36.99 37.19 38.16 31.46 24.45 26.19 33.77 37.40 38.68 38.16 37.03 35.79 34.13 31.33 28.12 25.31 21.75 21.52 27.11 28.03 29.91 28.45 25.39 29.54 26.45 24.45 20.24 27.98 27.01 28.27 30.60 31.16 30.72 28.49 28.03 26.66
44.03 44.12 43.81 43.15 42.88 43.63 43.62 43.40 43.40 43.48 43.60 44.13 43.50 43.16 43.24 43.12 40.72 33.15 25.75 36.74 39.38 36.29 25.43 20.39 32.08 33.43 35.42 36.74 36.08 34.52 33.22 30.47 28.27 25.69 23.42 27.37 31.68 28.53 23.62 20.68 28.55 31.01 31.50 31.40 24.06 30.18 29.71 31.08 30.59 30.88 28.77 27.78 27.02 25.93
43.04 43.08 42.73 43.01 43.20 43.42 43.23 42.94 42.96 43.32 43.45 43.60 43.91 43.07 42.99 42.50 36.62 30.96 29.16 38.25 42.21 35.79 23.68 19.45 24.96 32.63 35.96 35.69 33.42 33.52 36.50 32.29 30.05 27.10 25.88 26.21 28.03 32.70 25.55 23.69 28.39 29.92 31.86 31.91 34.36 31.24 28.06 30.28 27.75 30.74 29.69 28.33 28.67 27.78
42.70 43.06 42.78 42.63 43.20 43.05 42.71 42.35 42.83 43.32 43.14 43.23 43.50 42.93 42.86 42.80 39.50 34.14 39.15 42.58 39.68 32.50 32.63 18.88 22.75 26.92 34.54 28.10 28.49 32.17 29.41 30.75 30.04 26.84 27.26 27.46 29.81 30.44 24.09 28.13 29.46 30.41 30.50 31.28 31.39 32.54 31.08 31.40 31.73 29.80 27.99 26.05 24.29 23.53
42.51 42.69 42.79 42.70 42.76 42.74 42.60 42.63 42.61 42.93 42.97 42.87 43.02 41.92 35.99 32.69 29.08 34.82 42.38 41.35 37.85 31.10 27.69 24.07 18.23 14.93 32.03 29.12 29.06 29.96 30.75 20.71 29.00 23.36 26.35 29.77 23.72 23.11 25.10 28.61 28.64 29.47 29.87 29.19 33.12 31.72 29.30 27.13 27.60 27.70 25.63 23.87 22.38 21.98
42.01 42.10 41.97 42.49 42.58 42.29 42.23 42.34 42.62 42.89 42.98 42.11 35.48 29.31 27.72 30.06 42.13 40.16 35.97 31.35 32.37 32.72 31.59 26.67 27.64 21.69 28.57 21.09 21.16 23.86 23.99 23.16 20.54 25.42 28.82 22.28 23.31 28.49 29.28 29.49 30.28 31.20 30.01 32.26 29.71 27.53 25.56 24.68 23.48 23.50 22.97 23.13 21.63 20.64
41.56 41.48 42.08 42.42 42.68 42.53 42.53 42.56 42.62 42.62 39.91 31.67 29.35 29.02 38.02 41.73 36.10 33.02 27.49 25.29 26.18 25.73 27.18 27.26 26.71 23.94 31.57 20.94 21.61 28.57 28.22 28.72 25.00 25.81 26.64 22.96 22.77 25.91 27.13 25.63 26.48 28.65 28.54 27.89 27.19 26.65 27.24 24.53 21.80 20.60 19.74 19.61 19.07 18.44
41.20 41.26 41.71 42.16 42.43 42.31 42.32 42.59 42.48 35.35 32.27 32.30 35.25 39.01 38.48 34.00 30.38 25.74 23.05 24.18 24.32 23.45 25.48 24.00 26.00 27.98 28.80 33.12 24.21 29.12 27.18 27.48 23.50 29.94 24.24 16.30 21.00 25.00 24.84 24.07 24.02 24.34 23.46 22.50 23.52 22.72 22.61 21.58 20.68 19.41 17.94 16.52 15.09 13.34
40.77 41.15 41.91 42.09 42.12 42.45 42.59 42.32 41.43 41.48 39.15 37.82 35.52 30.58 29.57 28.64 23.04 17.93 11.90 18.88 15.68 23.01 24.35 23.38 27.76 27.32 28.72 29.09 22.90 28.93 26.77 23.00 29.92 21.17 19.81 18.42 23.10 23.96 23.06 22.65 22.41 22.53 21.36 20.32 19.02 19.26 18.97 17.78 17.78 16.14 13.48 9.72 11.01 8.26
41.20 40.94 41.17 41.19 41.93 42.16 42.38 42.18 42.20 39.12 34.22 28.33 28.17 22.54 22.63 15.01 14.90 16.80 18.58 17.99 23.23 22.34 24.43 22.11 21.94 22.57 22.67 22.46 21.28 24.57 23.37 29.48 20.59 17.21 17.43 18.71 22.96 22.69 22.55 22.20 20.55 16.83 15.68 15.78 14.08 13.43 11.87 11.21 8.66 7.69 6.72 3.55 4.47 1.48
41.16 40.35 41.17 41.30 41.96 42.04 41.87 41.56 39.94 35.09 32.43 29.42 29.52 17.92 16.24 22.96 27.88 29.19 31.17 30.55 28.78 32.73 23.77 23.04 23.74 25.10 22.41 22.97 27.70 25.48 24.06 21.05 23.13 19.97 17.25 19.38 20.76 18.21 16.31 15.49 13.04 10.78 9.18 9.25 6.83 8.24 9.16 9.29 8.05 2.33 -0.61 -0.52 0.45 -2.14
41.31 40.97 39.58 41.39 41.69 41.89 41.38 38.83 35.92 33.27 31.03 29.58 29.19 26.48 27.63 27.48 26.50 28.18 29.26 29.64 32.59 31.73 30.05 29.20 27.71 25.85 25.82 23.92 25.29 23.15 24.13 21.69 14.98 16.82 21.61 21.38 18.06 12.45 12.05 12.28 10.31 10.32 11.37 11.97 11.41 10.41 9.66 7.26 6.71 4.80 1.31 1.95 -0.20 -0.13
39.22 35.53 41.20 41.40 41.09 40.89 39.45 33.51 33.48 27.74 27.77 28.95 24.96 26.28 28.17 28.45 28.16 26.91 29.87 30.75 33.18 31.38 26.59 28.54 25.32 21.80 29.04 21.37 22.16 24.20 21.80 12.77 19.41 21.09 21.84 19.23 15.81 12.00 11.76 15.07 15.63 15.05 13.33 12.12 11.42 12.95 10.25 9.03 10.61 13.07 12.31 11.94 12.04 12.17
35.82 39.26 41.14 41.10 39.14 37.66 34.71 35.13 29.76 29.03 25.26 28.13 18.89 18.76 18.49 26.90 29.81 30.72 30.73 31.36 31.29 31.23 31.23 28.99 30.87 24.80 13.57 18.06 20.39 20.73 21.65 21.58 22.18 17.60 16.67 14.92 15.34 14.33 16.92 14.34 13.89 15.45 15.34 14.89 15.32 13.57 13.33 13.64 15.68 15.16 17.18 16.57 15.74 16.24
38.43 39.37 40.81 39.83 36.45 32.47 27.56 29.69 33.92 26.04 26.17 27.07 27.03 27.39 26.58 27.81 29.27 29.77 30.23 30.99 32.38 33.55 28.80 26.32 21.50 19.30 24.96 25.08 16.73 14.64 19.88 12.87 14.84 13.48 11.75 11.15 15.35 15.71 15.48 16.59 16.77 16.17 16.94 16.85 18.75 17.63 17.12 18.94 19.06 18.89 18.51 18.28 15.51 14.92
41.15 40.88 40.27 40.14 39.08 33.85 29.95 30.75 33.67 27.14 19.75 20.45 26.89 25.60 26.34 27.00 28.15 28.52 29.10 30.62 31.00 30.53 27.84 23.06 21.63 22.13 21.37 21.51 22.20 21.23 19.57 19.91 18.68 16.17 15.03 13.89 15.24 17.52 17.89 20.00 19.32 19.03 18.86 19.61 20.55 17.56 17.67 16.71 17.17 16.00 14.77 14.13 8.76 6.71
39.13 39.20 39.33 35.67 35.12 35.32 31.76 28.14 27.53 28.84 27.06 25.99 26.74 27.34 25.74 27.96 26.91 26.79 27.88 30.79 28.71 28.06 23.89 25.78 25.19 21.45 23.51 22.12 24.99 23.44 21.22 21.34 18.34 17.62 17.24 17.85 20.11 20.17 19.97 20.33 21.50 19.90 17.56 16.08 13.15 12.10 12.30 14.56 14.23 14.00 7.06 0.94 -1.19 1.28
36.68 39.31 36.09 36.08 31.93 30.79 27.64 29.54 28.21 27.89 26.77 26.66 27.27 28.66 25.44 23.98 25.14 26.66 29.63 27.56 26.79 23.57 27.04 21.02 20.68 22.97 23.46 22.93 22.16 24.44 22.94 23.03 21.52 19.89 19.26 20.14 19.04 17.89 18.83 16.38 17.88 14.47 15.76 13.51 16.61 11.62 9.49 12.94 11.30 9.34 3.17 0.41 3.16 4.09
37.92 36.57 33.25 32.59 28.46 25.19 22.69 30.40 25.22 26.72 20.74 24.57 27.48 25.40 24.21 24.83 27.00 28.78 23.02 23.21 19.65 19.84 21.80 22.44 23.76 26.91 23.54 23.18 26.45 26.14 25.68 23.54 20.63 20.06 19.90 19.82 18.10 15.63 18.77 16.16 17.23 17.39 17.47 14.98 16.79 13.13 8.80 7.82 5.19 0.67 -0.47 -0.71 -3.37 -3.85
37.97 32.28 28.49 27.24 27.77 22.62 24.80 20.16 26.55 25.91 27.07 25.18 24.01 22.68 23.64 24.53 25.82 19.45 16.75 19.45 15.91 18.49 20.93 21.50 24.59 22.61 24.89 25.37 20.38 21.33 23.10 23.11 20.80 17.56 20.63 21.05 21.12 20.55 19.41 17.60 18.25 17.83 17.30 16.56 15.13 10.36 6.99 0.69 0.86 1.89 -3.34 -2.38 -4.01 -4.19
25.35 25.23 27.52 21.01 25.00 20.99 22.59 23.55 23.52 22.66 20.54 23.09 23.27 21.16 20.91 22.60 15.63 17.57 16.80 14.20 21.29 23.37 21.51 18.80 20.79 22.37 15.12 10.98 16.57 20.25 22.25 23.45 21.41 20.83 19.03 22.17 18.99 18.49 16.31 15.44 13.78 13.17 13.29 9.02 2.34 0.73 -1.32 -4.56 -4.38 -3.87 -3.57 -6.38 -3.95 -6.37
24.73 21.86 21.05 20.02 23.76 23.42 23.01 20.80 21.47 22.15 22.69 19.88 21.08 23.18 19.48 15.79 15.87 15.64 18.19 11.50 14.40 18.14 21.71 20.84 17.23 17.84 19.20 20.99 20.57 22.75 21.67 24.67 23.72 18.42 18.63 21.47 19.50 16.05 12.54 9.66 6.54 6.60 7.80 6.84 4.89 -0.99 1.23 3.56 0.17 -1.59 -5.18 -4.74 -6.01 -9.63
16.42 16.53 21.54 26.18 25.16 27.83 24.53 25.10 25.83 23.13 20.78 20.02 21.59 18.16 20.64 15.72 14.73 13.13 15.21 17.01 16.27 11.99 19.01 23.44 23.58 21.51 20.61 19.69 20.04 19.60 20.59 21.30 20.25 17.15 15.67 14.93 13.51 12.85 14.36 10.16 7.26 7.75 4.63 4.94 1.30 1.64 0.07 -4.33 -6.82 -7.88 -8.00 -11.45 -9.81 -8.55
21.00 19.67 15.92 17.26 19.42 22.51 21.89 21.81 16.26 20.34 22.60 22.30 20.11 15.26 11.15 11.55 12.40 12.08 12.57 17.13 22.11 23.36 23.11 23.65 25.70 23.23 20.03 18.88 17.73 17.14 15.79 15.52 13.68 12.88 12.15 10.31 8.12 7.09 8.94 9.93 10.38 10.51 3.87 2.51 0.31 -0.58 -0.07 -0.38 -2.47 -7.14 -9.10 -8.73 -11.63 -15.25
15.30 17.35 20.16 18.03 16.41 13.60 22.97 23.71 21.09 16.91 19.07 18.29 15.13 10.77 8.56 10.90 11.03 7.09 12.93 17.39 17.68 18.56 16.61 16.72 18.08 19.17 18.12 17.61 16.74 16.98 16.25 15.76 12.75 7.85 4.24 -0.21 -2.56 2.31 -0.96 2.36 2.92 1.29 0.11 2.47 7.37 2.16 1.65 -2.32 -4.44 -7.42 -9.28 -9.28 -7.82 -10.00
16.15 19.10 13.60 8.41 11.29 10.75 10.31 11.92 11.46 11.13 14.58 12.38 13.21 13.81 11.28 6.97 5.54 5.80 10.03 15.72 14.24 10.76 7.90 15.27 18.31 18.84 16.56 15.76 13.70 11.82 11.87 9.43 11.64 12.61 7.65 2.37 2.26 4.69 3.28 2.28 -0.63 -3.12 -2.27 0.73 -0.76 0.68 6.52 -1.19 -0.58 -4.42 -9.15 -10.96 -14.71 -15.98
20.38 18.80 13.76 10.83 6.23 8.31 7.35 7.91 6.98 6.62 4.59 5.13 1.97 6.43 4.60 2.80 6.05 5.43 7.43 9.15 17.31 16.18 17.45 16.41 14.90 17.34 16.69 14.77 12.62 12.03 9.37 11.69 10.34 11.70 11.54 10.50 9.80 6.08 3.60 0.64 1.16 3.34 3.45 1.77 -0.96 -3.69 -7.26 -10.55 -16.70 -17.07 -15.43 -15.25 -18.70 -21.24
16.92 16.68 15.17 8.19 7.15 10.76 11.07 9.36 5.50 3.05 0.88 2.62 3.41 0.34 1.79 0.50 1.01 2.15 4.83 7.32 16.25 15.79 7.41 14.67 16.07 12.47 14.63 16.25 15.33 13.52 13.09 11.19 11.12 10.95 10.55 9.45 7.46 5.66 5.73 4.44 4.19 3.96 2.36 -0.30 -3.05 -7.30 -10.27 -12.35 -17.61 -17.97 -19.79 -22.14 -23.59 -24.32
17.21 18.47 14.12 11.09 8.68 7.89 6.49 11.11 8.49 7.77 5.34 1.61 3.22 4.84 4.02 6.51 5.44 4.81 4.70 10.82 13.06 14.85 16.45 13.32 13.46 14.07 13.63 13.51 11.44 9.67 10.70 10.50 10.55 12.21 9.67 7.77 5.47 6.71 4.66 2.86 2.69 2.46 1.21 -2.27 -6.27 -7.59 -10.26 -14.89 -19.79 -21.60 -23.59 -24.68 -25.59 -26.31

GFSWCAN_sfc_wetblb_093.txt.gz
Wetbulb
42.80 45.85 45.67 45.27 45.10 45.19 44.90 44.98 44.89 44.41 44.19 43.73 43.29 43.31 43.19 44.12 44.69 38.12 35.73 37.07 33.73 28.11 31.21 34.31 34.89 29.46 28.59 27.27 21.65 25.73 24.01 24.60 23.04 19.93 18.92 13.78 12.25 23.64 21.76 22.18 26.79 25.38 22.78 22.92 24.09 21.42 18.85 29.65 29.73 24.01 29.02 30.18 28.89 27.51
43.93 44.99 44.77 44.71 45.02 44.73 43.40 44.72 44.84 44.48 44.46 43.95 43.39 43.33 43.13 44.19 44.81 40.49 34.63 38.64 37.31 32.09 31.48 34.37 34.89 35.16 33.56 32.49 28.13 27.31 25.68 26.47 24.73 20.17 20.05 20.48 19.14 21.19 20.93 19.50 30.73 23.38 25.65 23.60 23.87 22.42 30.29 30.78 29.52 31.08 32.20 30.16 28.89 27.75
44.56 44.49 44.34 44.64 44.56 44.13 43.88 44.63 44.44 44.42 44.35 44.01 43.68 43.28 43.48 44.26 44.15 40.92 35.76 35.71 33.86 29.22 30.65 31.34 31.08 34.94 37.34 35.23 34.32 28.49 29.71 32.60 28.89 27.65 21.32 21.09 19.93 24.61 17.39 20.72 23.18 28.42 30.97 27.00 26.71 27.13 27.63 30.09 30.35 30.82 29.61 27.51 27.73 27.47
43.93 44.24 44.37 44.25 44.11 44.28 44.33 44.35 44.26 44.21 44.19 44.31 43.68 43.32 43.46 43.80 43.78 41.36 35.99 36.35 34.30 30.51 24.67 29.23 37.68 34.59 37.91 36.89 35.27 34.31 33.67 32.93 31.35 28.82 21.65 19.09 21.00 27.61 23.39 27.63 22.76 26.85 28.25 26.74 25.70 28.02 28.53 29.11 30.35 29.49 28.60 28.80 28.28 27.81
43.94 43.87 43.89 43.90 43.96 44.17 43.91 44.00 43.88 43.92 43.88 44.10 43.44 43.41 43.73 43.85 42.36 38.52 36.61 36.79 37.32 30.61 24.27 26.51 32.30 35.89 37.44 36.81 35.33 34.51 32.75 29.85 27.34 24.51 20.85 20.90 26.22 25.58 30.53 24.89 22.12 29.20 26.27 23.99 20.88 27.91 27.28 27.33 29.63 31.55 28.20 27.05 27.33 25.31
43.67 43.97 43.85 43.47 43.67 43.84 43.71 43.57 43.80 43.81 43.85 44.13 43.31 43.34 43.24 42.74 39.08 33.18 27.20 35.43 38.90 34.05 24.65 21.38 30.25 31.75 34.09 35.44 34.62 33.08 31.81 28.85 27.39 24.88 22.44 26.17 29.05 26.08 21.43 17.65 26.93 30.97 31.18 31.21 25.84 30.16 29.76 29.77 30.25 29.71 27.10 26.43 26.09 25.07
43.58 43.84 43.71 43.23 43.57 43.64 43.58 43.26 43.38 43.66 43.78 43.63 43.35 43.00 42.94 42.47 36.92 30.80 28.35 36.04 40.15 32.96 21.15 19.25 24.93 31.25 34.14 35.34 34.92 32.68 36.15 30.32 29.95 26.43 25.28 25.08 26.57 30.32 21.75 19.56 27.77 30.35 31.36 31.06 32.93 30.09 27.84 29.62 27.30 30.24 28.24 27.45 27.31 25.81
43.72 43.79 43.28 42.23 43.39 43.23 43.06 42.94 42.97 43.32 43.48 43.49 42.59 43.21 42.90 41.11 38.30 33.98 40.22 41.27 35.61 29.58 26.35 18.37 21.67 26.47 33.09 27.77 30.65 31.39 30.73 29.05 28.36 25.94 26.42 26.36 28.17 29.65 22.27 25.02 28.64 29.74 30.34 30.00 31.96 31.87 29.01 29.95 27.77 26.05 25.97 24.79 23.30 22.55
42.86 42.23 42.94 43.16 43.05 42.55 42.47 42.68 43.08 43.28 43.19 42.70 42.07 39.89 34.55 31.16 28.60 34.46 41.23 39.26 34.97 29.73 21.31 21.71 18.51 15.40 29.85 27.87 28.47 28.85 28.82 21.25 28.53 21.90 25.09 26.38 21.98 24.74 25.52 26.13 29.12 29.84 28.23 25.42 31.52 30.44 28.49 28.95 27.42 24.86 23.57 23.07 21.48 20.85
42.69 42.02 42.68 42.68 42.57 42.25 42.33 42.44 42.75 43.08 42.62 40.27 34.13 27.47 18.74 29.49 40.63 37.84 32.19 27.59 28.83 31.00 31.67 22.12 25.85 20.53 27.05 19.65 20.13 22.02 23.12 23.41 19.44 24.11 26.80 20.13 22.41 27.96 28.93 30.10 30.25 30.13 30.10 32.01 25.84 24.58 25.02 23.71 23.55 23.22 22.37 22.20 21.57 21.19
42.70 42.45 42.24 42.70 42.55 42.31 42.25 42.42 42.67 41.58 37.98 30.20 23.24 28.65 34.96 41.32 35.96 32.03 25.44 24.38 25.88 24.80 26.46 26.85 25.25 23.01 30.07 20.24 20.54 24.98 25.49 25.61 22.27 22.32 23.21 23.12 21.86 24.95 26.64 27.22 28.17 27.99 27.35 26.11 26.26 27.01 26.72 24.51 22.49 20.83 19.91 19.98 19.60 18.70
42.06 42.11 42.59 42.46 42.12 42.22 42.41 42.27 41.19 33.55 30.26 30.41 35.10 37.74 37.43 33.13 29.63 25.25 23.39 24.77 23.93 22.38 24.46 23.02 25.04 26.41 27.44 30.71 22.29 25.01 27.85 27.78 23.13 30.74 25.99 17.18 18.38 24.11 24.76 23.87 23.40 23.71 24.16 24.19 25.40 24.08 23.58 22.36 21.42 19.31 17.70 16.41 14.13 12.46
41.33 42.00 42.25 42.40 42.30 42.63 42.54 41.86 40.80 40.43 40.07 38.56 33.87 30.93 29.10 28.68 20.95 17.11 15.16 20.11 15.11 22.42 22.73 23.10 20.82 23.88 27.36 27.30 21.69 24.00 26.16 23.07 28.22 24.16 16.90 15.91 22.29 23.59 22.56 22.13 21.58 22.25 21.78 21.10 19.88 19.78 18.90 17.62 16.63 15.36 12.71 8.46 9.34 6.78
41.05 41.81 42.34 42.44 42.34 42.43 42.14 41.92 41.44 37.89 32.52 27.72 27.01 21.80 20.91 18.53 18.11 15.78 17.33 16.67 22.54 21.09 22.88 21.05 21.33 21.83 21.75 21.33 22.70 22.74 18.81 26.77 19.06 16.15 16.51 16.73 21.36 21.70 22.08 22.31 20.30 16.22 14.92 15.05 13.16 12.53 10.61 9.32 4.80 3.73 2.63 -0.55 3.07 0.37
40.94 41.82 41.92 41.91 42.41 42.25 42.00 40.90 39.21 33.38 29.55 27.07 28.42 16.06 19.90 23.46 25.30 29.11 30.21 29.76 28.63 29.75 21.77 21.97 23.15 23.29 19.64 16.93 26.50 24.47 23.07 20.28 23.27 20.27 14.51 20.62 21.53 19.27 16.58 14.30 12.62 10.54 7.88 6.88 3.82 6.46 6.01 5.49 4.93 0.30 -3.15 -3.17 0.09 -4.24
40.68 40.99 39.06 41.77 41.96 41.71 40.58 38.15 34.36 32.15 29.82 28.13 28.11 24.50 26.57 26.62 25.82 27.81 28.53 29.02 32.51 31.21 29.16 25.11 22.54 17.99 19.78 24.29 23.95 21.89 22.82 18.50 19.73 14.32 11.86 18.16 15.83 12.01 11.07 11.53 8.32 8.11 7.91 7.30 7.63 6.74 5.14 4.39 4.85 2.75 -0.54 -0.41 -2.86 -2.32
39.08 35.92 41.21 41.39 41.21 40.56 39.25 33.16 29.89 27.62 25.75 25.49 24.89 25.84 27.00 26.74 27.06 26.46 29.39 30.06 32.81 30.92 26.70 27.63 24.10 19.89 26.06 23.30 20.59 24.33 21.05 12.13 21.15 15.69 14.32 14.59 14.58 10.28 8.50 9.71 10.62 12.73 11.32 10.96 9.72 11.18 8.21 7.57 8.44 11.59 10.81 10.70 10.33 10.90
36.57 39.91 41.51 41.13 38.36 36.69 33.66 32.62 26.66 27.31 23.77 20.98 19.41 20.11 25.13 26.50 29.38 30.32 30.33 31.93 30.92 31.01 30.65 27.67 30.44 24.79 17.14 17.13 19.65 14.83 19.75 20.45 15.68 13.71 8.95 8.16 10.45 10.77 14.35 13.25 12.39 14.36 13.94 12.97 14.19 12.95 11.94 11.94 14.09 13.35 15.79 15.35 14.31 14.67
38.48 39.23 40.90 39.90 35.47 30.97 28.01 29.03 32.40 25.43 23.91 25.92 27.07 27.21 27.45 27.23 28.71 29.25 29.84 30.66 32.14 33.68 30.80 28.36 25.81 21.24 19.03 18.75 13.02 8.98 7.73 14.30 16.57 12.53 8.45 7.95 14.26 14.67 13.63 14.75 15.10 15.38 15.75 16.18 17.42 16.27 15.35 16.72 16.31 16.18 16.62 16.69 12.40 12.24
40.92 40.42 40.25 39.92 38.90 31.26 28.30 29.27 33.77 27.87 20.76 21.08 27.12 25.67 26.62 25.69 27.77 27.96 28.42 30.28 30.66 30.22 25.82 20.57 19.95 16.10 16.93 15.48 17.08 15.65 15.49 17.23 17.20 14.44 11.06 11.46 12.47 16.06 16.39 18.02 17.84 17.79 18.14 19.01 18.64 16.90 16.56 15.84 15.82 15.19 14.51 14.13 8.67 6.73
38.87 38.50 38.46 35.91 33.53 34.20 31.98 28.99 28.46 29.80 25.41 24.64 24.62 26.33 21.36 27.52 26.66 26.34 26.99 30.33 28.20 25.33 20.02 17.33 17.16 17.28 20.46 19.61 19.88 20.34 19.47 19.68 15.18 15.88 15.11 15.23 17.26 19.12 19.27 18.97 20.14 19.12 16.83 14.20 12.83 11.35 11.21 13.39 12.87 13.54 6.44 1.25 -2.45 -1.23
37.03 38.57 34.64 33.13 29.44 30.34 29.57 29.49 26.36 26.21 24.61 25.24 25.43 27.96 23.47 23.41 24.65 26.39 27.88 27.16 26.17 21.04 19.98 19.49 19.33 21.19 22.57 21.82 20.00 22.62 20.56 21.26 19.95 17.98 17.33 19.41 18.41 18.05 18.21 17.02 18.44 14.06 13.20 11.40 12.85 8.07 7.70 11.63 11.20 10.31 4.79 -1.42 -0.14 1.41
37.44 34.89 31.94 31.31 26.89 23.14 23.64 30.42 23.93 26.15 19.84 22.35 24.84 22.17 23.24 22.16 23.72 28.31 20.68 20.79 18.06 16.90 19.68 22.06 23.55 26.74 23.13 22.13 23.59 23.27 23.23 21.62 18.43 17.81 18.32 18.42 17.61 13.09 16.29 15.91 16.78 11.71 11.25 14.30 16.39 13.11 9.88 8.90 7.32 2.88 -1.89 -3.53 -6.77 -6.95
37.11 30.60 26.17 24.47 25.11 18.79 25.76 24.29 27.28 26.74 24.23 22.31 19.19 17.47 22.51 23.12 25.06 17.59 16.80 16.60 13.81 15.59 19.50 20.44 24.20 22.31 23.02 24.84 19.38 18.79 20.39 20.37 17.86 14.31 18.03 19.23 17.26 16.05 17.89 16.26 16.19 15.42 16.06 16.12 14.56 9.78 7.90 0.49 -0.07 -0.63 -7.14 -7.68 -10.94 -9.67
24.39 24.40 28.06 24.10 26.26 19.27 22.06 23.25 23.76 20.74 19.24 20.99 22.32 20.26 19.49 20.59 12.23 13.62 13.81 12.03 17.07 21.77 19.67 18.47 20.02 20.11 14.80 11.72 16.38 17.11 20.41 21.82 19.19 17.70 13.52 19.86 17.55 17.53 15.87 15.07 13.26 14.44 14.52 10.22 2.31 1.54 -3.33 -8.95 -9.13 -7.32 -6.95 -8.04 -4.63 -6.95
18.26 23.77 23.55 18.99 20.34 22.70 22.48 20.15 21.31 20.70 21.22 20.68 20.41 20.43 19.78 15.76 14.07 15.58 15.90 8.36 12.73 20.29 15.58 20.54 15.68 15.41 19.04 20.36 19.11 17.79 18.32 22.02 21.64 16.39 18.16 20.43 18.80 15.49 11.60 10.39 8.00 7.81 6.32 4.44 2.77 -2.80 -3.33 -3.37 -3.28 -2.13 -6.05 -5.69 -7.86 -11.31
19.39 21.61 22.20 26.19 23.99 25.87 20.88 23.25 24.99 20.17 20.03 13.59 17.46 18.03 16.84 16.19 11.68 12.59 10.86 16.44 14.96 11.24 15.97 19.04 20.73 19.94 19.00 18.20 20.00 18.81 18.34 18.28 17.79 16.33 14.20 14.79 14.67 15.26 15.32 11.38 7.24 7.07 3.33 3.27 1.27 3.93 2.42 -2.85 -8.05 -8.95 -8.95 -14.39 -14.21 -14.39
22.33 19.11 16.91 18.38 18.92 20.57 21.56 21.80 22.27 17.24 21.25 22.09 20.19 14.00 10.17 11.95 13.29 9.54 11.53 13.14 22.87 23.66 17.14 19.05 21.39 20.57 19.10 18.07 17.10 15.43 13.14 12.73 12.41 12.80 13.54 11.96 9.52 7.63 7.61 7.53 8.48 8.35 0.70 -0.50 -0.85 -0.56 -0.61 -1.24 -3.48 -9.13 -11.49 -10.04 -12.57 -18.38
17.39 17.02 19.48 13.12 13.56 15.03 15.69 15.86 16.87 18.00 19.68 20.41 17.80 13.27 11.18 12.66 6.81 5.65 13.22 14.90 21.24 14.96 14.25 14.87 15.07 16.58 16.72 16.36 15.69 15.02 14.94 15.73 14.65 12.00 9.00 6.27 3.12 6.09 3.52 6.35 5.08 3.18 2.62 3.37 8.32 3.92 1.70 -1.47 -3.45 -4.71 -10.58 -10.22 -16.56 -19.28
14.54 18.22 14.40 9.20 13.38 14.90 14.41 12.35 10.91 9.31 12.83 11.32 12.98 13.78 11.44 6.41 3.92 2.78 10.56 12.52 16.85 11.72 6.19 7.97 13.03 14.42 14.44 13.09 11.69 11.94 10.54 11.28 13.50 16.51 12.71 7.42 6.66 5.78 1.89 1.69 1.38 -0.48 1.39 2.07 2.07 1.30 6.55 -1.03 -0.85 -9.45 -11.03 -12.63 -18.01 -20.73
20.10 17.82 13.54 11.73 9.22 4.14 4.93 3.34 1.29 2.91 2.96 2.09 -1.88 4.39 4.63 0.55 4.50 2.51 5.17 8.54 6.80 14.97 13.45 12.47 11.16 13.38 14.40 13.40 13.62 12.70 9.35 10.19 14.04 11.42 9.51 9.32 8.86 5.44 3.67 0.48 -2.19 -1.52 -1.11 -1.39 -1.82 -2.60 -3.92 -8.30 -11.50 -12.41 -13.15 -18.38 -25.08 -26.72
18.14 18.74 15.47 9.58 7.73 10.33 9.28 4.85 1.18 0.10 -3.33 0.68 2.20 -4.05 0.09 0.54 1.78 1.32 0.88 7.68 14.50 11.01 7.16 11.20 13.06 10.30 12.15 14.57 13.23 13.06 13.57 12.90 12.75 11.43 10.33 9.07 6.61 3.55 2.31 0.72 -0.45 -0.50 -0.90 -1.52 -3.18 -4.91 -5.18 -8.72 -14.40 -17.11 -21.46 -26.35 -27.80 -28.35
17.72 17.16 12.79 11.68 10.30 9.23 10.67 14.60 11.93 7.52 1.00 -1.52 -1.33 0.30 1.94 4.91 5.94 3.10 5.15 6.48 11.25 13.41 8.63 6.02 12.53 14.70 13.77 12.68 11.61 11.64 10.83 10.18 10.92 12.62 10.61 8.51 5.93 5.00 0.73 -0.34 -0.07 0.46 -0.29 -2.42 -4.76 -6.71 -9.64 -13.26 -19.29 -23.82 -27.26 -28.35 -29.44 -30.34

GFSWCAN_sfc_wetblb_096.txt.gz
Wetbulb
41.47 43.94 45.66 45.19 44.97 44.97 44.94 44.97 44.25 43.98 43.55 43.25 43.25 42.90 43.88 44.99 43.49 37.58 35.29 36.83 33.57 28.88 30.80 33.52 33.66 29.23 28.70 27.71 22.44 25.45 23.28 24.00 22.28 19.01 18.31 12.83 11.49 20.45 20.25 15.67 25.13 23.26 21.68 21.28 22.40 18.24 14.49 28.36 28.55 21.84 26.60 29.04 28.65 27.55
42.43 45.58 45.33 45.11 45.07 44.95 44.95 44.81 44.50 44.60 43.60 43.36 43.18 43.15 44.59 44.54 43.69 39.77 34.41 37.70 36.89 31.94 30.65 33.88 34.58 34.82 33.05 31.35 27.29 27.26 24.52 25.87 23.59 19.73 19.89 20.41 19.41 16.48 17.63 17.88 27.28 18.02 21.59 21.32 23.16 19.97 28.94 29.51 28.14 29.42 29.58 27.97 27.39 26.39
42.63 42.65 44.60 44.84 44.51 44.43 43.83 44.38 44.34 44.39 43.88 43.33 43.13 43.62 44.28 44.42 43.51 40.30 35.50 35.15 33.75 30.74 31.68 32.15 31.36 35.48 36.37 33.78 34.16 27.85 28.77 30.73 27.77 26.32 20.49 20.84 18.58 23.13 15.50 20.70 22.91 27.12 30.22 25.43 25.46 26.80 27.21 29.12 29.23 29.41 28.26 26.50 26.42 25.53
42.46 44.99 44.59 44.60 44.17 43.64 43.90 44.25 44.23 44.18 44.25 43.54 43.08 43.55 44.01 43.99 43.54 40.99 35.77 35.83 33.81 31.08 25.91 29.37 36.60 33.56 36.18 35.55 34.48 33.67 32.35 31.13 30.00 27.62 21.39 18.46 21.16 26.56 21.54 26.60 22.75 26.36 27.30 25.83 25.23 27.09 27.71 28.48 28.86 28.94 27.84 27.30 25.34 25.06
44.00 44.17 44.28 44.27 43.97 43.95 44.02 43.95 43.95 44.04 43.92 43.31 43.46 44.06 43.60 43.50 42.51 38.99 37.12 37.46 36.41 31.15 26.18 27.97 31.93 34.44 35.98 35.20 33.80 33.17 31.53 28.90 26.53 24.04 20.57 20.30 25.87 24.81 29.82 24.48 22.63 28.67 24.19 21.69 18.44 27.34 26.51 26.66 29.73 29.87 27.17 26.17 25.79 23.69
43.58 43.87 43.79 43.72 43.98 43.85 43.80 43.63 43.92 43.82 43.98 43.80 43.38 43.39 42.88 41.28 38.57 33.51 28.54 35.08 37.94 32.83 27.63 22.16 29.31 31.23 33.58 34.46 33.32 31.81 30.38 28.14 26.80 24.11 21.98 25.54 28.27 25.26 18.85 19.11 27.51 29.97 31.25 30.58 22.44 28.90 27.56 28.74 28.65 28.24 25.81 24.97 24.72 23.57
43.68 43.72 43.64 43.57 43.51 43.55 43.81 43.44 43.54 43.68 43.87 43.62 43.13 43.21 42.92 41.95 37.79 30.67 28.83 36.10 39.24 32.28 23.67 20.81 25.30 30.11 32.53 34.22 34.82 32.24 32.55 28.54 27.64 25.84 24.78 24.55 25.79 28.69 22.35 20.05 27.32 30.78 31.15 31.05 29.76 28.84 26.47 28.42 25.73 28.03 26.85 26.04 25.64 23.75
43.45 43.51 43.39 43.41 43.53 43.54 43.27 43.38 43.51 43.60 43.59 43.21 43.39 41.79 41.92 41.58 39.46 35.26 37.75 39.48 35.02 28.17 25.72 19.21 21.45 26.51 33.08 27.32 30.75 30.15 30.88 29.61 27.82 25.17 26.11 25.83 27.14 27.41 25.03 25.69 29.12 29.91 30.35 30.29 31.24 30.44 28.57 27.75 26.37 25.42 25.49 24.56 22.78 21.41
43.41 43.17 43.08 43.15 43.21 43.04 43.12 42.99 43.18 43.36 43.14 42.46 40.38 39.22 35.37 32.55 30.39 35.95 41.14 38.11 33.82 29.44 21.19 21.24 19.41 15.53 29.19 27.75 31.17 28.83 27.97 22.70 28.38 21.71 24.58 25.40 18.66 22.11 23.64 27.00 28.12 27.41 25.68 29.51 30.63 29.69 28.79 26.69 24.84 24.18 23.93 22.75 21.07 20.65
43.24 42.56 42.90 42.92 42.71 42.73 42.80 42.81 42.98 42.99 41.07 39.12 33.95 28.45 23.12 33.03 40.27 37.25 31.28 25.29 25.37 27.03 27.48 20.66 24.90 20.79 26.20 18.88 19.53 21.32 23.05 21.95 18.84 22.91 25.88 23.80 18.39 26.96 28.82 28.27 29.01 30.73 30.67 29.30 25.21 24.17 25.94 24.58 23.72 23.56 22.61 22.00 21.65 20.85
42.41 42.90 42.75 42.37 42.33 42.38 42.74 42.60 42.50 39.91 36.98 29.35 26.71 28.97 35.71 39.61 32.69 30.61 21.90 20.18 24.76 21.69 24.76 24.56 24.79 23.42 29.35 19.63 19.84 24.00 21.70 23.45 20.43 20.97 21.89 21.73 19.63 24.75 28.03 27.97 27.65 26.38 26.41 28.90 26.71 26.14 25.89 25.46 23.75 21.34 20.31 20.43 19.50 18.18
42.93 42.97 42.73 42.18 42.08 42.46 42.63 42.22 39.53 32.55 28.59 29.73 33.61 37.36 36.19 32.15 28.60 24.72 22.49 24.73 23.30 21.86 24.16 22.79 23.95 25.41 26.61 29.16 21.63 23.95 26.44 27.53 21.73 25.78 23.84 19.90 17.89 23.73 24.50 24.53 24.22 24.58 25.66 25.08 26.09 24.37 24.09 23.14 21.90 19.33 17.39 15.82 13.49 11.69
42.41 42.76 42.66 42.27 42.00 42.38 42.21 40.45 40.01 40.24 39.16 37.58 31.88 30.17 29.27 26.80 20.06 17.93 14.84 20.56 15.20 22.01 22.20 22.24 19.91 22.33 26.32 26.45 20.37 23.45 20.96 23.94 28.11 24.81 19.17 16.71 20.99 23.58 22.87 22.68 21.72 22.37 22.12 21.23 20.30 20.17 19.00 16.73 16.23 15.05 12.04 7.98 8.93 5.31
42.47 42.36 42.27 42.24 42.16 42.12 41.79 41.54 41.11 36.65 32.01 25.60 26.30 20.44 18.35 18.31 17.51 14.47 15.90 15.12 24.33 23.26 22.16 19.94 20.98 20.19 24.97 20.11 21.49 21.67 17.10 25.32 19.45 18.35 14.46 14.03 21.54 21.17 22.36 22.23 20.16 17.14 16.58 15.81 13.58 12.23 10.28 8.82 4.46 4.28 2.67 -1.56 2.66 0.90
42.30 42.08 42.17 41.94 42.05 41.96 41.68 40.63 38.25 32.18 28.48 26.89 27.44 13.76 20.27 22.45 23.94 26.89 28.83 28.67 30.04 28.89 21.55 23.03 22.19 21.94 18.53 15.11 23.78 22.65 20.19 16.82 19.81 13.08 12.74 13.11 19.60 19.90 17.58 14.55 13.03 10.27 7.80 6.64 4.04 6.22 4.52 4.27 4.61 -0.53 -5.60 -4.16 1.03 -2.24
41.85 40.90 38.95 41.89 41.94 41.33 40.23 36.87 32.73 30.43 28.14 25.38 25.65 23.09 25.40 25.66 25.17 27.18 28.03 28.54 32.24 30.88 25.32 23.93 21.36 14.34 15.99 21.28 22.02 19.36 19.64 13.84 17.32 14.67 10.80 22.99 16.45 12.44 11.04 11.96 9.26 8.52 7.61 5.60 5.88 5.16 3.98 3.21 4.87 2.46 -0.66 -1.61 -4.21 -3.45
38.42 36.12 41.10 41.69 41.23 40.05 38.97 31.95 28.92 27.04 23.76 24.53 23.33 21.50 23.55 22.88 24.40 26.25 28.18 29.39 32.16 30.19 23.62 27.33 21.92 17.38 24.36 22.95 22.68 24.94 20.95 17.68 12.74 18.64 10.14 11.05 14.14 9.21 9.44 9.06 9.42 10.64 9.26 8.87 8.75 10.27 8.33 7.73 8.10 10.87 9.99 9.48 9.72 9.16
37.03 39.64 41.31 40.52 38.09 36.20 33.14 30.84 25.95 26.09 22.08 18.78 20.45 20.29 25.93 26.76 28.74 29.31 30.94 32.04 30.58 30.73 29.97 26.60 29.39 23.16 16.81 16.41 13.86 15.18 19.39 19.63 19.86 19.85 7.42 5.50 8.26 8.04 11.44 10.41 10.67 12.27 12.37 12.47 13.34 12.03 11.06 11.16 13.68 11.95 14.30 13.87 13.08 13.36
38.76 39.89 40.48 39.38 35.10 31.21 28.07 28.30 31.20 24.39 23.41 24.44 26.49 27.14 26.99 26.66 28.43 28.68 29.26 31.30 32.36 33.76 28.03 28.25 25.26 23.45 16.22 15.33 12.95 6.69 12.70 20.43 17.13 12.24 6.36 4.46 10.27 12.54 11.55 12.05 12.75 13.33 14.68 15.36 16.65 14.98 14.00 15.48 14.58 14.48 14.72 14.99 10.99 10.87
40.99 40.30 40.12 39.81 37.94 29.82 27.08 26.44 32.96 27.74 21.24 20.20 26.94 25.79 26.27 25.73 27.35 27.53 28.15 30.12 30.52 29.02 26.44 23.21 20.30 16.26 16.72 14.62 16.04 15.22 13.74 15.75 15.92 11.75 9.03 8.33 9.18 13.17 13.31 15.34 15.76 16.61 16.72 18.07 16.68 14.59 14.58 14.14 14.49 13.96 12.79 12.34 7.71 6.09
38.22 37.84 37.80 34.25 31.55 32.42 30.36 28.76 27.55 29.16 25.59 23.89 26.14 26.62 24.71 27.14 26.16 26.16 26.46 29.83 27.04 25.72 19.23 15.89 16.75 12.09 23.03 19.94 17.27 17.68 18.18 19.53 14.49 15.47 13.73 12.28 13.54 16.82 17.17 18.14 18.79 18.26 15.46 13.06 12.31 10.65 10.84 11.97 11.31 12.15 5.02 0.16 -3.44 -2.73
36.38 37.41 31.44 31.91 27.90 29.66 29.46 30.08 27.35 25.81 24.17 24.72 24.32 27.52 21.68 22.39 23.66 25.71 27.03 25.04 23.37 19.47 18.92 17.05 15.44 22.29 22.39 19.89 18.47 21.36 19.19 20.07 18.26 16.49 16.00 17.32 16.97 17.17 17.56 17.16 17.25 11.54 12.24 11.43 12.69 8.70 8.36 10.48 10.59 9.13 1.84 -4.34 -1.14 -0.44
37.20 34.07 29.96 29.28 22.42 20.07 25.45 30.48 23.02 24.65 16.25 20.79 24.24 21.09 17.99 20.26 21.24 28.09 22.81 20.70 17.55 13.74 16.54 19.87 21.99 26.33 22.24 21.19 22.07 22.05 21.76 20.44 17.14 16.14 16.80 16.45 16.43 15.30 16.37 15.55 14.97 11.97 10.66 11.98 14.07 10.62 7.97 9.44 6.21 1.91 -1.29 -4.89 -7.78 -8.69
35.96 28.76 22.08 20.96 21.45 15.16 24.62 24.04 26.63 26.12 22.88 22.45 20.42 17.70 18.17 20.44 24.14 16.76 18.32 15.57 12.41 13.34 17.83 19.07 23.41 22.92 23.08 21.94 17.29 17.24 18.78 18.60 15.86 11.78 16.11 17.68 15.99 15.18 17.32 16.06 15.12 13.76 14.21 16.00 15.60 13.24 10.07 2.04 2.63 1.63 -7.60 -9.77 -13.22 -11.41
20.11 19.72 21.91 19.17 23.05 15.57 15.56 20.74 23.48 21.23 17.12 15.85 16.40 13.75 20.58 18.73 10.84 8.36 12.10 11.85 20.33 22.82 22.23 16.97 19.77 20.25 18.72 14.34 12.71 15.73 18.36 19.71 17.59 16.25 12.88 17.52 15.39 15.91 14.26 13.99 12.27 11.22 12.31 10.72 5.43 3.39 -4.52 -6.87 -7.24 -5.06 -5.79 -9.41 -6.69 -10.32
13.54 16.33 22.22 21.36 18.87 17.26 19.86 19.57 18.85 15.28 16.41 17.31 16.45 19.39 15.49 11.07 12.88 13.56 14.85 8.06 11.79 21.29 22.43 17.03 14.35 15.16 16.62 17.95 17.99 17.71 17.11 20.80 20.21 15.92 18.41 18.47 17.86 15.14 11.73 12.29 9.81 10.07 7.64 8.06 5.42 1.83 1.67 -0.28 -0.01 0.28 -4.88 -7.96 -9.95 -13.04
17.81 18.91 21.71 26.21 24.26 25.12 20.27 22.22 23.56 18.09 16.14 11.39 15.01 13.43 11.64 8.31 9.95 14.34 11.21 16.10 15.95 9.77 13.26 16.28 19.91 20.01 18.73 16.33 18.36 17.35 15.95 16.56 16.17 15.72 14.81 13.94 13.63 14.95 16.88 14.73 11.57 10.55 5.69 5.96 3.73 4.76 5.52 3.48 1.80 -3.28 -9.59 -16.30 -15.94 -16.12
20.80 20.56 18.25 19.21 19.16 20.85 21.09 21.31 21.28 16.18 19.98 20.49 17.84 13.54 11.61 13.93 17.30 13.94 13.30 16.30 22.46 22.98 18.04 15.35 17.77 19.29 17.69 15.05 15.11 12.78 10.92 11.29 11.71 12.69 13.36 11.76 10.18 9.60 9.53 7.31 9.97 9.38 3.71 0.47 1.05 3.43 3.35 0.85 -2.18 -7.78 -7.24 -9.23 -15.21 -21.20
20.11 16.81 19.67 16.97 14.48 15.79 16.82 17.78 16.86 16.82 18.72 19.88 16.42 13.10 15.20 17.06 13.08 12.27 12.75 16.34 22.34 21.88 17.29 11.86 11.88 11.84 13.71 13.96 13.42 12.59 14.13 15.67 14.77 12.34 9.29 6.39 6.74 6.51 5.24 6.26 5.64 5.22 4.87 5.24 7.99 2.05 -0.24 -2.58 -4.31 -4.14 -7.07 -10.68 -18.84 -22.47
12.14 15.73 12.48 10.55 12.24 13.32 12.35 11.37 10.23 8.85 11.99 11.07 12.43 13.46 12.56 9.49 8.48 7.46 10.27 14.90 19.00 20.22 10.71 5.25 8.02 9.40 11.15 10.81 9.03 9.57 9.91 8.91 12.40 16.54 13.63 10.80 10.80 6.92 4.59 5.32 3.95 2.26 3.45 4.76 5.56 5.39 4.87 -3.07 -3.12 -9.89 -13.80 -16.85 -22.10 -24.28
17.50 13.72 10.68 9.92 8.06 5.41 7.26 5.37 3.32 5.16 4.09 0.55 -4.52 4.30 5.40 0.27 4.35 3.10 7.07 5.25 3.99 9.12 11.88 10.34 7.48 9.23 11.74 11.23 11.79 11.94 10.85 9.38 11.99 12.06 10.76 10.81 8.49 6.04 4.52 3.58 1.29 1.89 1.86 -1.75 -3.23 -6.00 -8.54 -11.97 -11.66 -13.79 -15.96 -20.47 -26.82 -28.27
17.50 19.18 15.55 11.46 10.13 10.94 12.29 9.88 1.64 -0.91 -4.88 -0.89 1.09 -5.79 -1.47 1.13 4.27 2.24 0.39 4.66 8.37 9.44 5.05 7.45 7.65 5.45 8.07 12.05 11.93 14.03 13.66 12.77 9.87 9.54 9.06 8.79 6.91 5.18 4.04 2.62 0.59 0.07 -2.67 -5.71 -6.25 -8.01 -8.57 -11.38 -15.63 -16.86 -20.47 -25.00 -29.72 -30.62
17.80 15.76 13.92 12.84 11.11 10.58 11.51 14.73 14.06 11.13 2.49 -2.52 -3.25 -4.52 -3.25 3.18 7.09 3.36 4.48 4.08 7.25 7.86 6.50 3.54 8.43 12.37 13.38 13.51 12.08 10.67 10.62 11.52 11.94 13.08 10.53 8.89 6.36 5.76 3.66 1.95 0.41 -0.88 -4.28 -7.52 -9.26 -9.32 -9.99 -12.90 -18.36 -23.74 -25.73 -29.72 -31.53 -31.89

GFSWCAN_sfc_wetblb_099.txt.gz
Wetbulb
42.19 41.84 41.75 43.99 44.83 44.57 44.85 44.54 44.34 44.16 43.33 43.30 43.57 43.25 44.61 44.59 43.42 39.03 37.17 38.20 35.46 31.39 32.22 34.37 34.34 30.66 30.63 30.19 27.20 28.56 27.59 28.18 26.47 22.90 22.40 20.20 22.06 25.05 23.34 20.87 25.40 24.08 22.40 21.67 22.31 19.43 16.63 28.51 27.98 22.39 26.01 29.11 27.59 26.39
42.22 42.29 43.27 44.60 44.69 44.52 44.38 44.24 44.28 44.02 43.39 43.40 43.08 44.01 44.44 44.18 42.92 40.16 35.77 38.58 37.82 33.60 32.64 35.88 36.26 35.98 35.60 34.37 30.25 29.23 27.78 27.77 28.06 24.52 25.22 24.88 24.09 24.90 22.55 21.47 27.89 22.70 25.16 23.90 23.66 22.66 29.01 29.25 27.43 29.01 29.23 26.66 26.84 25.53
42.47 42.31 44.33 44.63 44.53 44.56 44.47 44.18 44.20 44.05 43.46 43.13 43.84 44.35 44.52 44.10 43.43 40.68 37.06 36.55 35.97 33.55 32.82 33.51 33.04 37.46 37.65 35.84 37.40 30.95 31.48 32.04 30.43 29.77 27.25 27.13 24.41 27.47 23.34 23.58 24.16 28.09 30.10 26.01 25.44 26.88 27.47 28.80 29.24 28.60 28.10 26.20 26.14 25.52
42.29 44.51 44.37 44.39 44.37 44.47 44.24 44.13 43.98 43.94 43.81 43.09 43.94 44.26 44.16 43.97 43.27 40.84 36.97 37.39 35.36 33.11 28.89 31.48 37.80 35.08 38.34 37.39 36.30 35.98 34.05 33.43 32.54 31.35 28.45 27.09 25.84 29.45 27.08 27.49 25.82 27.21 28.37 26.40 25.06 27.22 28.17 28.46 28.89 28.25 27.18 26.79 25.32 25.58
40.49 41.81 44.21 44.15 43.97 43.24 43.82 43.88 43.93 43.92 43.62 43.01 43.95 44.09 43.71 42.90 41.95 39.53 38.27 37.79 36.17 33.56 29.24 30.41 33.78 35.48 36.71 36.63 35.15 35.26 34.00 32.17 30.47 29.18 27.86 26.68 29.25 30.12 30.33 27.68 25.30 28.57 25.41 25.24 23.17 28.01 27.34 27.40 29.44 29.68 27.17 25.89 25.36 23.72
41.13 42.85 43.99 43.87 43.39 43.58 43.58 43.52 43.78 43.71 43.84 44.13 43.66 43.12 42.09 40.99 38.29 35.14 30.98 36.46 38.34 34.60 31.46 26.91 31.55 33.31 35.35 35.88 34.95 34.01 33.06 31.38 30.75 29.01 27.63 29.02 30.36 30.03 25.40 23.76 27.74 29.87 30.99 30.49 27.06 29.93 28.95 28.68 28.62 27.95 25.39 24.64 24.68 23.73
44.25 44.11 43.83 43.59 43.57 43.47 43.44 43.53 43.91 43.81 43.75 43.31 43.10 42.96 42.80 42.00 38.83 33.41 31.42 35.99 38.93 34.48 29.95 26.33 27.91 32.07 34.41 35.89 35.19 34.80 33.84 31.59 31.35 29.52 28.34 28.26 29.50 31.46 27.06 24.15 28.08 31.14 30.28 30.14 30.14 29.20 26.42 27.83 25.21 27.20 26.19 25.30 25.05 23.82
43.53 43.46 43.49 43.22 43.15 43.18 43.16 43.31 43.52 43.76 43.81 43.30 43.37 43.00 42.55 41.76 39.63 35.47 38.09 38.87 35.65 30.47 30.42 24.94 25.67 29.98 34.14 30.36 31.11 32.85 31.55 31.74 30.54 29.00 29.87 29.13 30.55 31.19 25.42 26.94 30.37 30.99 31.41 30.88 30.12 30.81 30.05 28.45 27.47 26.00 26.32 25.26 22.86 21.68
43.24 42.98 42.83 42.93 43.06 42.98 42.87 42.97 43.11 43.60 42.81 41.10 40.32 39.52 36.20 33.61 33.01 35.17 40.86 37.07 35.53 32.23 25.83 25.59 24.05 22.70 31.73 30.00 32.39 31.50 31.33 26.52 30.66 28.01 28.20 29.19 25.85 24.39 27.34 28.56 29.16 28.99 28.56 30.25 29.92 28.66 27.67 26.22 25.24 25.15 24.67 23.62 22.20 21.26
43.08 42.74 42.77 42.75 42.58 42.77 42.75 42.67 42.99 42.01 40.03 39.04 35.08 30.77 25.94 34.56 40.39 37.42 32.31 27.96 28.33 29.39 29.20 25.11 27.20 27.82 29.47 25.62 26.82 28.52 27.51 27.23 24.07 26.74 29.38 26.24 25.86 28.40 30.03 31.07 31.08 30.35 31.09 30.43 27.17 26.30 26.79 25.03 24.52 24.07 23.68 23.44 22.89 21.49
43.05 42.76 42.73 42.63 42.74 42.64 42.60 42.58 40.78 38.99 36.79 32.06 29.95 29.73 35.24 39.41 33.71 29.97 23.78 24.08 25.07 24.50 26.59 26.80 27.46 27.94 31.71 26.96 27.21 27.63 26.74 26.54 21.53 25.02 24.61 22.88 23.17 26.28 29.73 29.83 30.40 31.91 31.57 29.88 29.47 29.55 30.22 27.91 25.32 23.11 22.01 21.86 21.16 20.14
43.09 42.88 42.83 42.64 42.47 42.61 42.54 40.45 38.39 32.90 31.19 33.18 34.29 37.02 34.96 31.42 26.93 23.17 22.42 24.85 23.76 22.61 25.87 25.62 26.95 29.13 30.32 31.60 28.16 27.05 26.44 27.36 21.90 27.82 24.24 22.36 22.42 26.81 26.18 25.68 26.24 27.65 28.26 28.45 28.22 26.73 26.51 25.51 24.20 21.72 20.11 18.44 16.32 14.62
42.66 42.51 42.44 42.34 42.58 42.37 40.39 40.27 40.01 39.94 38.20 34.73 31.91 29.26 27.24 25.49 16.46 13.74 14.84 20.77 20.65 25.21 26.09 27.28 26.12 27.80 29.95 29.84 26.55 27.06 21.61 25.03 29.53 25.99 23.21 22.42 24.10 24.88 24.50 24.30 23.60 24.58 24.46 23.66 22.95 22.59 21.52 19.73 19.14 18.39 14.88 12.58 12.46 9.12
42.35 42.02 42.26 42.42 42.00 41.48 41.44 41.29 39.87 36.26 31.95 28.09 26.21 20.11 16.20 18.56 17.55 18.45 20.31 20.95 25.90 27.35 26.03 25.71 25.59 26.53 27.39 25.61 24.81 22.21 22.95 25.32 20.77 19.76 21.15 21.12 23.38 23.32 23.82 23.55 22.04 20.70 20.09 19.50 17.94 16.40 14.14 11.66 8.84 8.39 8.01 8.60 8.24 7.48
42.02 41.91 42.07 41.79 41.76 42.15 41.20 39.16 37.31 32.22 28.78 26.67 25.93 17.52 20.01 23.69 24.59 27.20 28.18 29.50 30.48 28.91 26.60 26.40 25.87 26.32 24.24 21.84 25.54 24.31 20.93 18.90 21.85 21.38 23.12 21.49 22.59 21.72 20.80 19.36 17.48 14.94 13.97 12.71 12.89 11.16 9.26 9.02 8.45 5.17 4.60 7.59 7.15 4.67
41.85 40.40 39.00 41.79 41.79 40.88 39.11 35.91 32.37 31.07 28.10 26.36 25.52 22.26 23.87 24.54 26.13 28.60 29.50 29.32 32.75 31.40 27.96 27.47 23.52 20.13 20.78 22.72 22.33 20.74 20.95 18.77 23.20 22.98 20.39 21.27 20.03 19.11 17.77 17.10 15.32 13.51 12.75 10.67 11.10 10.69 9.51 9.00 10.63 9.29 6.85 7.65 6.03 7.77
39.01 36.60 41.43 41.43 40.34 39.16 37.92 31.10 29.88 26.75 24.38 25.11 21.99 21.95 23.39 21.15 24.44 26.95 29.82 30.79 33.08 31.29 27.62 28.05 18.17 19.40 25.30 22.97 21.98 25.67 22.43 24.42 20.36 20.93 20.43 20.08 19.71 16.02 14.13 13.89 12.83 12.61 12.02 11.76 11.53 12.39 11.38 10.93 10.01 11.78 11.92 11.03 11.29 11.66
36.48 40.14 40.79 40.52 36.63 35.24 31.76 30.41 26.95 26.14 22.41 23.93 24.10 24.13 23.54 28.32 29.10 29.40 31.77 32.87 32.07 31.20 30.45 27.38 28.60 24.16 20.53 19.43 21.42 23.82 23.38 21.85 21.43 20.80 17.86 15.45 15.48 14.11 15.97 14.12 13.31 14.21 13.75 13.86 14.21 13.21 12.32 13.10 14.91 15.61 15.45 15.39 15.49 15.91
39.30 39.90 40.74 39.22 35.49 30.78 27.30 27.83 28.94 23.42 23.35 26.20 27.10 27.49 27.73 27.52 29.36 29.72 30.39 32.25 33.49 32.91 30.26 28.61 24.95 23.76 24.42 23.40 23.73 18.75 21.30 22.66 20.64 17.96 14.12 11.08 14.35 14.33 13.66 14.28 14.58 15.34 15.64 15.58 16.04 15.57 16.37 17.86 18.28 18.54 18.22 17.98 17.85 17.86
40.68 40.02 39.86 39.70 37.11 29.68 27.00 26.97 32.58 27.06 21.86 23.03 27.39 26.38 26.80 26.73 28.22 28.63 28.21 30.44 30.61 29.98 26.17 24.75 25.41 26.55 24.99 24.62 22.84 23.81 21.32 20.39 18.11 16.81 15.00 14.12 15.22 15.07 15.70 16.63 16.98 17.71 17.65 18.55 18.23 16.91 17.57 17.91 19.00 19.40 19.58 18.59 18.49 17.75
37.40 37.04 37.17 33.66 31.17 31.04 29.31 27.74 27.27 28.54 25.44 24.67 26.64 26.99 25.14 27.79 26.93 26.50 27.07 29.70 26.78 25.07 23.37 22.38 22.51 20.81 22.58 25.43 21.98 21.16 20.44 21.30 20.53 21.76 19.38 15.06 15.66 17.74 17.77 18.76 19.13 19.03 18.35 17.89 17.30 16.97 16.86 19.32 18.84 18.02 18.43 15.93 13.04 14.17
34.82 36.08 30.74 31.74 28.65 29.06 28.22 29.98 28.30 27.38 26.29 25.19 24.92 26.92 21.02 19.10 24.27 26.05 28.69 25.27 23.80 23.28 23.56 23.02 22.58 24.59 24.10 22.40 21.70 22.76 21.33 21.30 19.99 18.60 17.25 17.33 17.04 17.60 18.14 19.14 18.96 17.65 18.11 18.07 18.63 18.01 18.85 18.28 17.24 16.93 15.60 11.57 10.28 11.57
35.51 32.70 28.56 27.59 20.83 18.33 23.59 29.45 22.79 25.33 18.05 22.06 24.70 21.77 21.71 20.44 23.29 28.78 23.91 23.31 21.87 19.26 20.51 22.91 24.09 26.11 23.10 22.22 22.44 22.31 22.31 21.34 19.88 19.30 18.89 19.88 19.64 19.73 19.29 19.65 19.75 17.94 17.38 17.76 19.36 18.23 17.18 13.05 11.67 13.80 10.93 10.84 11.55 10.13
34.78 27.69 19.15 18.99 19.98 16.11 22.93 23.03 26.44 25.55 22.92 21.61 20.22 18.05 19.65 18.90 25.33 21.85 20.68 19.91 17.82 18.90 23.10 21.86 24.46 23.73 22.86 22.23 20.52 20.40 20.56 20.25 18.18 17.02 19.38 19.23 18.37 18.69 20.08 19.67 19.53 20.30 20.61 19.44 18.77 16.94 15.10 14.04 9.36 11.74 10.39 9.77 8.42 9.19
18.59 17.30 16.96 12.41 24.57 14.78 16.22 19.13 22.39 22.35 12.82 19.24 15.99 15.21 20.24 21.49 14.67 14.55 15.54 16.94 20.27 24.33 24.44 23.78 24.09 24.29 23.42 20.67 19.26 20.00 20.14 20.84 19.32 17.95 18.35 20.15 19.10 18.76 18.29 18.36 17.72 18.67 18.58 17.36 15.36 14.33 10.05 8.14 9.51 10.28 9.73 9.85 8.22 5.67
8.69 12.52 16.59 16.96 13.99 14.94 15.93 10.76 11.49 12.56 13.60 12.90 14.73 18.94 19.64 17.46 16.13 15.49 17.33 16.42 19.84 23.47 24.14 24.07 22.78 21.67 21.06 21.24 20.13 19.85 20.24 21.49 20.65 18.85 18.81 20.26 20.33 19.57 17.39 16.52 16.55 16.80 16.55 18.96 14.35 12.21 8.88 8.20 8.89 8.13 6.64 3.23 -1.39 4.52
11.12 10.49 21.29 25.77 24.46 24.62 18.58 18.88 22.41 17.41 14.93 14.36 16.72 16.11 15.53 9.60 11.63 17.11 17.85 17.22 19.77 20.25 19.48 19.09 22.10 23.72 22.77 20.01 19.13 18.58 19.37 19.49 19.37 18.22 17.78 17.31 17.68 19.98 21.06 19.26 18.55 18.97 14.40 14.99 14.11 12.90 10.65 9.02 8.69 6.99 2.30 0.63 0.16 1.75
18.82 19.01 16.14 20.66 21.98 23.70 19.11 18.13 17.37 16.95 18.64 20.97 18.76 15.82 13.30 14.25 18.61 21.41 20.34 20.20 23.18 22.88 18.87 17.91 20.00 21.54 20.43 17.52 15.22 14.02 13.08 13.31 13.35 14.50 15.04 13.97 12.16 12.64 12.98 13.52 14.05 13.65 12.92 12.98 13.00 12.02 11.09 9.44 6.60 4.31 4.43 2.29 -2.99 -6.08
21.97 19.96 20.44 15.65 18.89 16.88 18.64 19.78 19.03 19.99 19.90 20.75 18.60 19.20 19.70 19.64 18.28 18.10 17.66 18.69 23.51 22.21 17.92 15.91 15.19 14.66 14.92 15.25 14.93 15.23 15.95 17.71 17.58 15.30 14.12 12.93 13.40 12.23 10.54 10.83 10.48 10.49 10.91 10.14 10.51 8.27 6.45 5.39 3.70 2.79 -0.03 -2.09 -6.86 -8.30
19.36 16.17 14.57 13.92 14.72 17.38 18.44 16.11 16.63 13.65 14.18 14.49 14.29 15.44 16.36 16.21 13.78 12.38 14.91 18.04 20.27 20.39 20.87 15.29 15.20 15.11 14.63 13.60 11.97 13.44 13.98 15.06 17.40 20.27 17.38 14.88 15.83 10.65 10.01 10.01 9.32 10.03 11.37 10.90 8.50 5.97 5.61 0.47 -0.33 -4.03 -5.07 -6.09 -5.32 -6.85
16.11 15.73 11.06 10.45 11.06 8.16 9.07 9.42 7.80 8.62 5.31 3.87 -0.01 9.98 11.76 6.72 9.08 7.88 9.78 12.34 14.47 14.33 15.93 14.55 13.39 12.58 11.71 11.22 13.03 12.38 13.50 15.26 16.81 17.65 16.08 13.47 10.80 10.11 8.96 8.41 8.39 9.30 8.28 5.94 3.67 1.54 -1.15 -1.72 -2.29 -4.37 -5.67 -8.75 -12.82 -10.84
15.29 17.52 17.27 9.45 9.23 9.20 9.82 6.97 2.56 3.31 3.52 8.84 8.29 0.27 4.82 8.45 10.55 10.94 6.19 8.61 12.67 12.89 11.22 11.96 11.83 12.71 12.20 15.26 16.19 18.06 15.74 14.48 12.85 12.25 11.70 11.20 10.23 8.87 7.25 6.31 6.43 6.41 4.69 2.82 0.72 -0.54 -1.84 -3.60 -4.59 -5.95 -8.67 -11.31 -13.23 -13.78
17.60 16.31 15.37 14.82 13.39 13.30 14.66 15.59 15.29 14.42 7.26 4.96 3.89 2.08 1.90 7.27 11.42 9.10 7.00 7.36 10.61 11.64 10.97 10.76 11.43 12.42 15.01 15.35 15.18 14.66 13.73 13.13 13.05 13.64 11.31 10.02 7.81 7.46 6.37 6.04 5.28 3.67 1.77 -0.08 -1.65 -3.27 -5.37 -7.07 -9.02 -11.16 -12.54 -14.29 -15.52 -15.90

GFSWCAN_sfc_wetblb_102.txt.gz
Wetbulb
42.92 42.29 42.14 41.56 44.26 44.98 45.19 44.98 44.59 44.55 44.23 44.02 43.92 44.20 45.24 45.83 45.02 42.93 41.26 43.15 40.94 37.24 36.36 37.57 37.27 35.48 35.56 36.29 31.87 33.82 32.82 33.14 33.21 29.00 29.52 27.60 28.47 29.66 27.65 27.54 27.32 26.77 25.04 24.85 26.34 22.73 19.30 31.46 31.47 26.72 27.44 29.96 28.89 28.20
42.62 42.15 41.97 40.97 44.52 44.81 44.72 44.36 44.26 44.22 44.07 44.31 43.82 44.36 45.14 45.17 44.54 43.08 40.16 42.60 43.16 39.94 36.14 39.88 39.36 39.32 38.70 38.90 36.81 35.52 33.17 32.14 34.88 32.10 32.41 32.27 29.54 30.94 28.97 24.29 30.92 26.00 28.48 28.21 26.69 25.55 29.79 30.25 28.40 29.82 31.14 29.54 28.66 27.23
41.52 42.15 41.44 43.22 44.30 44.47 44.39 44.18 43.97 43.91 44.32 43.98 44.50 44.74 44.62 44.59 43.69 43.21 42.52 42.16 42.53 38.65 37.42 38.00 36.24 40.59 42.62 40.93 42.08 35.74 36.73 35.68 34.92 37.57 36.73 35.04 28.84 35.03 28.55 28.47 28.23 30.02 33.14 29.42 28.72 29.02 29.33 29.60 29.82 30.13 29.68 28.25 27.90 27.91
41.28 42.20 42.29 44.21 44.40 44.37 44.07 44.04 43.97 43.87 43.99 44.47 44.75 44.38 44.43 44.05 43.46 43.35 41.80 42.75 42.26 39.25 32.94 34.02 41.36 38.24 41.93 42.88 41.84 42.35 39.11 39.45 39.02 39.99 36.61 35.57 32.59 35.21 31.15 31.42 32.38 32.57 33.23 29.17 27.49 29.26 29.61 29.76 30.18 29.41 28.36 28.36 27.23 27.23
41.25 42.79 43.86 44.19 44.19 44.08 44.02 43.74 43.69 43.88 44.27 44.48 44.38 43.94 43.69 43.25 43.14 43.20 42.57 41.65 41.58 39.81 32.88 32.96 38.83 39.75 41.34 41.85 40.52 41.41 40.37 38.56 38.44 35.61 35.00 32.73 35.66 34.72 34.88 34.63 30.48 33.41 30.52 28.82 28.18 31.13 30.89 29.15 30.24 30.39 27.88 26.72 27.16 25.98
40.60 43.69 43.78 44.07 44.13 43.64 43.79 43.79 43.96 43.51 44.43 44.42 43.91 42.87 41.95 41.02 39.43 42.29 36.42 42.52 42.35 42.64 36.84 30.62 37.20 37.22 39.74 41.37 40.33 39.67 39.69 39.02 39.18 36.67 34.50 35.36 35.35 36.15 31.68 29.13 29.28 31.20 32.12 33.72 29.94 32.86 31.26 30.81 30.44 29.83 27.66 26.91 27.10 26.39
40.31 43.75 43.85 43.67 43.54 43.06 43.65 43.67 43.75 44.34 44.32 44.01 43.08 42.99 42.24 42.06 42.77 38.53 36.81 40.05 40.36 42.25 38.67 31.39 31.52 37.29 38.75 39.80 40.44 39.99 40.19 38.99 38.65 36.88 35.24 35.33 35.03 37.49 33.75 29.32 29.84 31.61 33.01 32.43 33.30 31.79 27.83 29.40 26.90 28.77 28.45 28.11 28.02 27.44
43.24 43.63 43.56 43.55 43.34 43.13 43.29 43.41 43.75 43.84 43.77 43.71 43.39 42.78 42.06 42.00 42.01 38.90 40.90 39.88 40.30 39.68 39.80 31.31 29.67 33.53 38.70 36.40 35.59 40.35 37.98 39.04 37.00 36.37 36.53 34.93 35.23 36.38 29.69 31.00 31.59 31.78 32.26 32.30 32.64 33.80 32.61 30.73 29.81 28.23 28.37 27.84 26.22 25.59
43.60 43.36 43.25 43.03 43.05 43.36 43.32 43.35 43.59 44.02 43.81 42.68 41.29 40.07 41.81 39.47 37.43 38.64 40.81 39.17 42.47 39.78 33.17 33.30 29.06 27.72 38.40 36.85 38.60 38.07 39.10 32.59 37.57 34.52 34.62 34.47 31.92 28.25 30.46 31.59 30.43 31.27 31.34 30.60 31.65 32.43 31.27 29.54 28.19 28.28 28.06 27.60 25.95 25.02
42.87 42.87 42.71 42.81 42.85 42.55 42.26 42.96 42.90 41.16 40.05 39.59 39.34 35.66 33.27 37.90 40.26 39.52 38.70 37.02 36.04 35.75 36.47 32.08 36.22 29.82 36.21 35.78 34.06 34.23 35.53 32.49 28.87 32.12 35.36 31.49 31.10 32.12 33.08 34.55 34.84 34.68 33.81 33.03 29.13 27.25 28.82 28.18 28.34 27.79 27.71 27.96 27.03 25.35
43.02 42.91 42.86 42.68 42.59 42.16 41.67 42.72 40.56 38.88 38.82 38.74 34.78 33.06 39.04 40.05 38.60 34.77 30.73 30.77 31.99 29.16 34.03 34.35 35.38 32.13 37.95 32.60 32.63 35.69 31.96 32.69 26.13 29.68 29.36 27.50 27.22 28.69 33.02 33.58 35.33 35.26 34.52 33.91 33.93 33.50 32.83 31.49 29.06 27.27 25.97 25.74 25.27 24.58
43.34 43.18 42.92 42.72 42.39 42.12 41.98 40.21 38.70 38.63 37.42 38.13 37.93 39.85 39.60 35.34 31.71 27.60 26.21 28.22 28.72 26.92 32.22 32.70 33.72 36.46 36.34 39.06 34.62 33.48 29.44 30.28 22.18 32.85 27.65 24.32 27.44 30.24 31.30 31.46 32.74 33.26 32.68 32.47 33.44 33.05 32.06 30.21 29.05 26.98 25.19 23.85 22.50 20.23
43.03 42.88 42.93 42.56 42.31 41.84 40.04 40.21 40.56 40.51 40.53 40.13 35.96 31.32 31.40 29.17 23.13 20.92 19.48 24.50 26.91 31.31 32.50 33.70 32.16 36.44 36.56 38.37 32.58 30.69 24.86 27.42 32.68 27.22 26.74 28.80 28.23 28.67 28.33 29.26 29.71 30.75 30.73 30.40 29.61 29.49 28.55 26.84 25.90 24.24 21.60 19.34 18.74 17.14
42.73 42.64 42.59 42.29 41.52 41.93 41.38 40.36 39.02 39.19 38.82 31.73 27.95 21.78 24.95 22.68 25.18 26.71 28.17 29.34 30.77 31.97 33.53 34.61 30.90 34.59 33.72 32.59 31.26 24.53 28.89 28.62 24.50 22.86 24.03 28.71 27.85 27.89 28.15 28.68 27.90 26.35 26.29 26.06 25.30 23.75 20.96 18.37 17.37 17.78 17.72 16.61 15.22 14.08
42.31 42.29 42.06 41.43 41.78 41.49 39.89 38.99 37.62 39.77 36.12 29.43 29.45 22.39 24.90 28.60 30.28 31.17 32.42 32.98 31.10 33.61 35.72 34.33 33.67 35.45 31.56 28.32 28.91 26.00 23.43 22.75 26.46 27.73 31.31 30.57 28.13 27.24 26.32 26.23 24.58 22.82 21.53 21.25 20.74 17.91 15.62 15.03 15.15 14.47 15.54 17.33 15.15 12.79
42.00 41.50 40.42 41.56 41.16 39.95 38.29 38.41 39.30 38.89 34.64 31.55 29.54 27.53 30.28 30.72 30.18 31.92 32.82 31.92 35.53 36.06 36.33 35.89 30.52 29.04 27.13 28.66 24.41 23.67 23.50 24.27 29.69 31.72 30.22 28.19 26.26 26.31 25.44 24.17 22.79 22.08 20.99 19.66 18.47 17.62 16.59 14.83 15.40 15.63 15.13 14.91 14.20 14.96
40.47 37.88 41.27 40.95 39.52 38.56 38.06 38.71 37.47 30.76 29.93 28.81 28.72 30.65 31.12 31.33 30.47 31.19 34.03 33.80 37.77 35.21 30.83 31.39 24.33 22.86 30.07 25.34 22.82 28.67 28.91 31.18 29.92 28.06 28.17 29.10 26.96 25.26 22.74 21.14 19.08 18.91 18.96 18.99 18.57 18.74 18.27 17.89 15.75 16.53 16.07 15.91 17.49 17.42
38.91 41.35 40.80 39.71 39.35 38.28 38.02 36.72 33.22 30.46 25.53 29.76 29.01 29.76 31.64 32.81 31.37 31.12 32.18 34.01 35.94 33.88 32.38 28.62 31.87 25.59 25.61 22.48 28.33 32.67 29.73 27.50 27.17 27.78 26.87 27.34 26.14 22.81 23.01 21.95 19.70 20.25 19.65 19.02 19.40 18.26 16.95 17.19 19.41 20.87 19.87 19.38 19.53 19.08
41.21 40.90 39.90 38.93 38.31 36.78 32.61 32.75 34.81 25.97 27.46 30.36 31.06 31.52 31.15 31.63 33.02 33.04 33.35 33.36 34.35 36.75 34.97 29.90 26.21 26.62 29.17 33.40 32.46 30.28 29.68 29.64 27.60 26.06 23.96 24.11 24.05 21.86 21.23 20.72 20.33 20.81 20.31 20.14 19.88 20.34 21.30 22.35 23.48 23.18 22.84 22.55 22.92 23.23
40.97 39.63 39.10 38.88 39.58 34.93 29.26 30.05 34.88 29.44 26.74 29.02 30.87 28.83 28.76 29.59 31.92 32.87 34.29 33.48 34.55 33.16 30.10 27.61 28.93 33.27 33.98 34.99 34.45 33.62 32.15 29.92 27.24 25.46 23.79 23.40 23.04 21.45 22.01 21.94 23.17 22.77 22.06 22.07 22.12 21.99 22.53 22.96 23.96 24.40 24.58 24.09 24.05 22.51
38.24 38.12 38.10 39.19 37.40 36.12 32.39 30.43 28.47 30.02 29.48 27.76 29.16 29.08 28.68 30.64 29.65 30.76 31.36 33.97 31.59 29.78 28.82 32.52 33.35 32.64 30.13 29.93 31.87 31.59 29.99 29.66 30.12 30.96 28.20 23.11 23.79 25.00 23.62 24.53 23.99 23.97 23.40 22.56 22.31 22.62 23.18 24.58 24.85 25.11 24.98 24.57 23.63 23.29
36.90 36.52 37.59 36.84 33.17 32.59 31.30 32.59 30.34 31.92 28.89 27.70 28.60 30.13 28.53 27.98 28.80 30.05 32.34 28.83 29.08 31.37 33.24 33.76 33.75 31.89 28.93 28.95 29.23 29.35 28.94 27.78 26.59 25.68 25.67 25.15 23.46 23.74 23.91 24.36 24.09 23.89 24.21 24.39 24.64 24.16 25.20 24.87 25.04 24.97 24.21 21.28 21.26 21.02
37.03 37.05 34.55 32.07 27.84 28.29 27.27 34.09 27.95 28.54 24.94 25.03 26.75 24.37 25.38 26.64 29.01 32.06 26.44 28.88 31.34 30.34 29.96 31.06 30.30 30.00 30.45 27.46 27.18 26.74 27.16 27.64 27.88 27.80 26.07 27.78 27.21 26.80 25.99 25.55 26.23 24.96 24.12 24.55 25.81 25.58 24.96 22.90 22.95 23.81 21.62 21.63 20.90 19.08
36.77 31.53 27.83 26.05 27.38 24.41 28.82 27.41 29.91 26.88 26.26 24.30 22.80 20.12 23.65 26.30 27.54 25.26 23.53 28.08 30.05 28.13 27.45 28.08 29.38 27.74 27.96 26.80 28.31 27.46 26.94 28.48 27.24 26.89 27.13 26.34 25.06 24.88 26.07 25.81 26.17 26.73 26.53 25.12 25.11 25.46 23.78 24.13 20.76 22.03 21.15 19.84 19.46 18.45
26.94 24.77 26.69 21.07 26.35 24.27 23.30 24.87 24.71 24.59 21.82 22.25 20.58 23.06 24.86 27.37 24.39 23.29 23.01 28.07 28.39 28.65 28.29 28.19 28.15 28.57 29.52 29.61 28.20 27.21 24.62 27.40 26.93 25.31 25.92 27.15 26.42 25.18 24.94 25.14 25.55 26.04 26.75 25.86 24.90 24.41 23.19 22.12 22.27 20.80 19.64 19.53 17.37 15.62
20.63 23.20 23.00 24.39 24.35 23.21 23.92 21.34 22.40 22.51 23.65 22.89 23.82 26.11 27.49 25.73 20.86 21.27 25.28 29.01 28.53 28.63 28.84 28.60 28.25 26.95 26.79 28.48 27.62 26.17 25.48 27.07 27.05 25.83 24.64 25.93 26.12 25.95 24.11 22.58 22.36 22.69 26.73 28.29 26.23 23.49 20.33 20.54 19.64 17.71 16.82 14.07 12.02 13.46
19.98 22.57 26.75 29.42 28.19 27.51 26.29 27.18 27.67 26.11 22.28 21.60 24.81 23.70 23.79 19.14 20.42 25.52 28.23 27.40 28.27 28.26 27.31 28.21 30.12 29.76 29.33 26.76 26.14 26.10 26.29 26.43 26.31 26.19 26.42 26.23 27.24 28.07 27.22 25.12 23.80 26.10 25.90 26.24 25.85 24.19 20.95 19.16 17.86 17.02 14.80 14.26 13.14 13.23
25.31 25.39 22.63 26.01 26.18 28.34 24.84 25.17 24.27 23.34 25.46 26.79 26.16 21.93 20.87 21.60 24.64 28.60 27.48 27.04 27.59 26.58 26.09 27.34 28.29 29.20 28.92 26.75 25.27 23.48 21.63 21.18 21.04 22.24 22.66 22.55 22.78 24.02 23.80 24.71 24.50 23.06 25.20 25.26 24.70 23.25 21.59 19.73 17.49 15.07 13.33 10.44 7.24 9.63
23.56 26.37 26.50 21.97 24.46 25.87 26.61 26.09 26.03 27.73 27.63 28.12 26.35 25.51 26.47 27.95 27.98 27.48 25.21 25.89 27.65 26.76 25.59 25.64 24.01 24.90 23.93 23.52 23.49 23.72 23.27 24.20 22.86 20.47 20.53 20.46 20.91 20.01 20.76 21.11 21.17 21.33 20.66 18.89 17.71 19.15 18.81 16.98 15.36 13.05 10.43 8.39 6.63 5.59
23.63 27.24 25.22 23.14 22.07 23.79 27.77 26.58 27.28 23.74 23.24 24.15 24.14 24.86 25.13 26.79 26.12 24.65 25.22 25.56 25.93 26.07 27.86 27.67 24.99 25.40 23.71 23.37 21.13 20.62 23.35 25.95 26.25 25.34 22.86 21.85 23.66 20.05 19.43 19.56 19.39 19.44 19.53 18.15 15.18 12.15 10.28 7.94 6.68 5.57 5.18 5.20 5.41 3.04
24.26 24.94 24.20 24.05 23.81 24.03 21.18 20.21 20.31 20.85 21.14 22.45 18.55 23.84 27.03 23.00 24.77 21.99 22.22 25.19 26.37 25.29 24.40 23.74 22.78 23.87 23.55 22.70 23.21 21.35 20.95 23.24 23.02 24.98 25.43 23.56 20.09 20.03 19.29 18.64 18.85 18.00 15.91 13.58 12.38 11.23 9.84 9.65 8.62 6.72 5.09 2.09 -0.59 0.47
23.54 23.65 23.63 20.55 21.73 19.66 19.65 21.65 22.81 23.24 21.89 22.28 23.82 18.93 22.05 22.87 24.81 24.11 17.86 19.56 21.55 22.32 23.73 24.75 24.37 23.66 24.48 25.47 24.88 25.96 23.53 24.16 22.66 20.21 19.97 20.29 19.30 17.96 16.89 16.31 15.61 15.13 13.47 12.06 11.09 9.74 9.25 7.93 6.99 4.93 1.72 -0.37 -1.55 -2.95
21.52 21.64 20.68 20.65 19.59 18.70 20.07 20.84 20.41 20.28 19.73 19.78 19.97 17.32 19.95 21.29 22.06 19.83 16.99 16.88 18.90 22.37 23.63 24.11 24.35 22.66 22.21 22.64 23.93 22.62 21.78 21.69 19.36 18.75 17.35 16.90 14.95 15.07 15.10 14.69 13.78 12.52 11.31 10.48 9.70 8.05 6.31 4.58 2.84 0.94 -1.00 -3.76 -4.76 -5.11

GFSWCAN_sfc_wetblb_105.txt.gz
Wetbulb
42.39 43.22 42.81 42.64 42.80 42.82 42.77 45.48 45.57 44.85 44.55 44.45 44.35 43.91 44.87 44.97 45.61 44.96 42.86 47.10 43.32 39.85 38.79 40.89 40.42 38.27 38.94 39.03 34.67 37.48 35.08 35.38 34.14 30.40 30.56 30.19 30.15 31.80 30.42 30.50 29.68 28.20 27.37 26.96 29.30 25.14 22.64 33.47 33.48 26.72 28.15 31.17 29.51 28.85
41.94 42.63 42.21 41.66 43.60 43.77 45.12 44.80 44.47 44.67 44.43 44.43 43.74 44.69 45.21 45.75 45.96 45.08 41.86 45.42 45.43 41.44 38.37 42.79 42.19 42.98 41.44 41.58 39.90 38.69 36.79 36.13 38.13 34.46 35.30 35.24 31.58 33.03 31.11 25.98 33.85 28.72 30.83 31.11 28.53 27.60 30.04 32.13 29.58 30.73 31.93 30.63 29.55 28.94
41.61 41.55 40.85 41.91 44.15 44.89 44.13 44.46 44.41 44.27 44.36 44.22 44.31 44.97 45.12 45.73 45.78 44.30 43.82 44.13 43.95 40.32 39.53 40.24 38.59 42.68 45.04 44.30 45.63 36.93 39.42 39.08 37.46 41.78 39.99 37.93 31.29 35.65 29.78 29.68 30.27 32.72 35.42 30.87 30.28 29.30 29.32 29.82 31.15 31.42 31.62 29.79 29.96 30.06
41.07 41.57 41.25 41.45 44.42 44.37 43.96 44.16 44.20 44.36 44.25 43.97 44.50 45.24 45.09 45.26 45.35 44.05 44.04 45.13 44.23 41.36 35.02 35.20 43.42 40.63 44.78 45.07 44.23 45.02 42.20 42.81 41.67 41.76 39.61 38.38 34.14 38.02 34.24 34.63 34.35 35.63 34.91 30.58 27.98 29.09 30.53 30.15 30.70 30.47 29.59 29.71 28.60 28.82
40.74 41.28 41.88 43.55 44.14 44.05 44.04 43.99 44.07 44.08 44.30 44.47 44.64 44.74 44.74 45.04 44.33 46.24 44.99 45.61 45.57 41.67 34.41 34.72 40.63 42.36 43.66 43.70 42.71 43.32 42.05 40.39 39.09 37.16 37.53 36.56 38.69 36.48 36.80 36.72 33.14 36.69 32.93 30.06 31.06 33.26 32.68 29.77 30.92 30.91 29.23 28.39 28.76 28.20
40.25 40.89 42.87 43.85 43.98 43.87 43.81 43.79 43.71 43.99 44.27 44.50 43.76 43.61 43.63 43.87 43.84 44.80 39.13 45.53 45.97 45.58 37.99 32.25 39.84 39.26 41.98 43.05 42.04 41.26 42.01 41.92 42.22 39.31 37.72 38.58 39.06 37.73 32.55 30.23 31.38 33.94 35.54 35.92 32.06 35.03 33.51 31.75 31.73 31.69 29.37 29.02 29.78 29.09
39.17 42.95 43.60 43.72 43.75 43.72 43.74 43.50 43.85 44.04 44.07 43.93 43.21 43.11 42.87 42.13 44.85 41.68 39.32 41.34 41.49 46.36 39.86 32.50 32.81 38.90 40.99 41.33 42.61 41.63 42.34 41.81 41.32 40.09 38.15 38.08 37.58 38.56 35.31 30.50 32.16 34.11 33.56 33.63 34.28 33.42 29.00 31.07 28.68 31.46 30.87 30.28 30.02 29.81
40.07 43.76 43.70 43.75 43.60 43.55 43.53 43.67 44.25 44.02 44.02 43.56 43.38 43.61 43.67 43.50 42.85 41.10 42.38 42.26 42.95 44.58 42.05 32.87 31.65 34.62 40.63 37.88 37.31 42.50 40.48 41.96 39.68 39.23 39.30 37.72 37.15 38.47 32.03 32.80 32.99 33.50 32.70 32.99 33.20 35.05 33.97 32.96 32.17 31.20 31.36 30.49 28.46 27.88
43.31 43.63 43.28 42.78 42.89 43.22 43.39 43.90 43.87 44.21 43.97 42.53 41.97 42.25 44.04 42.73 40.71 40.44 40.93 41.44 46.31 43.00 36.31 35.42 30.57 29.09 40.62 37.82 38.78 39.85 41.00 35.34 39.86 37.19 37.03 36.59 34.29 30.22 33.32 31.71 31.73 32.92 32.18 31.56 33.52 33.68 33.19 31.23 30.51 30.04 30.26 29.59 28.51 27.59
43.18 43.18 42.76 42.62 42.04 42.78 42.91 43.83 43.94 43.45 41.90 39.91 41.14 39.93 36.49 39.82 40.30 41.53 42.06 40.58 40.51 39.93 40.58 36.02 38.51 31.19 37.49 37.17 35.94 36.42 38.50 34.81 30.03 34.45 37.81 33.33 32.73 35.10 35.96 35.44 34.70 33.98 34.44 34.59 30.36 29.20 29.97 29.28 29.65 30.07 29.88 30.39 29.93 28.39
43.40 43.20 42.97 42.79 42.50 42.93 42.87 42.00 41.31 40.45 39.59 40.63 37.91 34.91 40.65 40.25 41.54 39.38 34.12 33.64 34.75 31.67 37.25 37.19 36.84 33.79 39.90 33.81 33.65 37.90 33.55 34.30 27.56 31.57 31.27 29.40 29.11 32.31 34.54 34.64 36.10 35.63 34.85 34.44 35.32 34.64 34.32 33.00 31.27 30.40 29.66 29.48 28.63 27.84
43.40 43.29 42.76 42.37 42.12 42.71 41.76 40.45 39.59 40.42 40.37 39.97 40.09 41.85 42.41 38.88 35.53 30.74 29.24 31.44 31.46 28.89 34.93 34.98 36.25 37.40 38.38 41.67 35.63 35.51 31.06 32.80 23.74 36.39 30.15 25.90 29.93 32.71 33.01 33.48 33.68 34.36 34.49 34.18 35.18 34.14 34.13 32.98 32.07 30.43 28.65 27.43 26.21 24.31
42.95 43.11 42.73 42.18 42.25 41.34 40.10 40.49 42.06 41.02 42.09 42.56 39.02 33.89 34.99 32.65 26.89 26.07 22.50 27.31 29.10 33.13 34.82 36.39 34.33 36.93 38.48 39.33 34.48 32.80 26.60 28.51 35.77 29.02 27.63 29.59 30.30 31.97 33.00 33.62 31.78 33.26 33.55 33.95 34.23 33.74 32.30 30.87 30.44 28.51 26.13 23.85 22.13 20.96
42.75 42.68 42.61 42.26 41.54 41.67 41.51 40.75 39.65 40.60 41.20 35.93 30.80 24.70 28.51 26.69 28.26 30.08 31.21 32.55 32.43 34.84 36.44 36.78 33.75 35.39 37.25 33.05 33.05 27.02 30.34 31.60 25.65 24.81 24.30 31.22 29.92 30.24 31.83 32.82 31.46 30.24 31.42 31.00 30.28 29.29 27.52 26.11 24.20 23.22 22.34 21.82 19.36 18.19
42.48 42.20 41.72 42.01 41.75 40.62 39.86 39.13 39.59 43.62 39.26 31.97 32.08 24.31 26.79 30.58 32.60 32.60 33.92 32.89 33.23 37.68 37.29 36.28 36.19 36.14 32.57 28.77 29.91 27.72 24.85 23.72 27.42 28.89 30.47 32.09 30.67 29.68 29.67 29.93 28.50 27.71 27.53 27.00 26.01 23.71 22.39 21.06 20.27 20.09 20.41 21.47 19.52 17.30
41.97 41.32 40.99 41.74 40.36 39.53 38.56 39.12 41.64 41.10 37.11 32.82 31.35 29.30 32.48 32.31 30.34 32.34 32.88 32.26 36.05 37.69 39.24 37.84 32.19 30.81 28.74 30.18 26.26 24.83 25.59 25.73 29.89 30.02 30.51 30.30 29.17 28.78 28.78 28.37 27.53 26.73 26.24 25.14 23.39 22.09 20.85 19.45 19.89 20.74 19.79 18.10 17.30 17.94
41.53 38.53 41.31 40.24 39.51 39.62 40.37 41.00 39.43 33.80 32.15 30.35 29.89 32.34 33.97 33.24 31.79 31.79 36.06 35.81 40.51 37.64 32.15 33.74 27.10 24.50 32.12 27.68 25.22 30.07 28.85 30.36 29.44 29.54 30.45 30.02 28.53 28.36 27.48 25.90 24.65 24.65 24.62 23.83 22.97 22.07 20.91 21.99 19.41 18.78 17.74 18.37 20.30 20.21
39.88 41.18 40.44 39.68 40.54 40.70 41.54 39.95 35.95 32.35 27.89 32.02 30.20 30.70 33.54 34.31 32.09 32.23 33.38 36.00 37.93 35.56 35.09 29.13 34.60 25.88 26.08 24.63 28.81 32.38 30.58 29.31 30.19 29.48 28.82 29.26 29.02 27.54 26.79 25.36 24.13 24.85 24.31 23.31 23.24 22.58 21.20 19.72 21.40 22.66 21.77 22.16 22.01 21.73
40.81 40.69 39.91 39.35 39.62 39.60 35.08 35.55 36.98 27.27 29.66 31.95 32.70 33.64 33.46 33.33 33.63 33.68 34.33 35.83 37.90 40.18 36.18 33.87 27.48 28.87 29.65 33.74 33.59 30.92 30.75 32.17 30.13 28.26 27.81 28.17 27.89 26.91 26.09 25.07 24.78 24.95 23.97 23.47 23.28 23.06 23.23 24.70 26.51 25.11 24.62 24.45 24.20 24.81
39.46 39.28 39.01 39.42 40.56 37.39 31.12 33.01 37.21 30.35 28.37 30.67 32.37 30.39 30.83 31.86 33.70 34.51 35.27 35.34 35.57 34.46 31.88 29.86 31.08 33.19 33.36 34.14 35.68 35.52 34.02 34.89 31.62 28.20 26.07 26.16 26.84 26.23 25.72 25.50 26.28 25.49 24.98 24.99 25.20 24.67 25.48 26.00 26.55 26.67 26.29 26.96 25.88 24.62
40.35 39.95 39.99 41.41 40.50 38.00 34.77 33.32 29.74 30.60 30.20 29.10 29.96 30.32 29.33 32.11 30.92 31.20 32.19 34.59 32.21 32.56 31.89 35.30 35.20 33.54 32.96 33.45 36.29 36.52 33.86 33.87 33.81 33.80 30.78 26.43 27.45 28.26 26.47 27.84 26.77 26.83 26.11 25.69 24.83 25.43 25.71 26.13 26.76 26.95 26.56 26.54 26.57 25.80
40.21 36.93 40.34 39.52 35.73 34.97 32.70 34.32 30.68 32.04 29.75 28.90 29.24 30.35 27.96 27.50 28.32 30.26 32.24 29.88 30.03 32.68 34.62 34.95 35.65 33.75 32.86 32.67 32.87 34.13 33.23 32.77 31.33 32.02 31.26 29.60 26.90 26.70 26.46 27.09 26.88 26.31 26.78 26.99 26.84 26.04 27.00 27.37 27.34 26.71 26.67 24.98 24.83 23.97
37.55 39.47 37.67 35.13 30.65 30.49 28.75 36.23 29.07 29.20 25.82 26.20 28.44 26.61 27.76 28.18 30.18 33.40 27.59 29.81 31.65 34.08 34.71 35.13 33.40 33.60 33.40 31.33 30.90 31.19 31.48 32.07 32.39 31.89 30.55 30.95 29.93 30.37 28.37 27.49 28.46 27.33 26.12 26.76 28.43 27.32 27.24 26.69 26.48 26.04 24.73 24.27 23.37 21.51
37.93 33.57 30.10 29.09 30.26 25.62 30.74 27.94 30.74 28.09 27.57 26.59 26.19 23.24 25.58 27.38 29.13 27.34 25.54 31.99 32.87 33.29 31.93 29.74 31.68 31.30 32.14 30.83 32.24 31.23 30.74 33.54 32.05 30.44 32.01 30.21 27.32 26.99 28.03 27.43 27.95 28.07 28.87 28.61 28.01 27.26 26.59 26.37 25.52 24.39 23.94 23.07 22.55 21.33
29.25 27.08 29.10 24.18 29.07 26.72 25.30 25.33 25.79 27.00 23.69 24.88 22.30 25.04 26.41 28.60 25.38 25.31 25.01 31.52 32.60 31.12 30.34 29.94 30.41 30.59 31.24 31.69 31.72 31.26 29.14 32.37 31.34 29.50 30.01 31.30 29.14 27.79 26.76 27.47 27.27 28.03 29.60 28.69 26.73 26.32 25.48 25.14 24.67 24.07 22.98 22.62 20.72 20.02
22.61 26.97 26.12 26.58 26.74 25.48 26.37 22.52 23.96 24.21 26.11 24.58 25.53 28.44 28.61 26.22 22.79 24.11 29.17 31.76 31.92 30.07 29.89 29.47 30.11 29.47 29.32 31.01 30.59 30.16 29.87 31.85 31.55 29.35 29.10 30.51 28.83 27.67 26.28 24.74 24.84 25.75 29.19 30.09 27.59 25.60 24.19 24.24 23.40 22.33 21.88 20.69 18.20 18.43
21.84 24.16 29.25 32.25 30.85 29.51 27.58 29.21 29.40 27.46 24.67 24.30 27.02 25.33 24.97 21.64 23.53 29.17 33.23 32.83 32.75 30.39 31.76 31.77 31.58 30.81 30.13 29.92 30.28 30.44 30.48 30.31 30.12 29.21 29.71 29.89 29.35 30.03 29.22 26.26 24.84 26.95 29.74 29.59 28.65 26.69 24.69 23.53 22.20 21.36 19.67 18.73 18.18 17.42
28.09 28.16 24.19 27.35 27.50 29.51 26.32 26.91 26.01 24.86 27.36 30.41 29.01 23.87 22.79 24.55 27.53 32.85 31.91 30.98 30.29 29.88 29.74 30.31 30.85 30.78 30.37 29.60 28.86 27.82 26.72 26.63 26.77 27.19 26.89 26.55 27.95 28.59 29.07 29.61 30.20 28.10 29.50 28.85 28.48 27.68 25.72 23.77 22.23 20.62 18.76 16.23 15.01 16.07
26.78 29.44 28.76 24.91 26.95 27.65 27.95 27.74 28.19 30.76 32.58 31.40 28.03 27.77 29.31 32.48 33.20 32.75 31.20 30.68 30.33 29.58 28.47 27.88 27.10 28.32 27.66 27.80 28.09 28.06 27.41 27.56 25.25 22.42 22.44 22.31 22.24 23.12 26.25 26.58 26.92 26.52 26.69 26.03 25.19 25.40 24.64 22.80 20.96 19.34 15.52 13.49 13.64 12.80
26.62 29.31 26.51 26.12 24.46 25.52 29.83 30.39 30.46 29.26 29.79 30.17 29.62 30.44 30.49 32.33 32.05 31.67 31.33 30.29 29.54 29.58 30.51 30.11 28.63 27.76 26.25 26.06 24.84 24.88 27.77 28.83 29.28 27.70 25.32 24.22 25.51 24.44 24.62 24.55 24.09 24.06 23.77 22.28 20.07 17.51 16.49 14.98 13.56 12.15 10.86 9.97 9.20 7.55
29.16 27.47 26.59 27.24 26.38 28.27 27.20 26.94 27.43 28.00 28.25 28.75 28.02 28.50 30.68 30.06 31.85 30.08 29.75 30.27 29.83 29.69 28.42 27.23 26.52 28.11 26.94 26.80 26.02 24.53 23.38 26.15 26.89 28.33 30.44 28.47 25.70 25.16 24.48 24.39 24.11 23.64 21.16 18.05 16.02 15.77 13.53 13.70 12.98 11.22 10.73 8.95 6.16 6.04
26.28 25.57 25.55 23.52 25.80 25.67 25.92 26.48 27.02 26.89 27.18 26.76 27.74 26.80 27.71 27.73 27.97 27.53 23.62 25.23 25.06 25.29 26.21 27.95 27.06 26.45 28.45 29.20 29.97 29.54 27.86 27.91 26.83 26.18 26.07 26.26 25.29 24.52 23.79 22.97 21.80 20.71 18.87 17.51 16.34 15.34 14.49 12.90 11.69 9.26 6.79 5.32 4.76 3.24
26.27 26.11 25.51 25.39 24.56 23.17 24.63 24.91 24.87 24.33 24.60 25.00 25.89 24.84 25.48 25.58 25.84 23.14 22.45 22.84 23.15 23.98 26.21 27.40 28.07 28.30 27.59 27.16 27.53 26.83 26.86 27.18 25.72 25.17 24.85 23.82 22.11 21.39 21.32 20.87 19.94 18.10 16.44 15.56 15.04 14.11 12.42 10.84 8.73 7.33 5.37 2.46 1.42 0.89

GFSWCAN_sfc_wetblb_108.txt.gz
Wetbulb
40.79 42.48 43.41 43.18 43.08 43.01 43.38 42.86 44.62 46.09 46.49 46.05 46.23 45.88 45.83 45.44 45.46 43.39 42.92 45.72 42.09 35.68 39.10 40.08 41.26 37.85 39.77 38.80 33.77 36.82 35.03 36.06 34.29 30.45 29.89 30.51 29.47 30.97 30.11 31.06 29.01 27.50 25.93 26.04 28.62 25.70 22.05 33.23 33.92 28.20 28.95 30.88 29.00 27.94
41.25 42.17 42.28 42.34 42.43 43.60 42.86 45.21 45.49 45.27 45.08 44.87 44.83 45.06 44.67 44.31 44.27 44.82 40.50 45.81 46.36 39.23 38.09 43.59 42.82 42.95 42.01 42.11 39.89 39.73 36.93 36.38 37.47 33.27 33.78 33.60 31.13 33.34 31.45 25.82 34.77 28.41 30.63 29.74 27.40 26.34 30.06 31.59 29.77 31.59 33.48 30.24 28.87 27.57
41.45 41.82 42.01 41.60 42.41 43.19 43.48 44.85 44.83 44.72 44.77 44.56 44.32 44.80 45.06 44.36 44.68 44.92 41.48 44.31 43.45 39.81 38.75 39.30 37.97 42.52 45.18 44.94 46.85 36.99 39.15 40.53 38.53 42.29 40.14 36.93 31.71 34.79 29.03 30.53 31.80 33.53 36.16 30.02 29.52 28.83 28.48 29.54 30.95 31.28 31.43 29.19 29.49 29.38
40.83 41.47 41.49 40.91 43.01 44.42 44.57 44.50 44.41 44.45 44.15 44.10 44.42 44.72 45.08 44.94 45.10 45.16 41.25 45.46 44.24 40.02 33.75 34.76 43.55 40.78 45.12 45.08 45.09 45.49 42.89 42.99 42.47 41.85 38.88 37.31 33.64 38.41 33.21 34.36 33.18 34.92 35.35 30.52 28.10 29.50 29.77 29.82 30.30 29.88 29.16 29.66 28.78 29.13
40.73 41.01 40.70 41.12 43.84 43.95 44.32 44.22 44.10 44.19 44.16 44.42 44.44 44.50 44.32 44.57 45.29 45.36 43.87 45.57 45.83 40.28 33.72 33.84 40.68 42.42 44.02 43.96 42.60 43.37 42.43 41.47 39.66 37.06 37.57 34.97 37.30 36.79 37.78 36.80 32.64 36.56 33.24 30.71 31.31 32.42 32.39 29.54 30.32 30.87 28.72 28.05 28.90 28.31
40.18 40.36 40.18 43.63 44.04 44.02 44.14 44.16 43.84 43.80 44.08 44.27 44.61 44.80 45.09 45.39 45.37 44.01 37.49 45.35 46.62 44.91 37.79 31.59 39.81 39.93 42.35 43.08 42.02 41.60 41.95 41.88 40.56 38.14 36.53 37.96 40.46 37.13 32.85 30.67 33.70 36.18 37.03 37.10 33.57 35.54 32.83 31.51 31.86 31.72 29.81 29.94 30.34 29.51
39.67 40.40 41.35 43.95 43.91 43.88 43.82 43.58 43.54 43.80 44.14 44.11 44.19 44.70 45.04 44.77 44.51 39.62 38.46 40.86 41.80 45.92 40.81 32.40 31.98 38.81 41.47 41.35 41.43 40.76 42.38 40.78 40.48 37.63 36.24 36.45 36.60 37.42 35.15 30.36 33.79 34.79 35.25 35.42 34.75 32.76 28.68 30.36 28.56 31.35 31.17 30.90 31.05 30.51
38.84 41.26 43.57 43.68 43.75 43.78 43.46 43.45 43.69 44.02 44.01 43.97 44.07 43.87 43.61 43.39 42.36 40.08 41.73 43.01 43.02 44.64 41.91 33.50 31.57 34.09 40.85 36.60 35.66 41.24 38.17 39.61 39.06 37.72 37.48 35.81 36.61 36.53 31.08 33.74 33.97 33.48 33.21 33.14 33.28 35.48 33.11 33.16 32.55 31.40 31.28 30.67 28.86 27.95
39.44 43.24 43.51 43.44 43.48 43.55 43.51 43.40 43.45 43.67 43.66 43.72 44.22 44.36 43.36 42.92 39.59 39.41 40.36 41.67 47.50 42.69 35.48 33.92 29.63 28.58 40.14 37.72 38.88 38.25 39.65 34.83 38.57 35.51 35.51 35.78 34.31 29.77 33.69 32.66 32.32 32.06 31.73 32.13 34.07 33.67 32.85 31.63 30.90 30.58 30.29 29.48 28.07 27.48
42.34 43.35 43.24 43.21 43.47 43.47 43.81 43.50 43.55 43.48 42.42 41.82 39.66 39.71 37.26 39.53 40.00 41.18 42.33 40.07 40.44 39.02 39.55 34.62 38.03 31.64 37.04 37.95 36.23 35.53 37.01 33.74 29.60 33.68 37.33 32.71 31.90 35.85 37.39 35.80 35.00 33.93 34.30 33.89 31.12 29.67 30.64 29.53 29.56 29.73 29.71 30.44 29.51 28.16
43.19 42.48 42.09 42.48 43.27 43.41 43.74 43.52 43.35 42.00 38.60 40.09 37.77 35.71 40.30 40.28 42.07 38.96 35.06 33.32 34.64 31.79 36.50 36.95 36.03 33.36 39.46 34.53 33.63 37.04 33.01 33.63 27.30 31.57 30.62 29.23 28.61 32.84 36.39 35.32 35.38 35.38 34.93 34.53 35.34 34.29 33.77 32.47 30.89 30.27 30.04 30.16 29.14 28.35
43.24 42.49 42.33 42.96 43.04 42.51 42.07 41.70 41.42 39.35 40.67 39.93 40.63 42.21 42.19 38.70 35.29 30.87 29.54 31.57 31.63 29.07 34.99 35.08 35.72 37.34 37.87 40.52 34.97 34.40 30.69 31.97 25.35 35.50 29.74 25.71 30.29 33.69 34.65 34.68 35.20 34.97 33.92 34.19 35.38 34.22 33.83 32.53 31.98 30.29 28.98 27.73 24.66 21.75
42.79 42.72 42.99 42.67 42.11 41.16 41.11 41.86 42.27 42.25 42.73 42.56 38.89 34.98 34.33 32.75 26.93 26.03 22.52 26.99 29.12 33.49 36.24 37.51 35.01 36.91 37.74 38.44 34.20 32.20 27.52 27.78 34.91 28.42 26.55 28.79 31.46 32.96 33.57 33.42 33.39 34.22 33.64 34.43 33.67 33.49 32.17 31.32 30.36 28.54 24.48 21.89 21.88 20.52
42.52 42.32 42.41 41.89 41.68 42.53 42.18 40.91 39.79 40.52 40.68 35.50 31.21 25.60 29.13 26.76 28.40 30.18 31.58 31.89 34.89 37.00 37.66 37.84 35.19 35.49 36.92 32.54 32.94 27.20 31.02 30.99 24.98 24.12 25.71 29.49 30.51 32.48 32.34 32.79 32.65 32.15 32.68 32.74 31.06 28.56 26.73 25.30 23.68 22.94 22.43 21.95 20.02 18.16
42.34 42.05 41.66 42.09 41.97 40.54 39.79 39.64 40.66 43.39 38.93 32.52 32.42 25.33 27.30 31.11 33.17 33.79 35.16 35.06 36.15 39.50 38.29 36.35 35.67 35.11 31.47 28.37 30.76 28.75 25.03 22.97 26.60 26.97 29.54 31.58 31.58 31.69 31.31 31.20 30.77 30.34 29.61 29.12 28.22 25.86 23.91 22.58 22.49 21.74 21.23 20.77 19.18 17.31
41.77 41.36 39.85 41.30 40.58 39.76 38.94 40.82 42.20 41.52 37.40 32.95 31.93 29.29 32.85 31.71 30.73 31.89 32.98 33.49 38.22 39.31 40.01 37.53 32.48 30.41 28.15 29.68 26.11 25.14 25.69 24.87 27.78 28.59 30.54 30.91 30.23 30.07 29.82 29.44 29.21 29.39 28.66 26.71 24.93 23.58 22.65 21.73 20.75 21.64 21.18 18.36 17.32 17.76
41.40 38.23 40.70 40.32 40.04 40.10 41.15 40.76 39.09 34.33 32.38 31.46 30.11 32.25 33.16 32.96 31.32 32.07 35.33 35.80 39.83 37.63 33.02 33.19 27.24 26.32 32.32 27.74 26.90 30.67 28.39 28.86 29.00 29.11 30.73 30.99 29.70 29.08 28.59 27.65 27.15 26.88 25.68 24.53 23.80 22.82 22.11 23.53 20.83 18.80 16.96 18.00 19.41 18.92
38.96 40.08 40.47 39.48 40.24 39.93 40.94 39.91 35.72 32.50 29.03 32.47 30.17 31.51 33.88 34.22 32.25 32.77 33.73 36.92 37.86 35.78 34.71 30.88 34.30 26.58 26.51 24.83 28.78 31.48 29.73 29.58 30.46 29.25 29.95 30.30 29.42 28.09 27.33 26.18 26.26 26.38 25.14 24.25 23.53 22.95 21.99 20.36 20.99 20.70 20.52 21.51 21.21 20.84
40.02 39.75 40.33 40.11 40.23 38.65 35.12 35.39 36.62 27.68 30.21 32.60 33.82 34.34 33.66 32.63 34.08 34.63 34.86 37.20 38.78 38.82 36.01 33.13 28.24 28.29 30.47 32.99 31.47 30.57 29.92 30.38 27.91 27.99 28.62 29.18 29.09 27.77 26.84 26.66 26.39 25.91 24.88 24.04 23.54 23.04 22.77 24.27 25.09 24.01 23.67 23.34 22.13 22.81
40.42 40.40 40.06 40.24 40.75 37.06 32.29 32.71 37.56 31.32 29.20 30.55 32.32 30.71 31.48 32.47 34.29 34.98 35.98 36.16 35.94 34.39 31.61 29.91 30.81 32.83 32.80 32.93 34.40 33.30 32.27 32.46 28.98 25.97 25.37 26.57 27.35 26.97 25.99 25.93 25.72 25.67 25.04 25.28 25.50 24.53 24.44 25.90 25.56 25.32 24.81 25.24 24.90 24.36
40.15 40.03 40.27 41.78 39.52 37.68 35.01 32.99 30.47 30.83 30.50 29.08 30.58 30.88 29.63 32.16 31.35 32.35 32.69 34.81 32.29 31.91 31.31 34.86 33.88 32.43 33.41 34.24 35.85 35.45 34.97 34.77 32.88 32.39 28.20 24.77 26.91 27.89 26.67 28.24 26.45 26.45 25.54 25.25 24.09 24.29 25.40 25.42 25.90 26.39 27.52 28.08 27.46 26.13
39.43 38.38 39.89 39.57 35.62 34.75 32.72 35.10 31.19 32.53 30.50 29.31 29.77 31.06 28.59 28.45 29.18 30.62 32.99 29.88 29.48 33.91 35.05 33.83 33.91 33.20 32.28 32.85 33.27 35.90 34.98 33.47 33.90 33.50 31.59 29.44 27.21 26.69 27.07 27.30 26.53 26.52 26.60 26.71 25.91 25.79 26.96 27.04 27.46 27.05 27.55 26.07 25.02 22.82
37.97 39.40 37.19 35.76 30.81 30.38 28.68 36.67 29.69 30.36 26.43 26.56 28.69 26.95 27.03 27.65 30.11 33.09 27.66 29.67 32.63 35.16 35.00 34.23 33.58 34.62 32.26 32.51 32.67 33.04 33.22 33.13 32.68 32.30 30.96 30.60 30.19 30.25 29.09 28.21 29.08 28.11 26.94 27.26 28.45 28.06 28.35 27.48 27.12 26.94 25.38 25.00 23.27 21.15
38.78 34.05 30.26 29.34 30.01 25.45 31.14 28.11 30.69 28.05 28.11 27.45 26.92 24.88 25.89 27.11 29.48 27.60 26.44 31.52 31.97 33.46 32.30 31.04 32.78 32.01 32.87 31.85 31.91 31.02 32.08 34.07 31.18 31.12 32.10 29.66 28.16 27.98 28.84 28.26 29.26 29.63 29.44 29.06 28.54 29.06 27.51 27.57 26.66 25.07 24.58 23.38 21.85 20.55
29.49 27.58 29.78 24.90 29.86 27.17 25.45 26.04 26.74 27.24 24.52 25.70 24.54 26.05 26.45 28.24 25.38 25.93 25.50 30.91 31.80 31.18 31.07 30.10 30.60 31.36 31.82 32.62 31.19 30.17 30.47 33.24 30.60 28.63 31.73 30.79 29.32 28.67 27.75 28.17 28.91 29.38 30.91 29.58 28.25 27.42 27.01 27.17 25.84 24.80 24.16 23.82 21.85 20.86
24.03 27.77 27.04 26.74 26.86 25.98 26.28 23.38 24.31 24.63 26.39 24.76 25.46 27.84 28.52 26.03 23.46 23.89 29.03 31.54 31.32 30.58 30.96 30.35 30.13 29.48 29.98 31.18 30.58 30.05 30.37 32.74 32.69 29.53 29.96 30.69 29.61 29.04 27.38 26.46 26.09 27.47 30.89 30.79 28.99 26.67 25.96 25.26 25.12 23.37 23.26 22.08 19.47 19.45
22.67 24.75 29.54 33.05 30.84 29.48 27.72 29.30 29.65 27.49 24.48 24.19 26.90 25.12 24.92 22.16 23.66 29.19 32.08 32.57 31.28 30.84 31.36 32.32 32.08 31.35 31.06 30.25 30.58 30.86 31.30 31.17 31.42 29.97 30.78 30.52 30.38 31.09 30.48 27.89 26.29 28.14 30.53 30.06 29.37 27.64 25.14 25.00 23.84 23.38 21.18 20.00 19.98 18.86
28.45 28.96 24.54 27.73 27.81 29.36 26.30 26.78 25.83 25.05 26.90 30.31 28.99 23.95 23.17 25.42 27.81 31.38 31.60 31.03 30.47 30.25 29.99 31.18 31.62 31.22 31.15 29.82 29.56 28.30 27.61 28.90 28.93 28.65 28.53 28.32 29.26 29.82 30.86 31.99 30.80 29.31 30.81 30.45 29.75 28.15 27.06 25.22 23.66 21.07 19.47 18.54 17.56 18.09
27.32 30.27 29.36 24.94 26.73 27.54 27.65 27.32 27.89 30.50 32.43 31.60 28.02 27.30 28.93 32.50 32.63 32.63 31.87 31.50 32.35 30.75 28.68 27.85 28.44 30.10 29.55 29.26 29.30 29.14 27.48 27.30 25.35 22.44 21.94 21.65 22.75 24.50 28.41 29.82 29.57 29.57 29.82 29.14 28.25 27.74 26.14 24.66 22.71 20.46 17.74 16.00 14.70 13.64
27.35 30.44 26.63 26.28 24.53 24.89 29.36 29.60 30.49 29.94 30.84 30.99 31.54 31.52 31.23 31.86 30.66 32.42 31.60 30.33 29.54 29.28 31.17 31.27 29.13 28.48 26.69 26.14 25.48 26.00 28.52 29.48 29.62 27.55 25.30 23.11 24.21 25.48 26.57 26.63 26.44 26.37 26.26 24.29 21.18 20.10 19.60 17.75 16.64 15.01 13.75 12.12 10.67 8.64
30.09 28.40 26.65 27.31 26.16 29.50 28.36 28.29 28.76 29.09 29.08 29.08 29.14 29.17 30.41 30.43 31.38 30.12 29.98 30.65 31.04 30.74 29.83 28.02 27.84 29.33 28.28 27.95 26.35 24.67 24.52 28.65 28.25 29.84 30.15 27.51 25.95 26.16 25.61 25.23 25.09 24.33 21.24 19.47 18.20 16.55 14.76 14.11 13.07 11.14 10.14 9.15 7.20 5.79
26.57 25.52 26.09 23.75 26.45 27.25 27.44 26.95 27.57 27.03 28.10 26.84 28.43 28.01 27.82 27.29 26.95 26.23 23.79 26.26 26.66 26.63 27.45 28.69 27.79 27.41 29.66 31.26 31.89 30.80 29.58 28.43 28.16 28.38 27.33 27.09 26.41 26.02 25.59 24.77 22.60 20.98 19.28 18.42 17.34 15.10 14.88 13.54 12.65 11.70 8.74 6.47 6.61 4.48
27.11 27.26 27.23 26.47 25.32 24.21 25.71 25.32 25.03 25.14 25.61 25.15 26.48 26.73 26.95 25.84 25.62 23.14 23.50 24.13 23.19 23.96 25.66 28.58 29.34 30.81 29.69 29.39 29.14 29.47 29.11 29.03 27.70 27.25 27.17 26.27 25.33 24.37 23.40 22.94 21.92 20.49 18.75 17.39 16.56 15.72 13.74 12.13 9.66 8.34 7.19 4.55 2.61 1.32

GFSWCAN_sfc_wetblb_111.txt.gz
Wetbulb
40.32 40.56 41.93 42.74 43.13 42.98 43.25 43.81 43.67 43.96 44.64 44.40 45.01 45.25 44.16 46.81 46.69 43.52 41.09 43.38 40.91 33.85 35.37 39.70 39.70 36.96 38.16 36.44 30.94 32.36 29.57 30.90 30.10 26.45 27.78 27.26 27.80 28.73 27.94 27.02 26.77 24.86 23.52 22.46 23.76 19.81 17.76 30.56 31.79 25.42 24.51 28.70 27.72 27.93
39.91 40.91 42.05 42.38 42.45 42.77 42.83 43.28 43.60 44.11 43.45 44.44 45.00 44.91 44.95 46.02 46.26 44.08 39.44 43.78 45.38 36.38 36.99 41.44 41.02 41.93 41.13 41.42 35.01 33.99 32.61 32.30 32.60 29.56 29.13 30.56 28.56 27.80 28.51 23.94 33.52 21.73 24.83 23.95 25.22 23.19 29.21 30.53 28.85 32.31 32.03 27.71 27.87 27.41
40.11 41.20 41.66 42.29 42.24 41.80 42.74 42.87 43.12 45.13 45.86 44.78 45.05 46.10 46.07 45.81 45.55 44.04 41.04 42.37 41.91 37.63 37.34 36.97 36.66 40.79 43.46 42.24 43.89 33.25 34.89 37.63 35.49 37.72 33.29 32.13 28.28 29.92 23.77 23.99 28.02 32.09 34.92 24.97 25.39 26.81 27.28 28.94 31.08 31.27 30.63 28.82 28.55 28.66
40.19 40.97 41.73 41.34 40.72 40.51 42.70 44.82 44.58 44.92 44.99 45.22 45.48 45.28 45.02 45.11 44.66 44.24 40.50 42.89 42.36 39.45 31.66 32.40 42.43 39.71 43.45 42.99 42.57 41.42 39.29 39.47 38.09 37.21 32.53 31.77 28.76 34.56 28.32 30.34 27.61 30.89 32.40 27.57 26.95 28.18 28.71 29.16 29.71 29.41 29.12 29.11 28.08 26.50
40.39 40.86 40.30 39.89 41.03 44.29 44.41 44.34 44.30 44.10 44.30 44.61 44.75 44.54 44.44 44.61 44.24 43.33 42.64 43.15 44.43 38.67 29.48 31.20 38.20 41.17 42.34 41.61 40.87 40.58 38.96 36.05 34.26 31.39 29.96 28.82 32.12 31.34 33.07 31.15 28.38 33.37 28.11 23.95 25.17 28.68 28.59 27.34 29.61 29.74 28.00 27.38 28.37 26.88
40.75 40.56 39.18 40.31 44.04 44.07 43.93 43.82 43.95 44.02 44.16 44.33 44.65 44.87 44.58 44.53 45.24 40.70 32.96 42.97 43.98 42.38 32.94 28.50 36.79 37.95 40.51 40.87 39.74 38.79 38.04 36.11 34.88 31.93 30.59 34.64 37.52 31.77 26.23 25.67 32.56 33.73 34.19 34.15 28.56 30.82 28.87 30.29 30.50 30.50 28.47 28.95 28.52 27.78
39.75 39.68 40.99 43.51 44.06 43.98 43.62 43.44 43.66 43.86 43.97 44.23 44.36 44.03 44.02 44.79 41.98 36.42 35.44 38.87 41.17 41.19 33.50 27.81 28.40 36.16 39.66 39.65 37.61 36.71 38.08 35.72 35.40 31.06 29.79 30.97 32.05 33.80 26.30 23.94 30.78 33.02 31.70 30.93 31.12 30.11 28.04 29.67 27.96 30.52 30.79 30.28 30.44 28.89
39.57 40.46 43.28 43.56 43.58 43.48 43.44 43.72 43.79 43.91 44.17 44.40 44.61 44.82 45.02 44.67 43.05 37.72 39.24 41.92 40.93 39.49 37.36 28.18 27.71 29.80 38.13 32.12 31.15 36.28 33.50 34.63 33.32 31.70 31.58 30.59 30.91 31.12 24.96 27.83 31.17 32.10 31.85 31.42 32.15 32.09 30.66 31.58 31.01 30.43 29.89 29.16 27.60 26.72
39.63 41.73 43.30 43.38 43.18 43.29 43.46 43.61 43.75 44.01 44.07 44.10 44.18 44.36 41.47 40.22 36.89 36.25 40.81 41.43 43.24 39.16 30.00 29.61 25.60 22.47 36.06 32.98 33.66 32.99 34.33 27.50 33.31 29.14 29.78 30.12 26.12 24.14 29.07 28.44 28.81 29.98 31.16 31.36 32.76 31.53 31.29 29.47 28.98 27.94 28.08 27.85 26.11 25.47
39.78 43.26 43.20 42.82 42.89 43.22 43.27 43.51 43.58 44.10 44.09 43.86 40.88 37.13 32.58 37.78 40.41 40.89 39.78 34.61 34.72 34.31 35.06 29.28 33.02 26.74 33.29 30.49 29.60 29.69 29.96 27.68 24.89 27.66 31.42 25.02 23.58 32.52 33.53 31.69 31.42 32.78 33.32 33.78 29.22 28.00 28.81 27.39 27.05 27.02 27.36 27.68 26.93 25.49
43.42 43.34 43.19 43.30 43.16 43.17 43.31 43.08 43.01 41.58 40.51 37.22 35.28 32.72 36.99 40.67 38.73 36.11 28.75 28.61 30.10 27.75 31.62 32.81 30.91 28.83 35.01 27.18 27.36 31.24 26.83 26.86 22.58 25.28 24.03 22.48 22.17 26.65 31.70 31.27 32.10 34.10 33.73 33.59 32.62 30.09 29.31 28.98 27.21 27.03 27.53 27.35 26.67 25.43
43.65 43.32 43.24 43.24 42.99 42.93 43.08 42.54 40.72 37.94 37.50 38.19 37.91 39.43 38.84 36.85 31.98 27.82 26.05 27.81 27.50 26.10 30.04 29.46 30.73 32.68 32.97 36.30 27.79 28.49 25.68 25.37 22.75 28.02 22.72 17.19 27.27 29.48 29.94 31.71 32.22 32.58 32.79 33.07 33.15 31.40 29.21 29.45 28.89 27.59 25.49 23.84 21.67 20.27
42.29 42.52 43.00 42.69 42.07 41.39 41.17 41.16 42.01 42.13 42.24 39.13 36.73 33.17 31.93 28.98 19.21 20.08 17.52 23.51 24.03 29.02 30.90 31.36 28.44 30.75 32.35 32.54 25.68 25.39 17.40 18.28 28.44 17.41 18.65 24.02 30.44 32.28 32.41 31.82 30.93 31.65 32.24 31.98 31.07 30.15 29.01 28.09 27.14 24.87 21.58 19.79 19.29 17.57
42.82 42.40 41.85 41.56 42.34 42.30 41.63 40.79 40.91 40.44 36.40 31.15 27.47 16.58 22.21 18.82 23.67 26.73 29.19 26.66 28.70 30.09 32.10 31.09 28.27 27.15 26.91 24.36 23.91 17.40 22.34 24.72 14.81 14.23 20.99 26.29 30.72 31.08 31.79 32.03 31.48 31.51 31.38 28.67 27.51 26.02 23.60 22.11 21.54 21.76 20.96 19.99 18.20 15.49
42.03 42.00 42.12 41.67 41.35 40.68 40.22 40.61 41.37 39.10 35.05 28.81 28.74 19.53 22.13 27.78 28.03 31.01 28.67 29.51 30.64 32.93 31.20 28.53 27.54 27.41 23.25 17.89 23.76 22.89 16.70 14.78 17.70 22.59 26.01 29.63 31.08 30.61 30.69 31.08 30.25 28.35 26.28 24.31 23.96 22.45 21.13 20.83 19.53 18.32 18.52 17.36 16.65 15.16
41.36 40.60 39.60 41.16 40.55 40.07 40.27 40.57 39.22 37.99 34.75 30.07 29.30 25.36 27.09 24.73 27.48 30.26 31.05 31.16 33.62 30.69 29.92 29.26 25.42 20.42 19.99 23.11 21.16 16.92 21.16 19.06 23.39 26.56 29.23 30.20 29.18 29.32 29.13 29.27 28.68 27.37 25.77 23.08 21.82 22.37 21.09 19.60 18.50 18.17 16.54 15.58 14.29 13.56
40.33 35.94 40.52 39.98 40.13 39.90 40.22 38.00 36.04 32.03 29.49 28.97 26.80 31.63 31.77 29.34 29.65 30.32 32.40 29.32 33.95 29.51 26.66 25.92 19.32 22.41 24.93 21.99 22.93 24.13 20.77 26.09 26.95 27.63 29.30 29.47 28.53 27.85 27.28 26.16 25.47 23.93 22.64 22.08 21.37 21.15 20.78 20.71 18.38 17.37 15.28 16.24 17.55 14.84
35.38 38.25 40.31 40.37 39.90 39.76 39.32 38.02 31.48 29.78 28.17 30.11 26.87 29.01 29.41 30.82 30.29 28.83 31.74 31.37 30.40 28.25 27.90 25.64 26.38 22.65 15.44 20.28 23.14 26.57 26.85 27.91 28.49 28.52 29.06 28.09 27.26 26.37 25.68 24.82 25.42 24.04 22.60 21.53 21.05 20.91 19.25 19.11 18.86 17.47 17.75 18.69 17.87 18.00
37.66 38.26 40.28 40.93 39.47 35.85 32.04 33.08 33.99 26.52 28.07 28.49 30.04 28.20 26.59 29.86 31.29 31.66 30.96 30.56 33.83 34.09 29.57 27.21 23.00 22.15 25.44 29.65 28.66 27.73 27.34 26.74 26.05 27.13 27.38 27.51 26.75 23.75 23.48 24.68 24.48 23.75 22.93 21.79 22.21 20.29 20.28 21.47 20.06 18.93 19.30 19.43 17.11 17.44
40.48 40.54 40.54 40.86 40.66 34.98 31.09 30.10 35.01 28.99 25.67 26.25 27.98 28.03 29.45 27.62 28.23 27.09 27.99 29.22 30.31 29.14 26.95 24.78 26.57 29.83 30.17 29.83 30.70 30.14 29.38 28.34 26.47 24.28 24.49 25.60 26.36 25.25 23.93 24.78 24.41 24.36 23.54 23.48 22.94 20.93 21.00 21.22 21.09 20.95 19.98 19.92 17.45 16.31
39.97 38.81 40.47 39.81 36.25 35.47 32.63 30.70 29.23 28.97 28.86 26.27 29.27 29.46 27.66 30.25 28.93 27.55 28.71 29.57 26.74 26.77 24.74 24.68 30.09 30.53 30.72 30.84 32.18 31.97 30.21 28.64 25.31 24.22 24.87 23.42 25.58 25.30 24.12 25.38 24.68 24.62 23.16 22.41 20.43 19.96 19.49 20.52 21.14 21.77 19.41 22.00 20.26 19.12
36.92 39.42 36.82 37.35 32.17 31.83 29.28 31.69 29.56 30.23 28.65 28.45 28.41 29.87 27.41 26.13 26.22 28.48 29.96 27.74 26.77 27.88 29.34 29.87 30.53 29.75 27.69 28.74 30.50 31.90 30.85 31.73 31.24 28.75 25.25 25.72 24.91 23.88 24.53 23.68 22.97 21.24 20.14 19.67 21.05 19.54 21.62 23.01 23.69 24.28 22.62 20.14 18.64 19.35
39.18 37.83 34.29 33.99 26.11 25.04 26.37 33.58 26.65 29.15 24.83 25.41 27.93 25.76 24.46 26.04 27.86 29.46 25.37 27.52 29.14 31.20 31.05 31.24 31.61 32.08 30.47 29.83 29.43 29.63 30.18 29.78 27.08 27.42 25.74 24.59 26.81 25.93 26.11 25.06 24.51 24.31 22.29 21.75 23.10 22.32 22.52 23.65 23.31 22.22 20.65 18.24 16.78 12.82
38.19 31.63 25.37 25.39 25.54 19.13 26.59 24.81 28.16 26.84 26.80 26.14 23.53 23.66 24.05 25.05 27.64 25.42 22.14 27.82 28.67 29.50 28.13 27.53 27.00 29.41 29.72 28.42 25.48 25.37 26.94 30.63 29.20 28.82 29.15 28.20 26.58 26.29 27.00 26.04 26.12 26.28 24.54 24.43 24.45 25.85 24.41 23.75 21.65 21.22 19.57 16.70 12.84 12.06
21.78 20.28 22.80 17.85 25.21 21.39 18.96 20.51 21.48 23.66 16.81 23.87 20.05 20.45 23.13 26.83 23.26 22.02 23.14 26.00 27.82 27.23 28.01 27.79 28.31 28.59 28.01 27.48 27.67 27.03 27.31 29.93 28.32 27.41 26.15 28.80 27.19 26.90 25.74 26.06 25.62 25.39 26.51 25.29 24.88 24.05 23.99 22.34 20.73 19.61 17.48 15.69 14.34 13.20
14.65 19.77 19.14 20.21 19.44 20.57 21.69 15.00 15.69 17.41 19.26 16.50 20.81 25.76 26.48 24.09 21.41 20.01 26.51 24.57 28.67 28.36 28.78 28.62 27.88 27.03 27.71 29.13 27.30 26.75 27.51 30.11 29.28 25.81 26.64 28.18 27.43 25.35 24.10 23.42 22.66 22.06 24.93 26.65 25.15 23.55 22.75 21.97 20.32 17.55 17.95 18.77 16.74 14.78
13.39 16.59 26.57 29.58 27.81 26.74 21.30 23.30 26.12 21.01 15.60 14.36 18.59 21.39 22.00 10.37 13.87 24.15 28.27 28.59 27.51 28.43 29.15 29.25 29.15 28.66 28.48 27.34 27.32 27.53 26.92 26.70 26.58 26.23 25.28 26.18 25.68 25.42 25.68 24.50 23.40 21.36 25.49 27.34 25.46 24.33 22.56 21.52 20.78 19.70 18.25 16.10 16.03 14.29
23.75 24.52 15.30 20.72 22.50 25.63 17.56 18.71 16.64 15.42 19.14 25.81 22.78 13.41 15.18 16.83 24.10 27.44 27.55 28.51 29.13 28.59 28.46 28.01 28.56 28.96 28.07 27.11 25.95 22.90 22.96 22.27 23.94 24.12 24.31 24.77 23.66 22.97 23.22 25.42 25.77 26.09 26.74 27.21 25.82 24.51 23.95 22.79 20.67 17.69 16.01 14.22 12.38 9.99
21.86 25.40 24.15 22.74 22.22 23.43 20.09 19.43 19.89 24.61 26.63 24.17 17.82 19.21 22.89 26.95 29.80 28.60 27.71 28.46 29.25 27.86 26.59 26.10 27.03 28.21 26.58 25.68 26.12 25.84 26.17 24.09 18.11 15.91 14.53 16.37 15.91 19.82 26.59 26.31 26.69 27.04 27.56 26.64 25.71 24.62 23.08 20.95 18.85 16.81 13.67 10.67 9.33 8.73
21.12 25.84 20.21 16.83 16.54 15.79 21.98 27.20 27.99 28.52 24.94 27.61 25.67 26.45 26.04 28.23 28.77 29.56 29.07 28.23 27.09 27.14 28.57 28.59 27.05 26.41 25.28 24.96 24.52 24.75 26.53 26.65 25.04 20.36 18.86 15.54 18.61 18.26 24.69 24.72 24.70 23.96 24.21 23.90 22.22 21.38 20.64 16.73 15.03 12.13 10.27 7.90 6.16 4.85
27.37 26.81 22.08 20.65 17.65 26.22 26.86 27.29 28.02 27.82 27.61 27.51 27.60 26.58 27.73 28.51 27.78 26.62 25.07 26.03 28.49 29.26 28.57 27.45 27.19 27.54 26.51 25.93 24.43 23.82 23.46 27.02 24.82 22.86 24.14 23.83 22.88 22.01 22.51 22.42 20.53 18.88 18.80 17.68 16.48 14.73 13.53 11.92 9.93 7.85 5.57 3.83 1.74 -0.02
25.98 24.16 18.79 14.05 19.72 25.18 26.35 25.68 25.87 25.25 26.41 25.01 23.44 27.18 26.55 25.17 24.30 22.99 21.28 23.36 25.46 26.06 26.65 27.09 26.10 26.13 28.19 28.44 28.64 25.98 22.63 24.81 26.06 24.91 23.39 23.28 22.98 22.93 22.30 19.53 18.29 18.51 16.95 14.81 14.34 12.85 10.93 9.36 8.03 6.46 4.10 1.24 -0.71 -3.09
25.72 25.94 22.75 21.38 21.92 21.10 24.31 23.70 22.88 22.00 24.72 23.18 24.36 25.60 25.40 23.82 20.51 18.14 20.31 22.25 21.67 22.35 23.22 26.35 28.27 29.15 28.64 28.53 28.16 28.31 25.78 26.90 27.22 27.10 26.23 24.12 22.68 21.96 19.79 18.82 18.08 17.42 15.06 13.39 13.48 11.87 10.27 8.30 6.03 4.10 1.39 -1.74 -4.59 -6.59

GFSWCAN_sfc_wetblb_114.txt.gz
Wetbulb
39.36 40.16 40.45 40.54 42.54 42.78 42.91 43.68 43.71 44.04 44.34 44.38 44.45 44.62 45.28 45.43 46.12 43.51 40.48 43.50 39.79 34.55 35.87 36.71 38.20 36.65 37.76 34.07 28.75 33.67 32.11 32.53 27.86 24.41 25.54 23.73 23.41 26.37 24.78 25.38 26.40 24.49 23.44 23.06 23.91 18.63 17.28 29.84 31.62 25.66 22.96 26.64 26.30 23.16
39.27 39.77 40.37 41.57 42.20 42.43 42.48 42.96 43.34 43.66 44.37 44.48 44.86 45.22 45.45 45.29 45.11 44.53 38.74 43.60 44.49 34.47 36.20 40.05 39.82 41.77 41.71 40.72 34.67 33.87 32.31 31.27 31.48 27.12 26.89 28.48 26.84 29.98 27.15 23.53 32.80 21.53 23.87 22.67 23.82 20.21 27.16 29.70 27.15 28.68 28.50 26.05 26.96 23.65
39.21 40.02 40.75 41.68 41.60 42.00 42.44 42.49 43.07 43.82 44.47 44.69 44.84 44.77 44.91 43.91 46.31 43.33 40.20 41.77 41.02 36.39 35.75 36.89 35.74 40.19 44.14 43.43 42.26 32.89 32.69 36.28 34.46 35.97 31.44 31.24 28.45 30.56 25.61 24.09 28.16 31.02 31.85 22.89 24.06 26.54 27.27 29.19 30.83 30.90 29.87 27.04 28.53 27.66
39.49 40.17 41.27 41.12 41.05 41.28 40.96 41.60 42.05 43.82 44.17 44.48 44.69 44.82 44.19 45.40 45.26 43.18 40.82 42.78 41.81 38.37 29.74 32.69 41.79 39.28 43.41 42.73 41.07 39.58 38.43 37.93 37.00 36.19 30.86 31.39 29.81 33.12 28.29 29.22 27.50 30.32 30.65 26.71 25.53 27.26 27.99 29.03 29.17 29.36 28.61 28.88 27.83 27.10
39.72 40.63 41.14 40.11 39.85 40.86 41.80 43.92 43.52 43.72 44.05 44.14 44.93 44.39 45.41 45.78 44.88 43.44 42.28 42.65 43.63 36.66 28.06 30.86 37.40 40.60 41.52 41.20 40.13 39.31 37.18 34.80 32.86 30.57 29.04 29.55 32.77 31.48 31.07 29.99 27.22 31.97 26.65 23.19 21.21 28.21 26.61 26.75 29.28 29.61 27.74 26.50 24.88 24.21
40.24 40.31 39.54 38.61 40.42 43.67 44.01 44.42 45.02 45.30 45.17 45.12 45.62 45.66 45.50 45.35 44.02 40.02 32.75 41.47 43.69 39.90 29.98 26.44 34.52 36.62 39.08 39.72 38.25 37.42 36.70 34.79 33.02 30.84 30.29 32.80 36.14 31.30 26.60 24.27 30.88 32.34 32.95 31.92 25.77 30.41 28.49 28.79 29.82 30.08 28.17 26.93 26.27 26.33
39.64 38.91 39.53 43.51 43.60 43.78 43.46 43.53 44.03 44.24 44.59 44.60 44.67 44.72 44.97 44.39 41.92 35.32 34.85 38.96 42.57 40.41 29.18 26.05 27.62 34.39 38.39 38.02 36.08 35.82 36.26 34.09 32.43 29.97 29.03 30.65 31.73 33.31 25.74 22.85 30.13 30.42 30.43 29.70 30.18 29.12 26.90 28.35 26.98 29.67 28.68 28.19 29.18 27.14
38.86 41.71 43.02 43.32 43.42 43.58 43.64 43.83 44.16 44.18 44.43 44.24 44.21 44.33 45.03 44.15 42.38 37.99 38.58 41.54 41.28 36.37 34.07 26.73 26.75 29.32 36.76 31.43 30.37 34.76 32.27 32.77 31.62 29.44 30.15 29.01 29.75 30.50 25.08 28.44 29.66 29.60 29.36 29.60 30.32 30.80 29.39 30.53 30.10 29.56 29.55 27.96 25.99 25.18
39.71 42.56 43.08 43.15 43.28 43.29 43.39 43.65 43.72 43.80 44.10 44.11 44.25 43.83 41.60 39.01 35.76 37.06 42.15 41.63 39.21 36.96 28.10 27.95 23.66 20.18 34.43 31.07 31.84 31.57 32.51 26.31 31.65 28.04 28.56 29.44 25.39 23.91 28.06 29.13 28.92 28.97 28.33 30.30 30.80 29.52 29.21 28.88 28.93 28.58 27.16 26.63 25.45 25.31
41.52 42.76 42.86 42.74 42.91 43.19 43.46 43.62 43.83 44.14 44.24 43.77 40.74 36.92 32.39 36.68 41.31 41.20 38.03 32.51 32.34 32.59 34.00 28.03 30.18 25.81 31.51 27.61 27.79 27.84 28.26 26.29 24.22 27.11 29.57 25.84 23.31 30.98 31.90 30.80 31.03 30.69 32.14 31.28 26.95 26.60 27.86 27.72 26.91 26.20 25.94 26.38 26.15 24.82
43.03 42.89 42.72 42.76 42.90 43.34 43.19 43.21 43.50 43.75 42.08 38.17 33.87 30.15 36.03 41.52 38.40 33.94 26.34 26.16 27.25 26.65 30.76 30.61 29.18 27.77 33.38 26.02 25.69 29.10 26.10 25.86 23.28 25.28 24.43 22.13 22.25 25.71 29.83 29.75 30.46 31.09 33.38 32.27 30.45 29.01 28.62 27.78 26.34 25.93 25.51 26.09 25.41 24.21
43.21 43.06 42.81 42.98 43.07 42.83 42.03 41.51 41.75 38.68 37.02 37.31 37.08 37.87 37.34 35.27 29.94 26.17 24.05 26.30 26.45 25.78 29.14 28.26 28.96 31.09 32.01 34.40 27.01 28.15 25.70 25.05 23.19 26.44 21.81 15.73 25.65 27.36 28.54 29.11 29.10 31.02 32.39 31.61 30.82 28.97 27.66 27.52 27.57 27.61 27.05 25.52 22.94 20.46
43.11 43.03 43.04 42.87 42.14 42.15 41.64 42.04 42.47 41.98 41.62 39.23 36.57 32.39 29.00 25.72 17.47 17.74 15.30 22.25 21.75 27.65 29.38 29.12 27.18 29.34 31.53 30.20 25.36 25.40 17.02 17.13 26.04 12.93 17.19 25.05 29.79 30.49 30.58 30.83 30.48 30.30 31.37 30.28 27.79 27.66 27.48 26.52 27.57 26.41 23.16 21.22 20.00 18.05
42.48 42.14 42.03 42.16 42.32 42.05 41.23 41.28 41.97 39.76 36.65 29.88 26.14 16.24 18.03 14.92 23.30 27.30 27.69 24.39 27.29 28.34 30.34 28.74 26.97 27.46 25.48 24.18 21.61 16.01 20.72 22.41 11.02 11.99 17.73 26.42 30.62 30.71 30.58 31.04 30.87 27.15 27.54 27.97 25.59 24.76 25.23 25.43 23.25 22.67 21.63 20.58 18.67 16.27
41.94 41.86 41.81 40.99 41.01 41.04 41.27 41.81 41.85 38.13 32.82 28.04 27.69 19.91 20.13 27.51 28.20 29.93 29.39 30.22 29.44 31.46 30.00 28.00 27.24 26.58 22.12 16.63 19.90 20.32 14.52 10.83 14.71 13.11 23.93 29.07 30.86 30.83 30.39 31.04 30.12 24.80 24.48 23.21 23.25 22.51 22.49 22.02 21.29 19.57 20.30 19.86 18.05 15.49
40.98 40.37 38.98 40.49 40.43 40.91 40.57 39.48 38.62 36.71 33.29 29.07 28.04 23.87 24.02 26.21 27.33 30.33 30.82 28.69 33.07 29.35 28.93 28.74 24.07 18.44 18.41 20.72 18.96 14.69 18.07 13.39 15.14 24.93 28.71 30.70 30.36 30.69 30.68 30.03 27.32 24.66 23.46 22.10 22.23 22.39 21.00 20.27 19.11 17.53 17.75 17.73 17.16 16.09
39.61 35.22 40.07 39.72 40.14 40.56 40.71 37.11 34.18 31.11 28.30 27.84 26.24 31.74 24.22 27.56 28.65 30.14 29.47 27.95 31.04 28.44 21.66 25.57 18.69 20.23 23.22 19.90 21.32 24.11 20.79 24.64 26.31 27.97 28.83 28.98 28.24 27.16 26.58 25.15 24.43 21.95 21.56 21.33 21.32 21.55 20.28 19.54 18.54 17.51 15.61 16.11 16.99 15.65
34.70 37.67 40.11 40.30 39.51 38.91 37.54 35.83 29.68 29.04 27.01 27.49 25.95 27.59 28.24 28.11 27.48 27.81 27.17 27.95 29.82 27.27 26.99 25.24 24.57 20.69 11.06 18.96 22.00 24.14 26.16 26.90 27.88 28.27 28.23 27.79 27.33 26.41 25.01 22.85 23.07 22.42 21.90 21.91 21.64 20.57 19.44 19.22 19.11 18.67 18.24 18.67 17.12 16.58
35.89 36.57 40.56 40.95 38.74 35.18 30.69 31.45 32.02 26.51 27.70 27.40 27.37 25.88 22.78 22.63 25.47 29.03 28.46 29.02 31.13 31.82 27.83 25.55 21.58 20.11 25.92 28.31 27.40 26.14 26.59 26.33 25.85 26.26 26.19 26.47 26.28 24.49 22.27 23.04 22.46 21.92 21.31 21.38 21.29 20.09 20.52 21.61 20.42 19.19 18.65 17.95 15.62 16.12
40.80 40.84 41.10 41.04 39.97 32.88 29.62 28.43 32.72 27.50 24.32 25.55 26.04 24.09 24.48 23.88 25.51 25.77 28.18 27.75 28.73 27.76 26.16 23.52 25.78 28.87 27.72 29.11 29.44 29.10 28.55 27.83 26.47 24.17 23.59 24.70 24.87 23.09 21.52 22.54 22.04 22.52 22.47 23.40 22.59 21.83 21.73 20.02 19.12 19.05 18.78 17.80 15.78 15.20
37.57 36.78 39.68 37.98 34.69 34.24 31.14 28.51 27.31 28.06 27.29 24.34 26.05 28.27 26.26 26.71 23.85 21.64 22.16 27.36 25.06 24.85 27.66 27.12 28.42 29.78 28.71 28.87 31.43 30.06 28.60 28.54 25.09 22.37 21.28 22.97 24.88 24.74 23.84 23.70 23.50 23.06 21.60 21.51 19.87 20.15 19.05 18.21 18.95 19.60 16.58 12.25 10.00 13.87
34.51 39.08 34.17 35.34 29.75 29.97 28.14 30.08 27.99 28.09 27.19 27.42 27.27 28.85 26.42 24.38 25.37 25.73 27.55 22.39 21.38 26.38 26.37 29.58 29.40 29.29 28.20 30.21 30.54 31.40 30.19 29.46 28.66 26.81 23.75 23.72 23.44 23.05 22.34 22.41 22.36 18.99 19.41 18.41 20.58 19.23 19.46 20.89 21.53 21.00 19.67 15.35 18.63 20.63
37.90 36.15 31.42 30.42 23.56 21.58 25.04 29.89 26.25 28.56 23.97 23.94 26.93 25.11 24.40 24.80 26.73 28.95 24.61 26.76 27.34 29.05 29.91 30.46 31.01 31.63 29.89 29.64 29.65 30.09 30.86 29.64 27.03 25.44 22.23 20.39 21.04 18.41 20.04 20.79 21.01 19.36 18.76 19.50 21.51 20.40 20.79 22.78 22.26 20.59 19.42 19.39 18.96 17.56
36.26 30.23 23.84 21.90 22.01 15.07 23.26 22.31 26.45 26.21 26.21 24.83 22.68 20.06 23.32 24.17 27.18 24.34 20.62 24.60 26.81 25.79 27.39 27.72 29.40 29.08 29.26 28.71 26.16 24.45 25.83 29.72 27.84 26.77 26.98 25.38 23.64 25.36 25.53 24.94 24.48 23.53 22.86 22.11 22.36 21.75 22.08 21.85 20.52 19.37 18.36 17.27 16.47 15.06
17.96 17.33 18.27 12.45 19.28 15.83 14.64 16.34 20.21 20.79 13.80 20.79 17.29 17.22 21.28 26.27 21.66 19.41 20.47 25.33 25.41 25.00 27.91 27.52 27.46 28.16 26.79 26.15 26.72 26.67 28.55 29.63 28.24 26.93 27.04 28.61 26.55 26.30 25.20 25.52 24.95 24.44 24.74 22.51 21.79 21.35 21.42 20.88 19.73 17.85 16.36 15.32 14.00 13.00
11.24 13.82 15.41 13.97 14.70 16.33 17.27 11.27 10.82 13.55 13.97 12.31 17.03 24.81 25.87 21.56 13.99 15.82 24.82 24.34 27.52 27.34 27.47 27.34 26.67 26.31 27.20 28.47 26.57 26.04 27.11 30.36 29.34 26.62 25.23 28.03 27.66 25.61 22.93 20.85 21.44 21.45 23.25 24.90 23.10 21.56 20.89 20.45 19.01 17.04 16.02 15.05 14.64 12.51
9.32 11.49 23.29 26.74 25.46 24.58 17.10 17.73 22.75 16.36 10.94 10.43 13.36 16.44 8.85 7.47 8.10 21.38 26.59 27.22 23.84 26.98 28.51 28.29 28.69 28.23 27.37 26.27 26.53 26.25 26.58 26.46 24.55 24.34 23.88 24.16 23.67 23.54 23.73 20.82 16.82 20.22 24.49 24.81 24.57 22.54 21.03 20.42 19.19 18.60 17.88 16.99 15.32 12.73
18.57 19.37 12.94 15.23 16.81 19.74 11.52 10.63 10.42 10.62 13.12 22.68 17.93 8.72 9.86 13.96 18.86 26.31 25.77 27.89 28.25 28.37 27.44 27.31 28.02 28.09 26.86 25.33 24.82 24.30 21.05 18.19 21.70 21.35 22.71 22.45 21.65 18.29 18.03 17.35 19.54 25.37 25.71 25.44 25.26 24.35 22.81 21.96 20.53 18.67 17.36 15.76 13.94 11.97
16.38 18.11 19.00 10.73 13.55 18.27 13.61 14.53 15.25 22.32 25.53 19.77 11.35 11.98 19.13 26.74 28.34 26.94 26.19 26.58 28.17 27.78 26.23 25.53 25.96 26.97 25.87 25.02 24.86 25.30 24.08 19.93 16.63 13.13 8.63 8.64 13.89 19.80 18.84 20.33 21.48 25.12 25.33 25.17 25.79 24.73 23.26 21.44 19.30 16.92 14.76 12.37 9.40 7.65
16.11 17.86 13.65 7.38 7.76 11.00 22.76 25.17 25.21 22.52 24.93 27.38 20.82 22.24 24.55 26.24 27.15 27.66 27.59 27.18 25.65 26.19 26.95 26.65 26.42 25.65 23.32 17.59 17.85 20.22 25.12 24.54 16.78 15.77 14.70 13.89 16.13 17.06 22.38 26.94 26.87 26.69 24.80 23.68 22.03 20.28 19.26 15.30 14.64 12.44 9.90 8.19 6.41 3.22
24.23 15.44 12.28 12.05 9.72 19.25 25.14 26.17 26.59 26.55 26.64 26.61 26.64 26.26 25.92 26.45 25.20 23.81 22.72 23.12 26.63 28.20 27.58 25.84 25.41 25.98 24.89 24.33 23.57 22.67 20.95 17.50 20.83 23.05 20.27 20.39 20.49 20.81 20.44 19.73 19.74 21.46 20.53 18.95 16.83 14.79 13.62 12.61 10.77 8.13 6.35 4.10 2.12 1.64
24.74 22.56 12.24 9.96 19.44 22.94 24.88 24.18 24.77 23.27 22.88 23.70 16.45 25.93 25.06 24.80 23.14 20.37 20.30 21.98 24.38 25.08 25.41 26.51 25.93 25.54 27.76 27.62 27.36 25.82 17.99 16.90 15.79 15.12 19.51 21.51 20.08 18.81 17.24 18.25 18.40 17.93 16.46 15.60 14.68 13.06 11.75 9.62 8.12 6.44 3.98 1.21 -0.30 -1.77
19.00 22.65 19.67 17.01 16.44 20.41 22.95 18.90 12.48 16.65 18.65 17.24 20.53 23.39 23.82 22.78 19.06 11.12 16.02 20.00 20.73 20.94 21.28 22.51 25.62 27.36 27.90 27.69 27.92 26.80 25.29 24.54 24.77 24.65 23.58 21.32 18.16 16.52 15.75 16.09 16.13 15.39 14.46 13.10 11.89 10.61 9.01 7.36 5.57 3.03 1.60 -0.00 -2.64 -5.28

GFSWCAN_sfc_wetblb_117.txt.gz
Wetbulb
39.50 39.64 39.90 40.44 40.64 40.02 39.72 41.37 40.96 40.98 41.18 42.01 42.86 43.85 44.35 44.59 44.64 42.71 40.49 43.67 38.66 32.50 35.58 37.38 37.31 34.66 34.76 34.50 28.35 32.77 33.08 32.52 30.60 27.48 27.73 25.34 22.24 24.64 23.72 20.99 25.73 24.33 23.41 22.13 23.58 19.34 15.07 30.58 31.88 24.77 23.18 25.57 24.92 21.56
39.04 39.37 39.82 40.11 40.53 41.56 42.53 42.93 43.02 43.13 43.61 42.73 42.96 43.83 44.01 44.37 44.90 44.28 38.85 43.65 43.79 35.77 34.93 39.54 38.93 39.98 39.03 39.24 32.14 32.23 31.23 31.18 32.65 29.39 28.16 28.99 26.54 24.43 24.45 20.66 29.64 19.29 23.38 21.72 24.59 21.16 27.67 29.62 27.09 26.57 27.14 25.56 22.69 21.47
38.90 39.05 39.71 40.27 40.70 41.34 42.05 42.49 41.97 43.28 43.53 44.02 44.12 44.20 44.47 44.87 44.83 43.93 40.29 42.28 41.31 36.50 35.51 37.17 34.39 39.77 42.41 43.22 41.36 32.67 31.52 36.83 33.66 35.49 31.60 30.22 26.26 26.80 21.68 21.18 27.26 29.54 30.75 23.61 24.85 26.07 26.95 28.42 29.18 28.33 27.81 25.47 23.75 23.62
38.68 39.12 39.79 40.37 40.96 40.97 40.81 41.63 42.66 43.01 43.61 44.21 44.32 44.83 44.88 45.26 45.54 44.89 40.44 42.10 41.21 38.14 28.54 33.38 41.00 38.79 42.77 42.51 42.62 39.64 37.65 37.75 36.86 34.64 27.92 26.35 27.74 31.58 27.78 28.64 27.98 30.23 30.09 26.37 25.15 27.13 28.18 28.80 28.08 27.65 27.25 26.92 25.72 25.49
39.34 40.33 40.57 41.11 41.24 40.72 40.63 40.95 41.61 41.87 43.30 44.26 44.51 44.69 44.45 43.33 44.87 43.50 42.04 42.83 43.49 36.27 27.68 31.24 37.84 40.51 42.27 41.33 41.52 39.39 37.54 33.76 31.07 29.28 27.72 27.23 31.03 31.90 29.20 29.83 26.65 31.15 27.03 23.62 22.75 28.12 27.05 27.04 27.85 28.68 26.98 26.67 26.11 23.38
39.86 40.09 40.06 40.24 40.21 40.48 40.72 41.63 41.24 41.69 43.29 44.59 44.61 44.73 42.63 45.24 44.45 39.80 33.42 41.20 43.18 41.88 29.77 27.79 35.23 36.67 39.04 39.38 37.81 36.67 35.82 33.33 31.22 30.28 29.99 32.65 35.98 32.97 26.89 24.29 30.40 31.48 32.02 31.30 27.35 30.10 28.16 28.55 28.64 30.02 27.30 26.16 25.14 24.34
39.85 39.44 39.67 40.97 44.15 44.63 45.08 44.30 43.25 42.98 44.09 44.51 44.65 44.25 44.69 44.78 40.30 35.47 32.63 37.00 42.67 39.13 28.21 25.09 27.38 33.65 37.65 37.37 35.58 34.37 35.22 33.24 30.92 29.46 29.73 31.39 31.63 32.68 26.95 24.76 28.66 29.46 29.33 29.14 29.37 28.61 26.70 27.05 26.37 28.92 26.22 25.99 27.55 25.50
38.74 41.40 42.94 41.90 43.57 44.16 44.65 44.56 44.20 44.39 44.52 44.65 45.30 44.97 44.90 44.22 42.53 37.71 38.13 43.62 41.70 34.77 31.23 23.58 24.82 28.29 35.04 30.28 29.75 33.44 31.20 31.54 31.09 28.62 30.10 28.60 29.56 29.90 25.11 29.01 27.96 28.17 28.58 28.49 29.00 29.72 28.54 28.71 29.46 28.40 27.19 26.67 24.55 23.70
41.61 42.97 42.87 43.18 43.14 43.45 43.74 43.96 44.19 44.36 44.63 45.05 45.01 44.51 42.20 39.67 36.62 37.93 42.70 42.47 38.97 35.44 26.62 26.02 22.30 18.81 32.44 29.63 30.80 30.63 31.32 25.40 30.44 27.64 27.97 29.10 25.06 23.37 27.05 29.14 27.06 27.67 27.61 27.79 29.02 28.50 28.32 27.37 27.66 26.65 26.40 24.88 23.75 23.83
42.68 42.83 42.89 43.07 43.41 43.58 43.68 43.81 43.88 44.10 43.96 43.23 41.34 37.08 32.70 37.57 42.47 41.12 37.85 32.61 31.62 31.48 32.52 26.94 29.02 25.77 30.64 26.89 26.82 27.21 27.71 25.29 23.62 26.66 28.40 25.48 22.60 28.91 30.79 30.34 29.61 29.35 29.97 29.44 25.93 25.61 26.38 26.15 26.60 25.93 25.25 25.56 25.54 24.94
42.97 42.98 42.96 43.24 43.30 43.16 43.45 43.92 43.66 43.20 42.36 38.22 31.87 32.02 36.93 40.81 36.78 33.80 27.51 25.45 25.87 26.38 29.81 29.36 28.90 27.72 31.96 25.34 25.60 27.90 25.72 25.51 22.99 24.97 23.58 21.98 20.99 25.11 29.06 29.48 30.24 30.39 30.26 29.39 28.54 28.73 28.52 28.64 27.30 25.56 25.39 26.31 26.11 24.97
43.01 43.09 42.99 42.63 43.16 43.31 43.54 43.45 42.63 39.32 37.44 36.69 36.05 38.03 36.94 34.62 29.40 25.62 22.34 25.87 25.78 25.75 27.56 26.80 28.34 30.21 30.97 32.31 27.11 27.76 25.73 25.06 22.88 26.07 22.48 16.13 20.85 26.10 27.71 28.49 28.61 29.20 29.61 29.97 29.21 27.31 26.95 27.46 26.89 26.61 26.03 24.90 23.69 21.54
42.74 42.92 42.90 42.14 42.56 43.00 42.83 42.99 42.45 41.62 41.52 38.24 35.26 31.60 29.83 25.62 15.81 16.33 14.85 21.45 20.62 26.34 27.82 27.68 26.11 28.48 29.21 28.96 24.81 24.82 18.08 16.90 25.48 13.52 16.28 20.86 27.12 28.61 29.85 30.11 29.16 28.68 28.59 27.83 27.01 27.39 27.20 26.98 27.32 26.55 24.07 21.95 20.33 18.60
42.45 42.37 42.40 42.44 41.96 41.41 41.25 42.07 42.50 41.21 36.50 29.51 26.28 16.87 19.22 16.20 24.95 26.34 26.31 24.03 26.45 25.69 28.78 27.86 25.51 25.62 24.69 23.51 21.53 17.50 20.22 21.27 10.70 10.73 16.34 25.84 28.48 29.89 30.52 30.47 29.39 25.46 24.91 25.04 24.06 24.49 24.29 25.35 25.24 24.43 22.44 20.65 18.78 16.47
41.93 41.64 41.38 41.19 40.95 41.63 42.38 42.79 42.27 38.34 32.62 27.47 26.78 18.46 22.18 27.96 29.21 30.03 30.73 29.47 26.97 27.21 28.43 26.25 25.16 25.72 21.27 17.69 19.73 19.65 15.66 9.58 13.57 10.74 21.76 29.28 30.45 29.83 29.69 28.73 21.37 19.52 19.73 20.81 23.21 23.74 23.20 22.85 22.18 20.82 21.34 20.72 19.08 16.91
41.21 39.71 38.12 40.79 41.39 41.96 41.60 40.01 37.92 36.49 32.79 29.21 27.87 24.51 25.17 23.99 27.76 31.10 30.57 27.96 32.21 27.01 26.83 27.46 23.34 18.69 18.46 20.26 17.90 13.35 15.68 10.24 12.94 24.54 28.76 30.70 30.50 30.01 30.83 29.44 24.31 18.78 19.13 21.30 22.16 23.50 23.26 22.05 20.91 19.31 19.34 18.77 18.03 17.17
39.28 33.46 39.90 40.89 41.10 41.32 41.55 35.78 33.69 30.77 28.52 27.79 26.50 27.71 21.01 23.99 27.86 29.71 30.56 29.97 30.24 28.89 22.68 24.95 18.24 20.47 22.91 18.62 20.07 23.98 17.27 21.96 26.05 27.92 28.97 29.48 29.84 29.78 28.82 26.21 21.96 19.32 21.54 21.33 21.31 22.26 20.63 19.69 19.45 18.98 16.96 17.62 18.14 17.21
34.33 35.90 40.44 41.37 39.52 38.40 36.64 34.12 29.50 28.91 26.86 26.34 24.08 27.12 26.01 26.20 28.21 29.29 29.15 28.11 28.99 27.37 26.65 24.61 24.56 19.93 9.61 17.64 22.48 25.11 25.72 26.48 27.53 27.89 27.53 27.44 27.00 25.68 24.31 23.76 23.21 21.50 20.47 20.28 20.48 20.15 19.79 19.76 20.03 19.57 18.53 18.90 17.71 16.62
35.91 37.37 40.72 41.27 38.28 34.31 29.76 30.43 31.22 25.56 25.61 26.75 26.36 25.98 24.02 23.79 28.35 28.11 27.62 26.92 29.32 30.09 27.82 26.28 22.06 21.90 21.46 27.53 25.86 26.14 26.02 26.26 25.61 25.61 25.62 26.29 26.29 24.47 20.64 22.31 22.08 21.72 21.45 21.02 21.56 20.88 21.46 22.68 21.38 20.15 19.57 18.92 16.78 16.91
40.74 40.82 41.26 40.96 39.61 32.04 28.90 28.20 31.88 27.38 22.76 25.37 25.38 23.09 23.68 24.42 28.18 26.22 25.54 28.04 28.72 28.36 26.72 22.98 24.50 28.21 24.21 28.49 29.13 28.35 27.94 27.83 26.35 23.98 23.04 23.93 24.52 24.06 22.15 22.22 21.73 22.77 22.56 23.09 22.46 22.02 21.76 20.69 20.80 20.59 19.90 18.84 16.81 16.73
37.28 36.74 38.91 37.18 34.23 33.33 30.23 28.03 27.14 27.33 26.72 23.68 24.77 24.67 23.10 25.72 22.98 22.58 24.13 27.38 25.98 26.50 24.21 26.97 28.03 29.18 29.13 27.82 30.32 29.57 28.72 28.54 26.57 21.49 19.55 21.51 24.46 24.18 22.73 23.03 23.07 22.75 21.82 20.93 20.05 20.74 20.68 19.61 19.68 19.83 17.98 17.06 15.37 15.64
34.34 39.09 33.46 34.26 28.79 29.58 27.52 28.32 26.68 26.33 25.82 25.76 26.56 26.64 19.79 14.68 17.35 21.26 26.15 22.27 24.67 26.66 26.29 29.53 29.14 29.45 29.15 30.04 29.94 30.08 27.52 28.62 27.92 25.54 22.86 21.95 20.83 22.72 21.52 19.32 20.97 16.16 18.04 18.78 20.15 19.08 19.57 20.01 20.00 18.95 16.50 13.38 16.03 15.37
36.86 34.74 30.37 28.83 22.97 20.47 22.58 28.47 25.51 26.83 19.48 21.11 25.65 23.32 20.97 19.17 22.62 28.67 20.30 22.85 24.78 27.26 29.24 30.23 31.10 31.59 29.85 29.67 29.86 30.26 30.58 29.71 27.53 25.58 23.09 18.61 18.19 15.74 18.60 18.08 17.54 16.30 16.99 18.25 20.55 19.66 19.68 20.60 20.11 19.65 18.65 18.44 18.58 16.70
34.57 29.14 22.33 20.31 21.73 14.91 21.74 21.87 26.08 26.07 25.12 23.81 22.29 19.21 22.81 23.97 26.73 22.80 19.73 23.26 22.15 23.79 28.14 28.01 29.42 28.45 29.09 29.28 27.00 25.84 28.47 28.96 26.87 25.71 26.11 23.17 18.97 18.91 21.24 22.34 21.34 20.13 20.53 20.85 20.56 19.67 20.49 20.21 19.81 19.61 20.03 19.02 17.59 15.97
17.94 17.31 16.59 10.46 17.59 14.23 12.56 15.32 21.21 20.09 13.83 19.95 18.35 17.78 22.24 25.99 19.70 12.83 17.99 23.90 25.56 26.63 27.11 27.49 27.25 27.78 26.29 25.92 26.30 26.72 28.26 29.05 27.17 25.62 26.35 26.92 25.48 25.55 24.51 24.43 22.46 21.03 21.80 19.15 17.06 19.13 19.38 18.95 18.43 18.25 17.89 17.31 15.35 13.99
8.59 12.02 14.74 12.36 12.01 14.90 15.95 11.08 9.16 11.79 12.15 11.52 14.67 23.93 24.96 19.84 9.11 10.95 22.68 22.44 27.18 26.78 26.93 26.94 26.37 26.28 26.80 28.04 26.05 25.87 26.74 29.54 29.17 26.23 26.75 28.26 27.20 25.81 23.03 18.90 18.07 17.53 21.01 21.80 19.45 18.44 19.22 18.14 17.34 16.48 16.02 15.81 14.64 11.62
8.41 10.57 21.66 25.96 24.81 23.68 15.42 15.51 21.28 14.27 9.36 9.65 12.04 15.97 6.78 5.61 6.10 20.66 26.10 26.66 25.46 26.20 28.06 28.07 28.28 27.67 27.42 26.22 26.06 25.45 25.08 24.38 23.43 24.66 23.04 23.89 23.67 24.63 23.22 20.88 18.49 19.72 21.91 22.83 22.06 20.54 19.37 18.22 17.65 17.26 15.93 15.85 13.75 12.61
16.95 17.49 10.48 13.24 15.78 18.21 10.85 8.91 9.51 10.93 12.39 21.05 16.21 8.82 10.18 11.98 16.19 25.71 25.13 26.75 27.65 27.62 26.90 26.91 27.43 27.35 26.17 24.79 23.80 23.58 22.69 21.50 22.21 19.34 21.00 20.54 17.69 15.73 16.22 15.74 18.19 23.57 23.80 24.03 23.09 22.39 21.48 19.99 19.16 17.83 16.53 14.91 13.84 12.75
14.93 15.98 17.62 8.28 9.00 12.43 11.77 16.37 13.95 22.78 26.03 20.48 11.39 10.75 22.11 26.18 27.12 26.36 25.61 26.25 27.59 27.32 25.87 25.43 24.90 25.68 25.13 24.12 24.29 23.65 23.84 23.30 18.35 12.04 10.55 10.57 11.66 16.81 10.55 14.20 24.50 21.88 21.16 23.67 23.79 23.51 22.38 21.82 20.68 19.60 18.35 15.71 13.11 10.64
14.47 15.25 12.11 3.18 6.76 10.12 12.09 24.68 23.80 20.96 25.69 26.28 24.69 24.35 25.37 25.65 26.02 26.53 26.85 26.67 25.29 25.44 25.77 26.15 25.89 24.79 23.06 22.83 21.80 21.45 24.20 23.74 21.17 15.91 14.43 11.79 12.05 12.67 17.97 25.43 25.75 24.93 25.01 23.86 21.50 20.64 19.83 16.19 15.33 12.79 10.29 8.16 6.56 3.91
19.64 10.65 10.51 8.98 7.73 17.10 23.99 25.21 25.79 25.71 25.30 25.72 26.42 25.21 25.11 24.37 23.81 22.24 21.90 22.17 24.38 27.15 26.90 25.22 24.68 25.53 24.59 23.59 22.86 22.08 21.98 21.18 18.35 13.17 11.77 11.87 15.45 17.17 20.72 24.04 25.19 23.62 20.05 17.45 16.79 15.38 14.17 12.98 11.50 9.71 8.30 6.54 4.61 3.29
23.53 16.37 7.22 12.22 17.90 22.76 24.28 22.65 23.77 20.44 12.81 10.92 12.91 24.75 24.70 24.12 23.06 20.87 19.26 21.26 23.44 24.72 24.97 26.07 25.67 25.10 26.82 26.27 26.49 25.91 21.81 10.81 10.22 11.31 14.03 12.31 10.91 10.01 16.68 20.31 21.36 20.12 16.98 15.76 15.05 13.97 12.64 10.87 9.51 7.74 5.46 4.08 2.10 0.07
7.63 10.18 15.51 13.40 11.15 18.86 22.06 17.39 8.00 6.82 6.13 5.31 6.90 7.21 10.75 12.12 11.41 8.19 8.64 16.04 19.46 21.02 21.03 21.79 22.87 25.82 26.46 27.28 27.18 26.70 24.20 21.26 16.24 21.26 19.75 16.40 14.05 13.52 14.09 15.61 16.06 15.60 14.67 13.30 12.61 11.49 10.25 8.61 7.04 5.30 3.34 1.52 -0.83 -2.13

GFSWCAN_sfc_wetblb_120.txt.gz
Wetbulb
39.40 39.45 39.58 39.73 40.12 40.54 40.96 40.95 40.99 41.25 41.63 42.32 43.12 43.68 43.83 44.06 44.42 41.47 38.60 40.32 36.16 33.13 33.87 35.71 37.00 34.81 35.83 32.79 27.77 33.26 33.51 33.16 31.53 27.83 27.06 26.31 23.21 25.97 25.31 23.89 26.84 25.63 23.89 22.86 24.20 20.48 14.81 30.71 31.04 24.63 24.88 25.86 26.31 25.78
38.89 39.09 39.38 39.62 39.96 40.35 40.77 40.37 40.86 41.07 40.89 42.01 42.26 42.85 43.35 43.66 44.04 42.59 33.88 40.20 40.70 35.63 35.24 39.55 38.39 38.13 38.78 37.90 33.04 34.27 30.35 29.72 30.20 28.79 29.41 29.43 28.17 25.23 23.97 19.49 28.61 23.59 22.31 19.35 23.12 20.29 25.30 29.00 28.05 27.67 27.63 24.46 22.24 23.32
38.80 38.97 39.03 39.20 39.74 40.25 40.15 40.99 42.92 43.09 43.22 41.70 42.11 41.96 42.76 43.36 43.88 42.40 35.65 38.62 37.79 34.88 34.41 36.01 34.71 38.45 40.35 39.89 40.52 33.94 34.40 34.16 32.14 34.16 29.70 28.30 28.08 28.06 24.76 21.71 25.32 27.20 28.44 20.43 22.78 23.86 25.90 28.19 28.09 27.64 26.88 25.07 23.79 25.23
38.57 38.72 38.97 39.23 39.67 40.15 40.53 41.28 41.62 41.17 42.84 42.93 42.10 42.48 42.28 43.13 43.82 43.06 38.25 40.58 39.05 36.86 30.03 29.22 39.43 37.24 41.27 41.75 41.73 40.50 37.66 38.44 36.74 36.86 32.21 31.51 29.64 31.68 25.30 26.04 24.63 27.27 28.24 25.69 23.83 26.64 28.23 28.67 28.44 27.03 25.13 24.70 23.81 23.97
38.25 38.58 39.33 40.43 40.55 40.44 40.75 41.33 41.21 41.49 42.57 43.52 43.69 43.64 43.53 43.87 44.26 42.54 41.84 41.99 42.76 36.82 28.72 29.60 35.93 39.62 41.32 41.71 40.68 41.57 39.19 36.86 35.38 31.33 29.91 27.71 30.28 27.86 26.88 26.86 24.40 29.80 27.18 25.52 23.85 28.83 27.36 26.62 27.40 27.50 24.83 23.74 23.39 21.92
38.48 39.62 40.27 40.50 40.14 40.24 40.33 40.91 40.87 41.35 41.89 43.50 43.90 44.47 44.66 44.65 44.72 40.06 32.15 39.62 42.42 42.33 31.96 28.45 36.29 36.02 39.23 39.99 40.48 38.51 37.14 33.72 33.22 30.69 28.88 29.89 33.53 29.15 22.99 24.86 29.49 31.80 31.21 30.84 27.03 29.90 28.47 28.63 28.17 27.84 25.32 24.36 24.36 23.37
39.51 39.59 39.55 39.57 39.86 40.09 39.99 40.68 40.84 41.13 41.95 43.90 44.20 44.76 44.80 44.91 42.21 35.84 33.69 38.04 43.06 41.50 32.30 28.83 29.66 35.02 38.22 38.70 37.09 35.52 35.91 33.79 30.76 27.74 27.28 28.73 29.72 32.71 29.28 25.82 29.17 28.68 28.97 28.93 29.25 28.71 26.76 27.37 26.43 27.62 25.83 25.15 26.30 23.69
38.70 39.93 39.94 42.88 43.51 44.25 41.55 41.18 42.00 41.61 42.73 44.34 44.16 42.97 43.65 44.23 42.76 38.61 38.57 43.35 43.27 37.50 32.90 27.07 27.98 30.05 35.75 31.04 30.67 33.15 30.34 30.09 28.97 26.70 27.84 27.37 28.94 30.16 27.67 28.78 27.38 27.74 28.14 28.31 28.80 28.91 28.40 28.01 27.32 26.37 25.97 24.29 23.15 22.62
41.19 40.28 43.34 44.02 43.43 43.86 43.80 42.17 42.11 42.85 44.30 44.36 43.72 44.05 41.67 39.68 36.52 38.45 43.46 43.50 40.33 37.20 27.54 25.40 22.45 20.32 31.25 28.97 29.64 28.96 29.20 25.00 29.40 26.89 26.94 27.79 24.78 23.00 27.08 28.74 27.05 27.67 27.60 27.37 27.66 27.60 27.44 26.33 25.08 25.17 24.53 23.98 22.94 22.51
42.52 42.43 43.01 43.42 43.89 43.79 43.58 43.57 44.06 44.36 44.64 44.10 41.17 36.96 32.14 37.81 42.97 42.29 38.51 34.53 34.00 32.90 30.40 23.55 26.40 23.22 28.37 24.39 25.97 26.72 26.95 25.33 23.86 25.84 27.66 24.51 22.26 28.63 29.71 29.52 28.57 28.75 28.36 28.19 25.47 25.11 25.88 25.47 25.00 24.82 24.27 24.48 24.31 23.87
42.97 43.10 42.78 42.89 43.28 43.79 43.84 43.94 43.84 43.68 42.66 36.30 31.25 32.13 37.84 42.29 36.59 33.15 25.88 25.83 25.08 25.41 27.68 27.48 28.22 26.90 31.43 25.54 25.48 27.39 25.28 25.06 21.96 24.37 23.05 21.71 21.95 26.10 28.81 28.78 29.22 29.91 28.79 28.17 28.17 28.58 28.33 27.71 25.89 25.18 24.64 25.10 25.03 24.58
43.52 43.36 43.40 43.66 43.18 43.19 42.88 42.81 41.92 38.52 34.86 34.56 37.41 38.45 36.73 33.87 28.80 26.13 22.31 25.79 25.02 25.52 27.03 27.08 28.16 29.80 29.52 31.01 27.24 26.85 25.19 24.36 22.17 24.18 21.13 16.08 21.22 26.89 28.21 28.67 28.88 28.26 28.32 27.61 28.19 27.66 27.80 27.81 26.89 26.07 25.83 25.49 25.24 22.90
42.28 42.95 42.85 42.83 42.66 42.38 42.91 42.27 42.25 42.25 40.70 37.82 34.82 30.01 28.86 25.25 16.96 16.75 14.50 21.21 20.56 26.57 27.14 27.28 25.36 27.78 28.09 28.56 24.56 24.59 17.94 17.29 25.47 14.56 17.08 19.46 26.19 26.99 27.03 27.34 27.09 27.62 27.85 26.88 26.15 26.59 27.09 26.64 26.81 25.99 24.64 23.34 20.92 19.05
42.57 42.62 42.37 42.15 42.27 42.56 42.83 42.52 42.21 39.91 35.71 30.39 27.57 18.91 20.00 15.63 23.18 23.42 24.98 23.87 28.13 25.77 27.83 26.99 24.71 24.83 24.28 22.89 20.71 17.74 20.15 21.51 12.08 10.92 14.50 18.86 26.52 26.63 27.63 28.01 27.16 24.34 23.64 24.27 22.90 22.72 22.30 24.13 23.34 23.68 22.66 21.58 19.07 17.12
41.92 42.01 41.48 41.09 42.15 42.93 42.92 43.25 42.35 37.64 31.95 27.53 26.67 19.71 22.99 27.33 28.70 30.16 30.71 30.54 29.43 26.47 26.19 25.27 24.99 24.97 20.64 17.69 20.10 20.11 16.39 9.59 12.96 9.01 17.81 28.20 27.74 27.12 28.97 27.93 20.37 17.71 16.45 17.20 17.64 19.22 19.88 23.20 22.32 20.28 21.34 20.76 19.27 17.27
40.75 39.07 37.16 41.31 42.02 42.83 41.97 40.33 36.74 34.60 31.13 28.57 27.80 25.11 24.77 25.29 29.12 30.96 29.67 28.38 28.70 25.78 26.51 26.97 22.69 19.35 19.11 20.39 17.72 12.98 14.41 8.49 11.38 23.33 28.12 30.37 28.83 29.06 28.62 25.65 15.21 17.62 18.58 18.70 16.37 19.42 20.27 21.43 21.59 20.37 20.24 19.48 18.92 18.09
38.69 32.25 40.06 41.75 41.71 41.90 41.18 35.37 33.63 30.96 27.18 26.84 22.52 26.37 21.78 23.45 26.57 27.88 29.00 26.56 29.13 27.86 21.19 25.09 19.18 21.01 22.34 17.88 19.06 22.32 17.92 20.33 25.46 28.08 29.35 30.29 29.62 29.97 27.31 22.35 19.14 16.60 19.26 20.51 18.51 20.25 19.84 20.43 19.75 19.30 17.55 18.04 18.80 18.47
31.64 34.06 40.96 41.85 39.24 38.00 35.54 33.60 29.69 28.77 25.98 24.75 21.73 23.83 24.16 24.96 27.46 25.29 27.55 28.10 29.50 27.44 26.94 25.06 24.44 18.56 8.97 16.61 21.51 24.76 25.29 26.29 27.17 27.34 27.51 27.62 27.74 27.55 28.49 25.82 24.11 22.71 20.89 19.70 19.16 19.68 19.64 20.08 20.20 19.77 19.03 19.00 17.91 17.23
36.27 38.46 41.16 41.41 38.43 32.94 28.89 29.54 30.72 24.60 23.55 23.91 25.78 26.42 26.85 27.87 26.92 29.10 27.09 27.70 29.72 29.80 27.51 25.88 21.88 22.66 23.77 26.90 25.82 25.74 25.80 26.41 25.37 25.09 25.55 26.26 26.36 24.15 20.75 21.63 22.85 22.97 21.78 20.39 21.18 20.58 21.72 22.97 21.78 20.25 19.52 19.17 17.01 17.19
40.25 40.45 40.59 40.77 38.81 30.26 28.19 27.69 31.12 26.89 23.03 23.52 24.19 22.83 23.69 25.27 26.71 22.70 25.24 27.69 28.62 27.97 25.75 23.00 24.19 27.67 25.94 28.02 28.98 27.94 27.99 27.72 26.13 23.97 22.98 23.68 24.51 23.86 21.79 21.43 20.94 22.33 22.29 23.00 22.41 22.23 21.62 20.74 21.05 20.57 19.90 19.31 17.48 16.86
36.84 36.43 38.34 36.36 32.58 31.45 28.02 26.97 25.73 26.23 25.16 21.90 23.58 24.17 22.18 25.16 24.47 21.61 23.83 26.93 25.46 26.55 23.61 26.98 27.53 28.44 28.77 28.70 29.89 29.66 28.68 28.66 26.88 23.79 21.38 22.11 24.22 24.37 23.32 22.12 22.42 22.37 21.25 20.88 20.47 20.93 20.73 19.47 19.77 20.02 19.24 18.63 19.00 19.12
33.86 38.58 32.19 33.16 28.81 29.04 26.81 27.26 25.82 25.61 24.58 24.87 24.71 25.93 19.37 14.49 16.51 19.42 25.24 22.16 24.91 27.01 28.46 28.77 28.97 29.29 28.77 29.64 29.45 28.64 26.65 27.26 26.85 22.59 19.82 21.45 21.70 20.49 21.44 19.29 20.78 17.34 18.66 18.63 20.49 19.83 19.54 20.38 20.41 19.54 17.30 15.98 17.01 16.53
35.67 33.81 29.32 27.96 22.70 20.08 22.16 27.47 24.01 25.54 17.38 19.66 23.84 20.17 17.12 14.50 19.83 26.43 17.73 21.95 25.99 25.88 25.57 29.47 30.87 31.44 29.54 29.60 29.95 29.94 29.92 28.80 26.63 25.27 22.55 17.17 16.76 12.92 17.30 17.56 18.10 15.06 14.86 16.88 19.84 19.61 18.99 19.75 18.88 17.12 16.75 16.93 16.32 14.53
32.89 27.30 21.24 19.26 20.47 13.82 20.27 20.41 25.20 25.40 23.37 21.43 20.36 18.27 20.00 23.18 25.22 19.96 19.27 23.11 22.83 22.78 28.08 28.09 29.36 28.62 29.59 29.65 27.19 27.31 28.10 28.70 26.39 25.18 25.36 21.62 17.37 17.97 18.52 18.88 18.31 17.71 17.98 18.90 19.06 18.89 19.31 17.73 18.11 17.18 17.00 16.51 15.93 14.67
18.24 15.51 14.80 9.42 16.53 14.29 12.28 14.94 16.69 19.17 15.09 18.73 15.55 17.24 21.86 25.06 13.12 11.47 18.24 24.00 25.01 26.40 26.32 27.04 26.97 27.30 25.90 25.64 25.98 26.69 27.69 28.38 26.61 25.06 25.43 25.37 24.07 21.21 22.30 23.25 20.19 20.21 19.66 16.39 15.10 15.36 15.27 17.16 17.80 18.26 18.11 17.28 15.75 15.24
7.41 11.14 13.25 11.58 10.62 14.46 15.39 11.72 9.99 12.51 11.42 13.23 15.99 23.31 24.13 12.63 9.01 11.51 20.65 16.13 26.61 26.18 27.02 27.07 26.13 25.98 26.53 27.66 25.75 25.02 24.95 28.57 27.86 23.73 25.86 27.18 26.31 25.05 23.33 16.31 14.91 17.20 17.24 17.79 16.33 15.51 14.87 15.50 17.20 17.17 17.00 16.38 15.49 13.33
6.44 9.64 20.34 25.17 23.39 22.60 13.98 14.17 20.10 13.38 9.43 10.13 12.06 15.33 7.68 5.26 6.53 16.97 25.45 26.01 25.58 26.37 27.66 27.70 27.83 27.11 26.97 26.02 25.42 24.30 24.45 24.57 23.72 23.45 20.72 23.03 23.16 24.06 22.87 19.01 17.22 19.27 19.78 18.82 17.98 16.93 16.26 16.06 15.90 16.19 15.06 14.94 13.90 12.65
15.17 15.98 10.02 12.05 13.61 16.47 9.04 7.71 8.54 9.71 11.32 19.40 14.78 8.24 9.21 10.54 13.67 24.14 24.74 26.22 27.31 27.29 26.52 26.34 26.85 27.02 25.90 24.30 22.29 22.09 21.94 22.57 22.70 19.60 20.44 20.95 18.46 14.44 14.88 13.97 14.43 21.05 21.52 21.47 20.51 20.19 19.59 18.31 17.37 15.76 14.52 13.12 13.09 12.23
13.71 14.13 15.87 7.08 7.09 9.39 13.63 15.49 16.29 22.96 25.83 20.08 9.63 9.94 16.56 25.34 25.99 25.42 25.23 26.27 27.24 26.72 25.57 23.78 22.53 25.13 24.59 23.92 23.94 23.42 23.41 23.54 17.81 12.44 12.51 10.35 9.67 16.39 11.27 13.12 17.26 11.46 17.73 21.92 22.63 22.22 20.57 20.24 19.13 17.57 16.30 14.34 12.65 10.79
13.00 13.50 10.32 1.30 5.82 9.51 15.41 23.81 23.05 22.67 25.07 25.92 25.17 25.06 24.70 24.75 24.93 25.64 26.56 26.40 25.10 24.63 25.30 25.54 25.16 24.43 23.42 23.29 22.30 22.69 23.65 23.38 22.75 16.16 11.63 9.72 12.34 10.36 21.56 24.93 24.91 24.41 23.59 22.56 22.05 22.47 22.55 18.92 16.80 13.66 11.52 9.77 8.51 6.75
16.82 8.73 9.26 7.44 6.43 6.15 21.13 24.56 25.27 25.24 24.69 21.11 24.35 22.14 24.14 23.60 23.25 22.04 22.48 22.89 24.71 26.23 25.99 24.67 24.66 25.38 24.29 23.52 23.16 22.42 21.65 24.01 24.27 21.93 10.15 7.23 5.00 17.27 23.80 25.62 24.54 23.23 21.16 19.60 18.14 17.60 15.99 15.13 13.31 10.80 9.20 7.62 6.55 5.75
19.89 11.86 7.35 13.40 18.43 21.77 23.60 22.49 22.74 20.62 10.58 10.00 18.52 22.13 23.07 23.05 22.05 21.38 19.12 20.70 22.36 24.35 26.26 26.25 25.03 24.81 25.23 25.18 25.82 25.46 23.04 16.25 10.03 16.38 16.38 6.90 6.95 8.53 13.93 18.65 18.35 17.13 16.41 16.03 15.68 14.93 13.68 12.34 11.49 10.42 8.13 6.01 4.75 4.02
10.55 6.93 6.72 8.00 8.20 18.86 21.26 17.06 8.28 5.45 2.39 2.40 2.49 3.51 15.86 18.74 12.75 9.51 7.47 7.71 14.72 21.68 21.69 20.89 22.16 23.45 24.71 25.88 26.21 26.15 24.19 20.38 12.05 14.57 12.16 14.22 10.49 13.29 17.88 16.06 16.65 16.39 14.72 13.73 13.01 12.40 10.64 9.52 8.32 7.07 6.01 4.38 2.29 1.40